<?xml version='1.0' encoding='UTF-8'?><gpx version="1.1" creator="JPX - https://github.com/jenetics/jpx" xmlns="http://www.topografix.com/GPX/1/1"><trk><trkseg><trkpt lat="43.4219708" lon="11.1811231"><ele>174.0</ele><time>2026-04-04T06:23:36.267Z</time></trkpt><trkpt lat="43.4220327" lon="11.1811613"><ele>174.0</ele><time>2026-04-04T06:23:48.282Z</time></trkpt><trkpt lat="43.4221033" lon="11.1811731"><ele>174.0</ele><time>2026-04-04T06:23:57.28Z</time></trkpt><trkpt lat="43.4221755" lon="11.1811482"><ele>174.0</ele><time>2026-04-04T06:24:01.28Z</time></trkpt><trkpt lat="43.4222399" lon="11.1811091"><ele>174.0</ele><time>2026-04-04T06:24:04.266Z</time></trkpt><trkpt lat="43.4222944" lon="11.1811648"><ele>174.0</ele><time>2026-04-04T06:24:09.271Z</time></trkpt><trkpt lat="43.4223111" lon="11.181252"><ele>174.0</ele><time>2026-04-04T06:24:12.263Z</time></trkpt><trkpt lat="43.4223268" lon="11.1813495"><ele>173.33333333333334</ele><time>2026-04-04T06:24:15.277Z</time></trkpt><trkpt lat="43.4223398" lon="11.1814506"><ele>172.66666666666666</ele><time>2026-04-04T06:24:18.278Z</time></trkpt><trkpt lat="43.4223551" lon="11.1815658"><ele>172.0</ele><time>2026-04-04T06:24:21.296Z</time></trkpt><trkpt lat="43.4223292" lon="11.181655"><ele>171.33333333333331</ele><time>2026-04-04T06:24:24.269Z</time></trkpt><trkpt lat="43.4222818" lon="11.1817456"><ele>170.66666666666666</ele><time>2026-04-04T06:24:27.274Z</time></trkpt><trkpt lat="43.4222277" lon="11.1818095"><ele>170.0</ele><time>2026-04-04T06:24:30.27Z</time></trkpt><trkpt lat="43.4221663" lon="11.181869"><ele>170.5</ele><time>2026-04-04T06:24:33.267Z</time></trkpt><trkpt lat="43.4221197" lon="11.1819377"><ele>171.0</ele><time>2026-04-04T06:24:36.325Z</time></trkpt><trkpt lat="43.4220738" lon="11.1820072"><ele>171.5</ele><time>2026-04-04T06:24:40.275Z</time></trkpt><trkpt lat="43.4220644" lon="11.1820998"><ele>172.0</ele><time>2026-04-04T06:24:43.277Z</time></trkpt><trkpt lat="43.4220911" lon="11.1822199"><ele>172.5</ele><time>2026-04-04T06:24:46.263Z</time></trkpt><trkpt lat="43.4221321" lon="11.182323"><ele>173.0</ele><time>2026-04-04T06:24:49.263Z</time></trkpt><trkpt lat="43.4221713" lon="11.1824254"><ele>173.0</ele><time>2026-04-04T06:24:52.263Z</time></trkpt><trkpt lat="43.4222116" lon="11.1825313"><ele>173.0</ele><time>2026-04-04T06:24:55.314Z</time></trkpt><trkpt lat="43.4222352" lon="11.1826143"><ele>173.0</ele><time>2026-04-04T06:25:02.291Z</time></trkpt><trkpt lat="43.4223031" lon="11.1826453"><ele>173.0</ele><time>2026-04-04T06:25:05.282Z</time></trkpt><trkpt lat="43.422377" lon="11.1825935"><ele>173.0</ele><time>2026-04-04T06:25:08.357Z</time></trkpt><trkpt lat="43.4224407" lon="11.1825443"><ele>173.0</ele><time>2026-04-04T06:25:10.283Z</time></trkpt><trkpt lat="43.4224978" lon="11.182506"><ele>173.0</ele><time>2026-04-04T06:25:12.266Z</time></trkpt><trkpt lat="43.4225729" lon="11.1824473"><ele>173.0</ele><time>2026-04-04T06:25:15.282Z</time></trkpt><trkpt lat="43.4226537" lon="11.1823828"><ele>173.0</ele><time>2026-04-04T06:25:18.356Z</time></trkpt><trkpt lat="43.4227373" lon="11.1823408"><ele>173.0</ele><time>2026-04-04T06:25:21.27Z</time></trkpt><trkpt lat="43.4228074" lon="11.1823307"><ele>173.0</ele><time>2026-04-04T06:25:24.279Z</time></trkpt><trkpt lat="43.4228722" lon="11.1823583"><ele>173.0</ele><time>2026-04-04T06:25:27.353Z</time></trkpt><trkpt lat="43.4229455" lon="11.1823875"><ele>173.0</ele><time>2026-04-04T06:25:29.286Z</time></trkpt><trkpt lat="43.423073" lon="11.1824331"><ele>172.57142857142856</ele><time>2026-04-04T06:25:31.302Z</time></trkpt><trkpt lat="43.4231303" lon="11.1824761"><ele>172.14285714285717</ele><time>2026-04-04T06:25:32.366Z</time></trkpt><trkpt lat="43.4231989" lon="11.1825414"><ele>171.71428571428572</ele><time>2026-04-04T06:25:34.282Z</time></trkpt><trkpt lat="43.4232413" lon="11.1826084"><ele>171.28571428571428</ele><time>2026-04-04T06:25:36.285Z</time></trkpt><trkpt lat="43.4232945" lon="11.1826838"><ele>170.85714285714283</ele><time>2026-04-04T06:25:39.272Z</time></trkpt><trkpt lat="43.423364" lon="11.1827149"><ele>170.42857142857144</ele><time>2026-04-04T06:25:43.374Z</time></trkpt><trkpt lat="43.4234368" lon="11.1827035"><ele>170.0</ele><time>2026-04-04T06:25:46.287Z</time></trkpt><trkpt lat="43.4235039" lon="11.1827033"><ele>170.0</ele><time>2026-04-04T06:25:48.285Z</time></trkpt><trkpt lat="43.4235711" lon="11.1827151"><ele>170.0</ele><time>2026-04-04T06:25:50.3Z</time></trkpt><trkpt lat="43.4236454" lon="11.1827257"><ele>170.0</ele><time>2026-04-04T06:25:52.295Z</time></trkpt><trkpt lat="43.4237316" lon="11.1827244"><ele>170.0</ele><time>2026-04-04T06:25:55.267Z</time></trkpt><trkpt lat="43.4238054" lon="11.1827196"><ele>170.0</ele><time>2026-04-04T06:25:58.267Z</time></trkpt><trkpt lat="43.423869" lon="11.1827339"><ele>170.0</ele><time>2026-04-04T06:26:00.299Z</time></trkpt><trkpt lat="43.4239335" lon="11.1827482"><ele>170.0</ele><time>2026-04-04T06:26:02.287Z</time></trkpt><trkpt lat="43.424007" lon="11.1827742"><ele>169.16666666666666</ele><time>2026-04-04T06:26:05.286Z</time></trkpt><trkpt lat="43.4240822" lon="11.1827859"><ele>168.33333333333331</ele><time>2026-04-04T06:26:09.278Z</time></trkpt><trkpt lat="43.424178" lon="11.1827794"><ele>167.5</ele><time>2026-04-04T06:26:12.362Z</time></trkpt><trkpt lat="43.4242575" lon="11.182785"><ele>166.66666666666666</ele><time>2026-04-04T06:26:14.353Z</time></trkpt><trkpt lat="43.424337" lon="11.182803"><ele>165.83333333333334</ele><time>2026-04-04T06:26:16.291Z</time></trkpt><trkpt lat="43.4244273" lon="11.1828014"><ele>165.0</ele><time>2026-04-04T06:26:19.267Z</time></trkpt><trkpt lat="43.4244911" lon="11.1828158"><ele>165.00000000000003</ele><time>2026-04-04T06:26:21.299Z</time></trkpt><trkpt lat="43.4245583" lon="11.182831"><ele>165.0</ele><time>2026-04-04T06:26:23.353Z</time></trkpt><trkpt lat="43.4246296" lon="11.1828284"><ele>165.0</ele><time>2026-04-04T06:26:25.296Z</time></trkpt><trkpt lat="43.4246587" lon="11.1827467"><ele>165.0</ele><time>2026-04-04T06:26:28.293Z</time></trkpt><trkpt lat="43.4246422" lon="11.1826461"><ele>165.0</ele><time>2026-04-04T06:26:31.292Z</time></trkpt><trkpt lat="43.4246251" lon="11.1825493"><ele>165.00000000000003</ele><time>2026-04-04T06:26:34.367Z</time></trkpt><trkpt lat="43.4246551" lon="11.1826331"><ele>165.0</ele><time>2026-04-04T06:26:39.28Z</time></trkpt><trkpt lat="43.4246914" lon="11.1827359"><ele>164.16666666666666</ele><time>2026-04-04T06:26:42.372Z</time></trkpt><trkpt lat="43.4247363" lon="11.1828463"><ele>163.33333333333334</ele><time>2026-04-04T06:26:45.289Z</time></trkpt><trkpt lat="43.4247908" lon="11.1828948"><ele>162.5</ele><time>2026-04-04T06:26:47.288Z</time></trkpt><trkpt lat="43.4248591" lon="11.1829641"><ele>161.66666666666669</ele><time>2026-04-04T06:26:50.291Z</time></trkpt><trkpt lat="43.4249025" lon="11.1830367"><ele>160.83333333333334</ele><time>2026-04-04T06:26:52.37Z</time></trkpt><trkpt lat="43.4249599" lon="11.1831217"><ele>160.0</ele><time>2026-04-04T06:26:55.29Z</time></trkpt><trkpt lat="43.4250102" lon="11.1831951"><ele>160.0</ele><time>2026-04-04T06:26:57.361Z</time></trkpt><trkpt lat="43.4250916" lon="11.1832515"><ele>160.0</ele><time>2026-04-04T06:27:00.307Z</time></trkpt><trkpt lat="43.4251476" lon="11.1833041"><ele>160.0</ele><time>2026-04-04T06:27:02.356Z</time></trkpt><trkpt lat="43.4252306" lon="11.1833349"><ele>160.0</ele><time>2026-04-04T06:27:05.284Z</time></trkpt><trkpt lat="43.4252881" lon="11.1832937"><ele>160.0</ele><time>2026-04-04T06:27:07.283Z</time></trkpt><trkpt lat="43.4253273" lon="11.1832105"><ele>160.0</ele><time>2026-04-04T06:27:09.278Z</time></trkpt><trkpt lat="43.4253826" lon="11.1831256"><ele>160.0</ele><time>2026-04-04T06:27:11.285Z</time></trkpt><trkpt lat="43.4254256" lon="11.1830319"><ele>160.0</ele><time>2026-04-04T06:27:13.291Z</time></trkpt><trkpt lat="43.4254625" lon="11.1829346"><ele>160.0</ele><time>2026-04-04T06:27:15.289Z</time></trkpt><trkpt lat="43.4255149" lon="11.1828386"><ele>160.0</ele><time>2026-04-04T06:27:17.364Z</time></trkpt><trkpt lat="43.4255533" lon="11.1827355"><ele>160.0</ele><time>2026-04-04T06:27:19.271Z</time></trkpt><trkpt lat="43.4256217" lon="11.1826157"><ele>160.0</ele><time>2026-04-04T06:27:21.283Z</time></trkpt><trkpt lat="43.4256583" lon="11.1825358"><ele>157.0</ele><time>2026-04-04T06:27:22.287Z</time></trkpt><trkpt lat="43.4256924" lon="11.18246"><ele>154.0</ele><time>2026-04-04T06:27:23.285Z</time></trkpt><trkpt lat="43.4257591" lon="11.1823316"><ele>151.0</ele><time>2026-04-04T06:27:25.289Z</time></trkpt><trkpt lat="43.4258186" lon="11.1822144"><ele>148.0</ele><time>2026-04-04T06:27:27.358Z</time></trkpt><trkpt lat="43.4258886" lon="11.1821286"><ele>145.0</ele><time>2026-04-04T06:27:29.279Z</time></trkpt><trkpt lat="43.4259674" lon="11.1820963"><ele>145.0</ele><time>2026-04-04T06:27:31.292Z</time></trkpt><trkpt lat="43.4260584" lon="11.1821196"><ele>145.0</ele><time>2026-04-04T06:27:33.367Z</time></trkpt><trkpt lat="43.4261488" lon="11.1821298"><ele>145.0</ele><time>2026-04-04T06:27:35.29Z</time></trkpt><trkpt lat="43.4262406" lon="11.1821371"><ele>145.0</ele><time>2026-04-04T06:27:37.271Z</time></trkpt><trkpt lat="43.4263338" lon="11.182153"><ele>145.0</ele><time>2026-04-04T06:27:39.273Z</time></trkpt><trkpt lat="43.4264144" lon="11.1821531"><ele>144.71428571428572</ele><time>2026-04-04T06:27:41.284Z</time></trkpt><trkpt lat="43.4264954" lon="11.1821425"><ele>144.42857142857144</ele><time>2026-04-04T06:27:43.358Z</time></trkpt><trkpt lat="43.4265642" lon="11.1821141"><ele>144.14285714285714</ele><time>2026-04-04T06:27:45.29Z</time></trkpt><trkpt lat="43.4266279" lon="11.1820815"><ele>143.85714285714286</ele><time>2026-04-04T06:27:47.362Z</time></trkpt><trkpt lat="43.4267121" lon="11.1820712"><ele>143.57142857142856</ele><time>2026-04-04T06:27:49.289Z</time></trkpt><trkpt lat="43.4267827" lon="11.182037"><ele>143.28571428571428</ele><time>2026-04-04T06:27:52.285Z</time></trkpt><trkpt lat="43.4268441" lon="11.1819961"><ele>143.0</ele><time>2026-04-04T06:27:55.306Z</time></trkpt><trkpt lat="43.4269379" lon="11.1819558"><ele>143.0</ele><time>2026-04-04T06:27:57.29Z</time></trkpt><trkpt lat="43.4270173" lon="11.1819293"><ele>143.0</ele><time>2026-04-04T06:28:01.355Z</time></trkpt><trkpt lat="43.4270842" lon="11.1819219"><ele>143.0</ele><time>2026-04-04T06:28:03.291Z</time></trkpt><trkpt lat="43.4271453" lon="11.1818961"><ele>143.0</ele><time>2026-04-04T06:28:05.286Z</time></trkpt><trkpt lat="43.427229" lon="11.1818533"><ele>143.0</ele><time>2026-04-04T06:28:08.35Z</time></trkpt><trkpt lat="43.4273104" lon="11.181824"><ele>143.0</ele><time>2026-04-04T06:28:12.276Z</time></trkpt><trkpt lat="43.4273716" lon="11.1817524"><ele>142.99999999999997</ele><time>2026-04-04T06:28:15.277Z</time></trkpt><trkpt lat="43.4274505" lon="11.1816924"><ele>143.0</ele><time>2026-04-04T06:28:18.363Z</time></trkpt><trkpt lat="43.4275284" lon="11.1816692"><ele>143.0</ele><time>2026-04-04T06:28:21.298Z</time></trkpt><trkpt lat="43.4275521" lon="11.1815768"><ele>143.0</ele><time>2026-04-04T06:28:28.372Z</time></trkpt><trkpt lat="43.4274986" lon="11.1815257"><ele>143.0</ele><time>2026-04-04T06:28:33.294Z</time></trkpt><trkpt lat="43.4274929" lon="11.1814365"><ele>142.99999999999997</ele><time>2026-04-04T06:28:55.289Z</time></trkpt><trkpt lat="43.4275076" lon="11.1813467"><ele>143.0</ele><time>2026-04-04T06:28:59.282Z</time></trkpt><trkpt lat="43.4275329" lon="11.1812507"><ele>143.0</ele><time>2026-04-04T06:29:02.288Z</time></trkpt><trkpt lat="43.427589" lon="11.181181"><ele>143.0</ele><time>2026-04-04T06:29:05.295Z</time></trkpt><trkpt lat="43.4276435" lon="11.1811008"><ele>143.0</ele><time>2026-04-04T06:29:08.354Z</time></trkpt><trkpt lat="43.4276937" lon="11.1810141"><ele>143.0</ele><time>2026-04-04T06:29:11.285Z</time></trkpt><trkpt lat="43.4277723" lon="11.180955"><ele>143.0</ele><time>2026-04-04T06:29:14.278Z</time></trkpt><trkpt lat="43.4278044" lon="11.180855"><ele>143.0</ele><time>2026-04-04T06:29:17.277Z</time></trkpt><trkpt lat="43.4278208" lon="11.180747"><ele>143.16666666666666</ele><time>2026-04-04T06:29:20.281Z</time></trkpt><trkpt lat="43.4278261" lon="11.1806527"><ele>143.33333333333331</ele><time>2026-04-04T06:29:23.287Z</time></trkpt><trkpt lat="43.4278477" lon="11.1805341"><ele>143.5</ele><time>2026-04-04T06:29:26.307Z</time></trkpt><trkpt lat="43.4278723" lon="11.1804488"><ele>143.66666666666666</ele><time>2026-04-04T06:29:28.295Z</time></trkpt><trkpt lat="43.4279112" lon="11.1803769"><ele>143.83333333333334</ele><time>2026-04-04T06:29:30.29Z</time></trkpt><trkpt lat="43.4279566" lon="11.1802999"><ele>144.0</ele><time>2026-04-04T06:29:32.3Z</time></trkpt><trkpt lat="43.4280057" lon="11.1801983"><ele>144.0</ele><time>2026-04-04T06:29:34.286Z</time></trkpt><trkpt lat="43.4280618" lon="11.1800962"><ele>144.0</ele><time>2026-04-04T06:29:36.299Z</time></trkpt><trkpt lat="43.4281256" lon="11.1799928"><ele>144.0</ele><time>2026-04-04T06:29:38.287Z</time></trkpt><trkpt lat="43.428205" lon="11.1799073"><ele>144.0</ele><time>2026-04-04T06:29:40.285Z</time></trkpt><trkpt lat="43.428289" lon="11.1798477"><ele>144.0</ele><time>2026-04-04T06:29:42.265Z</time></trkpt><trkpt lat="43.4283678" lon="11.179836"><ele>142.66666666666666</ele><time>2026-04-04T06:29:44.27Z</time></trkpt><trkpt lat="43.4284333" lon="11.1798036"><ele>141.33333333333334</ele><time>2026-04-04T06:29:46.284Z</time></trkpt><trkpt lat="43.428503" lon="11.179748"><ele>140.0</ele><time>2026-04-04T06:29:49.294Z</time></trkpt><trkpt lat="43.4285554" lon="11.1796732"><ele>138.66666666666669</ele><time>2026-04-04T06:29:52.303Z</time></trkpt><trkpt lat="43.4286512" lon="11.1796447"><ele>137.33333333333334</ele><time>2026-04-04T06:29:55.298Z</time></trkpt><trkpt lat="43.4287156" lon="11.1795793"><ele>136.0</ele><time>2026-04-04T06:29:58.353Z</time></trkpt><trkpt lat="43.4287635" lon="11.1794949"><ele>136.0</ele><time>2026-04-04T06:30:02.357Z</time></trkpt><trkpt lat="43.4287981" lon="11.1794147"><ele>136.0</ele><time>2026-04-04T06:30:05.285Z</time></trkpt><trkpt lat="43.4288637" lon="11.1793211"><ele>136.0</ele><time>2026-04-04T06:30:08.276Z</time></trkpt><trkpt lat="43.4289156" lon="11.1792548"><ele>136.0</ele><time>2026-04-04T06:30:10.277Z</time></trkpt><trkpt lat="43.4289606" lon="11.1791753"><ele>136.0</ele><time>2026-04-04T06:30:12.287Z</time></trkpt><trkpt lat="43.4289888" lon="11.1790799"><ele>136.0</ele><time>2026-04-04T06:30:14.286Z</time></trkpt><trkpt lat="43.429023" lon="11.1789899"><ele>135.33333333333334</ele><time>2026-04-04T06:30:16.278Z</time></trkpt><trkpt lat="43.4290931" lon="11.178893"><ele>134.66666666666669</ele><time>2026-04-04T06:30:19.294Z</time></trkpt><trkpt lat="43.4291201" lon="11.1787858"><ele>134.0</ele><time>2026-04-04T06:30:21.29Z</time></trkpt><trkpt lat="43.4291508" lon="11.1786875"><ele>133.33333333333334</ele><time>2026-04-04T06:30:23.288Z</time></trkpt><trkpt lat="43.4291445" lon="11.1785702"><ele>132.66666666666666</ele><time>2026-04-04T06:30:25.303Z</time></trkpt><trkpt lat="43.429172" lon="11.1784646"><ele>132.0</ele><time>2026-04-04T06:30:27.288Z</time></trkpt><trkpt lat="43.4292041" lon="11.178364"><ele>132.0</ele><time>2026-04-04T06:30:29.281Z</time></trkpt><trkpt lat="43.4292395" lon="11.1782612"><ele>132.0</ele><time>2026-04-04T06:30:31.294Z</time></trkpt><trkpt lat="43.4292735" lon="11.1781562"><ele>132.0</ele><time>2026-04-04T06:30:33.279Z</time></trkpt><trkpt lat="43.4293069" lon="11.1780517"><ele>132.0</ele><time>2026-04-04T06:30:35.266Z</time></trkpt><trkpt lat="43.4293389" lon="11.1779565"><ele>132.0</ele><time>2026-04-04T06:30:37.293Z</time></trkpt><trkpt lat="43.4293837" lon="11.1778519"><ele>132.0</ele><time>2026-04-04T06:30:39.29Z</time></trkpt><trkpt lat="43.4294333" lon="11.1777626"><ele>132.0</ele><time>2026-04-04T06:30:41.29Z</time></trkpt><trkpt lat="43.4294792" lon="11.1776995"><ele>132.0</ele><time>2026-04-04T06:30:43.359Z</time></trkpt><trkpt lat="43.429556" lon="11.1776684"><ele>132.0</ele><time>2026-04-04T06:30:47.276Z</time></trkpt><trkpt lat="43.4296904" lon="11.1776453"><ele>132.0</ele><time>2026-04-04T06:30:50.292Z</time></trkpt><trkpt lat="43.4297923" lon="11.1776109"><ele>132.0</ele><time>2026-04-04T06:30:52.287Z</time></trkpt><trkpt lat="43.4298826" lon="11.1775802"><ele>131.83333333333334</ele><time>2026-04-04T06:30:54.361Z</time></trkpt><trkpt lat="43.4299685" lon="11.1775713"><ele>131.66666666666666</ele><time>2026-04-04T06:30:56.285Z</time></trkpt><trkpt lat="43.430032" lon="11.1775978"><ele>131.5</ele><time>2026-04-04T06:30:58.297Z</time></trkpt><trkpt lat="43.4301004" lon="11.1776365"><ele>131.33333333333331</ele><time>2026-04-04T06:31:00.27Z</time></trkpt><trkpt lat="43.4301827" lon="11.1776781"><ele>131.16666666666666</ele><time>2026-04-04T06:31:02.358Z</time></trkpt><trkpt lat="43.4302504" lon="11.1777059"><ele>131.0</ele><time>2026-04-04T06:31:04.287Z</time></trkpt><trkpt lat="43.4303139" lon="11.1777495"><ele>131.0</ele><time>2026-04-04T06:31:06.299Z</time></trkpt><trkpt lat="43.4303777" lon="11.1777886"><ele>131.0</ele><time>2026-04-04T06:31:08.286Z</time></trkpt><trkpt lat="43.4304471" lon="11.1778219"><ele>131.0</ele><time>2026-04-04T06:31:10.295Z</time></trkpt><trkpt lat="43.4305179" lon="11.1778633"><ele>131.0</ele><time>2026-04-04T06:31:12.291Z</time></trkpt><trkpt lat="43.4305861" lon="11.1779118"><ele>131.0</ele><time>2026-04-04T06:31:14.276Z</time></trkpt><trkpt lat="43.4306567" lon="11.177968"><ele>131.0</ele><time>2026-04-04T06:31:16.271Z</time></trkpt><trkpt lat="43.430728" lon="11.1780233"><ele>131.2</ele><time>2026-04-04T06:31:18.362Z</time></trkpt><trkpt lat="43.4307922" lon="11.1780738"><ele>131.39999999999998</ele><time>2026-04-04T06:31:20.294Z</time></trkpt><trkpt lat="43.430859" lon="11.1781256"><ele>131.6</ele><time>2026-04-04T06:31:22.36Z</time></trkpt><trkpt lat="43.4310339" lon="11.1782378"><ele>131.79999999999998</ele><time>2026-04-04T06:31:26.264Z</time></trkpt><trkpt lat="43.431127" lon="11.1782474"><ele>132.0</ele><time>2026-04-04T06:31:29.267Z</time></trkpt><trkpt lat="43.4311879" lon="11.1783205"><ele>132.0</ele><time>2026-04-04T06:31:31.289Z</time></trkpt><trkpt lat="43.4312486" lon="11.1783806"><ele>132.0</ele><time>2026-04-04T06:31:33.283Z</time></trkpt><trkpt lat="43.4313247" lon="11.1784336"><ele>132.0</ele><time>2026-04-04T06:31:35.274Z</time></trkpt><trkpt lat="43.4314174" lon="11.1784772"><ele>132.0</ele><time>2026-04-04T06:31:37.281Z</time></trkpt><trkpt lat="43.4315023" lon="11.1785216"><ele>132.0</ele><time>2026-04-04T06:31:39.271Z</time></trkpt><trkpt lat="43.4315817" lon="11.1785636"><ele>132.0</ele><time>2026-04-04T06:31:41.28Z</time></trkpt><trkpt lat="43.4316453" lon="11.1785918"><ele>132.16666666666666</ele><time>2026-04-04T06:31:43.288Z</time></trkpt><trkpt lat="43.4317106" lon="11.1786352"><ele>132.33333333333334</ele><time>2026-04-04T06:31:45.273Z</time></trkpt><trkpt lat="43.4317865" lon="11.1786962"><ele>132.5</ele><time>2026-04-04T06:31:47.296Z</time></trkpt><trkpt lat="43.4318408" lon="11.1787475"><ele>132.66666666666669</ele><time>2026-04-04T06:31:49.277Z</time></trkpt><trkpt lat="43.4318897" lon="11.1788028"><ele>132.83333333333334</ele><time>2026-04-04T06:31:51.288Z</time></trkpt><trkpt lat="43.4319669" lon="11.1788716"><ele>133.0</ele><time>2026-04-04T06:31:56.286Z</time></trkpt><trkpt lat="43.4320235" lon="11.1789262"><ele>133.0</ele><time>2026-04-04T06:31:58.269Z</time></trkpt><trkpt lat="43.4320872" lon="11.1789645"><ele>133.0</ele><time>2026-04-04T06:32:00.28Z</time></trkpt><trkpt lat="43.4321629" lon="11.1789926"><ele>133.0</ele><time>2026-04-04T06:32:02.372Z</time></trkpt><trkpt lat="43.4322544" lon="11.1790018"><ele>133.0</ele><time>2026-04-04T06:32:04.36Z</time></trkpt><trkpt lat="43.4323421" lon="11.1790289"><ele>133.0</ele><time>2026-04-04T06:32:06.297Z</time></trkpt><trkpt lat="43.4324113" lon="11.1790522"><ele>133.0</ele><time>2026-04-04T06:32:08.353Z</time></trkpt><trkpt lat="43.4326329" lon="11.1790854"><ele>133.4</ele><time>2026-04-04T06:32:15.283Z</time></trkpt><trkpt lat="43.4327567" lon="11.1789264"><ele>133.8</ele><time>2026-04-04T06:32:19.29Z</time></trkpt><trkpt lat="43.4328219" lon="11.1788483"><ele>134.2</ele><time>2026-04-04T06:32:21.289Z</time></trkpt><trkpt lat="43.4328911" lon="11.1787723"><ele>134.6</ele><time>2026-04-04T06:32:23.282Z</time></trkpt><trkpt lat="43.4329615" lon="11.1787241"><ele>135.0</ele><time>2026-04-04T06:32:25.293Z</time></trkpt><trkpt lat="43.4330489" lon="11.1786871"><ele>133.75</ele><time>2026-04-04T06:32:27.292Z</time></trkpt><trkpt lat="43.4331244" lon="11.1786298"><ele>132.5</ele><time>2026-04-04T06:32:29.28Z</time></trkpt><trkpt lat="43.4332074" lon="11.1786075"><ele>131.25</ele><time>2026-04-04T06:32:31.292Z</time></trkpt><trkpt lat="43.4333189" lon="11.1786283"><ele>130.0</ele><time>2026-04-04T06:32:34.285Z</time></trkpt><trkpt lat="43.4335969" lon="11.178934"><ele>130.00000000000003</ele><time>2026-04-04T06:32:40.261Z</time></trkpt><trkpt lat="43.4336455" lon="11.1788397"><ele>130.0</ele><time>2026-04-04T06:32:43.275Z</time></trkpt><trkpt lat="43.433708" lon="11.1788728"><ele>130.0</ele><time>2026-04-04T06:32:45.299Z</time></trkpt><trkpt lat="43.4337728" lon="11.1788958"><ele>130.0</ele><time>2026-04-04T06:32:47.261Z</time></trkpt><trkpt lat="43.4338446" lon="11.1789047"><ele>130.0</ele><time>2026-04-04T06:32:49.282Z</time></trkpt><trkpt lat="43.433921" lon="11.1789126"><ele>130.00000000000003</ele><time>2026-04-04T06:32:51.286Z</time></trkpt><trkpt lat="43.4340019" lon="11.1789091"><ele>130.0</ele><time>2026-04-04T06:32:53.293Z</time></trkpt><trkpt lat="43.4340831" lon="11.1789046"><ele>129.83333333333334</ele><time>2026-04-04T06:32:55.292Z</time></trkpt><trkpt lat="43.4341636" lon="11.1788982"><ele>129.66666666666669</ele><time>2026-04-04T06:32:57.291Z</time></trkpt><trkpt lat="43.4342426" lon="11.1788866"><ele>129.5</ele><time>2026-04-04T06:32:59.285Z</time></trkpt><trkpt lat="43.4343213" lon="11.178876"><ele>129.33333333333334</ele><time>2026-04-04T06:33:01.277Z</time></trkpt><trkpt lat="43.4344037" lon="11.178856"><ele>129.16666666666666</ele><time>2026-04-04T06:33:03.288Z</time></trkpt><trkpt lat="43.4344882" lon="11.1788248"><ele>129.0</ele><time>2026-04-04T06:33:05.29Z</time></trkpt><trkpt lat="43.434573" lon="11.1788138"><ele>129.16666666666666</ele><time>2026-04-04T06:33:07.292Z</time></trkpt><trkpt lat="43.4346496" lon="11.1788107"><ele>129.33333333333334</ele><time>2026-04-04T06:33:09.293Z</time></trkpt><trkpt lat="43.4347274" lon="11.1787997"><ele>129.5</ele><time>2026-04-04T06:33:11.292Z</time></trkpt><trkpt lat="43.4348173" lon="11.1787792"><ele>129.66666666666669</ele><time>2026-04-04T06:33:13.303Z</time></trkpt><trkpt lat="43.4348934" lon="11.1787562"><ele>129.83333333333334</ele><time>2026-04-04T06:33:14.297Z</time></trkpt><trkpt lat="43.4349934" lon="11.1787336"><ele>130.0</ele><time>2026-04-04T06:33:16.279Z</time></trkpt><trkpt lat="43.4350666" lon="11.1787241"><ele>130.0</ele><time>2026-04-04T06:33:19.297Z</time></trkpt><trkpt lat="43.4351369" lon="11.1787319"><ele>130.0</ele><time>2026-04-04T06:33:21.294Z</time></trkpt><trkpt lat="43.435208" lon="11.1787173"><ele>130.0</ele><time>2026-04-04T06:33:23.365Z</time></trkpt><trkpt lat="43.4352849" lon="11.1787107"><ele>130.0</ele><time>2026-04-04T06:33:25.296Z</time></trkpt><trkpt lat="43.4353643" lon="11.1787053"><ele>130.0</ele><time>2026-04-04T06:33:27.294Z</time></trkpt><trkpt lat="43.4354474" lon="11.1786899"><ele>130.0</ele><time>2026-04-04T06:33:29.27Z</time></trkpt><trkpt lat="43.4355775" lon="11.1786921"><ele>130.8</ele><time>2026-04-04T06:33:32.277Z</time></trkpt><trkpt lat="43.4357597" lon="11.1786668"><ele>131.6</ele><time>2026-04-04T06:33:36.266Z</time></trkpt><trkpt lat="43.4358257" lon="11.1786445"><ele>132.4</ele><time>2026-04-04T06:33:38.282Z</time></trkpt><trkpt lat="43.4359141" lon="11.1786316"><ele>133.2</ele><time>2026-04-04T06:33:40.266Z</time></trkpt><trkpt lat="43.4359934" lon="11.178626"><ele>134.0</ele><time>2026-04-04T06:33:42.308Z</time></trkpt><trkpt lat="43.4360869" lon="11.17862"><ele>134.0</ele><time>2026-04-04T06:33:44.289Z</time></trkpt><trkpt lat="43.4361734" lon="11.1786218"><ele>134.0</ele><time>2026-04-04T06:33:46.293Z</time></trkpt><trkpt lat="43.4362514" lon="11.1786292"><ele>134.0</ele><time>2026-04-04T06:33:48.288Z</time></trkpt><trkpt lat="43.4363325" lon="11.1786335"><ele>134.0</ele><time>2026-04-04T06:33:50.28Z</time></trkpt><trkpt lat="43.4364069" lon="11.1786521"><ele>134.0</ele><time>2026-04-04T06:33:52.282Z</time></trkpt><trkpt lat="43.4364882" lon="11.1786747"><ele>134.0</ele><time>2026-04-04T06:33:54.289Z</time></trkpt><trkpt lat="43.4365683" lon="11.1787059"><ele>133.0</ele><time>2026-04-04T06:33:56.281Z</time></trkpt><trkpt lat="43.4366513" lon="11.1787397"><ele>132.0</ele><time>2026-04-04T06:33:58.289Z</time></trkpt><trkpt lat="43.4367329" lon="11.1787826"><ele>131.0</ele><time>2026-04-04T06:34:00.276Z</time></trkpt><trkpt lat="43.4368017" lon="11.1788309"><ele>130.0</ele><time>2026-04-04T06:34:02.267Z</time></trkpt><trkpt lat="43.4368864" lon="11.1788731"><ele>129.0</ele><time>2026-04-04T06:34:04.279Z</time></trkpt><trkpt lat="43.4369612" lon="11.1789115"><ele>128.0</ele><time>2026-04-04T06:34:06.289Z</time></trkpt><trkpt lat="43.4370432" lon="11.1789443"><ele>127.99999999999999</ele><time>2026-04-04T06:34:08.356Z</time></trkpt><trkpt lat="43.4371208" lon="11.1789776"><ele>128.0</ele><time>2026-04-04T06:34:10.281Z</time></trkpt><trkpt lat="43.4372013" lon="11.1790101"><ele>128.0</ele><time>2026-04-04T06:34:12.287Z</time></trkpt><trkpt lat="43.4372956" lon="11.1790238"><ele>128.0</ele><time>2026-04-04T06:34:14.363Z</time></trkpt><trkpt lat="43.437367" lon="11.1790139"><ele>127.99999999999999</ele><time>2026-04-04T06:34:15.289Z</time></trkpt><trkpt lat="43.4374322" lon="11.17906"><ele>128.0</ele><time>2026-04-04T06:34:17.283Z</time></trkpt><trkpt lat="43.4375042" lon="11.1791063"><ele>127.66666666666666</ele><time>2026-04-04T06:34:19.297Z</time></trkpt><trkpt lat="43.4375808" lon="11.1791438"><ele>127.33333333333333</ele><time>2026-04-04T06:34:21.287Z</time></trkpt><trkpt lat="43.4376667" lon="11.1791727"><ele>127.0</ele><time>2026-04-04T06:34:23.278Z</time></trkpt><trkpt lat="43.4377517" lon="11.1792061"><ele>126.66666666666666</ele><time>2026-04-04T06:34:25.288Z</time></trkpt><trkpt lat="43.4378347" lon="11.1792412"><ele>126.33333333333333</ele><time>2026-04-04T06:34:27.29Z</time></trkpt><trkpt lat="43.4379172" lon="11.1792789"><ele>126.0</ele><time>2026-04-04T06:34:29.29Z</time></trkpt><trkpt lat="43.4379938" lon="11.1793048"><ele>125.85714285714286</ele><time>2026-04-04T06:34:31.297Z</time></trkpt><trkpt lat="43.4380722" lon="11.1793172"><ele>125.71428571428572</ele><time>2026-04-04T06:34:33.288Z</time></trkpt><trkpt lat="43.4381475" lon="11.179312"><ele>125.57142857142857</ele><time>2026-04-04T06:34:35.283Z</time></trkpt><trkpt lat="43.4382118" lon="11.1793062"><ele>125.42857142857143</ele><time>2026-04-04T06:34:37.283Z</time></trkpt><trkpt lat="43.4382849" lon="11.1792889"><ele>125.28571428571429</ele><time>2026-04-04T06:34:39.28Z</time></trkpt><trkpt lat="43.4383615" lon="11.179276"><ele>125.14285714285714</ele><time>2026-04-04T06:34:41.279Z</time></trkpt><trkpt lat="43.4384329" lon="11.1792641"><ele>125.0</ele><time>2026-04-04T06:34:43.277Z</time></trkpt><trkpt lat="43.4385053" lon="11.1792401"><ele>124.99999999999999</ele><time>2026-04-04T06:34:45.28Z</time></trkpt><trkpt lat="43.4385877" lon="11.1792162"><ele>125.0</ele><time>2026-04-04T06:34:47.299Z</time></trkpt><trkpt lat="43.438663" lon="11.1791643"><ele>125.0</ele><time>2026-04-04T06:34:49.284Z</time></trkpt><trkpt lat="43.4387401" lon="11.1790922"><ele>125.0</ele><time>2026-04-04T06:34:51.297Z</time></trkpt><trkpt lat="43.4388108" lon="11.1790097"><ele>124.99999999999999</ele><time>2026-04-04T06:34:53.362Z</time></trkpt><trkpt lat="43.4388758" lon="11.1789151"><ele>125.0</ele><time>2026-04-04T06:34:55.272Z</time></trkpt><trkpt lat="43.4389355" lon="11.1788161"><ele>124.99999999999999</ele><time>2026-04-04T06:34:57.281Z</time></trkpt><trkpt lat="43.438981" lon="11.1787172"><ele>125.0</ele><time>2026-04-04T06:34:59.276Z</time></trkpt><trkpt lat="43.4390486" lon="11.1786137"><ele>125.0</ele><time>2026-04-04T06:35:02.268Z</time></trkpt><trkpt lat="43.4391042" lon="11.1785293"><ele>125.0</ele><time>2026-04-04T06:35:04.367Z</time></trkpt><trkpt lat="43.4391591" lon="11.1784191"><ele>124.99999999999999</ele><time>2026-04-04T06:35:06.292Z</time></trkpt><trkpt lat="43.439216" lon="11.1783367"><ele>125.0</ele><time>2026-04-04T06:35:08.263Z</time></trkpt><trkpt lat="43.4392615" lon="11.1782372"><ele>124.83333333333333</ele><time>2026-04-04T06:35:10.306Z</time></trkpt><trkpt lat="43.4392909" lon="11.1781471"><ele>124.66666666666666</ele><time>2026-04-04T06:35:12.279Z</time></trkpt><trkpt lat="43.439299" lon="11.1780383"><ele>124.5</ele><time>2026-04-04T06:35:15.284Z</time></trkpt><trkpt lat="43.4393013" lon="11.1779197"><ele>124.33333333333334</ele><time>2026-04-04T06:35:18.285Z</time></trkpt><trkpt lat="43.4392857" lon="11.1778018"><ele>124.16666666666667</ele><time>2026-04-04T06:35:21.283Z</time></trkpt><trkpt lat="43.4392758" lon="11.1777047"><ele>124.0</ele><time>2026-04-04T06:35:23.299Z</time></trkpt><trkpt lat="43.4392532" lon="11.1775992"><ele>124.00000000000001</ele><time>2026-04-04T06:35:25.299Z</time></trkpt><trkpt lat="43.4392324" lon="11.177481"><ele>124.0</ele><time>2026-04-04T06:35:27.284Z</time></trkpt><trkpt lat="43.4392086" lon="11.1773676"><ele>124.0</ele><time>2026-04-04T06:35:29.35Z</time></trkpt><trkpt lat="43.439197" lon="11.1772322"><ele>124.0</ele><time>2026-04-04T06:35:31.293Z</time></trkpt><trkpt lat="43.4391834" lon="11.1771247"><ele>124.00000000000001</ele><time>2026-04-04T06:35:33.29Z</time></trkpt><trkpt lat="43.4391692" lon="11.1770128"><ele>124.0</ele><time>2026-04-04T06:35:35.296Z</time></trkpt><trkpt lat="43.4391528" lon="11.1769254"><ele>124.14285714285715</ele><time>2026-04-04T06:35:37.287Z</time></trkpt><trkpt lat="43.4391563" lon="11.1768306"><ele>124.2857142857143</ele><time>2026-04-04T06:35:39.278Z</time></trkpt><trkpt lat="43.439172" lon="11.1767393"><ele>124.42857142857143</ele><time>2026-04-04T06:35:41.286Z</time></trkpt><trkpt lat="43.4391864" lon="11.1766443"><ele>124.57142857142858</ele><time>2026-04-04T06:35:43.273Z</time></trkpt><trkpt lat="43.4392016" lon="11.1765498"><ele>124.71428571428572</ele><time>2026-04-04T06:35:45.285Z</time></trkpt><trkpt lat="43.4392155" lon="11.1764635"><ele>124.85714285714286</ele><time>2026-04-04T06:35:47.351Z</time></trkpt><trkpt lat="43.4392354" lon="11.1763527"><ele>125.0</ele><time>2026-04-04T06:35:49.282Z</time></trkpt><trkpt lat="43.4392498" lon="11.1762682"><ele>124.83333333333333</ele><time>2026-04-04T06:35:51.292Z</time></trkpt><trkpt lat="43.4392762" lon="11.1761395"><ele>124.66666666666666</ele><time>2026-04-04T06:35:54.286Z</time></trkpt><trkpt lat="43.4393031" lon="11.1760389"><ele>124.5</ele><time>2026-04-04T06:35:56.288Z</time></trkpt><trkpt lat="43.4393301" lon="11.1759415"><ele>124.33333333333334</ele><time>2026-04-04T06:35:58.269Z</time></trkpt><trkpt lat="43.4393445" lon="11.1758377"><ele>124.16666666666667</ele><time>2026-04-04T06:36:00.295Z</time></trkpt><trkpt lat="43.4393631" lon="11.1757398"><ele>124.0</ele><time>2026-04-04T06:36:02.282Z</time></trkpt><trkpt lat="43.4393883" lon="11.1756347"><ele>124.00000000000001</ele><time>2026-04-04T06:36:04.297Z</time></trkpt><trkpt lat="43.4394132" lon="11.1755315"><ele>124.0</ele><time>2026-04-04T06:36:06.294Z</time></trkpt><trkpt lat="43.4394475" lon="11.1754281"><ele>124.0</ele><time>2026-04-04T06:36:08.358Z</time></trkpt><trkpt lat="43.4395047" lon="11.1753164"><ele>124.0</ele><time>2026-04-04T06:36:10.285Z</time></trkpt><trkpt lat="43.4395243" lon="11.1752317"><ele>124.00000000000001</ele><time>2026-04-04T06:36:12.287Z</time></trkpt><trkpt lat="43.439549" lon="11.1751239"><ele>124.0</ele><time>2026-04-04T06:36:14.362Z</time></trkpt><trkpt lat="43.4395639" lon="11.1750162"><ele>124.00000000000001</ele><time>2026-04-04T06:36:16.293Z</time></trkpt><trkpt lat="43.439576" lon="11.1749037"><ele>124.0</ele><time>2026-04-04T06:36:18.283Z</time></trkpt><trkpt lat="43.4395877" lon="11.1747841"><ele>124.0</ele><time>2026-04-04T06:36:20.278Z</time></trkpt><trkpt lat="43.4396104" lon="11.1746474"><ele>124.0</ele><time>2026-04-04T06:36:22.304Z</time></trkpt><trkpt lat="43.4396086" lon="11.174555"><ele>124.00000000000001</ele><time>2026-04-04T06:36:24.286Z</time></trkpt><trkpt lat="43.4396" lon="11.1744535"><ele>124.0</ele><time>2026-04-04T06:36:26.284Z</time></trkpt><trkpt lat="43.4395871" lon="11.1743443"><ele>123.83333333333334</ele><time>2026-04-04T06:36:28.372Z</time></trkpt><trkpt lat="43.4395613" lon="11.174238"><ele>123.66666666666667</ele><time>2026-04-04T06:36:30.298Z</time></trkpt><trkpt lat="43.4395353" lon="11.174131"><ele>123.5</ele><time>2026-04-04T06:36:32.297Z</time></trkpt><trkpt lat="43.4395121" lon="11.1740236"><ele>123.33333333333334</ele><time>2026-04-04T06:36:34.284Z</time></trkpt><trkpt lat="43.4394904" lon="11.1739133"><ele>123.16666666666667</ele><time>2026-04-04T06:36:36.29Z</time></trkpt><trkpt lat="43.4394633" lon="11.1737988"><ele>123.0</ele><time>2026-04-04T06:36:38.365Z</time></trkpt><trkpt lat="43.4394268" lon="11.1736955"><ele>123.00000000000001</ele><time>2026-04-04T06:36:40.29Z</time></trkpt><trkpt lat="43.4393947" lon="11.1735979"><ele>123.0</ele><time>2026-04-04T06:36:42.283Z</time></trkpt><trkpt lat="43.4393681" lon="11.1734981"><ele>123.00000000000001</ele><time>2026-04-04T06:36:44.268Z</time></trkpt><trkpt lat="43.439363" lon="11.1733995"><ele>123.00000000000001</ele><time>2026-04-04T06:36:46.29Z</time></trkpt><trkpt lat="43.4393731" lon="11.1733034"><ele>123.0</ele><time>2026-04-04T06:36:48.288Z</time></trkpt><trkpt lat="43.4393833" lon="11.1732042"><ele>123.00000000000001</ele><time>2026-04-04T06:36:50.284Z</time></trkpt><trkpt lat="43.4394261" lon="11.1731328"><ele>123.00000000000001</ele><time>2026-04-04T06:36:52.289Z</time></trkpt><trkpt lat="43.4394813" lon="11.1730564"><ele>122.66666666666667</ele><time>2026-04-04T06:36:54.289Z</time></trkpt><trkpt lat="43.4395422" lon="11.1730045"><ele>122.33333333333334</ele><time>2026-04-04T06:36:56.286Z</time></trkpt><trkpt lat="43.4396166" lon="11.1729619"><ele>122.0</ele><time>2026-04-04T06:36:58.284Z</time></trkpt><trkpt lat="43.4396904" lon="11.1729047"><ele>121.66666666666667</ele><time>2026-04-04T06:37:00.287Z</time></trkpt><trkpt lat="43.4397614" lon="11.1728427"><ele>121.33333333333334</ele><time>2026-04-04T06:37:02.282Z</time></trkpt><trkpt lat="43.4398298" lon="11.1727689"><ele>121.0</ele><time>2026-04-04T06:37:04.286Z</time></trkpt><trkpt lat="43.4398913" lon="11.1726965"><ele>121.00000000000001</ele><time>2026-04-04T06:37:06.296Z</time></trkpt><trkpt lat="43.4399497" lon="11.172627"><ele>121.0</ele><time>2026-04-04T06:37:08.288Z</time></trkpt><trkpt lat="43.4400094" lon="11.1725684"><ele>121.0</ele><time>2026-04-04T06:37:10.282Z</time></trkpt><trkpt lat="43.4400647" lon="11.172506"><ele>121.0</ele><time>2026-04-04T06:37:12.294Z</time></trkpt><trkpt lat="43.4401283" lon="11.1724429"><ele>121.00000000000001</ele><time>2026-04-04T06:37:14.358Z</time></trkpt><trkpt lat="43.4401889" lon="11.1723699"><ele>121.0</ele><time>2026-04-04T06:37:16.281Z</time></trkpt><trkpt lat="43.4402536" lon="11.1722935"><ele>121.4</ele><time>2026-04-04T06:37:18.294Z</time></trkpt><trkpt lat="43.4403215" lon="11.1722113"><ele>121.8</ele><time>2026-04-04T06:37:20.284Z</time></trkpt><trkpt lat="43.4403933" lon="11.1721259"><ele>122.20000000000002</ele><time>2026-04-04T06:37:22.361Z</time></trkpt><trkpt lat="43.4404634" lon="11.1720368"><ele>122.60000000000001</ele><time>2026-04-04T06:37:24.301Z</time></trkpt><trkpt lat="43.4405325" lon="11.1719428"><ele>123.0</ele><time>2026-04-04T06:37:26.283Z</time></trkpt><trkpt lat="43.4405887" lon="11.1718472"><ele>123.0</ele><time>2026-04-04T06:37:28.291Z</time></trkpt><trkpt lat="43.4406264" lon="11.1717406"><ele>123.0</ele><time>2026-04-04T06:37:30.289Z</time></trkpt><trkpt lat="43.4406767" lon="11.1716368"><ele>123.0</ele><time>2026-04-04T06:37:32.278Z</time></trkpt><trkpt lat="43.4407163" lon="11.1715248"><ele>123.0</ele><time>2026-04-04T06:37:34.353Z</time></trkpt><trkpt lat="43.4407476" lon="11.1714154"><ele>123.0</ele><time>2026-04-04T06:37:36.285Z</time></trkpt><trkpt lat="43.4407673" lon="11.1713052"><ele>123.0</ele><time>2026-04-04T06:37:38.286Z</time></trkpt><trkpt lat="43.440784" lon="11.1711856"><ele>123.16666666666667</ele><time>2026-04-04T06:37:40.288Z</time></trkpt><trkpt lat="43.4407904" lon="11.1710677"><ele>123.33333333333334</ele><time>2026-04-04T06:37:42.283Z</time></trkpt><trkpt lat="43.440797" lon="11.1709667"><ele>123.5</ele><time>2026-04-04T06:37:44.276Z</time></trkpt><trkpt lat="43.440819" lon="11.1708425"><ele>123.66666666666667</ele><time>2026-04-04T06:37:46.288Z</time></trkpt><trkpt lat="43.4408255" lon="11.1707385"><ele>123.83333333333334</ele><time>2026-04-04T06:37:48.277Z</time></trkpt><trkpt lat="43.4408289" lon="11.1706321"><ele>124.0</ele><time>2026-04-04T06:37:50.287Z</time></trkpt><trkpt lat="43.4408355" lon="11.1705056"><ele>124.33333333333334</ele><time>2026-04-04T06:37:52.294Z</time></trkpt><trkpt lat="43.4408352" lon="11.1703623"><ele>124.66666666666667</ele><time>2026-04-04T06:37:54.286Z</time></trkpt><trkpt lat="43.4408314" lon="11.1702557"><ele>125.0</ele><time>2026-04-04T06:37:56.282Z</time></trkpt><trkpt lat="43.4407981" lon="11.1701695"><ele>125.33333333333334</ele><time>2026-04-04T06:37:58.281Z</time></trkpt><trkpt lat="43.4407526" lon="11.1700706"><ele>125.66666666666667</ele><time>2026-04-04T06:38:00.283Z</time></trkpt><trkpt lat="43.4407106" lon="11.1699703"><ele>126.0</ele><time>2026-04-04T06:38:02.292Z</time></trkpt><trkpt lat="43.4406733" lon="11.1698622"><ele>125.33333333333333</ele><time>2026-04-04T06:38:04.275Z</time></trkpt><trkpt lat="43.4406426" lon="11.1697612"><ele>124.66666666666666</ele><time>2026-04-04T06:38:06.281Z</time></trkpt><trkpt lat="43.4406087" lon="11.1696602"><ele>124.0</ele><time>2026-04-04T06:38:08.29Z</time></trkpt><trkpt lat="43.4405463" lon="11.1695594"><ele>123.33333333333333</ele><time>2026-04-04T06:38:11.307Z</time></trkpt><trkpt lat="43.4405098" lon="11.1694509"><ele>122.66666666666666</ele><time>2026-04-04T06:38:13.28Z</time></trkpt><trkpt lat="43.4404721" lon="11.1693353"><ele>122.0</ele><time>2026-04-04T06:38:15.279Z</time></trkpt><trkpt lat="43.4404335" lon="11.1692275"><ele>121.99999999999999</ele><time>2026-04-04T06:38:17.348Z</time></trkpt><trkpt lat="43.4404031" lon="11.1691298"><ele>122.0</ele><time>2026-04-04T06:38:19.357Z</time></trkpt><trkpt lat="43.440381" lon="11.1690318"><ele>122.0</ele><time>2026-04-04T06:38:21.29Z</time></trkpt><trkpt lat="43.4403406" lon="11.1689496"><ele>122.0</ele><time>2026-04-04T06:38:23.278Z</time></trkpt><trkpt lat="43.4402977" lon="11.1688568"><ele>121.99999999999999</ele><time>2026-04-04T06:38:25.271Z</time></trkpt><trkpt lat="43.4402505" lon="11.1687672"><ele>122.0</ele><time>2026-04-04T06:38:27.296Z</time></trkpt><trkpt lat="43.4402046" lon="11.1686701"><ele>122.16666666666666</ele><time>2026-04-04T06:38:29.359Z</time></trkpt><trkpt lat="43.4401561" lon="11.1685703"><ele>122.33333333333333</ele><time>2026-04-04T06:38:31.292Z</time></trkpt><trkpt lat="43.4401099" lon="11.1684673"><ele>122.5</ele><time>2026-04-04T06:38:33.292Z</time></trkpt><trkpt lat="43.4400617" lon="11.1683655"><ele>122.66666666666666</ele><time>2026-04-04T06:38:35.289Z</time></trkpt><trkpt lat="43.4400064" lon="11.1682664"><ele>122.83333333333333</ele><time>2026-04-04T06:38:37.356Z</time></trkpt><trkpt lat="43.439955" lon="11.168168"><ele>123.0</ele><time>2026-04-04T06:38:39.35Z</time></trkpt><trkpt lat="43.4399063" lon="11.1680681"><ele>123.83333333333333</ele><time>2026-04-04T06:38:41.284Z</time></trkpt><trkpt lat="43.4398674" lon="11.1679589"><ele>124.66666666666666</ele><time>2026-04-04T06:38:43.355Z</time></trkpt><trkpt lat="43.4398364" lon="11.1678277"><ele>125.5</ele><time>2026-04-04T06:38:45.269Z</time></trkpt><trkpt lat="43.4397993" lon="11.1677242"><ele>126.33333333333333</ele><time>2026-04-04T06:38:47.288Z</time></trkpt><trkpt lat="43.4397471" lon="11.1676531"><ele>127.16666666666666</ele><time>2026-04-04T06:38:49.352Z</time></trkpt><trkpt lat="43.4396899" lon="11.1675653"><ele>128.0</ele><time>2026-04-04T06:38:51.279Z</time></trkpt><trkpt lat="43.4396402" lon="11.1674957"><ele>128.16666666666666</ele><time>2026-04-04T06:38:53.351Z</time></trkpt><trkpt lat="43.4395678" lon="11.1674147"><ele>128.33333333333331</ele><time>2026-04-04T06:38:56.288Z</time></trkpt><trkpt lat="43.4395035" lon="11.1673219"><ele>128.5</ele><time>2026-04-04T06:38:59.354Z</time></trkpt><trkpt lat="43.4394482" lon="11.1672466"><ele>128.66666666666666</ele><time>2026-04-04T06:39:02.288Z</time></trkpt><trkpt lat="43.4393944" lon="11.1671811"><ele>128.83333333333334</ele><time>2026-04-04T06:39:06.267Z</time></trkpt><trkpt lat="43.439325" lon="11.1671077"><ele>129.0</ele><time>2026-04-04T06:39:10.279Z</time></trkpt><trkpt lat="43.4392441" lon="11.1670786"><ele>129.0</ele><time>2026-04-04T06:39:12.282Z</time></trkpt><trkpt lat="43.4391305" lon="11.1670419"><ele>129.0</ele><time>2026-04-04T06:39:14.263Z</time></trkpt><trkpt lat="43.4390165" lon="11.1669843"><ele>129.0</ele><time>2026-04-04T06:39:16.284Z</time></trkpt><trkpt lat="43.438921" lon="11.1668992"><ele>129.0</ele><time>2026-04-04T06:39:18.285Z</time></trkpt><trkpt lat="43.4388416" lon="11.1668151"><ele>128.5</ele><time>2026-04-04T06:39:20.288Z</time></trkpt><trkpt lat="43.438769" lon="11.1667437"><ele>128.0</ele><time>2026-04-04T06:39:22.274Z</time></trkpt><trkpt lat="43.4387017" lon="11.1666932"><ele>127.5</ele><time>2026-04-04T06:39:24.282Z</time></trkpt><trkpt lat="43.4386373" lon="11.1666485"><ele>127.0</ele><time>2026-04-04T06:39:26.297Z</time></trkpt><trkpt lat="43.4385775" lon="11.1666043"><ele>126.5</ele><time>2026-04-04T06:39:28.285Z</time></trkpt><trkpt lat="43.4385214" lon="11.1665616"><ele>126.0</ele><time>2026-04-04T06:39:30.296Z</time></trkpt><trkpt lat="43.4384489" lon="11.1664793"><ele>126.0</ele><time>2026-04-04T06:39:33.344Z</time></trkpt><trkpt lat="43.4383866" lon="11.1663932"><ele>126.0</ele><time>2026-04-04T06:39:36.283Z</time></trkpt><trkpt lat="43.4383332" lon="11.1663205"><ele>126.0</ele><time>2026-04-04T06:39:38.346Z</time></trkpt><trkpt lat="43.4381929" lon="11.1661805"><ele>126.0</ele><time>2026-04-04T06:39:42.281Z</time></trkpt><trkpt lat="43.4381386" lon="11.1660783"><ele>126.0</ele><time>2026-04-04T06:39:44.279Z</time></trkpt><trkpt lat="43.438057" lon="11.1659711"><ele>126.0</ele><time>2026-04-04T06:39:46.284Z</time></trkpt><trkpt lat="43.4379955" lon="11.1658555"><ele>126.0</ele><time>2026-04-04T06:39:48.29Z</time></trkpt><trkpt lat="43.4379389" lon="11.1657352"><ele>126.0</ele><time>2026-04-04T06:39:50.278Z</time></trkpt><trkpt lat="43.4378877" lon="11.1656156"><ele>126.0</ele><time>2026-04-04T06:39:52.275Z</time></trkpt><trkpt lat="43.437826" lon="11.1655006"><ele>126.0</ele><time>2026-04-04T06:39:54.282Z</time></trkpt><trkpt lat="43.4377581" lon="11.1653909"><ele>125.0</ele><time>2026-04-04T06:39:56.283Z</time></trkpt><trkpt lat="43.43769" lon="11.1652788"><ele>124.0</ele><time>2026-04-04T06:39:58.281Z</time></trkpt><trkpt lat="43.4376314" lon="11.1651497"><ele>123.0</ele><time>2026-04-04T06:40:00.294Z</time></trkpt><trkpt lat="43.4375729" lon="11.1650049"><ele>122.0</ele><time>2026-04-04T06:40:02.35Z</time></trkpt><trkpt lat="43.4375233" lon="11.1648651"><ele>122.19999999999999</ele><time>2026-04-04T06:40:04.284Z</time></trkpt><trkpt lat="43.4374756" lon="11.1647326"><ele>122.39999999999999</ele><time>2026-04-04T06:40:06.289Z</time></trkpt><trkpt lat="43.4374421" lon="11.1646023"><ele>122.60000000000001</ele><time>2026-04-04T06:40:08.382Z</time></trkpt><trkpt lat="43.4374129" lon="11.1644806"><ele>122.80000000000001</ele><time>2026-04-04T06:40:10.266Z</time></trkpt><trkpt lat="43.4373857" lon="11.164379"><ele>123.0</ele><time>2026-04-04T06:40:12.272Z</time></trkpt><trkpt lat="43.4373618" lon="11.164272"><ele>123.0</ele><time>2026-04-04T06:40:14.349Z</time></trkpt><trkpt lat="43.4373394" lon="11.164166"><ele>123.00000000000001</ele><time>2026-04-04T06:40:16.278Z</time></trkpt><trkpt lat="43.4373209" lon="11.1640596"><ele>123.00000000000001</ele><time>2026-04-04T06:40:18.356Z</time></trkpt><trkpt lat="43.4373071" lon="11.1639592"><ele>123.0</ele><time>2026-04-04T06:40:20.285Z</time></trkpt><trkpt lat="43.4372301" lon="11.1637816"><ele>123.0</ele><time>2026-04-04T06:40:23.34Z</time></trkpt><trkpt lat="43.4372865" lon="11.1636846"><ele>122.83333333333333</ele><time>2026-04-04T06:40:25.26Z</time></trkpt><trkpt lat="43.4372925" lon="11.1635526"><ele>122.66666666666666</ele><time>2026-04-04T06:40:27.279Z</time></trkpt><trkpt lat="43.4372889" lon="11.1634416"><ele>122.5</ele><time>2026-04-04T06:40:29.347Z</time></trkpt><trkpt lat="43.4372861" lon="11.1633405"><ele>122.33333333333333</ele><time>2026-04-04T06:40:31.301Z</time></trkpt><trkpt lat="43.437282" lon="11.163235"><ele>122.16666666666666</ele><time>2026-04-04T06:40:33.281Z</time></trkpt><trkpt lat="43.4372808" lon="11.1631254"><ele>122.0</ele><time>2026-04-04T06:40:35.299Z</time></trkpt><trkpt lat="43.4372842" lon="11.1630136"><ele>121.99999999999999</ele><time>2026-04-04T06:40:37.29Z</time></trkpt><trkpt lat="43.4372922" lon="11.162909"><ele>122.0</ele><time>2026-04-04T06:40:39.291Z</time></trkpt><trkpt lat="43.4373018" lon="11.1628002"><ele>122.0</ele><time>2026-04-04T06:40:41.294Z</time></trkpt><trkpt lat="43.4373141" lon="11.1626893"><ele>122.0</ele><time>2026-04-04T06:40:43.295Z</time></trkpt><trkpt lat="43.4373242" lon="11.1625869"><ele>121.99999999999999</ele><time>2026-04-04T06:40:45.284Z</time></trkpt><trkpt lat="43.43734" lon="11.1624828"><ele>122.0</ele><time>2026-04-04T06:40:47.296Z</time></trkpt><trkpt lat="43.4373561" lon="11.1623717"><ele>121.66666666666666</ele><time>2026-04-04T06:40:49.282Z</time></trkpt><trkpt lat="43.437373" lon="11.1622615"><ele>121.33333333333333</ele><time>2026-04-04T06:40:51.283Z</time></trkpt><trkpt lat="43.4373896" lon="11.1621504"><ele>121.0</ele><time>2026-04-04T06:40:53.285Z</time></trkpt><trkpt lat="43.4374041" lon="11.1620201"><ele>120.66666666666666</ele><time>2026-04-04T06:40:55.272Z</time></trkpt><trkpt lat="43.4374219" lon="11.1619004"><ele>120.33333333333333</ele><time>2026-04-04T06:40:57.276Z</time></trkpt><trkpt lat="43.437453" lon="11.1617909"><ele>120.0</ele><time>2026-04-04T06:40:59.344Z</time></trkpt><trkpt lat="43.4374915" lon="11.1616628"><ele>120.0</ele><time>2026-04-04T06:41:01.302Z</time></trkpt><trkpt lat="43.4375011" lon="11.1615695"><ele>120.0</ele><time>2026-04-04T06:41:03.28Z</time></trkpt><trkpt lat="43.4375084" lon="11.1614573"><ele>120.0</ele><time>2026-04-04T06:41:05.281Z</time></trkpt><trkpt lat="43.4375164" lon="11.1613402"><ele>120.0</ele><time>2026-04-04T06:41:07.286Z</time></trkpt><trkpt lat="43.4375297" lon="11.1612312"><ele>120.0</ele><time>2026-04-04T06:41:09.275Z</time></trkpt><trkpt lat="43.4375484" lon="11.1611276"><ele>120.0</ele><time>2026-04-04T06:41:11.285Z</time></trkpt><trkpt lat="43.4375681" lon="11.1610151"><ele>120.0</ele><time>2026-04-04T06:41:13.269Z</time></trkpt><trkpt lat="43.4375843" lon="11.1609295"><ele>120.0</ele><time>2026-04-04T06:41:14.27Z</time></trkpt><trkpt lat="43.4376114" lon="11.1608013"><ele>120.0</ele><time>2026-04-04T06:41:16.292Z</time></trkpt><trkpt lat="43.4376366" lon="11.1606807"><ele>120.0</ele><time>2026-04-04T06:41:19.292Z</time></trkpt><trkpt lat="43.4376539" lon="11.1605811"><ele>120.0</ele><time>2026-04-04T06:41:21.286Z</time></trkpt><trkpt lat="43.4376785" lon="11.1604822"><ele>120.0</ele><time>2026-04-04T06:41:23.272Z</time></trkpt><trkpt lat="43.437708" lon="11.1603792"><ele>120.0</ele><time>2026-04-04T06:41:25.275Z</time></trkpt><trkpt lat="43.4377356" lon="11.1602783"><ele>120.0</ele><time>2026-04-04T06:41:27.272Z</time></trkpt><trkpt lat="43.4377657" lon="11.160176"><ele>120.0</ele><time>2026-04-04T06:41:29.28Z</time></trkpt><trkpt lat="43.4378018" lon="11.160073"><ele>120.0</ele><time>2026-04-04T06:41:31.293Z</time></trkpt><trkpt lat="43.4378353" lon="11.1599671"><ele>120.0</ele><time>2026-04-04T06:41:33.281Z</time></trkpt><trkpt lat="43.4378649" lon="11.1598736"><ele>120.0</ele><time>2026-04-04T06:41:35.295Z</time></trkpt><trkpt lat="43.4379101" lon="11.1597721"><ele>120.5</ele><time>2026-04-04T06:41:37.356Z</time></trkpt><trkpt lat="43.437956" lon="11.1597064"><ele>121.0</ele><time>2026-04-04T06:41:38.279Z</time></trkpt><trkpt lat="43.4379879" lon="11.1596218"><ele>121.5</ele><time>2026-04-04T06:41:40.28Z</time></trkpt><trkpt lat="43.4380192" lon="11.1595178"><ele>122.0</ele><time>2026-04-04T06:41:42.272Z</time></trkpt><trkpt lat="43.4380664" lon="11.1593999"><ele>122.5</ele><time>2026-04-04T06:41:44.353Z</time></trkpt><trkpt lat="43.4381311" lon="11.1593309"><ele>123.0</ele><time>2026-04-04T06:41:46.282Z</time></trkpt><trkpt lat="43.438159" lon="11.1592093"><ele>123.0</ele><time>2026-04-04T06:41:48.292Z</time></trkpt><trkpt lat="43.4382072" lon="11.1591123"><ele>123.0</ele><time>2026-04-04T06:41:50.282Z</time></trkpt><trkpt lat="43.4382503" lon="11.159011"><ele>123.0</ele><time>2026-04-04T06:41:52.293Z</time></trkpt><trkpt lat="43.4383055" lon="11.1589269"><ele>123.0</ele><time>2026-04-04T06:41:54.29Z</time></trkpt><trkpt lat="43.4383605" lon="11.158841"><ele>123.0</ele><time>2026-04-04T06:41:56.284Z</time></trkpt><trkpt lat="43.4384084" lon="11.1587487"><ele>123.0</ele><time>2026-04-04T06:41:58.366Z</time></trkpt><trkpt lat="43.4384558" lon="11.1586623"><ele>123.00000000000001</ele><time>2026-04-04T06:42:00.283Z</time></trkpt><trkpt lat="43.4385036" lon="11.1585778"><ele>123.0</ele><time>2026-04-04T06:42:02.273Z</time></trkpt><trkpt lat="43.438556" lon="11.1584932"><ele>123.00000000000001</ele><time>2026-04-04T06:42:04.276Z</time></trkpt><trkpt lat="43.4386043" lon="11.158417"><ele>123.00000000000001</ele><time>2026-04-04T06:42:06.29Z</time></trkpt><trkpt lat="43.4386527" lon="11.158343"><ele>123.0</ele><time>2026-04-04T06:42:08.278Z</time></trkpt><trkpt lat="43.438698" lon="11.1582738"><ele>123.00000000000001</ele><time>2026-04-04T06:42:10.282Z</time></trkpt><trkpt lat="43.4387342" lon="11.1581975"><ele>123.00000000000001</ele><time>2026-04-04T06:42:12.296Z</time></trkpt><trkpt lat="43.4387778" lon="11.1581227"><ele>123.00000000000001</ele><time>2026-04-04T06:42:14.32Z</time></trkpt><trkpt lat="43.4388233" lon="11.1580402"><ele>123.0</ele><time>2026-04-04T06:42:16.276Z</time></trkpt><trkpt lat="43.4388709" lon="11.1579649"><ele>123.00000000000001</ele><time>2026-04-04T06:42:18.27Z</time></trkpt><trkpt lat="43.4389196" lon="11.157899"><ele>123.00000000000001</ele><time>2026-04-04T06:42:20.288Z</time></trkpt><trkpt lat="43.4389659" lon="11.1578194"><ele>123.0</ele><time>2026-04-04T06:42:22.293Z</time></trkpt><trkpt lat="43.4389954" lon="11.1577288"><ele>123.00000000000001</ele><time>2026-04-04T06:42:24.285Z</time></trkpt><trkpt lat="43.4390108" lon="11.15764"><ele>123.00000000000001</ele><time>2026-04-04T06:42:26.291Z</time></trkpt><trkpt lat="43.4390256" lon="11.1575522"><ele>123.0</ele><time>2026-04-04T06:42:28.287Z</time></trkpt><trkpt lat="43.4390362" lon="11.1574571"><ele>123.0</ele><time>2026-04-04T06:42:30.279Z</time></trkpt><trkpt lat="43.4390384" lon="11.1573554"><ele>123.0</ele><time>2026-04-04T06:42:32.265Z</time></trkpt><trkpt lat="43.4390418" lon="11.1572566"><ele>123.0</ele><time>2026-04-04T06:42:34.282Z</time></trkpt><trkpt lat="43.4390557" lon="11.1571514"><ele>123.0</ele><time>2026-04-04T06:42:36.282Z</time></trkpt><trkpt lat="43.4390466" lon="11.1570285"><ele>123.0</ele><time>2026-04-04T06:42:38.274Z</time></trkpt><trkpt lat="43.4390378" lon="11.1568932"><ele>121.80000000000001</ele><time>2026-04-04T06:42:40.282Z</time></trkpt><trkpt lat="43.439024" lon="11.1567695"><ele>120.60000000000001</ele><time>2026-04-04T06:42:42.277Z</time></trkpt><trkpt lat="43.4389946" lon="11.1566476"><ele>119.39999999999999</ele><time>2026-04-04T06:42:44.29Z</time></trkpt><trkpt lat="43.4389566" lon="11.1565338"><ele>118.19999999999999</ele><time>2026-04-04T06:42:46.293Z</time></trkpt><trkpt lat="43.4389194" lon="11.1564204"><ele>117.0</ele><time>2026-04-04T06:42:48.283Z</time></trkpt><trkpt lat="43.438877" lon="11.1563144"><ele>116.8</ele><time>2026-04-04T06:42:50.266Z</time></trkpt><trkpt lat="43.4388386" lon="11.1562313"><ele>116.6</ele><time>2026-04-04T06:42:52.275Z</time></trkpt><trkpt lat="43.4388195" lon="11.1561431"><ele>116.39999999999999</ele><time>2026-04-04T06:42:56.28Z</time></trkpt><trkpt lat="43.4388398" lon="11.1562507"><ele>116.19999999999999</ele><time>2026-04-04T06:43:02.272Z</time></trkpt><trkpt lat="43.4389595" lon="11.1564029"><ele>116.0</ele><time>2026-04-04T06:43:08.352Z</time></trkpt><trkpt lat="43.4389293" lon="11.1564935"><ele>116.16666666666666</ele><time>2026-04-04T06:43:11.286Z</time></trkpt><trkpt lat="43.4389607" lon="11.1565833"><ele>116.33333333333333</ele><time>2026-04-04T06:43:13.281Z</time></trkpt><trkpt lat="43.4389919" lon="11.156695"><ele>116.5</ele><time>2026-04-04T06:43:16.284Z</time></trkpt><trkpt lat="43.4390164" lon="11.1568097"><ele>116.66666666666666</ele><time>2026-04-04T06:43:19.273Z</time></trkpt><trkpt lat="43.4390332" lon="11.1569306"><ele>116.83333333333333</ele><time>2026-04-04T06:43:22.284Z</time></trkpt><trkpt lat="43.4390314" lon="11.1570568"><ele>117.0</ele><time>2026-04-04T06:43:25.283Z</time></trkpt><trkpt lat="43.4390228" lon="11.1571779"><ele>117.0</ele><time>2026-04-04T06:43:28.279Z</time></trkpt><trkpt lat="43.4390194" lon="11.1573045"><ele>117.0</ele><time>2026-04-04T06:43:31.287Z</time></trkpt><trkpt lat="43.4390142" lon="11.1574166"><ele>117.0</ele><time>2026-04-04T06:43:34.29Z</time></trkpt><trkpt lat="43.4390135" lon="11.1575288"><ele>117.0</ele><time>2026-04-04T06:43:37.272Z</time></trkpt><trkpt lat="43.4389816" lon="11.1576314"><ele>117.0</ele><time>2026-04-04T06:43:40.278Z</time></trkpt><trkpt lat="43.4389573" lon="11.1577572"><ele>117.0</ele><time>2026-04-04T06:43:43.27Z</time></trkpt><trkpt lat="43.4389134" lon="11.1578602"><ele>117.83333333333333</ele><time>2026-04-04T06:43:46.277Z</time></trkpt><trkpt lat="43.4388535" lon="11.1579488"><ele>118.66666666666666</ele><time>2026-04-04T06:43:49.288Z</time></trkpt><trkpt lat="43.438789" lon="11.1580393"><ele>119.5</ele><time>2026-04-04T06:43:52.282Z</time></trkpt><trkpt lat="43.4387333" lon="11.1581374"><ele>120.33333333333333</ele><time>2026-04-04T06:43:55.292Z</time></trkpt><trkpt lat="43.4386793" lon="11.1582346"><ele>121.16666666666666</ele><time>2026-04-04T06:43:58.362Z</time></trkpt><trkpt lat="43.438638" lon="11.1583003"><ele>122.0</ele><time>2026-04-04T06:44:00.285Z</time></trkpt><trkpt lat="43.438593" lon="11.1583695"><ele>122.19999999999999</ele><time>2026-04-04T06:44:02.281Z</time></trkpt><trkpt lat="43.4385408" lon="11.1584405"><ele>122.39999999999999</ele><time>2026-04-04T06:44:04.285Z</time></trkpt><trkpt lat="43.438487" lon="11.1585208"><ele>122.60000000000001</ele><time>2026-04-04T06:44:06.275Z</time></trkpt><trkpt lat="43.4384368" lon="11.1586009"><ele>122.80000000000001</ele><time>2026-04-04T06:44:08.347Z</time></trkpt><trkpt lat="43.4383564" lon="11.158765"><ele>123.0</ele><time>2026-04-04T06:44:12.272Z</time></trkpt><trkpt lat="43.4383006" lon="11.158868"><ele>123.0</ele><time>2026-04-04T06:44:15.273Z</time></trkpt><trkpt lat="43.4382498" lon="11.1589568"><ele>123.0</ele><time>2026-04-04T06:44:17.344Z</time></trkpt><trkpt lat="43.4382062" lon="11.159043"><ele>123.0</ele><time>2026-04-04T06:44:19.347Z</time></trkpt><trkpt lat="43.4381615" lon="11.1591375"><ele>123.0</ele><time>2026-04-04T06:44:21.273Z</time></trkpt><trkpt lat="43.4381168" lon="11.1592316"><ele>123.0</ele><time>2026-04-04T06:44:24.351Z</time></trkpt><trkpt lat="43.4380585" lon="11.1593067"><ele>123.0</ele><time>2026-04-04T06:44:26.279Z</time></trkpt><trkpt lat="43.4380378" lon="11.1593897"><ele>123.00000000000001</ele><time>2026-04-04T06:44:28.262Z</time></trkpt><trkpt lat="43.438019" lon="11.1594791"><ele>123.0</ele><time>2026-04-04T06:44:30.26Z</time></trkpt><trkpt lat="43.4379891" lon="11.1595665"><ele>123.00000000000001</ele><time>2026-04-04T06:44:32.288Z</time></trkpt><trkpt lat="43.4379549" lon="11.1596471"><ele>123.00000000000001</ele><time>2026-04-04T06:44:34.289Z</time></trkpt><trkpt lat="43.4379298" lon="11.1597427"><ele>123.0</ele><time>2026-04-04T06:44:36.279Z</time></trkpt><trkpt lat="43.4378875" lon="11.1598474"><ele>123.00000000000001</ele><time>2026-04-04T06:44:39.284Z</time></trkpt><trkpt lat="43.4378539" lon="11.1599258"><ele>123.00000000000001</ele><time>2026-04-04T06:44:41.271Z</time></trkpt><trkpt lat="43.4378226" lon="11.1600083"><ele>122.57142857142858</ele><time>2026-04-04T06:44:43.276Z</time></trkpt><trkpt lat="43.4377907" lon="11.16009"><ele>122.14285714285714</ele><time>2026-04-04T06:44:45.272Z</time></trkpt><trkpt lat="43.4377583" lon="11.1601787"><ele>121.71428571428572</ele><time>2026-04-04T06:44:47.286Z</time></trkpt><trkpt lat="43.4377262" lon="11.1602664"><ele>121.28571428571429</ele><time>2026-04-04T06:44:49.282Z</time></trkpt><trkpt lat="43.437701" lon="11.160364"><ele>120.85714285714286</ele><time>2026-04-04T06:44:51.262Z</time></trkpt><trkpt lat="43.4376785" lon="11.1604539"><ele>120.42857142857143</ele><time>2026-04-04T06:44:53.278Z</time></trkpt><trkpt lat="43.4376525" lon="11.1605496"><ele>120.0</ele><time>2026-04-04T06:44:55.281Z</time></trkpt><trkpt lat="43.4376268" lon="11.1606492"><ele>120.14285714285714</ele><time>2026-04-04T06:44:57.278Z</time></trkpt><trkpt lat="43.4376092" lon="11.160745"><ele>120.28571428571428</ele><time>2026-04-04T06:44:59.285Z</time></trkpt><trkpt lat="43.4375898" lon="11.1608429"><ele>120.42857142857142</ele><time>2026-04-04T06:45:01.283Z</time></trkpt><trkpt lat="43.4375716" lon="11.1609337"><ele>120.57142857142857</ele><time>2026-04-04T06:45:03.345Z</time></trkpt><trkpt lat="43.4375452" lon="11.1610395"><ele>120.7142857142857</ele><time>2026-04-04T06:45:06.285Z</time></trkpt><trkpt lat="43.4375213" lon="11.1611353"><ele>120.85714285714285</ele><time>2026-04-04T06:45:08.349Z</time></trkpt><trkpt lat="43.4375089" lon="11.1612247"><ele>121.0</ele><time>2026-04-04T06:45:10.275Z</time></trkpt><trkpt lat="43.4375011" lon="11.1613196"><ele>121.00000000000001</ele><time>2026-04-04T06:45:12.275Z</time></trkpt><trkpt lat="43.4374875" lon="11.1614294"><ele>121.0</ele><time>2026-04-04T06:45:14.283Z</time></trkpt><trkpt lat="43.4374755" lon="11.1615405"><ele>121.0</ele><time>2026-04-04T06:45:16.291Z</time></trkpt><trkpt lat="43.4374625" lon="11.1616445"><ele>121.0</ele><time>2026-04-04T06:45:18.347Z</time></trkpt><trkpt lat="43.4374533" lon="11.1617491"><ele>121.00000000000001</ele><time>2026-04-04T06:45:20.279Z</time></trkpt><trkpt lat="43.4374335" lon="11.1618419"><ele>121.0</ele><time>2026-04-04T06:45:22.288Z</time></trkpt><trkpt lat="43.4374186" lon="11.1619453"><ele>120.85714285714285</ele><time>2026-04-04T06:45:24.288Z</time></trkpt><trkpt lat="43.4374055" lon="11.1620412"><ele>120.7142857142857</ele><time>2026-04-04T06:45:26.28Z</time></trkpt><trkpt lat="43.4373895" lon="11.162135"><ele>120.57142857142857</ele><time>2026-04-04T06:45:28.266Z</time></trkpt><trkpt lat="43.4373786" lon="11.1622277"><ele>120.42857142857142</ele><time>2026-04-04T06:45:30.266Z</time></trkpt><trkpt lat="43.4373645" lon="11.1623167"><ele>120.28571428571428</ele><time>2026-04-04T06:45:32.278Z</time></trkpt><trkpt lat="43.4373507" lon="11.1624089"><ele>120.14285714285714</ele><time>2026-04-04T06:45:34.279Z</time></trkpt><trkpt lat="43.4373388" lon="11.1625041"><ele>120.0</ele><time>2026-04-04T06:45:36.293Z</time></trkpt><trkpt lat="43.4373282" lon="11.1625973"><ele>120.28571428571429</ele><time>2026-04-04T06:45:38.278Z</time></trkpt><trkpt lat="43.4373069" lon="11.1627022"><ele>120.57142857142856</ele><time>2026-04-04T06:45:40.287Z</time></trkpt><trkpt lat="43.4372842" lon="11.1627969"><ele>120.85714285714285</ele><time>2026-04-04T06:45:42.303Z</time></trkpt><trkpt lat="43.4372796" lon="11.1628861"><ele>121.14285714285714</ele><time>2026-04-04T06:45:44.286Z</time></trkpt><trkpt lat="43.4372749" lon="11.1629735"><ele>121.42857142857142</ele><time>2026-04-04T06:45:46.294Z</time></trkpt><trkpt lat="43.4372724" lon="11.1630642"><ele>121.7142857142857</ele><time>2026-04-04T06:45:48.355Z</time></trkpt><trkpt lat="43.4372728" lon="11.1631835"><ele>121.99999999999999</ele><time>2026-04-04T06:45:51.286Z</time></trkpt><trkpt lat="43.4372781" lon="11.1632788"><ele>121.99999999999999</ele><time>2026-04-04T06:45:53.37Z</time></trkpt><trkpt lat="43.4372815" lon="11.1633748"><ele>122.0</ele><time>2026-04-04T06:45:55.281Z</time></trkpt><trkpt lat="43.4372884" lon="11.1634739"><ele>121.99999999999999</ele><time>2026-04-04T06:45:57.362Z</time></trkpt><trkpt lat="43.4372659" lon="11.1635735"><ele>121.99999999999999</ele><time>2026-04-04T06:45:59.354Z</time></trkpt><trkpt lat="43.4372686" lon="11.1636652"><ele>122.0</ele><time>2026-04-04T06:46:01.284Z</time></trkpt><trkpt lat="43.4372551" lon="11.16375"><ele>121.99999999999999</ele><time>2026-04-04T06:46:04.285Z</time></trkpt><trkpt lat="43.4372547" lon="11.1638747"><ele>121.99999999999999</ele><time>2026-04-04T06:46:07.356Z</time></trkpt><trkpt lat="43.4372844" lon="11.1639887"><ele>122.16666666666666</ele><time>2026-04-04T06:46:09.276Z</time></trkpt><trkpt lat="43.437311" lon="11.1640983"><ele>122.33333333333333</ele><time>2026-04-04T06:46:11.28Z</time></trkpt><trkpt lat="43.4373302" lon="11.1641988"><ele>122.5</ele><time>2026-04-04T06:46:13.286Z</time></trkpt><trkpt lat="43.4373561" lon="11.164295"><ele>122.66666666666666</ele><time>2026-04-04T06:46:15.296Z</time></trkpt><trkpt lat="43.4373826" lon="11.1643856"><ele>122.83333333333333</ele><time>2026-04-04T06:46:17.279Z</time></trkpt><trkpt lat="43.4374052" lon="11.1644834"><ele>123.0</ele><time>2026-04-04T06:46:19.294Z</time></trkpt><trkpt lat="43.4374308" lon="11.1645777"><ele>123.00000000000001</ele><time>2026-04-04T06:46:21.285Z</time></trkpt><trkpt lat="43.4374548" lon="11.1646697"><ele>123.0</ele><time>2026-04-04T06:46:23.291Z</time></trkpt><trkpt lat="43.4374779" lon="11.1647583"><ele>123.00000000000001</ele><time>2026-04-04T06:46:25.286Z</time></trkpt><trkpt lat="43.4375056" lon="11.1648435"><ele>123.00000000000001</ele><time>2026-04-04T06:46:27.301Z</time></trkpt><trkpt lat="43.4375353" lon="11.1649326"><ele>123.0</ele><time>2026-04-04T06:46:29.292Z</time></trkpt><trkpt lat="43.4375727" lon="11.1650284"><ele>123.00000000000001</ele><time>2026-04-04T06:46:31.282Z</time></trkpt><trkpt lat="43.4376133" lon="11.1651246"><ele>123.00000000000001</ele><time>2026-04-04T06:46:33.345Z</time></trkpt><trkpt lat="43.4377213" lon="11.1653962"><ele>122.83333333333333</ele><time>2026-04-04T06:46:39.294Z</time></trkpt><trkpt lat="43.437804" lon="11.1654477"><ele>122.66666666666666</ele><time>2026-04-04T06:46:42.283Z</time></trkpt><trkpt lat="43.4378566" lon="11.1655372"><ele>122.5</ele><time>2026-04-04T06:46:45.279Z</time></trkpt><trkpt lat="43.4379086" lon="11.1656404"><ele>122.33333333333333</ele><time>2026-04-04T06:46:48.269Z</time></trkpt><trkpt lat="43.4379334" lon="11.1657282"><ele>122.16666666666666</ele><time>2026-04-04T06:46:50.284Z</time></trkpt><trkpt lat="43.4379796" lon="11.1658217"><ele>122.0</ele><time>2026-04-04T06:46:53.27Z</time></trkpt><trkpt lat="43.4380155" lon="11.1659107"><ele>122.66666666666666</ele><time>2026-04-04T06:46:55.289Z</time></trkpt><trkpt lat="43.4380564" lon="11.1659955"><ele>123.33333333333333</ele><time>2026-04-04T06:46:57.282Z</time></trkpt><trkpt lat="43.4381099" lon="11.1660751"><ele>124.0</ele><time>2026-04-04T06:46:59.274Z</time></trkpt><trkpt lat="43.4381562" lon="11.1661417"><ele>124.66666666666666</ele><time>2026-04-04T06:47:01.287Z</time></trkpt><trkpt lat="43.438224" lon="11.1662168"><ele>125.33333333333333</ele><time>2026-04-04T06:47:04.293Z</time></trkpt><trkpt lat="43.4382905" lon="11.1662825"><ele>126.0</ele><time>2026-04-04T06:47:07.294Z</time></trkpt><trkpt lat="43.4383556" lon="11.1663555"><ele>126.0</ele><time>2026-04-04T06:47:10.282Z</time></trkpt><trkpt lat="43.4384275" lon="11.1664301"><ele>126.0</ele><time>2026-04-04T06:47:13.284Z</time></trkpt><trkpt lat="43.4384775" lon="11.1664925"><ele>126.0</ele><time>2026-04-04T06:47:16.28Z</time></trkpt><trkpt lat="43.4385439" lon="11.1665643"><ele>126.0</ele><time>2026-04-04T06:47:19.283Z</time></trkpt><trkpt lat="43.4386242" lon="11.1666311"><ele>126.0</ele><time>2026-04-04T06:47:22.286Z</time></trkpt><trkpt lat="43.4386857" lon="11.1666725"><ele>126.0</ele><time>2026-04-04T06:47:24.357Z</time></trkpt><trkpt lat="43.4387639" lon="11.1667537"><ele>126.5</ele><time>2026-04-04T06:47:27.282Z</time></trkpt><trkpt lat="43.4388373" lon="11.1668095"><ele>127.0</ele><time>2026-04-04T06:47:29.348Z</time></trkpt><trkpt lat="43.4389077" lon="11.1668768"><ele>127.5</ele><time>2026-04-04T06:47:31.278Z</time></trkpt><trkpt lat="43.4389804" lon="11.1669449"><ele>128.0</ele><time>2026-04-04T06:47:33.283Z</time></trkpt><trkpt lat="43.4390485" lon="11.1670082"><ele>128.5</ele><time>2026-04-04T06:47:35.258Z</time></trkpt><trkpt lat="43.4391232" lon="11.1670672"><ele>129.0</ele><time>2026-04-04T06:47:37.279Z</time></trkpt><trkpt lat="43.4392077" lon="11.1671063"><ele>128.99999999999997</ele><time>2026-04-04T06:47:39.289Z</time></trkpt><trkpt lat="43.4392896" lon="11.1671261"><ele>129.0</ele><time>2026-04-04T06:47:41.282Z</time></trkpt><trkpt lat="43.4393535" lon="11.1671592"><ele>129.0</ele><time>2026-04-04T06:47:43.279Z</time></trkpt><trkpt lat="43.4394024" lon="11.1672227"><ele>129.0</ele><time>2026-04-04T06:47:46.286Z</time></trkpt><trkpt lat="43.4394552" lon="11.1672954"><ele>129.0</ele><time>2026-04-04T06:47:49.282Z</time></trkpt><trkpt lat="43.4395029" lon="11.1673563"><ele>128.99999999999997</ele><time>2026-04-04T06:47:51.283Z</time></trkpt><trkpt lat="43.4395606" lon="11.1674352"><ele>129.0</ele><time>2026-04-04T06:47:53.285Z</time></trkpt><trkpt lat="43.4396376" lon="11.1675278"><ele>128.8</ele><time>2026-04-04T06:47:55.29Z</time></trkpt><trkpt lat="43.4397182" lon="11.1676282"><ele>128.60000000000002</ele><time>2026-04-04T06:47:57.28Z</time></trkpt><trkpt lat="43.4397894" lon="11.1677196"><ele>128.4</ele><time>2026-04-04T06:47:59.284Z</time></trkpt><trkpt lat="43.4398373" lon="11.1678185"><ele>128.20000000000002</ele><time>2026-04-04T06:48:01.275Z</time></trkpt><trkpt lat="43.4398542" lon="11.1679218"><ele>128.0</ele><time>2026-04-04T06:48:03.267Z</time></trkpt><trkpt lat="43.4398776" lon="11.168028"><ele>127.99999999999999</ele><time>2026-04-04T06:48:05.287Z</time></trkpt><trkpt lat="43.4399102" lon="11.1681273"><ele>128.0</ele><time>2026-04-04T06:48:07.282Z</time></trkpt><trkpt lat="43.439951" lon="11.1682213"><ele>128.0</ele><time>2026-04-04T06:48:09.284Z</time></trkpt><trkpt lat="43.4399916" lon="11.1683244"><ele>128.0</ele><time>2026-04-04T06:48:11.282Z</time></trkpt><trkpt lat="43.4400526" lon="11.1684169"><ele>127.99999999999999</ele><time>2026-04-04T06:48:13.267Z</time></trkpt><trkpt lat="43.4400999" lon="11.1684887"><ele>128.0</ele><time>2026-04-04T06:48:15.277Z</time></trkpt><trkpt lat="43.4401444" lon="11.1685725"><ele>127.28571428571428</ele><time>2026-04-04T06:48:17.281Z</time></trkpt><trkpt lat="43.4401802" lon="11.1686577"><ele>126.57142857142856</ele><time>2026-04-04T06:48:19.279Z</time></trkpt><trkpt lat="43.440218" lon="11.1687455"><ele>125.85714285714286</ele><time>2026-04-04T06:48:21.28Z</time></trkpt><trkpt lat="43.4402547" lon="11.1688264"><ele>125.14285714285714</ele><time>2026-04-04T06:48:23.273Z</time></trkpt><trkpt lat="43.4402916" lon="11.1689093"><ele>124.42857142857143</ele><time>2026-04-04T06:48:25.282Z</time></trkpt><trkpt lat="43.4403305" lon="11.1689901"><ele>123.71428571428572</ele><time>2026-04-04T06:48:27.284Z</time></trkpt><trkpt lat="43.4403689" lon="11.1690678"><ele>123.00000000000001</ele><time>2026-04-04T06:48:29.286Z</time></trkpt><trkpt lat="43.4404024" lon="11.169164"><ele>122.83333333333333</ele><time>2026-04-04T06:48:31.283Z</time></trkpt><trkpt lat="43.4404408" lon="11.1692648"><ele>122.66666666666666</ele><time>2026-04-04T06:48:33.29Z</time></trkpt><trkpt lat="43.4404761" lon="11.1693654"><ele>122.5</ele><time>2026-04-04T06:48:35.276Z</time></trkpt><trkpt lat="43.4405139" lon="11.1694585"><ele>122.33333333333333</ele><time>2026-04-04T06:48:37.273Z</time></trkpt><trkpt lat="43.4405447" lon="11.169549"><ele>122.16666666666666</ele><time>2026-04-04T06:48:39.263Z</time></trkpt><trkpt lat="43.4405719" lon="11.1696408"><ele>122.0</ele><time>2026-04-04T06:48:41.276Z</time></trkpt><trkpt lat="43.4406093" lon="11.1697622"><ele>122.66666666666666</ele><time>2026-04-04T06:48:44.36Z</time></trkpt><trkpt lat="43.4406104" lon="11.1698731"><ele>123.33333333333333</ele><time>2026-04-04T06:48:46.287Z</time></trkpt><trkpt lat="43.4406242" lon="11.1699913"><ele>124.0</ele><time>2026-04-04T06:48:48.272Z</time></trkpt><trkpt lat="43.4406341" lon="11.1700831"><ele>124.66666666666666</ele><time>2026-04-04T06:48:50.266Z</time></trkpt><trkpt lat="43.4406795" lon="11.1701555"><ele>125.33333333333333</ele><time>2026-04-04T06:48:52.285Z</time></trkpt><trkpt lat="43.4407271" lon="11.1702305"><ele>126.0</ele><time>2026-04-04T06:48:54.268Z</time></trkpt><trkpt lat="43.4407733" lon="11.1703213"><ele>126.0</ele><time>2026-04-04T06:48:56.282Z</time></trkpt><trkpt lat="43.4408005" lon="11.1704264"><ele>126.0</ele><time>2026-04-04T06:48:58.346Z</time></trkpt><trkpt lat="43.4407855" lon="11.1705276"><ele>126.0</ele><time>2026-04-04T06:49:00.269Z</time></trkpt><trkpt lat="43.4407717" lon="11.1706474"><ele>126.0</ele><time>2026-04-04T06:49:02.286Z</time></trkpt><trkpt lat="43.4407649" lon="11.1707646"><ele>126.0</ele><time>2026-04-04T06:49:04.301Z</time></trkpt><trkpt lat="43.4407596" lon="11.1708782"><ele>126.0</ele><time>2026-04-04T06:49:06.279Z</time></trkpt><trkpt lat="43.4407548" lon="11.1710007"><ele>125.66666666666667</ele><time>2026-04-04T06:49:08.351Z</time></trkpt><trkpt lat="43.4407559" lon="11.1711113"><ele>125.33333333333334</ele><time>2026-04-04T06:49:10.266Z</time></trkpt><trkpt lat="43.4407479" lon="11.1712217"><ele>125.0</ele><time>2026-04-04T06:49:12.293Z</time></trkpt><trkpt lat="43.4407372" lon="11.1713367"><ele>124.66666666666667</ele><time>2026-04-04T06:49:14.273Z</time></trkpt><trkpt lat="43.4407215" lon="11.1714532"><ele>124.33333333333334</ele><time>2026-04-04T06:49:16.287Z</time></trkpt><trkpt lat="43.4406981" lon="11.1715618"><ele>124.0</ele><time>2026-04-04T06:49:18.268Z</time></trkpt><trkpt lat="43.4406722" lon="11.1716425"><ele>124.00000000000001</ele><time>2026-04-04T06:49:20.282Z</time></trkpt><trkpt lat="43.4406121" lon="11.1717583"><ele>124.0</ele><time>2026-04-04T06:49:23.266Z</time></trkpt><trkpt lat="43.4405611" lon="11.1718348"><ele>124.0</ele><time>2026-04-04T06:49:25.282Z</time></trkpt><trkpt lat="43.4405043" lon="11.1719144"><ele>124.0</ele><time>2026-04-04T06:49:27.348Z</time></trkpt><trkpt lat="43.4404525" lon="11.1719893"><ele>124.00000000000001</ele><time>2026-04-04T06:49:29.282Z</time></trkpt><trkpt lat="43.440391" lon="11.1720671"><ele>124.0</ele><time>2026-04-04T06:49:31.281Z</time></trkpt><trkpt lat="43.4403352" lon="11.172149"><ele>124.00000000000001</ele><time>2026-04-04T06:49:33.335Z</time></trkpt><trkpt lat="43.4402817" lon="11.1722179"><ele>124.0</ele><time>2026-04-04T06:49:35.275Z</time></trkpt><trkpt lat="43.4402212" lon="11.1722644"><ele>124.0</ele><time>2026-04-04T06:49:37.281Z</time></trkpt><trkpt lat="43.4401565" lon="11.1723312"><ele>124.0</ele><time>2026-04-04T06:49:39.366Z</time></trkpt><trkpt lat="43.4401043" lon="11.1724038"><ele>124.00000000000001</ele><time>2026-04-04T06:49:41.271Z</time></trkpt><trkpt lat="43.4400442" lon="11.1724741"><ele>124.0</ele><time>2026-04-04T06:49:43.291Z</time></trkpt><trkpt lat="43.4399874" lon="11.1725433"><ele>123.50000000000001</ele><time>2026-04-04T06:49:45.291Z</time></trkpt><trkpt lat="43.4399284" lon="11.17261"><ele>123.0</ele><time>2026-04-04T06:49:47.29Z</time></trkpt><trkpt lat="43.4398644" lon="11.1726754"><ele>122.5</ele><time>2026-04-04T06:49:49.28Z</time></trkpt><trkpt lat="43.4398007" lon="11.1727369"><ele>122.0</ele><time>2026-04-04T06:49:51.301Z</time></trkpt><trkpt lat="43.4397389" lon="11.1728026"><ele>121.50000000000001</ele><time>2026-04-04T06:49:53.284Z</time></trkpt><trkpt lat="43.4396714" lon="11.1728612"><ele>121.0</ele><time>2026-04-04T06:49:55.282Z</time></trkpt><trkpt lat="43.439602" lon="11.1729174"><ele>121.5</ele><time>2026-04-04T06:49:57.276Z</time></trkpt><trkpt lat="43.4395334" lon="11.1729675"><ele>122.0</ele><time>2026-04-04T06:49:59.285Z</time></trkpt><trkpt lat="43.439465" lon="11.1730161"><ele>122.5</ele><time>2026-04-04T06:50:01.279Z</time></trkpt><trkpt lat="43.4394035" lon="11.1730819"><ele>123.0</ele><time>2026-04-04T06:50:03.286Z</time></trkpt><trkpt lat="43.4393614" lon="11.1734065"><ele>123.0</ele><time>2026-04-04T06:50:08.362Z</time></trkpt><trkpt lat="43.4393144" lon="11.1734863"><ele>123.0</ele><time>2026-04-04T06:50:10.259Z</time></trkpt><trkpt lat="43.4393371" lon="11.1735826"><ele>123.0</ele><time>2026-04-04T06:50:12.28Z</time></trkpt><trkpt lat="43.43935" lon="11.1736878"><ele>123.0</ele><time>2026-04-04T06:50:14.346Z</time></trkpt><trkpt lat="43.4393826" lon="11.1738069"><ele>123.0</ele><time>2026-04-04T06:50:16.278Z</time></trkpt><trkpt lat="43.4394429" lon="11.1739103"><ele>123.0</ele><time>2026-04-04T06:50:18.272Z</time></trkpt><trkpt lat="43.4394731" lon="11.1740106"><ele>123.0</ele><time>2026-04-04T06:50:20.275Z</time></trkpt><trkpt lat="43.4395004" lon="11.1741181"><ele>123.0</ele><time>2026-04-04T06:50:22.283Z</time></trkpt><trkpt lat="43.4395111" lon="11.1742277"><ele>123.0</ele><time>2026-04-04T06:50:24.279Z</time></trkpt><trkpt lat="43.4395423" lon="11.1743523"><ele>123.0</ele><time>2026-04-04T06:50:27.29Z</time></trkpt><trkpt lat="43.4395589" lon="11.1744602"><ele>123.0</ele><time>2026-04-04T06:50:29.288Z</time></trkpt><trkpt lat="43.4395686" lon="11.17457"><ele>123.0</ele><time>2026-04-04T06:50:31.289Z</time></trkpt><trkpt lat="43.4395697" lon="11.1746726"><ele>123.0</ele><time>2026-04-04T06:50:33.348Z</time></trkpt><trkpt lat="43.4395588" lon="11.1747616"><ele>123.0</ele><time>2026-04-04T06:50:35.277Z</time></trkpt><trkpt lat="43.4395477" lon="11.174867"><ele>123.0</ele><time>2026-04-04T06:50:37.289Z</time></trkpt><trkpt lat="43.4395333" lon="11.1749833"><ele>123.0</ele><time>2026-04-04T06:50:39.359Z</time></trkpt><trkpt lat="43.4395114" lon="11.1750938"><ele>123.0</ele><time>2026-04-04T06:50:41.281Z</time></trkpt><trkpt lat="43.4394817" lon="11.1752044"><ele>123.0</ele><time>2026-04-04T06:50:43.289Z</time></trkpt><trkpt lat="43.4394552" lon="11.1753157"><ele>123.0</ele><time>2026-04-04T06:50:45.293Z</time></trkpt><trkpt lat="43.4394296" lon="11.1754194"><ele>123.0</ele><time>2026-04-04T06:50:47.264Z</time></trkpt><trkpt lat="43.4394064" lon="11.1755212"><ele>123.0</ele><time>2026-04-04T06:50:49.364Z</time></trkpt><trkpt lat="43.4393803" lon="11.1756249"><ele>123.0</ele><time>2026-04-04T06:50:51.281Z</time></trkpt><trkpt lat="43.4393595" lon="11.175739"><ele>123.0</ele><time>2026-04-04T06:50:53.341Z</time></trkpt><trkpt lat="43.439333" lon="11.1758548"><ele>123.0</ele><time>2026-04-04T06:50:55.274Z</time></trkpt><trkpt lat="43.4393075" lon="11.1759598"><ele>123.0</ele><time>2026-04-04T06:50:57.266Z</time></trkpt><trkpt lat="43.4392858" lon="11.1760684"><ele>123.0</ele><time>2026-04-04T06:50:59.344Z</time></trkpt><trkpt lat="43.4392485" lon="11.1761778"><ele>123.0</ele><time>2026-04-04T06:51:01.276Z</time></trkpt><trkpt lat="43.4392339" lon="11.1762854"><ele>123.0</ele><time>2026-04-04T06:51:03.278Z</time></trkpt><trkpt lat="43.4392261" lon="11.1763812"><ele>123.0</ele><time>2026-04-04T06:51:05.268Z</time></trkpt><trkpt lat="43.4392471" lon="11.1765106"><ele>123.0</ele><time>2026-04-04T06:51:08.35Z</time></trkpt><trkpt lat="43.4392289" lon="11.17664"><ele>123.4</ele><time>2026-04-04T06:51:10.279Z</time></trkpt><trkpt lat="43.4391906" lon="11.176762"><ele>123.80000000000001</ele><time>2026-04-04T06:51:12.281Z</time></trkpt><trkpt lat="43.439153" lon="11.1768733"><ele>124.2</ele><time>2026-04-04T06:51:14.293Z</time></trkpt><trkpt lat="43.4391586" lon="11.1770012"><ele>124.6</ele><time>2026-04-04T06:51:16.293Z</time></trkpt><trkpt lat="43.4391654" lon="11.1771263"><ele>125.0</ele><time>2026-04-04T06:51:18.287Z</time></trkpt><trkpt lat="43.4391762" lon="11.1772452"><ele>125.0</ele><time>2026-04-04T06:51:20.295Z</time></trkpt><trkpt lat="43.4391897" lon="11.1773518"><ele>125.0</ele><time>2026-04-04T06:51:22.273Z</time></trkpt><trkpt lat="43.4392085" lon="11.1774578"><ele>125.0</ele><time>2026-04-04T06:51:24.278Z</time></trkpt><trkpt lat="43.4392261" lon="11.1775629"><ele>125.0</ele><time>2026-04-04T06:51:26.291Z</time></trkpt><trkpt lat="43.4392387" lon="11.1776647"><ele>125.0</ele><time>2026-04-04T06:51:28.284Z</time></trkpt><trkpt lat="43.4392507" lon="11.1777554"><ele>125.0</ele><time>2026-04-04T06:51:30.3Z</time></trkpt><trkpt lat="43.4392593" lon="11.1778474"><ele>125.0</ele><time>2026-04-04T06:51:32.28Z</time></trkpt><trkpt lat="43.439262" lon="11.1779378"><ele>124.99999999999999</ele><time>2026-04-04T06:51:34.289Z</time></trkpt><trkpt lat="43.4392565" lon="11.1780295"><ele>125.0</ele><time>2026-04-04T06:51:36.282Z</time></trkpt><trkpt lat="43.4392424" lon="11.178128"><ele>125.0</ele><time>2026-04-04T06:51:38.28Z</time></trkpt><trkpt lat="43.439219" lon="11.1782279"><ele>125.0</ele><time>2026-04-04T06:51:40.278Z</time></trkpt><trkpt lat="43.4391794" lon="11.1783261"><ele>124.99999999999999</ele><time>2026-04-04T06:51:42.286Z</time></trkpt><trkpt lat="43.4391334" lon="11.1784273"><ele>125.0</ele><time>2026-04-04T06:51:44.282Z</time></trkpt><trkpt lat="43.439077" lon="11.1785128"><ele>124.99999999999999</ele><time>2026-04-04T06:51:46.279Z</time></trkpt><trkpt lat="43.4390133" lon="11.17859"><ele>125.0</ele><time>2026-04-04T06:51:48.282Z</time></trkpt><trkpt lat="43.4389533" lon="11.1786712"><ele>125.0</ele><time>2026-04-04T06:51:50.282Z</time></trkpt><trkpt lat="43.438892" lon="11.1787543"><ele>125.0</ele><time>2026-04-04T06:51:52.281Z</time></trkpt><trkpt lat="43.4388438" lon="11.1788413"><ele>124.99999999999999</ele><time>2026-04-04T06:51:54.282Z</time></trkpt><trkpt lat="43.4387933" lon="11.17892"><ele>125.0</ele><time>2026-04-04T06:51:56.297Z</time></trkpt><trkpt lat="43.4387438" lon="11.1789893"><ele>124.99999999999999</ele><time>2026-04-04T06:51:58.284Z</time></trkpt><trkpt lat="43.4386913" lon="11.1790528"><ele>125.0</ele><time>2026-04-04T06:52:00.286Z</time></trkpt><trkpt lat="43.438635" lon="11.1791095"><ele>125.0</ele><time>2026-04-04T06:52:02.299Z</time></trkpt><trkpt lat="43.4385713" lon="11.1791482"><ele>125.0</ele><time>2026-04-04T06:52:04.283Z</time></trkpt><trkpt lat="43.4385078" lon="11.1791782"><ele>124.99999999999999</ele><time>2026-04-04T06:52:06.279Z</time></trkpt><trkpt lat="43.4384187" lon="11.1792173"><ele>125.0</ele><time>2026-04-04T06:52:09.284Z</time></trkpt><trkpt lat="43.4383349" lon="11.1792347"><ele>124.99999999999999</ele><time>2026-04-04T06:52:12.281Z</time></trkpt><trkpt lat="43.4382441" lon="11.1792587"><ele>125.0</ele><time>2026-04-04T06:52:15.283Z</time></trkpt><trkpt lat="43.4381674" lon="11.1792743"><ele>125.0</ele><time>2026-04-04T06:52:17.28Z</time></trkpt><trkpt lat="43.438087" lon="11.1792844"><ele>125.0</ele><time>2026-04-04T06:52:19.28Z</time></trkpt><trkpt lat="43.438006" lon="11.1792836"><ele>124.99999999999999</ele><time>2026-04-04T06:52:21.277Z</time></trkpt><trkpt lat="43.4379264" lon="11.1792632"><ele>125.0</ele><time>2026-04-04T06:52:23.283Z</time></trkpt><trkpt lat="43.4378487" lon="11.1792336"><ele>125.16666666666666</ele><time>2026-04-04T06:52:25.294Z</time></trkpt><trkpt lat="43.4377752" lon="11.1791923"><ele>125.33333333333333</ele><time>2026-04-04T06:52:27.278Z</time></trkpt><trkpt lat="43.4376972" lon="11.1791535"><ele>125.5</ele><time>2026-04-04T06:52:29.28Z</time></trkpt><trkpt lat="43.4376236" lon="11.17912"><ele>125.66666666666666</ele><time>2026-04-04T06:52:31.287Z</time></trkpt><trkpt lat="43.4375451" lon="11.1790863"><ele>125.83333333333333</ele><time>2026-04-04T06:52:33.292Z</time></trkpt><trkpt lat="43.4374699" lon="11.1790583"><ele>126.0</ele><time>2026-04-04T06:52:35.275Z</time></trkpt><trkpt lat="43.4373913" lon="11.1790316"><ele>126.0</ele><time>2026-04-04T06:52:37.281Z</time></trkpt><trkpt lat="43.4373141" lon="11.179008"><ele>126.0</ele><time>2026-04-04T06:52:39.263Z</time></trkpt><trkpt lat="43.4372334" lon="11.1789765"><ele>126.0</ele><time>2026-04-04T06:52:41.279Z</time></trkpt><trkpt lat="43.4371586" lon="11.1789419"><ele>126.0</ele><time>2026-04-04T06:52:43.287Z</time></trkpt><trkpt lat="43.4370841" lon="11.1789019"><ele>126.0</ele><time>2026-04-04T06:52:45.28Z</time></trkpt><trkpt lat="43.4369997" lon="11.1788663"><ele>126.0</ele><time>2026-04-04T06:52:47.279Z</time></trkpt><trkpt lat="43.4369258" lon="11.178834"><ele>126.33333333333333</ele><time>2026-04-04T06:52:49.293Z</time></trkpt><trkpt lat="43.4368538" lon="11.1787932"><ele>126.66666666666666</ele><time>2026-04-04T06:52:51.287Z</time></trkpt><trkpt lat="43.4367807" lon="11.1787496"><ele>127.0</ele><time>2026-04-04T06:52:53.293Z</time></trkpt><trkpt lat="43.4367036" lon="11.1787146"><ele>127.33333333333333</ele><time>2026-04-04T06:52:55.288Z</time></trkpt><trkpt lat="43.4366253" lon="11.1786846"><ele>127.66666666666666</ele><time>2026-04-04T06:52:57.281Z</time></trkpt><trkpt lat="43.4365442" lon="11.1786539"><ele>128.0</ele><time>2026-04-04T06:52:59.284Z</time></trkpt><trkpt lat="43.4364663" lon="11.1786201"><ele>127.99999999999999</ele><time>2026-04-04T06:53:01.274Z</time></trkpt><trkpt lat="43.4363981" lon="11.178594"><ele>128.0</ele><time>2026-04-04T06:53:03.276Z</time></trkpt><trkpt lat="43.4363264" lon="11.1785773"><ele>128.0</ele><time>2026-04-04T06:53:05.291Z</time></trkpt><trkpt lat="43.4362499" lon="11.1785604"><ele>128.0</ele><time>2026-04-04T06:53:07.287Z</time></trkpt><trkpt lat="43.4361581" lon="11.1785544"><ele>127.99999999999999</ele><time>2026-04-04T06:53:09.283Z</time></trkpt><trkpt lat="43.4360629" lon="11.1785584"><ele>128.0</ele><time>2026-04-04T06:53:11.283Z</time></trkpt><trkpt lat="43.4359766" lon="11.1785699"><ele>129.0</ele><time>2026-04-04T06:53:13.278Z</time></trkpt><trkpt lat="43.4358918" lon="11.1785859"><ele>130.0</ele><time>2026-04-04T06:53:15.283Z</time></trkpt><trkpt lat="43.4358093" lon="11.1786051"><ele>131.0</ele><time>2026-04-04T06:53:17.281Z</time></trkpt><trkpt lat="43.4357286" lon="11.178621"><ele>132.0</ele><time>2026-04-04T06:53:19.288Z</time></trkpt><trkpt lat="43.4356459" lon="11.1786341"><ele>133.0</ele><time>2026-04-04T06:53:21.287Z</time></trkpt><trkpt lat="43.4355652" lon="11.1786495"><ele>134.0</ele><time>2026-04-04T06:53:23.277Z</time></trkpt><trkpt lat="43.4354783" lon="11.1786676"><ele>133.33333333333331</ele><time>2026-04-04T06:53:25.274Z</time></trkpt><trkpt lat="43.4353967" lon="11.1786774"><ele>132.66666666666666</ele><time>2026-04-04T06:53:27.286Z</time></trkpt><trkpt lat="43.4353177" lon="11.1786868"><ele>132.0</ele><time>2026-04-04T06:53:29.277Z</time></trkpt><trkpt lat="43.4352407" lon="11.1786994"><ele>131.33333333333334</ele><time>2026-04-04T06:53:31.276Z</time></trkpt><trkpt lat="43.4351678" lon="11.1787106"><ele>130.66666666666669</ele><time>2026-04-04T06:53:33.281Z</time></trkpt><trkpt lat="43.4350922" lon="11.1787233"><ele>130.0</ele><time>2026-04-04T06:53:35.289Z</time></trkpt><trkpt lat="43.4350087" lon="11.1787413"><ele>130.0</ele><time>2026-04-04T06:53:37.291Z</time></trkpt><trkpt lat="43.4349291" lon="11.178753"><ele>130.0</ele><time>2026-04-04T06:53:39.282Z</time></trkpt><trkpt lat="43.4348558" lon="11.1787665"><ele>130.0</ele><time>2026-04-04T06:53:41.285Z</time></trkpt><trkpt lat="43.4347753" lon="11.1787766"><ele>130.0</ele><time>2026-04-04T06:53:43.287Z</time></trkpt><trkpt lat="43.4346915" lon="11.1787884"><ele>130.0</ele><time>2026-04-04T06:53:45.292Z</time></trkpt><trkpt lat="43.434611" lon="11.178802"><ele>130.0</ele><time>2026-04-04T06:53:47.288Z</time></trkpt><trkpt lat="43.4345305" lon="11.1788173"><ele>129.83333333333334</ele><time>2026-04-04T06:53:49.281Z</time></trkpt><trkpt lat="43.4344494" lon="11.1788258"><ele>129.66666666666669</ele><time>2026-04-04T06:53:51.28Z</time></trkpt><trkpt lat="43.4343719" lon="11.1788303"><ele>129.5</ele><time>2026-04-04T06:53:53.292Z</time></trkpt><trkpt lat="43.4342966" lon="11.1788371"><ele>129.33333333333334</ele><time>2026-04-04T06:53:55.279Z</time></trkpt><trkpt lat="43.4342147" lon="11.1788462"><ele>129.16666666666666</ele><time>2026-04-04T06:53:57.283Z</time></trkpt><trkpt lat="43.4341323" lon="11.1788591"><ele>129.0</ele><time>2026-04-04T06:53:59.289Z</time></trkpt><trkpt lat="43.4340506" lon="11.1788718"><ele>128.99999999999997</ele><time>2026-04-04T06:54:01.284Z</time></trkpt><trkpt lat="43.4339714" lon="11.1788775"><ele>129.0</ele><time>2026-04-04T06:54:03.278Z</time></trkpt><trkpt lat="43.4338925" lon="11.1788762"><ele>129.0</ele><time>2026-04-04T06:54:05.275Z</time></trkpt><trkpt lat="43.4338233" lon="11.1788685"><ele>129.0</ele><time>2026-04-04T06:54:07.274Z</time></trkpt><trkpt lat="43.4337525" lon="11.178854"><ele>129.0</ele><time>2026-04-04T06:54:09.277Z</time></trkpt><trkpt lat="43.4336819" lon="11.1788272"><ele>128.99999999999997</ele><time>2026-04-04T06:54:11.286Z</time></trkpt><trkpt lat="43.4336149" lon="11.1787761"><ele>129.0</ele><time>2026-04-04T06:54:13.292Z</time></trkpt><trkpt lat="43.4335401" lon="11.1787119"><ele>129.16666666666666</ele><time>2026-04-04T06:54:15.287Z</time></trkpt><trkpt lat="43.4334669" lon="11.1786497"><ele>129.33333333333334</ele><time>2026-04-04T06:54:17.279Z</time></trkpt><trkpt lat="43.4333942" lon="11.1785973"><ele>129.5</ele><time>2026-04-04T06:54:19.257Z</time></trkpt><trkpt lat="43.4333196" lon="11.1785621"><ele>129.66666666666669</ele><time>2026-04-04T06:54:21.259Z</time></trkpt><trkpt lat="43.4332338" lon="11.178561"><ele>129.83333333333334</ele><time>2026-04-04T06:54:23.286Z</time></trkpt><trkpt lat="43.4331532" lon="11.1785824"><ele>130.0</ele><time>2026-04-04T06:54:25.263Z</time></trkpt><trkpt lat="43.4330752" lon="11.1786225"><ele>130.0</ele><time>2026-04-04T06:54:27.279Z</time></trkpt><trkpt lat="43.4329984" lon="11.178668"><ele>130.0</ele><time>2026-04-04T06:54:29.292Z</time></trkpt><trkpt lat="43.4329273" lon="11.1787199"><ele>130.0</ele><time>2026-04-04T06:54:31.277Z</time></trkpt><trkpt lat="43.4328591" lon="11.1787763"><ele>130.0</ele><time>2026-04-04T06:54:33.281Z</time></trkpt><trkpt lat="43.4327935" lon="11.1788336"><ele>130.0</ele><time>2026-04-04T06:54:35.284Z</time></trkpt><trkpt lat="43.432736" lon="11.1788894"><ele>130.0</ele><time>2026-04-04T06:54:37.285Z</time></trkpt><trkpt lat="43.4326801" lon="11.1789469"><ele>130.0</ele><time>2026-04-04T06:54:39.278Z</time></trkpt><trkpt lat="43.4326243" lon="11.1789982"><ele>130.0</ele><time>2026-04-04T06:54:41.272Z</time></trkpt><trkpt lat="43.4325403" lon="11.179027"><ele>130.0</ele><time>2026-04-04T06:54:44.28Z</time></trkpt><trkpt lat="43.4324454" lon="11.179021"><ele>130.0</ele><time>2026-04-04T06:54:47.276Z</time></trkpt><trkpt lat="43.4323802" lon="11.1790077"><ele>130.0</ele><time>2026-04-04T06:54:49.279Z</time></trkpt><trkpt lat="43.4323121" lon="11.1789985"><ele>130.0</ele><time>2026-04-04T06:54:51.276Z</time></trkpt><trkpt lat="43.4322448" lon="11.178978"><ele>130.42857142857144</ele><time>2026-04-04T06:54:53.277Z</time></trkpt><trkpt lat="43.4321828" lon="11.178953"><ele>130.85714285714286</ele><time>2026-04-04T06:54:55.278Z</time></trkpt><trkpt lat="43.4321196" lon="11.178924"><ele>131.28571428571428</ele><time>2026-04-04T06:54:57.285Z</time></trkpt><trkpt lat="43.4320592" lon="11.178893"><ele>131.71428571428572</ele><time>2026-04-04T06:54:59.29Z</time></trkpt><trkpt lat="43.4319826" lon="11.1788412"><ele>132.14285714285714</ele><time>2026-04-04T06:55:02.277Z</time></trkpt><trkpt lat="43.4319189" lon="11.1787763"><ele>132.57142857142858</ele><time>2026-04-04T06:55:05.283Z</time></trkpt><trkpt lat="43.4318719" lon="11.1787183"><ele>133.0</ele><time>2026-04-04T06:55:07.278Z</time></trkpt><trkpt lat="43.4318137" lon="11.1786569"><ele>133.0</ele><time>2026-04-04T06:55:09.279Z</time></trkpt><trkpt lat="43.431743" lon="11.1786014"><ele>133.0</ele><time>2026-04-04T06:55:11.283Z</time></trkpt><trkpt lat="43.4316559" lon="11.1785405"><ele>133.0</ele><time>2026-04-04T06:55:13.283Z</time></trkpt><trkpt lat="43.4315583" lon="11.1784843"><ele>133.0</ele><time>2026-04-04T06:55:15.283Z</time></trkpt><trkpt lat="43.4314631" lon="11.1784336"><ele>133.0</ele><time>2026-04-04T06:55:17.287Z</time></trkpt><trkpt lat="43.4313788" lon="11.1783899"><ele>132.83333333333334</ele><time>2026-04-04T06:55:19.278Z</time></trkpt><trkpt lat="43.4312986" lon="11.1783451"><ele>132.66666666666669</ele><time>2026-04-04T06:55:21.28Z</time></trkpt><trkpt lat="43.4312265" lon="11.1782998"><ele>132.5</ele><time>2026-04-04T06:55:23.295Z</time></trkpt><trkpt lat="43.4311567" lon="11.178261"><ele>132.33333333333334</ele><time>2026-04-04T06:55:25.291Z</time></trkpt><trkpt lat="43.4310823" lon="11.1782268"><ele>132.16666666666666</ele><time>2026-04-04T06:55:27.281Z</time></trkpt><trkpt lat="43.4310097" lon="11.1781832"><ele>132.0</ele><time>2026-04-04T06:55:29.279Z</time></trkpt><trkpt lat="43.430943" lon="11.1781392"><ele>132.5</ele><time>2026-04-04T06:55:31.282Z</time></trkpt><trkpt lat="43.4308737" lon="11.1780913"><ele>133.0</ele><time>2026-04-04T06:55:33.288Z</time></trkpt><trkpt lat="43.4308018" lon="11.1780384"><ele>133.5</ele><time>2026-04-04T06:55:35.285Z</time></trkpt><trkpt lat="43.4307295" lon="11.1779809"><ele>134.0</ele><time>2026-04-04T06:55:37.282Z</time></trkpt><trkpt lat="43.4306549" lon="11.1779295"><ele>134.5</ele><time>2026-04-04T06:55:39.286Z</time></trkpt><trkpt lat="43.4305833" lon="11.1778782"><ele>135.0</ele><time>2026-04-04T06:55:41.274Z</time></trkpt><trkpt lat="43.4305092" lon="11.1778283"><ele>134.33333333333334</ele><time>2026-04-04T06:55:43.276Z</time></trkpt><trkpt lat="43.4304339" lon="11.1777803"><ele>133.66666666666666</ele><time>2026-04-04T06:55:45.276Z</time></trkpt><trkpt lat="43.4303654" lon="11.1777407"><ele>133.0</ele><time>2026-04-04T06:55:47.283Z</time></trkpt><trkpt lat="43.4302969" lon="11.177704"><ele>132.33333333333331</ele><time>2026-04-04T06:55:49.286Z</time></trkpt><trkpt lat="43.4302248" lon="11.1776634"><ele>131.66666666666666</ele><time>2026-04-04T06:55:51.279Z</time></trkpt><trkpt lat="43.4301478" lon="11.1776232"><ele>131.0</ele><time>2026-04-04T06:55:53.281Z</time></trkpt><trkpt lat="43.4300745" lon="11.1775879"><ele>131.0</ele><time>2026-04-04T06:55:55.285Z</time></trkpt><trkpt lat="43.4300041" lon="11.1775474"><ele>131.0</ele><time>2026-04-04T06:55:57.283Z</time></trkpt><trkpt lat="43.4299369" lon="11.1775158"><ele>131.0</ele><time>2026-04-04T06:55:59.282Z</time></trkpt><trkpt lat="43.4298595" lon="11.177505"><ele>131.0</ele><time>2026-04-04T06:56:01.295Z</time></trkpt><trkpt lat="43.4297831" lon="11.1775147"><ele>131.0</ele><time>2026-04-04T06:56:03.279Z</time></trkpt><trkpt lat="43.4297151" lon="11.1775301"><ele>131.0</ele><time>2026-04-04T06:56:05.29Z</time></trkpt><trkpt lat="43.4296529" lon="11.1775495"><ele>131.0</ele><time>2026-04-04T06:56:07.284Z</time></trkpt><trkpt lat="43.4295705" lon="11.1775969"><ele>131.16666666666666</ele><time>2026-04-04T06:56:10.282Z</time></trkpt><trkpt lat="43.4294909" lon="11.1776559"><ele>131.33333333333331</ele><time>2026-04-04T06:56:13.284Z</time></trkpt><trkpt lat="43.4294219" lon="11.1777396"><ele>131.5</ele><time>2026-04-04T06:56:16.278Z</time></trkpt><trkpt lat="43.4293721" lon="11.1778221"><ele>131.66666666666666</ele><time>2026-04-04T06:56:18.288Z</time></trkpt><trkpt lat="43.4293315" lon="11.1779133"><ele>131.83333333333334</ele><time>2026-04-04T06:56:20.283Z</time></trkpt><trkpt lat="43.4292973" lon="11.1780059"><ele>132.0</ele><time>2026-04-04T06:56:22.278Z</time></trkpt><trkpt lat="43.4292689" lon="11.1780889"><ele>132.0</ele><time>2026-04-04T06:56:24.285Z</time></trkpt><trkpt lat="43.4292353" lon="11.1781792"><ele>132.0</ele><time>2026-04-04T06:56:26.278Z</time></trkpt><trkpt lat="43.4292063" lon="11.178274"><ele>132.0</ele><time>2026-04-04T06:56:28.289Z</time></trkpt><trkpt lat="43.4291795" lon="11.1783615"><ele>132.0</ele><time>2026-04-04T06:56:30.26Z</time></trkpt><trkpt lat="43.4291508" lon="11.1784486"><ele>132.0</ele><time>2026-04-04T06:56:32.265Z</time></trkpt><trkpt lat="43.4291266" lon="11.1785312"><ele>132.0</ele><time>2026-04-04T06:56:34.281Z</time></trkpt><trkpt lat="43.4291016" lon="11.1786135"><ele>132.0</ele><time>2026-04-04T06:56:36.285Z</time></trkpt><trkpt lat="43.4290756" lon="11.1786988"><ele>132.0</ele><time>2026-04-04T06:56:38.286Z</time></trkpt><trkpt lat="43.4290526" lon="11.1787825"><ele>132.0</ele><time>2026-04-04T06:56:40.281Z</time></trkpt><trkpt lat="43.4290195" lon="11.1789016"><ele>132.0</ele><time>2026-04-04T06:56:43.285Z</time></trkpt><trkpt lat="43.4289829" lon="11.1790148"><ele>132.0</ele><time>2026-04-04T06:56:46.275Z</time></trkpt><trkpt lat="43.4289383" lon="11.1791114"><ele>132.0</ele><time>2026-04-04T06:56:49.293Z</time></trkpt><trkpt lat="43.4288927" lon="11.1792199"><ele>132.0</ele><time>2026-04-04T06:56:52.272Z</time></trkpt><trkpt lat="43.428841" lon="11.1793048"><ele>132.66666666666666</ele><time>2026-04-04T06:56:55.293Z</time></trkpt><trkpt lat="43.4287815" lon="11.1793833"><ele>133.33333333333334</ele><time>2026-04-04T06:56:58.295Z</time></trkpt><trkpt lat="43.4287088" lon="11.17945"><ele>134.0</ele><time>2026-04-04T06:57:01.287Z</time></trkpt><trkpt lat="43.428658" lon="11.1795025"><ele>134.66666666666669</ele><time>2026-04-04T06:57:03.284Z</time></trkpt><trkpt lat="43.4286069" lon="11.179572"><ele>135.33333333333334</ele><time>2026-04-04T06:57:05.282Z</time></trkpt><trkpt lat="43.4285487" lon="11.179633"><ele>136.0</ele><time>2026-04-04T06:57:07.283Z</time></trkpt><trkpt lat="43.4284838" lon="11.1796874"><ele>136.0</ele><time>2026-04-04T06:57:09.275Z</time></trkpt><trkpt lat="43.4284101" lon="11.1797311"><ele>136.0</ele><time>2026-04-04T06:57:11.281Z</time></trkpt><trkpt lat="43.4283249" lon="11.1797793"><ele>136.0</ele><time>2026-04-04T06:57:13.277Z</time></trkpt><trkpt lat="43.4282145" lon="11.1798459"><ele>136.0</ele><time>2026-04-04T06:57:15.282Z</time></trkpt><trkpt lat="43.4281563" lon="11.1798858"><ele>136.0</ele><time>2026-04-04T06:57:16.295Z</time></trkpt><trkpt lat="43.4280713" lon="11.1799885"><ele>136.0</ele><time>2026-04-04T06:57:18.277Z</time></trkpt><trkpt lat="43.4280166" lon="11.1801052"><ele>136.0</ele><time>2026-04-04T06:57:20.284Z</time></trkpt><trkpt lat="43.4279758" lon="11.1801871"><ele>136.0</ele><time>2026-04-04T06:57:22.296Z</time></trkpt><trkpt lat="43.427924" lon="11.1802885"><ele>136.0</ele><time>2026-04-04T06:57:25.279Z</time></trkpt><trkpt lat="43.4278674" lon="11.1803846"><ele>136.0</ele><time>2026-04-04T06:57:28.289Z</time></trkpt><trkpt lat="43.4278221" lon="11.1804728"><ele>136.0</ele><time>2026-04-04T06:57:31.277Z</time></trkpt><trkpt lat="43.4278034" lon="11.1805637"><ele>135.99999999999997</ele><time>2026-04-04T06:57:34.278Z</time></trkpt><trkpt lat="43.4277893" lon="11.1806576"><ele>136.0</ele><time>2026-04-04T06:57:37.281Z</time></trkpt><trkpt lat="43.4277723" lon="11.1807492"><ele>136.0</ele><time>2026-04-04T06:57:40.262Z</time></trkpt><trkpt lat="43.4277406" lon="11.1808495"><ele>136.0</ele><time>2026-04-04T06:57:44.293Z</time></trkpt><trkpt lat="43.4277043" lon="11.1809293"><ele>136.0</ele><time>2026-04-04T06:57:47.285Z</time></trkpt><trkpt lat="43.42767" lon="11.1810108"><ele>135.99999999999997</ele><time>2026-04-04T06:57:50.28Z</time></trkpt><trkpt lat="43.4276286" lon="11.1811015"><ele>136.0</ele><time>2026-04-04T06:57:53.277Z</time></trkpt><trkpt lat="43.4275891" lon="11.1811949"><ele>136.99999999999997</ele><time>2026-04-04T06:57:56.279Z</time></trkpt><trkpt lat="43.4275422" lon="11.1812713"><ele>138.0</ele><time>2026-04-04T06:57:59.358Z</time></trkpt><trkpt lat="43.4275102" lon="11.181352"><ele>139.0</ele><time>2026-04-04T06:58:02.288Z</time></trkpt><trkpt lat="43.4274869" lon="11.1814353"><ele>140.0</ele><time>2026-04-04T06:58:05.272Z</time></trkpt><trkpt lat="43.4275043" lon="11.1815356"><ele>141.0</ele><time>2026-04-04T06:58:09.315Z</time></trkpt><trkpt lat="43.4275578" lon="11.1816035"><ele>141.99999999999997</ele><time>2026-04-04T06:58:13.277Z</time></trkpt><trkpt lat="43.4276108" lon="11.1816727"><ele>143.0</ele><time>2026-04-04T06:58:18.271Z</time></trkpt><trkpt lat="43.4276748" lon="11.1816856"><ele>143.83333333333331</ele><time>2026-04-04T06:58:21.261Z</time></trkpt><trkpt lat="43.4277392" lon="11.1817283"><ele>144.66666666666666</ele><time>2026-04-04T06:58:25.286Z</time></trkpt><trkpt lat="43.4277242" lon="11.1818404"><ele>145.5</ele><time>2026-04-04T06:58:28.265Z</time></trkpt><trkpt lat="43.4276836" lon="11.1819324"><ele>146.33333333333334</ele><time>2026-04-04T06:58:32.277Z</time></trkpt><trkpt lat="43.4276523" lon="11.1820269"><ele>147.16666666666669</ele><time>2026-04-04T06:58:36.28Z</time></trkpt><trkpt lat="43.4276249" lon="11.1821171"><ele>148.0</ele><time>2026-04-04T06:58:40.279Z</time></trkpt><trkpt lat="43.4275862" lon="11.1822117"><ele>148.0</ele><time>2026-04-04T06:58:44.277Z</time></trkpt><trkpt lat="43.4275425" lon="11.1823013"><ele>148.0</ele><time>2026-04-04T06:58:48.269Z</time></trkpt><trkpt lat="43.4274985" lon="11.1823812"><ele>148.0</ele><time>2026-04-04T06:58:52.268Z</time></trkpt><trkpt lat="43.427486" lon="11.1824806"><ele>148.0</ele><time>2026-04-04T06:58:55.286Z</time></trkpt><trkpt lat="43.4274569" lon="11.1825802"><ele>148.0</ele><time>2026-04-04T06:58:58.276Z</time></trkpt><trkpt lat="43.4274274" lon="11.1826753"><ele>148.0</ele><time>2026-04-04T06:59:01.285Z</time></trkpt><trkpt lat="43.427406" lon="11.1827617"><ele>148.0</ele><time>2026-04-04T06:59:04.273Z</time></trkpt><trkpt lat="43.427355" lon="11.1828431"><ele>148.66666666666669</ele><time>2026-04-04T06:59:08.282Z</time></trkpt><trkpt lat="43.4273397" lon="11.1829541"><ele>149.33333333333334</ele><time>2026-04-04T06:59:11.269Z</time></trkpt><trkpt lat="43.4273126" lon="11.1830617"><ele>150.0</ele><time>2026-04-04T06:59:14.272Z</time></trkpt><trkpt lat="43.4272753" lon="11.183159"><ele>150.66666666666666</ele><time>2026-04-04T06:59:17.27Z</time></trkpt><trkpt lat="43.4272365" lon="11.1832429"><ele>151.33333333333331</ele><time>2026-04-04T06:59:20.279Z</time></trkpt><trkpt lat="43.4271957" lon="11.1833276"><ele>152.0</ele><time>2026-04-04T06:59:23.279Z</time></trkpt><trkpt lat="43.4271566" lon="11.1834169"><ele>151.16666666666666</ele><time>2026-04-04T06:59:26.267Z</time></trkpt><trkpt lat="43.4271217" lon="11.1835074"><ele>150.33333333333331</ele><time>2026-04-04T06:59:29.354Z</time></trkpt><trkpt lat="43.4270771" lon="11.183592"><ele>149.5</ele><time>2026-04-04T06:59:32.28Z</time></trkpt><trkpt lat="43.427036" lon="11.1836607"><ele>148.66666666666666</ele><time>2026-04-04T06:59:34.256Z</time></trkpt><trkpt lat="43.4269869" lon="11.1837261"><ele>147.83333333333334</ele><time>2026-04-04T06:59:36.275Z</time></trkpt><trkpt lat="43.4269351" lon="11.1838508"><ele>147.0</ele><time>2026-04-04T06:59:39.254Z</time></trkpt><trkpt lat="43.4269016" lon="11.1839824"><ele>147.83333333333334</ele><time>2026-04-04T06:59:41.272Z</time></trkpt><trkpt lat="43.4268554" lon="11.1840932"><ele>148.66666666666666</ele><time>2026-04-04T06:59:43.264Z</time></trkpt><trkpt lat="43.4268177" lon="11.1842061"><ele>149.5</ele><time>2026-04-04T06:59:45.274Z</time></trkpt><trkpt lat="43.426787" lon="11.1843051"><ele>150.33333333333331</ele><time>2026-04-04T06:59:47.269Z</time></trkpt><trkpt lat="43.4267619" lon="11.1843974"><ele>151.16666666666666</ele><time>2026-04-04T06:59:49.281Z</time></trkpt><trkpt lat="43.4267336" lon="11.1844824"><ele>152.0</ele><time>2026-04-04T06:59:51.279Z</time></trkpt><trkpt lat="43.4267024" lon="11.1845651"><ele>152.0</ele><time>2026-04-04T06:59:53.371Z</time></trkpt><trkpt lat="43.4266739" lon="11.1846449"><ele>152.0</ele><time>2026-04-04T06:59:55.28Z</time></trkpt><trkpt lat="43.4266396" lon="11.1847232"><ele>152.0</ele><time>2026-04-04T06:59:57.279Z</time></trkpt><trkpt lat="43.4266015" lon="11.1848233"><ele>152.0</ele><time>2026-04-04T07:00:00.265Z</time></trkpt><trkpt lat="43.4265716" lon="11.1849"><ele>152.0</ele><time>2026-04-04T07:00:02.279Z</time></trkpt><trkpt lat="43.4265313" lon="11.1850089"><ele>152.0</ele><time>2026-04-04T07:00:05.257Z</time></trkpt><trkpt lat="43.4264966" lon="11.1850865"><ele>152.0</ele><time>2026-04-04T07:00:07.282Z</time></trkpt><trkpt lat="43.4264649" lon="11.1851968"><ele>152.0</ele><time>2026-04-04T07:00:10.276Z</time></trkpt><trkpt lat="43.4264235" lon="11.1852857"><ele>152.0</ele><time>2026-04-04T07:00:13.267Z</time></trkpt><trkpt lat="43.4263655" lon="11.1853695"><ele>152.0</ele><time>2026-04-04T07:00:16.272Z</time></trkpt><trkpt lat="43.4263121" lon="11.1854615"><ele>152.0</ele><time>2026-04-04T07:00:19.277Z</time></trkpt><trkpt lat="43.4262628" lon="11.185552"><ele>152.0</ele><time>2026-04-04T07:00:22.272Z</time></trkpt><trkpt lat="43.4262078" lon="11.185639"><ele>152.0</ele><time>2026-04-04T07:00:25.274Z</time></trkpt><trkpt lat="43.4261535" lon="11.1857409"><ele>152.0</ele><time>2026-04-04T07:00:28.258Z</time></trkpt><trkpt lat="43.4260975" lon="11.1858318"><ele>152.0</ele><time>2026-04-04T07:00:31.268Z</time></trkpt><trkpt lat="43.4260475" lon="11.1859055"><ele>152.0</ele><time>2026-04-04T07:00:34.255Z</time></trkpt><trkpt lat="43.4259967" lon="11.1859811"><ele>152.0</ele><time>2026-04-04T07:00:37.279Z</time></trkpt><trkpt lat="43.4259564" lon="11.186075"><ele>152.0</ele><time>2026-04-04T07:00:40.263Z</time></trkpt><trkpt lat="43.4259667" lon="11.186177"><ele>152.0</ele><time>2026-04-04T07:00:43.254Z</time></trkpt><trkpt lat="43.4260125" lon="11.186261"><ele>152.0</ele><time>2026-04-04T07:00:46.268Z</time></trkpt><trkpt lat="43.4260741" lon="11.1863278"><ele>152.0</ele><time>2026-04-04T07:00:49.282Z</time></trkpt><trkpt lat="43.4261393" lon="11.1863957"><ele>152.0</ele><time>2026-04-04T07:00:52.292Z</time></trkpt><trkpt lat="43.4262047" lon="11.1864532"><ele>152.0</ele><time>2026-04-04T07:00:57.276Z</time></trkpt><trkpt lat="43.4262566" lon="11.1865043"><ele>152.0</ele><time>2026-04-04T07:01:01.278Z</time></trkpt><trkpt lat="43.4263009" lon="11.1865689"><ele>152.0</ele><time>2026-04-04T07:01:05.256Z</time></trkpt><trkpt lat="43.4263296" lon="11.1866579"><ele>152.0</ele><time>2026-04-04T07:01:09.283Z</time></trkpt><trkpt lat="43.4263044" lon="11.1867685"><ele>153.66666666666666</ele><time>2026-04-04T07:01:13.278Z</time></trkpt><trkpt lat="43.4262627" lon="11.1868374"><ele>155.33333333333331</ele><time>2026-04-04T07:01:16.279Z</time></trkpt><trkpt lat="43.4262022" lon="11.1869085"><ele>157.0</ele><time>2026-04-04T07:01:20.268Z</time></trkpt><trkpt lat="43.4261417" lon="11.1869856"><ele>158.66666666666666</ele><time>2026-04-04T07:01:24.287Z</time></trkpt><trkpt lat="43.4260882" lon="11.1870559"><ele>160.33333333333334</ele><time>2026-04-04T07:01:28.273Z</time></trkpt><trkpt lat="43.4260407" lon="11.1871334"><ele>162.0</ele><time>2026-04-04T07:01:32.276Z</time></trkpt><trkpt lat="43.4259881" lon="11.1872097"><ele>162.0</ele><time>2026-04-04T07:01:36.272Z</time></trkpt><trkpt lat="43.4259308" lon="11.1872909"><ele>162.0</ele><time>2026-04-04T07:01:40.29Z</time></trkpt><trkpt lat="43.4258863" lon="11.1873527"><ele>162.0</ele><time>2026-04-04T07:01:43.283Z</time></trkpt><trkpt lat="43.4258418" lon="11.1874409"><ele>162.0</ele><time>2026-04-04T07:01:47.278Z</time></trkpt><trkpt lat="43.4258052" lon="11.1875149"><ele>162.0</ele><time>2026-04-04T07:01:50.285Z</time></trkpt><trkpt lat="43.4257627" lon="11.1876017"><ele>162.0</ele><time>2026-04-04T07:01:54.26Z</time></trkpt><trkpt lat="43.4257082" lon="11.1876936"><ele>163.66666666666666</ele><time>2026-04-04T07:01:58.276Z</time></trkpt><trkpt lat="43.4256538" lon="11.1877593"><ele>165.33333333333334</ele><time>2026-04-04T07:02:01.276Z</time></trkpt><trkpt lat="43.4256025" lon="11.1878298"><ele>167.0</ele><time>2026-04-04T07:02:05.289Z</time></trkpt><trkpt lat="43.4255576" lon="11.1878983"><ele>168.66666666666669</ele><time>2026-04-04T07:02:09.279Z</time></trkpt><trkpt lat="43.4255338" lon="11.1880091"><ele>170.33333333333334</ele><time>2026-04-04T07:02:13.272Z</time></trkpt><trkpt lat="43.4255164" lon="11.1881161"><ele>172.0</ele><time>2026-04-04T07:02:17.279Z</time></trkpt><trkpt lat="43.4254607" lon="11.1881847"><ele>172.42857142857144</ele><time>2026-04-04T07:02:21.285Z</time></trkpt><trkpt lat="43.4254123" lon="11.1882462"><ele>172.85714285714286</ele><time>2026-04-04T07:02:24.288Z</time></trkpt><trkpt lat="43.4253742" lon="11.1883245"><ele>173.28571428571428</ele><time>2026-04-04T07:02:27.284Z</time></trkpt><trkpt lat="43.4253545" lon="11.1884111"><ele>173.71428571428572</ele><time>2026-04-04T07:02:30.274Z</time></trkpt><trkpt lat="43.4253461" lon="11.1885031"><ele>174.14285714285714</ele><time>2026-04-04T07:02:33.272Z</time></trkpt><trkpt lat="43.4253297" lon="11.1885932"><ele>174.57142857142858</ele><time>2026-04-04T07:02:36.291Z</time></trkpt><trkpt lat="43.4252881" lon="11.1886746"><ele>175.0</ele><time>2026-04-04T07:02:40.284Z</time></trkpt><trkpt lat="43.4252455" lon="11.1887412"><ele>175.0</ele><time>2026-04-04T07:02:43.28Z</time></trkpt><trkpt lat="43.4252051" lon="11.1888317"><ele>175.0</ele><time>2026-04-04T07:02:47.275Z</time></trkpt><trkpt lat="43.4251497" lon="11.1889088"><ele>175.0</ele><time>2026-04-04T07:02:51.272Z</time></trkpt><trkpt lat="43.4250869" lon="11.1889764"><ele>175.0</ele><time>2026-04-04T07:02:55.272Z</time></trkpt><trkpt lat="43.4250466" lon="11.1890487"><ele>175.0</ele><time>2026-04-04T07:02:58.335Z</time></trkpt><trkpt lat="43.4250141" lon="11.1891553"><ele>175.0</ele><time>2026-04-04T07:03:00.259Z</time></trkpt><trkpt lat="43.4249606" lon="11.1892401"><ele>174.4</ele><time>2026-04-04T07:03:03.349Z</time></trkpt><trkpt lat="43.4248763" lon="11.1892284"><ele>173.8</ele><time>2026-04-04T07:03:06.275Z</time></trkpt><trkpt lat="43.424795" lon="11.1892629"><ele>173.2</ele><time>2026-04-04T07:03:09.34Z</time></trkpt><trkpt lat="43.4247156" lon="11.1893448"><ele>172.6</ele><time>2026-04-04T07:03:12.262Z</time></trkpt><trkpt lat="43.4246305" lon="11.1894059"><ele>172.0</ele><time>2026-04-04T07:03:14.272Z</time></trkpt><trkpt lat="43.4245479" lon="11.1894578"><ele>172.0</ele><time>2026-04-04T07:03:16.278Z</time></trkpt><trkpt lat="43.4244824" lon="11.1895076"><ele>172.0</ele><time>2026-04-04T07:03:18.347Z</time></trkpt><trkpt lat="43.4244002" lon="11.1895583"><ele>172.0</ele><time>2026-04-04T07:03:21.275Z</time></trkpt><trkpt lat="43.4243168" lon="11.1896101"><ele>172.0</ele><time>2026-04-04T07:03:24.265Z</time></trkpt><trkpt lat="43.4242498" lon="11.1896444"><ele>172.0</ele><time>2026-04-04T07:03:26.275Z</time></trkpt><trkpt lat="43.4241708" lon="11.1896867"><ele>172.0</ele><time>2026-04-04T07:03:28.284Z</time></trkpt><trkpt lat="43.4240991" lon="11.1897363"><ele>172.0</ele><time>2026-04-04T07:03:30.26Z</time></trkpt><trkpt lat="43.4240213" lon="11.1897877"><ele>172.0</ele><time>2026-04-04T07:03:32.274Z</time></trkpt><trkpt lat="43.4239497" lon="11.1898421"><ele>172.0</ele><time>2026-04-04T07:03:34.273Z</time></trkpt><trkpt lat="43.4238896" lon="11.189885"><ele>172.0</ele><time>2026-04-04T07:03:36.25Z</time></trkpt><trkpt lat="43.4238146" lon="11.1899629"><ele>172.0</ele><time>2026-04-04T07:03:38.338Z</time></trkpt><trkpt lat="43.4237723" lon="11.1900736"><ele>172.0</ele><time>2026-04-04T07:03:41.255Z</time></trkpt><trkpt lat="43.4237466" lon="11.190168"><ele>172.71428571428572</ele><time>2026-04-04T07:03:45.353Z</time></trkpt><trkpt lat="43.4237389" lon="11.1902571"><ele>173.42857142857144</ele><time>2026-04-04T07:03:47.269Z</time></trkpt><trkpt lat="43.4237207" lon="11.1903587"><ele>174.14285714285717</ele><time>2026-04-04T07:03:51.259Z</time></trkpt><trkpt lat="43.4236728" lon="11.1904276"><ele>174.85714285714286</ele><time>2026-04-04T07:03:54.349Z</time></trkpt><trkpt lat="43.4236567" lon="11.1905367"><ele>175.57142857142856</ele><time>2026-04-04T07:03:57.267Z</time></trkpt><trkpt lat="43.4236274" lon="11.1906311"><ele>176.2857142857143</ele><time>2026-04-04T07:04:01.269Z</time></trkpt><trkpt lat="43.4235956" lon="11.1907166"><ele>177.0</ele><time>2026-04-04T07:04:04.251Z</time></trkpt><trkpt lat="43.4235674" lon="11.1908015"><ele>177.85714285714286</ele><time>2026-04-04T07:04:07.285Z</time></trkpt><trkpt lat="43.4235289" lon="11.1908972"><ele>178.7142857142857</ele><time>2026-04-04T07:04:11.274Z</time></trkpt><trkpt lat="43.4235034" lon="11.1909821"><ele>179.57142857142856</ele><time>2026-04-04T07:04:14.337Z</time></trkpt><trkpt lat="43.4234763" lon="11.1910707"><ele>180.42857142857144</ele><time>2026-04-04T07:04:17.273Z</time></trkpt><trkpt lat="43.4234537" lon="11.1911577"><ele>181.28571428571428</ele><time>2026-04-04T07:04:20.274Z</time></trkpt><trkpt lat="43.4234295" lon="11.1912398"><ele>182.14285714285714</ele><time>2026-04-04T07:04:23.269Z</time></trkpt><trkpt lat="43.4233973" lon="11.1913323"><ele>183.0</ele><time>2026-04-04T07:04:26.279Z</time></trkpt><trkpt lat="43.4233788" lon="11.1914164"><ele>184.28571428571428</ele><time>2026-04-04T07:04:29.348Z</time></trkpt><trkpt lat="43.423354" lon="11.1915088"><ele>185.57142857142858</ele><time>2026-04-04T07:04:33.277Z</time></trkpt><trkpt lat="43.4233093" lon="11.1916216"><ele>186.85714285714283</ele><time>2026-04-04T07:04:36.251Z</time></trkpt><trkpt lat="43.4232726" lon="11.1917098"><ele>188.14285714285714</ele><time>2026-04-04T07:04:41.261Z</time></trkpt><trkpt lat="43.4232229" lon="11.1917668"><ele>189.42857142857142</ele><time>2026-04-04T07:04:44.257Z</time></trkpt><trkpt lat="43.4231719" lon="11.1918177"><ele>190.7142857142857</ele><time>2026-04-04T07:04:48.27Z</time></trkpt><trkpt lat="43.4230992" lon="11.1918371"><ele>192.0</ele><time>2026-04-04T07:04:53.284Z</time></trkpt><trkpt lat="43.4230302" lon="11.1918318"><ele>190.42857142857142</ele><time>2026-04-04T07:04:56.265Z</time></trkpt><trkpt lat="43.4229534" lon="11.1918582"><ele>188.85714285714286</ele><time>2026-04-04T07:04:59.263Z</time></trkpt><trkpt lat="43.4228898" lon="11.1918021"><ele>187.28571428571428</ele><time>2026-04-04T07:05:04.34Z</time></trkpt><trkpt lat="43.4228306" lon="11.1917441"><ele>185.71428571428572</ele><time>2026-04-04T07:05:08.256Z</time></trkpt><trkpt lat="43.4227731" lon="11.1916998"><ele>184.14285714285714</ele><time>2026-04-04T07:05:12.267Z</time></trkpt><trkpt lat="43.4227428" lon="11.1915977"><ele>182.57142857142856</ele><time>2026-04-04T07:05:15.288Z</time></trkpt><trkpt lat="43.4227117" lon="11.191521"><ele>181.0</ele><time>2026-04-04T07:05:17.272Z</time></trkpt><trkpt lat="43.4226692" lon="11.191447"><ele>180.16666666666669</ele><time>2026-04-04T07:05:19.35Z</time></trkpt><trkpt lat="43.4226094" lon="11.1913779"><ele>179.33333333333334</ele><time>2026-04-04T07:05:21.276Z</time></trkpt><trkpt lat="43.4225404" lon="11.1913074"><ele>178.5</ele><time>2026-04-04T07:05:23.257Z</time></trkpt><trkpt lat="43.4224726" lon="11.1912268"><ele>177.66666666666666</ele><time>2026-04-04T07:05:25.278Z</time></trkpt><trkpt lat="43.4224182" lon="11.1911472"><ele>176.83333333333331</ele><time>2026-04-04T07:05:27.255Z</time></trkpt><trkpt lat="43.4223624" lon="11.1910757"><ele>176.0</ele><time>2026-04-04T07:05:29.353Z</time></trkpt><trkpt lat="43.4223167" lon="11.1910051"><ele>176.0</ele><time>2026-04-04T07:05:31.272Z</time></trkpt><trkpt lat="43.4222582" lon="11.1909209"><ele>176.0</ele><time>2026-04-04T07:05:33.272Z</time></trkpt><trkpt lat="43.422199" lon="11.1908343"><ele>176.0</ele><time>2026-04-04T07:05:35.274Z</time></trkpt><trkpt lat="43.4221472" lon="11.1907467"><ele>176.0</ele><time>2026-04-04T07:05:37.276Z</time></trkpt><trkpt lat="43.4220884" lon="11.1906607"><ele>176.0</ele><time>2026-04-04T07:05:39.27Z</time></trkpt><trkpt lat="43.4220118" lon="11.1905772"><ele>176.0</ele><time>2026-04-04T07:05:41.267Z</time></trkpt><trkpt lat="43.421917" lon="11.1905472"><ele>174.16666666666666</ele><time>2026-04-04T07:05:43.268Z</time></trkpt><trkpt lat="43.4218354" lon="11.1905776"><ele>172.33333333333331</ele><time>2026-04-04T07:05:45.351Z</time></trkpt><trkpt lat="43.4217769" lon="11.1906203"><ele>170.5</ele><time>2026-04-04T07:05:47.265Z</time></trkpt><trkpt lat="43.4217027" lon="11.1906197"><ele>168.66666666666666</ele><time>2026-04-04T07:05:49.256Z</time></trkpt><trkpt lat="43.4216186" lon="11.1905905"><ele>166.83333333333334</ele><time>2026-04-04T07:05:51.271Z</time></trkpt><trkpt lat="43.421537" lon="11.1904987"><ele>165.0</ele><time>2026-04-04T07:05:53.28Z</time></trkpt><trkpt lat="43.4214772" lon="11.1904188"><ele>164.6</ele><time>2026-04-04T07:05:55.338Z</time></trkpt><trkpt lat="43.4212854" lon="11.1903733"><ele>164.2</ele><time>2026-04-04T07:06:00.26Z</time></trkpt><trkpt lat="43.4212112" lon="11.1904364"><ele>163.8</ele><time>2026-04-04T07:06:03.336Z</time></trkpt><trkpt lat="43.4211616" lon="11.1905032"><ele>163.4</ele><time>2026-04-04T07:06:06.286Z</time></trkpt><trkpt lat="43.4210846" lon="11.1905785"><ele>163.0</ele><time>2026-04-04T07:06:09.271Z</time></trkpt><trkpt lat="43.4210109" lon="11.1906491"><ele>163.8</ele><time>2026-04-04T07:06:12.28Z</time></trkpt><trkpt lat="43.4209439" lon="11.1906986"><ele>164.60000000000002</ele><time>2026-04-04T07:06:14.285Z</time></trkpt><trkpt lat="43.4208672" lon="11.1907673"><ele>165.39999999999998</ele><time>2026-04-04T07:06:16.268Z</time></trkpt><trkpt lat="43.4207839" lon="11.1908422"><ele>166.2</ele><time>2026-04-04T07:06:18.273Z</time></trkpt><trkpt lat="43.4207047" lon="11.1909186"><ele>167.0</ele><time>2026-04-04T07:06:20.269Z</time></trkpt><trkpt lat="43.4206315" lon="11.1909992"><ele>167.0</ele><time>2026-04-04T07:06:22.262Z</time></trkpt><trkpt lat="43.4205615" lon="11.1910911"><ele>167.0</ele><time>2026-04-04T07:06:24.339Z</time></trkpt><trkpt lat="43.4204976" lon="11.1911854"><ele>167.0</ele><time>2026-04-04T07:06:26.277Z</time></trkpt><trkpt lat="43.4204336" lon="11.1912889"><ele>167.0</ele><time>2026-04-04T07:06:28.271Z</time></trkpt><trkpt lat="43.420353" lon="11.1913645"><ele>167.0</ele><time>2026-04-04T07:06:30.353Z</time></trkpt><trkpt lat="43.4202744" lon="11.1914325"><ele>167.0</ele><time>2026-04-04T07:06:32.277Z</time></trkpt><trkpt lat="43.4201985" lon="11.1915079"><ele>167.0</ele><time>2026-04-04T07:06:34.274Z</time></trkpt><trkpt lat="43.4201371" lon="11.191596"><ele>167.0</ele><time>2026-04-04T07:06:36.274Z</time></trkpt><trkpt lat="43.4200851" lon="11.1916908"><ele>167.0</ele><time>2026-04-04T07:06:38.274Z</time></trkpt><trkpt lat="43.4200451" lon="11.1917884"><ele>167.0</ele><time>2026-04-04T07:06:40.27Z</time></trkpt><trkpt lat="43.42" lon="11.1919086"><ele>167.0</ele><time>2026-04-04T07:06:42.279Z</time></trkpt><trkpt lat="43.4199444" lon="11.1920106"><ele>167.0</ele><time>2026-04-04T07:06:44.282Z</time></trkpt><trkpt lat="43.4198865" lon="11.192108"><ele>167.0</ele><time>2026-04-04T07:06:46.286Z</time></trkpt><trkpt lat="43.4198249" lon="11.1922013"><ele>167.0</ele><time>2026-04-04T07:06:48.281Z</time></trkpt><trkpt lat="43.4197632" lon="11.1922848"><ele>167.0</ele><time>2026-04-04T07:06:50.284Z</time></trkpt><trkpt lat="43.4197018" lon="11.1923595"><ele>167.0</ele><time>2026-04-04T07:06:52.256Z</time></trkpt><trkpt lat="43.4196386" lon="11.1924387"><ele>167.0</ele><time>2026-04-04T07:06:54.265Z</time></trkpt><trkpt lat="43.4195748" lon="11.1925029"><ele>166.83333333333331</ele><time>2026-04-04T07:06:56.256Z</time></trkpt><trkpt lat="43.4194933" lon="11.1925419"><ele>166.66666666666666</ele><time>2026-04-04T07:06:58.282Z</time></trkpt><trkpt lat="43.419414" lon="11.1925579"><ele>166.5</ele><time>2026-04-04T07:07:00.269Z</time></trkpt><trkpt lat="43.4193344" lon="11.1925694"><ele>166.33333333333334</ele><time>2026-04-04T07:07:02.258Z</time></trkpt><trkpt lat="43.4192503" lon="11.1925981"><ele>166.16666666666669</ele><time>2026-04-04T07:07:04.274Z</time></trkpt><trkpt lat="43.4191766" lon="11.1926484"><ele>166.0</ele><time>2026-04-04T07:07:06.27Z</time></trkpt><trkpt lat="43.4191207" lon="11.1927213"><ele>166.0</ele><time>2026-04-04T07:07:08.284Z</time></trkpt><trkpt lat="43.4190629" lon="11.1928022"><ele>166.0</ele><time>2026-04-04T07:07:10.272Z</time></trkpt><trkpt lat="43.4190075" lon="11.1928863"><ele>166.0</ele><time>2026-04-04T07:07:12.293Z</time></trkpt><trkpt lat="43.4189513" lon="11.1929627"><ele>166.0</ele><time>2026-04-04T07:07:14.338Z</time></trkpt><trkpt lat="43.4188897" lon="11.193043"><ele>166.0</ele><time>2026-04-04T07:07:16.286Z</time></trkpt><trkpt lat="43.4188461" lon="11.1931569"><ele>166.0</ele><time>2026-04-04T07:07:18.285Z</time></trkpt><trkpt lat="43.4188043" lon="11.1932554"><ele>166.16666666666669</ele><time>2026-04-04T07:07:20.266Z</time></trkpt><trkpt lat="43.4187655" lon="11.1933694"><ele>166.33333333333334</ele><time>2026-04-04T07:07:22.276Z</time></trkpt><trkpt lat="43.4187297" lon="11.1934656"><ele>166.5</ele><time>2026-04-04T07:07:24.343Z</time></trkpt><trkpt lat="43.4186964" lon="11.1935694"><ele>166.66666666666666</ele><time>2026-04-04T07:07:26.268Z</time></trkpt><trkpt lat="43.4186663" lon="11.1936743"><ele>166.83333333333331</ele><time>2026-04-04T07:07:28.343Z</time></trkpt><trkpt lat="43.4186484" lon="11.1937712"><ele>167.0</ele><time>2026-04-04T07:07:30.281Z</time></trkpt><trkpt lat="43.418615" lon="11.193878"><ele>167.0</ele><time>2026-04-04T07:07:32.287Z</time></trkpt><trkpt lat="43.4185823" lon="11.1939731"><ele>167.0</ele><time>2026-04-04T07:07:34.275Z</time></trkpt><trkpt lat="43.41856" lon="11.1940827"><ele>167.0</ele><time>2026-04-04T07:07:36.252Z</time></trkpt><trkpt lat="43.4185387" lon="11.1941973"><ele>167.0</ele><time>2026-04-04T07:07:38.279Z</time></trkpt><trkpt lat="43.4185223" lon="11.1943051"><ele>167.0</ele><time>2026-04-04T07:07:40.273Z</time></trkpt><trkpt lat="43.4185104" lon="11.1944058"><ele>167.0</ele><time>2026-04-04T07:07:42.271Z</time></trkpt><trkpt lat="43.4184954" lon="11.1945208"><ele>167.33333333333331</ele><time>2026-04-04T07:07:45.284Z</time></trkpt><trkpt lat="43.4184721" lon="11.1946436"><ele>167.66666666666666</ele><time>2026-04-04T07:07:48.289Z</time></trkpt><trkpt lat="43.4184555" lon="11.1947423"><ele>168.0</ele><time>2026-04-04T07:07:50.284Z</time></trkpt><trkpt lat="43.4184344" lon="11.1948625"><ele>168.33333333333334</ele><time>2026-04-04T07:07:52.271Z</time></trkpt><trkpt lat="43.4184354" lon="11.1949704"><ele>168.66666666666669</ele><time>2026-04-04T07:07:54.261Z</time></trkpt><trkpt lat="43.4184336" lon="11.1950706"><ele>169.0</ele><time>2026-04-04T07:07:56.259Z</time></trkpt><trkpt lat="43.4184214" lon="11.1951731"><ele>169.39999999999998</ele><time>2026-04-04T07:07:58.283Z</time></trkpt><trkpt lat="43.4184192" lon="11.1952732"><ele>169.8</ele><time>2026-04-04T07:08:00.343Z</time></trkpt><trkpt lat="43.418419" lon="11.1954026"><ele>170.2</ele><time>2026-04-04T07:08:03.337Z</time></trkpt><trkpt lat="43.4184296" lon="11.1956149"><ele>170.60000000000002</ele><time>2026-04-04T07:08:06.241Z</time></trkpt><trkpt lat="43.4184523" lon="11.1957254"><ele>171.0</ele><time>2026-04-04T07:08:08.355Z</time></trkpt><trkpt lat="43.418391" lon="11.1958026"><ele>171.0</ele><time>2026-04-04T07:08:11.254Z</time></trkpt><trkpt lat="43.4183099" lon="11.1957867"><ele>171.0</ele><time>2026-04-04T07:08:14.26Z</time></trkpt><trkpt lat="43.4182478" lon="11.19575"><ele>171.0</ele><time>2026-04-04T07:08:16.278Z</time></trkpt><trkpt lat="43.4181899" lon="11.1956874"><ele>171.0</ele><time>2026-04-04T07:08:18.267Z</time></trkpt><trkpt lat="43.4181217" lon="11.195589"><ele>171.0</ele><time>2026-04-04T07:08:20.273Z</time></trkpt><trkpt lat="43.4180615" lon="11.1954869"><ele>171.0</ele><time>2026-04-04T07:08:22.283Z</time></trkpt><trkpt lat="43.4179882" lon="11.1953824"><ele>170.4</ele><time>2026-04-04T07:08:24.278Z</time></trkpt><trkpt lat="43.4179045" lon="11.1952762"><ele>169.8</ele><time>2026-04-04T07:08:26.275Z</time></trkpt><trkpt lat="43.4178265" lon="11.1951723"><ele>169.20000000000002</ele><time>2026-04-04T07:08:28.284Z</time></trkpt><trkpt lat="43.4177451" lon="11.1950703"><ele>168.60000000000002</ele><time>2026-04-04T07:08:30.265Z</time></trkpt><trkpt lat="43.4176535" lon="11.194973"><ele>168.0</ele><time>2026-04-04T07:08:32.279Z</time></trkpt><trkpt lat="43.4175611" lon="11.1948935"><ele>168.0</ele><time>2026-04-04T07:08:34.262Z</time></trkpt><trkpt lat="43.4174998" lon="11.1948727"><ele>168.0</ele><time>2026-04-04T07:08:35.344Z</time></trkpt><trkpt lat="43.4174325" lon="11.1948709"><ele>168.0</ele><time>2026-04-04T07:08:36.262Z</time></trkpt><trkpt lat="43.4173676" lon="11.1948747"><ele>168.0</ele><time>2026-04-04T07:08:37.277Z</time></trkpt><trkpt lat="43.4172591" lon="11.194922"><ele>168.0</ele><time>2026-04-04T07:08:39.286Z</time></trkpt><trkpt lat="43.4171679" lon="11.1950053"><ele>168.0</ele><time>2026-04-04T07:08:41.271Z</time></trkpt><trkpt lat="43.4170975" lon="11.1950743"><ele>168.5</ele><time>2026-04-04T07:08:43.287Z</time></trkpt><trkpt lat="43.417011" lon="11.1951087"><ele>169.0</ele><time>2026-04-04T07:08:46.28Z</time></trkpt><trkpt lat="43.4169272" lon="11.1951615"><ele>169.5</ele><time>2026-04-04T07:08:49.252Z</time></trkpt><trkpt lat="43.4168538" lon="11.1952112"><ele>170.0</ele><time>2026-04-04T07:08:52.287Z</time></trkpt><trkpt lat="43.4168441" lon="11.1953048"><ele>170.5</ele><time>2026-04-04T07:08:55.279Z</time></trkpt><trkpt lat="43.4168518" lon="11.1954031"><ele>171.0</ele><time>2026-04-04T07:08:58.265Z</time></trkpt><trkpt lat="43.4168541" lon="11.1954971"><ele>170.99999999999997</ele><time>2026-04-04T07:09:01.27Z</time></trkpt><trkpt lat="43.4168592" lon="11.1956113"><ele>171.0</ele><time>2026-04-04T07:09:05.265Z</time></trkpt><trkpt lat="43.4168304" lon="11.1956933"><ele>171.0</ele><time>2026-04-04T07:09:09.277Z</time></trkpt><trkpt lat="43.4168076" lon="11.1958011"><ele>171.0</ele><time>2026-04-04T07:09:14.278Z</time></trkpt><trkpt lat="43.4167886" lon="11.1958844"><ele>171.0</ele><time>2026-04-04T07:09:17.268Z</time></trkpt><trkpt lat="43.4167693" lon="11.1959745"><ele>170.99999999999997</ele><time>2026-04-04T07:09:20.279Z</time></trkpt><trkpt lat="43.4167442" lon="11.196065"><ele>171.0</ele><time>2026-04-04T07:09:23.279Z</time></trkpt><trkpt lat="43.4167139" lon="11.1961731"><ele>171.5</ele><time>2026-04-04T07:09:27.28Z</time></trkpt><trkpt lat="43.4166869" lon="11.1962677"><ele>172.0</ele><time>2026-04-04T07:09:30.258Z</time></trkpt><trkpt lat="43.4166603" lon="11.1963612"><ele>172.5</ele><time>2026-04-04T07:09:33.356Z</time></trkpt><trkpt lat="43.4166353" lon="11.196441"><ele>173.0</ele><time>2026-04-04T07:09:36.27Z</time></trkpt><trkpt lat="43.4165899" lon="11.196533"><ele>173.5</ele><time>2026-04-04T07:09:39.282Z</time></trkpt><trkpt lat="43.4165807" lon="11.196647"><ele>174.0</ele><time>2026-04-04T07:09:43.279Z</time></trkpt><trkpt lat="43.4165307" lon="11.196729"><ele>174.5</ele><time>2026-04-04T07:09:46.3Z</time></trkpt><trkpt lat="43.4164936" lon="11.1968162"><ele>175.0</ele><time>2026-04-04T07:09:49.268Z</time></trkpt><trkpt lat="43.4164683" lon="11.1969093"><ele>175.5</ele><time>2026-04-04T07:09:52.262Z</time></trkpt><trkpt lat="43.4164406" lon="11.1969988"><ele>176.0</ele><time>2026-04-04T07:09:55.341Z</time></trkpt><trkpt lat="43.4163923" lon="11.1970948"><ele>176.5</ele><time>2026-04-04T07:09:58.265Z</time></trkpt><trkpt lat="43.4163627" lon="11.1971858"><ele>177.0</ele><time>2026-04-04T07:10:01.266Z</time></trkpt><trkpt lat="43.4163746" lon="11.1974769"><ele>177.39999999999998</ele><time>2026-04-04T07:10:05.334Z</time></trkpt><trkpt lat="43.4165302" lon="11.1974557"><ele>177.79999999999998</ele><time>2026-04-04T07:10:08.268Z</time></trkpt><trkpt lat="43.4166301" lon="11.1974887"><ele>178.2</ele><time>2026-04-04T07:10:12.273Z</time></trkpt><trkpt lat="43.4166933" lon="11.197515"><ele>178.6</ele><time>2026-04-04T07:10:14.272Z</time></trkpt><trkpt lat="43.4167803" lon="11.1975471"><ele>179.0</ele><time>2026-04-04T07:10:17.277Z</time></trkpt><trkpt lat="43.4168636" lon="11.1975693"><ele>179.0</ele><time>2026-04-04T07:10:20.266Z</time></trkpt><trkpt lat="43.4169434" lon="11.1975908"><ele>179.0</ele><time>2026-04-04T07:10:23.288Z</time></trkpt><trkpt lat="43.4170262" lon="11.1976201"><ele>179.0</ele><time>2026-04-04T07:10:26.268Z</time></trkpt><trkpt lat="43.4171039" lon="11.1976519"><ele>179.0</ele><time>2026-04-04T07:10:29.286Z</time></trkpt><trkpt lat="43.4171753" lon="11.1977102"><ele>179.0</ele><time>2026-04-04T07:10:32.278Z</time></trkpt><trkpt lat="43.4172108" lon="11.1977991"><ele>179.0</ele><time>2026-04-04T07:10:35.273Z</time></trkpt><trkpt lat="43.4172306" lon="11.1979006"><ele>178.5</ele><time>2026-04-04T07:10:38.262Z</time></trkpt><trkpt lat="43.4172588" lon="11.1980156"><ele>178.0</ele><time>2026-04-04T07:10:41.283Z</time></trkpt><trkpt lat="43.4172783" lon="11.1981604"><ele>177.5</ele><time>2026-04-04T07:10:44.356Z</time></trkpt><trkpt lat="43.417294" lon="11.1982713"><ele>177.0</ele><time>2026-04-04T07:10:46.279Z</time></trkpt><trkpt lat="43.4173308" lon="11.1983708"><ele>176.5</ele><time>2026-04-04T07:10:49.255Z</time></trkpt><trkpt lat="43.4173491" lon="11.1984589"><ele>176.0</ele><time>2026-04-04T07:10:52.288Z</time></trkpt><trkpt lat="43.4173585" lon="11.1985508"><ele>176.0</ele><time>2026-04-04T07:10:55.262Z</time></trkpt><trkpt lat="43.417365" lon="11.198651"><ele>176.0</ele><time>2026-04-04T07:10:58.273Z</time></trkpt><trkpt lat="43.4173598" lon="11.1987463"><ele>176.0</ele><time>2026-04-04T07:11:00.269Z</time></trkpt><trkpt lat="43.4173541" lon="11.1988334"><ele>176.0</ele><time>2026-04-04T07:11:02.27Z</time></trkpt><trkpt lat="43.4173498" lon="11.1989509"><ele>176.0</ele><time>2026-04-04T07:11:05.281Z</time></trkpt><trkpt lat="43.4173467" lon="11.1990612"><ele>176.0</ele><time>2026-04-04T07:11:08.269Z</time></trkpt><trkpt lat="43.4173319" lon="11.199189"><ele>175.66666666666666</ele><time>2026-04-04T07:11:11.266Z</time></trkpt><trkpt lat="43.4173213" lon="11.1992788"><ele>175.33333333333331</ele><time>2026-04-04T07:11:13.275Z</time></trkpt><trkpt lat="43.4173174" lon="11.1993674"><ele>175.0</ele><time>2026-04-04T07:11:15.269Z</time></trkpt><trkpt lat="43.4173119" lon="11.1994888"><ele>174.66666666666666</ele><time>2026-04-04T07:11:18.346Z</time></trkpt><trkpt lat="43.4173176" lon="11.1996137"><ele>174.33333333333334</ele><time>2026-04-04T07:11:21.285Z</time></trkpt><trkpt lat="43.4173196" lon="11.1997402"><ele>174.0</ele><time>2026-04-04T07:11:24.256Z</time></trkpt><trkpt lat="43.4173159" lon="11.1998305"><ele>174.5</ele><time>2026-04-04T07:11:26.28Z</time></trkpt><trkpt lat="43.4173141" lon="11.1999495"><ele>175.0</ele><time>2026-04-04T07:11:29.267Z</time></trkpt><trkpt lat="43.4173123" lon="11.2000591"><ele>175.5</ele><time>2026-04-04T07:11:32.277Z</time></trkpt><trkpt lat="43.41731" lon="11.2001861"><ele>176.0</ele><time>2026-04-04T07:11:35.269Z</time></trkpt><trkpt lat="43.4173062" lon="11.2002787"><ele>176.5</ele><time>2026-04-04T07:11:37.275Z</time></trkpt><trkpt lat="43.4172966" lon="11.2003778"><ele>177.0</ele><time>2026-04-04T07:11:39.334Z</time></trkpt><trkpt lat="43.4172955" lon="11.2005154"><ele>177.0</ele><time>2026-04-04T07:11:41.269Z</time></trkpt><trkpt lat="43.4172906" lon="11.2006391"><ele>177.0</ele><time>2026-04-04T07:11:44.334Z</time></trkpt><trkpt lat="43.4172678" lon="11.200743"><ele>177.0</ele><time>2026-04-04T07:11:47.282Z</time></trkpt><trkpt lat="43.4172749" lon="11.2008562"><ele>177.0</ele><time>2026-04-04T07:11:49.269Z</time></trkpt><trkpt lat="43.4172754" lon="11.2009606"><ele>177.0</ele><time>2026-04-04T07:11:52.258Z</time></trkpt><trkpt lat="43.4172744" lon="11.2010906"><ele>177.0</ele><time>2026-04-04T07:11:55.337Z</time></trkpt><trkpt lat="43.4172609" lon="11.2011887"><ele>177.66666666666666</ele><time>2026-04-04T07:11:57.255Z</time></trkpt><trkpt lat="43.4172161" lon="11.2012833"><ele>178.33333333333334</ele><time>2026-04-04T07:11:59.275Z</time></trkpt><trkpt lat="43.4171689" lon="11.2013685"><ele>179.0</ele><time>2026-04-04T07:12:01.276Z</time></trkpt><trkpt lat="43.417117" lon="11.2014578"><ele>179.66666666666669</ele><time>2026-04-04T07:12:03.273Z</time></trkpt><trkpt lat="43.4170715" lon="11.2015437"><ele>180.33333333333334</ele><time>2026-04-04T07:12:05.34Z</time></trkpt><trkpt lat="43.4170449" lon="11.2016363"><ele>181.0</ele><time>2026-04-04T07:12:07.269Z</time></trkpt><trkpt lat="43.4170321" lon="11.2017397"><ele>181.16666666666669</ele><time>2026-04-04T07:12:09.273Z</time></trkpt><trkpt lat="43.4170139" lon="11.2018555"><ele>181.33333333333334</ele><time>2026-04-04T07:12:11.274Z</time></trkpt><trkpt lat="43.4169832" lon="11.2019579"><ele>181.5</ele><time>2026-04-04T07:12:13.288Z</time></trkpt><trkpt lat="43.4169422" lon="11.2020481"><ele>181.66666666666666</ele><time>2026-04-04T07:12:15.326Z</time></trkpt><trkpt lat="43.4169075" lon="11.2021369"><ele>181.83333333333331</ele><time>2026-04-04T07:12:17.258Z</time></trkpt><trkpt lat="43.4168702" lon="11.2022113"><ele>182.0</ele><time>2026-04-04T07:12:19.33Z</time></trkpt><trkpt lat="43.416851" lon="11.2023049"><ele>182.16666666666666</ele><time>2026-04-04T07:12:21.271Z</time></trkpt><trkpt lat="43.4168263" lon="11.2023902"><ele>182.33333333333331</ele><time>2026-04-04T07:12:23.277Z</time></trkpt><trkpt lat="43.4167653" lon="11.2024809"><ele>182.5</ele><time>2026-04-04T07:12:26.275Z</time></trkpt><trkpt lat="43.4167054" lon="11.2025338"><ele>182.66666666666666</ele><time>2026-04-04T07:12:28.261Z</time></trkpt><trkpt lat="43.4166306" lon="11.2026508"><ele>182.83333333333334</ele><time>2026-04-04T07:12:30.334Z</time></trkpt><trkpt lat="43.4165593" lon="11.202746"><ele>183.0</ele><time>2026-04-04T07:12:32.275Z</time></trkpt><trkpt lat="43.4164974" lon="11.2028873"><ele>183.0</ele><time>2026-04-04T07:12:34.337Z</time></trkpt><trkpt lat="43.4164528" lon="11.2030357"><ele>183.0</ele><time>2026-04-04T07:12:36.266Z</time></trkpt><trkpt lat="43.4164167" lon="11.2031507"><ele>183.0</ele><time>2026-04-04T07:12:38.283Z</time></trkpt><trkpt lat="43.4163892" lon="11.2032644"><ele>183.0</ele><time>2026-04-04T07:12:40.249Z</time></trkpt><trkpt lat="43.416368" lon="11.2033739"><ele>183.0</ele><time>2026-04-04T07:12:42.265Z</time></trkpt><trkpt lat="43.4163394" lon="11.2034795"><ele>183.0</ele><time>2026-04-04T07:12:44.269Z</time></trkpt><trkpt lat="43.416325" lon="11.2035757"><ele>183.0</ele><time>2026-04-04T07:12:46.272Z</time></trkpt><trkpt lat="43.4163037" lon="11.2036784"><ele>183.0</ele><time>2026-04-04T07:12:48.27Z</time></trkpt><trkpt lat="43.4162894" lon="11.2037833"><ele>183.0</ele><time>2026-04-04T07:12:50.278Z</time></trkpt><trkpt lat="43.4162722" lon="11.2038872"><ele>183.0</ele><time>2026-04-04T07:12:52.273Z</time></trkpt><trkpt lat="43.4162615" lon="11.2039781"><ele>183.0</ele><time>2026-04-04T07:12:54.274Z</time></trkpt><trkpt lat="43.4162491" lon="11.2040633"><ele>183.0</ele><time>2026-04-04T07:12:56.269Z</time></trkpt><trkpt lat="43.4162407" lon="11.2041498"><ele>183.16666666666666</ele><time>2026-04-04T07:12:58.287Z</time></trkpt><trkpt lat="43.4162355" lon="11.2042724"><ele>183.33333333333334</ele><time>2026-04-04T07:13:01.245Z</time></trkpt><trkpt lat="43.4162405" lon="11.2043857"><ele>183.5</ele><time>2026-04-04T07:13:03.276Z</time></trkpt><trkpt lat="43.4162225" lon="11.2045122"><ele>183.66666666666669</ele><time>2026-04-04T07:13:06.256Z</time></trkpt><trkpt lat="43.416168" lon="11.2046182"><ele>183.83333333333334</ele><time>2026-04-04T07:13:07.275Z</time></trkpt><trkpt lat="43.4161236" lon="11.2047106"><ele>184.0</ele><time>2026-04-04T07:13:09.33Z</time></trkpt><trkpt lat="43.4160813" lon="11.2047868"><ele>184.0</ele><time>2026-04-04T07:13:11.271Z</time></trkpt><trkpt lat="43.4160757" lon="11.2049247"><ele>184.0</ele><time>2026-04-04T07:13:14.346Z</time></trkpt><trkpt lat="43.4160426" lon="11.2049997"><ele>184.0</ele><time>2026-04-04T07:13:15.278Z</time></trkpt><trkpt lat="43.4160288" lon="11.2051401"><ele>184.0</ele><time>2026-04-04T07:13:17.275Z</time></trkpt><trkpt lat="43.4160329" lon="11.2052591"><ele>184.0</ele><time>2026-04-04T07:13:19.278Z</time></trkpt><trkpt lat="43.4160355" lon="11.205362"><ele>184.0</ele><time>2026-04-04T07:13:21.273Z</time></trkpt><trkpt lat="43.4160445" lon="11.2054593"><ele>184.0</ele><time>2026-04-04T07:13:23.273Z</time></trkpt><trkpt lat="43.4160483" lon="11.205555"><ele>184.0</ele><time>2026-04-04T07:13:25.345Z</time></trkpt><trkpt lat="43.4160602" lon="11.2056418"><ele>184.0</ele><time>2026-04-04T07:13:27.276Z</time></trkpt><trkpt lat="43.416071" lon="11.2057314"><ele>184.0</ele><time>2026-04-04T07:13:29.279Z</time></trkpt><trkpt lat="43.4160752" lon="11.2058569"><ele>184.0</ele><time>2026-04-04T07:13:32.247Z</time></trkpt><trkpt lat="43.4160731" lon="11.2059874"><ele>184.0</ele><time>2026-04-04T07:13:35.257Z</time></trkpt><trkpt lat="43.416063" lon="11.2060815"><ele>184.0</ele><time>2026-04-04T07:13:37.272Z</time></trkpt><trkpt lat="43.416044" lon="11.206208"><ele>184.0</ele><time>2026-04-04T07:13:40.332Z</time></trkpt><trkpt lat="43.416013" lon="11.2062876"><ele>184.0</ele><time>2026-04-04T07:13:42.28Z</time></trkpt><trkpt lat="43.4159869" lon="11.2063703"><ele>184.0</ele><time>2026-04-04T07:13:44.332Z</time></trkpt><trkpt lat="43.4159456" lon="11.2064464"><ele>184.0</ele><time>2026-04-04T07:13:46.248Z</time></trkpt><trkpt lat="43.4159355" lon="11.2065466"><ele>184.0</ele><time>2026-04-04T07:13:48.257Z</time></trkpt><trkpt lat="43.4159325" lon="11.2066537"><ele>184.0</ele><time>2026-04-04T07:13:50.336Z</time></trkpt><trkpt lat="43.4159692" lon="11.2067516"><ele>184.16666666666669</ele><time>2026-04-04T07:13:52.259Z</time></trkpt><trkpt lat="43.4160342" lon="11.2068019"><ele>184.33333333333334</ele><time>2026-04-04T07:13:54.339Z</time></trkpt><trkpt lat="43.4160949" lon="11.2068406"><ele>184.5</ele><time>2026-04-04T07:13:56.268Z</time></trkpt><trkpt lat="43.4161593" lon="11.2068971"><ele>184.66666666666666</ele><time>2026-04-04T07:13:58.271Z</time></trkpt><trkpt lat="43.4162051" lon="11.2069773"><ele>184.83333333333331</ele><time>2026-04-04T07:14:00.251Z</time></trkpt><trkpt lat="43.4162715" lon="11.207023"><ele>185.0</ele><time>2026-04-04T07:14:02.273Z</time></trkpt><trkpt lat="43.4163463" lon="11.2070762"><ele>184.14285714285714</ele><time>2026-04-04T07:14:04.251Z</time></trkpt><trkpt lat="43.4164044" lon="11.2071277"><ele>183.28571428571428</ele><time>2026-04-04T07:14:06.263Z</time></trkpt><trkpt lat="43.4164596" lon="11.2071745"><ele>182.42857142857144</ele><time>2026-04-04T07:14:08.264Z</time></trkpt><trkpt lat="43.4165126" lon="11.2072237"><ele>181.57142857142856</ele><time>2026-04-04T07:14:10.256Z</time></trkpt><trkpt lat="43.4165683" lon="11.2072681"><ele>180.71428571428572</ele><time>2026-04-04T07:14:12.269Z</time></trkpt><trkpt lat="43.4166459" lon="11.2072655"><ele>179.85714285714286</ele><time>2026-04-04T07:14:14.272Z</time></trkpt><trkpt lat="43.4167098" lon="11.2072228"><ele>179.0</ele><time>2026-04-04T07:14:16.272Z</time></trkpt><trkpt lat="43.4167787" lon="11.2071525"><ele>179.0</ele><time>2026-04-04T07:14:18.324Z</time></trkpt><trkpt lat="43.4168529" lon="11.2070614"><ele>179.0</ele><time>2026-04-04T07:14:20.343Z</time></trkpt><trkpt lat="43.416904" lon="11.2069921"><ele>179.0</ele><time>2026-04-04T07:14:22.268Z</time></trkpt><trkpt lat="43.4169636" lon="11.206921"><ele>179.0</ele><time>2026-04-04T07:14:25.338Z</time></trkpt><trkpt lat="43.4170356" lon="11.2069804"><ele>179.0</ele><time>2026-04-04T07:14:28.255Z</time></trkpt><trkpt lat="43.4170517" lon="11.2070814"><ele>179.0</ele><time>2026-04-04T07:14:30.345Z</time></trkpt><trkpt lat="43.4170782" lon="11.2071888"><ele>179.0</ele><time>2026-04-04T07:14:31.254Z</time></trkpt><trkpt lat="43.4170672" lon="11.2072852"><ele>179.0</ele><time>2026-04-04T07:14:34.274Z</time></trkpt><trkpt lat="43.4170317" lon="11.2073717"><ele>179.0</ele><time>2026-04-04T07:14:37.259Z</time></trkpt><trkpt lat="43.4169682" lon="11.2074612"><ele>179.0</ele><time>2026-04-04T07:14:40.338Z</time></trkpt><trkpt lat="43.4169097" lon="11.2075445"><ele>179.0</ele><time>2026-04-04T07:14:43.277Z</time></trkpt><trkpt lat="43.4168849" lon="11.2076481"><ele>179.0</ele><time>2026-04-04T07:14:46.264Z</time></trkpt><trkpt lat="43.4168766" lon="11.2077545"><ele>179.2857142857143</ele><time>2026-04-04T07:14:49.336Z</time></trkpt><trkpt lat="43.4168769" lon="11.2078683"><ele>179.57142857142858</ele><time>2026-04-04T07:14:52.246Z</time></trkpt><trkpt lat="43.4168518" lon="11.2079856"><ele>179.85714285714286</ele><time>2026-04-04T07:14:55.274Z</time></trkpt><trkpt lat="43.4168247" lon="11.2080691"><ele>180.14285714285717</ele><time>2026-04-04T07:14:57.28Z</time></trkpt><trkpt lat="43.4167949" lon="11.2081513"><ele>180.42857142857142</ele><time>2026-04-04T07:14:59.255Z</time></trkpt><trkpt lat="43.4167537" lon="11.2082236"><ele>180.71428571428572</ele><time>2026-04-04T07:15:01.251Z</time></trkpt><trkpt lat="43.4167002" lon="11.2082852"><ele>181.0</ele><time>2026-04-04T07:15:03.33Z</time></trkpt><trkpt lat="43.4166419" lon="11.2083409"><ele>181.0</ele><time>2026-04-04T07:15:05.326Z</time></trkpt><trkpt lat="43.4165802" lon="11.2083667"><ele>181.0</ele><time>2026-04-04T07:15:06.258Z</time></trkpt><trkpt lat="43.4164702" lon="11.2084103"><ele>181.0</ele><time>2026-04-04T07:15:08.266Z</time></trkpt><trkpt lat="43.4163692" lon="11.208474"><ele>181.0</ele><time>2026-04-04T07:15:10.272Z</time></trkpt><trkpt lat="43.4162643" lon="11.2085273"><ele>181.0</ele><time>2026-04-04T07:15:12.277Z</time></trkpt><trkpt lat="43.4161634" lon="11.2085882"><ele>181.4</ele><time>2026-04-04T07:15:14.341Z</time></trkpt><trkpt lat="43.4161017" lon="11.208618"><ele>181.8</ele><time>2026-04-04T07:15:15.338Z</time></trkpt><trkpt lat="43.4160046" lon="11.2086627"><ele>182.20000000000002</ele><time>2026-04-04T07:15:17.275Z</time></trkpt><trkpt lat="43.4159448" lon="11.2087055"><ele>182.60000000000002</ele><time>2026-04-04T07:15:19.324Z</time></trkpt><trkpt lat="43.4158206" lon="11.2087571"><ele>183.0</ele><time>2026-04-04T07:15:23.265Z</time></trkpt><trkpt lat="43.4157298" lon="11.2088157"><ele>183.0</ele><time>2026-04-04T07:15:27.279Z</time></trkpt><trkpt lat="43.4156628" lon="11.208854"><ele>183.0</ele><time>2026-04-04T07:15:29.272Z</time></trkpt><trkpt lat="43.4156009" lon="11.2088767"><ele>183.0</ele><time>2026-04-04T07:15:31.25Z</time></trkpt><trkpt lat="43.415542" lon="11.2089252"><ele>183.0</ele><time>2026-04-04T07:15:33.264Z</time></trkpt><trkpt lat="43.4154652" lon="11.2089676"><ele>183.0</ele><time>2026-04-04T07:15:35.267Z</time></trkpt><trkpt lat="43.4154044" lon="11.2089955"><ele>183.0</ele><time>2026-04-04T07:15:37.263Z</time></trkpt><trkpt lat="43.4153424" lon="11.2090264"><ele>183.0</ele><time>2026-04-04T07:15:39.324Z</time></trkpt><trkpt lat="43.4152547" lon="11.2090633"><ele>183.16666666666666</ele><time>2026-04-04T07:15:42.276Z</time></trkpt><trkpt lat="43.4151794" lon="11.2091116"><ele>183.33333333333334</ele><time>2026-04-04T07:15:45.283Z</time></trkpt><trkpt lat="43.4150953" lon="11.2091651"><ele>183.5</ele><time>2026-04-04T07:15:48.278Z</time></trkpt><trkpt lat="43.415012" lon="11.2092061"><ele>183.66666666666669</ele><time>2026-04-04T07:15:52.263Z</time></trkpt><trkpt lat="43.4149453" lon="11.2092406"><ele>183.83333333333334</ele><time>2026-04-04T07:15:54.348Z</time></trkpt><trkpt lat="43.4148752" lon="11.2092975"><ele>184.0</ele><time>2026-04-04T07:15:56.274Z</time></trkpt><trkpt lat="43.4148068" lon="11.2093463"><ele>184.0</ele><time>2026-04-04T07:15:59.35Z</time></trkpt><trkpt lat="43.4147271" lon="11.2093639"><ele>184.0</ele><time>2026-04-04T07:16:02.288Z</time></trkpt><trkpt lat="43.4146434" lon="11.2094005"><ele>184.0</ele><time>2026-04-04T07:16:05.327Z</time></trkpt><trkpt lat="43.4145738" lon="11.2094716"><ele>184.0</ele><time>2026-04-04T07:16:07.271Z</time></trkpt><trkpt lat="43.4145186" lon="11.2095265"><ele>184.0</ele><time>2026-04-04T07:16:09.33Z</time></trkpt><trkpt lat="43.4144538" lon="11.2095756"><ele>184.0</ele><time>2026-04-04T07:16:11.262Z</time></trkpt><trkpt lat="43.4143773" lon="11.2096536"><ele>184.16666666666669</ele><time>2026-04-04T07:16:13.257Z</time></trkpt><trkpt lat="43.4142955" lon="11.2097117"><ele>184.33333333333334</ele><time>2026-04-04T07:16:16.27Z</time></trkpt><trkpt lat="43.4142154" lon="11.2097724"><ele>184.5</ele><time>2026-04-04T07:16:19.251Z</time></trkpt><trkpt lat="43.4141588" lon="11.2098119"><ele>184.66666666666666</ele><time>2026-04-04T07:16:21.262Z</time></trkpt><trkpt lat="43.4141025" lon="11.2098521"><ele>184.83333333333331</ele><time>2026-04-04T07:16:23.261Z</time></trkpt><trkpt lat="43.414043" lon="11.2098918"><ele>185.0</ele><time>2026-04-04T07:16:25.239Z</time></trkpt><trkpt lat="43.4139604" lon="11.2099506"><ele>185.16666666666666</ele><time>2026-04-04T07:16:28.264Z</time></trkpt><trkpt lat="43.4139004" lon="11.2099908"><ele>185.33333333333331</ele><time>2026-04-04T07:16:30.332Z</time></trkpt><trkpt lat="43.4138175" lon="11.2100514"><ele>185.5</ele><time>2026-04-04T07:16:33.269Z</time></trkpt><trkpt lat="43.413752" lon="11.210103"><ele>185.66666666666666</ele><time>2026-04-04T07:16:35.338Z</time></trkpt><trkpt lat="43.4136554" lon="11.2101513"><ele>185.83333333333334</ele><time>2026-04-04T07:16:37.259Z</time></trkpt><trkpt lat="43.4135988" lon="11.2101895"><ele>186.0</ele><time>2026-04-04T07:16:39.334Z</time></trkpt><trkpt lat="43.4135427" lon="11.2102337"><ele>186.00000000000003</ele><time>2026-04-04T07:16:42.263Z</time></trkpt><trkpt lat="43.4134849" lon="11.2102783"><ele>186.0</ele><time>2026-04-04T07:16:44.334Z</time></trkpt><trkpt lat="43.4134225" lon="11.2103481"><ele>186.0</ele><time>2026-04-04T07:16:46.259Z</time></trkpt><trkpt lat="43.4133352" lon="11.2104001"><ele>186.0</ele><time>2026-04-04T07:16:48.27Z</time></trkpt><trkpt lat="43.4132769" lon="11.2104435"><ele>186.0</ele><time>2026-04-04T07:16:50.266Z</time></trkpt><trkpt lat="43.4132222" lon="11.2104884"><ele>186.00000000000003</ele><time>2026-04-04T07:16:52.274Z</time></trkpt><trkpt lat="43.4131599" lon="11.2105269"><ele>186.0</ele><time>2026-04-04T07:16:54.279Z</time></trkpt><trkpt lat="43.4131023" lon="11.2105673"><ele>186.2857142857143</ele><time>2026-04-04T07:16:56.275Z</time></trkpt><trkpt lat="43.4130453" lon="11.2106659"><ele>186.57142857142858</ele><time>2026-04-04T07:16:59.346Z</time></trkpt><trkpt lat="43.4129906" lon="11.2107252"><ele>186.85714285714286</ele><time>2026-04-04T07:17:01.259Z</time></trkpt><trkpt lat="43.4129281" lon="11.2107633"><ele>187.14285714285717</ele><time>2026-04-04T07:17:03.273Z</time></trkpt><trkpt lat="43.4128643" lon="11.2108076"><ele>187.42857142857142</ele><time>2026-04-04T07:17:05.27Z</time></trkpt><trkpt lat="43.4127977" lon="11.2108439"><ele>187.71428571428572</ele><time>2026-04-04T07:17:07.276Z</time></trkpt><trkpt lat="43.4127285" lon="11.2108759"><ele>188.0</ele><time>2026-04-04T07:17:09.327Z</time></trkpt><trkpt lat="43.412621" lon="11.2109105"><ele>188.0</ele><time>2026-04-04T07:17:11.275Z</time></trkpt><trkpt lat="43.4125641" lon="11.2109616"><ele>188.0</ele><time>2026-04-04T07:17:13.266Z</time></trkpt><trkpt lat="43.4124766" lon="11.2110065"><ele>188.0</ele><time>2026-04-04T07:17:16.254Z</time></trkpt><trkpt lat="43.4124146" lon="11.2110448"><ele>188.0</ele><time>2026-04-04T07:17:18.334Z</time></trkpt><trkpt lat="43.4123531" lon="11.2110889"><ele>188.0</ele><time>2026-04-04T07:17:20.328Z</time></trkpt><trkpt lat="43.4122915" lon="11.2111246"><ele>188.0</ele><time>2026-04-04T07:17:22.273Z</time></trkpt><trkpt lat="43.4122346" lon="11.2111676"><ele>188.0</ele><time>2026-04-04T07:17:24.328Z</time></trkpt><trkpt lat="43.4121747" lon="11.211203"><ele>188.16666666666666</ele><time>2026-04-04T07:17:26.252Z</time></trkpt><trkpt lat="43.4120905" lon="11.2112637"><ele>188.33333333333331</ele><time>2026-04-04T07:17:29.335Z</time></trkpt><trkpt lat="43.4120095" lon="11.2113349"><ele>188.5</ele><time>2026-04-04T07:17:32.272Z</time></trkpt><trkpt lat="43.4119414" lon="11.2113875"><ele>188.66666666666666</ele><time>2026-04-04T07:17:35.352Z</time></trkpt><trkpt lat="43.4118777" lon="11.2113694"><ele>188.83333333333334</ele><time>2026-04-04T07:17:37.269Z</time></trkpt><trkpt lat="43.4118249" lon="11.2112982"><ele>189.0</ele><time>2026-04-04T07:17:40.274Z</time></trkpt><trkpt lat="43.4118245" lon="11.2111994"><ele>189.0</ele><time>2026-04-04T07:17:43.275Z</time></trkpt><trkpt lat="43.4117799" lon="11.2111004"><ele>189.0</ele><time>2026-04-04T07:17:46.268Z</time></trkpt><trkpt lat="43.4117508" lon="11.2109924"><ele>189.0</ele><time>2026-04-04T07:17:49.269Z</time></trkpt><trkpt lat="43.4117117" lon="11.2109022"><ele>189.0</ele><time>2026-04-04T07:17:51.273Z</time></trkpt><trkpt lat="43.4116681" lon="11.2107926"><ele>189.0</ele><time>2026-04-04T07:17:53.333Z</time></trkpt><trkpt lat="43.4116464" lon="11.2107091"><ele>189.0</ele><time>2026-04-04T07:17:54.324Z</time></trkpt><trkpt lat="43.4115973" lon="11.2106121"><ele>189.0</ele><time>2026-04-04T07:17:56.267Z</time></trkpt><trkpt lat="43.4115542" lon="11.2105269"><ele>189.0</ele><time>2026-04-04T07:17:58.261Z</time></trkpt><trkpt lat="43.4115091" lon="11.2104353"><ele>189.0</ele><time>2026-04-04T07:18:00.267Z</time></trkpt><trkpt lat="43.411459" lon="11.2103414"><ele>189.0</ele><time>2026-04-04T07:18:02.281Z</time></trkpt><trkpt lat="43.411397" lon="11.210252"><ele>189.0</ele><time>2026-04-04T07:18:04.336Z</time></trkpt><trkpt lat="43.4113283" lon="11.2101675"><ele>189.0</ele><time>2026-04-04T07:18:06.264Z</time></trkpt><trkpt lat="43.4112465" lon="11.2101074"><ele>189.2</ele><time>2026-04-04T07:18:08.293Z</time></trkpt><trkpt lat="43.4111611" lon="11.2100626"><ele>189.39999999999998</ele><time>2026-04-04T07:18:10.332Z</time></trkpt><trkpt lat="43.4110391" lon="11.210126"><ele>189.6</ele><time>2026-04-04T07:18:13.241Z</time></trkpt><trkpt lat="43.4109533" lon="11.2101219"><ele>189.8</ele><time>2026-04-04T07:18:16.241Z</time></trkpt><trkpt lat="43.4108593" lon="11.2101631"><ele>190.0</ele><time>2026-04-04T07:18:19.336Z</time></trkpt><trkpt lat="43.4107878" lon="11.2101843"><ele>190.0</ele><time>2026-04-04T07:18:21.277Z</time></trkpt><trkpt lat="43.4107101" lon="11.2102064"><ele>190.0</ele><time>2026-04-04T07:18:23.276Z</time></trkpt><trkpt lat="43.4106342" lon="11.2102263"><ele>190.0</ele><time>2026-04-04T07:18:25.276Z</time></trkpt><trkpt lat="43.4105513" lon="11.2102607"><ele>190.0</ele><time>2026-04-04T07:18:27.279Z</time></trkpt><trkpt lat="43.4104656" lon="11.210295"><ele>190.0</ele><time>2026-04-04T07:18:29.249Z</time></trkpt><trkpt lat="43.4103843" lon="11.2103294"><ele>190.0</ele><time>2026-04-04T07:18:31.274Z</time></trkpt><trkpt lat="43.410298" lon="11.2103622"><ele>190.4</ele><time>2026-04-04T07:18:33.283Z</time></trkpt><trkpt lat="43.4102065" lon="11.2103873"><ele>190.8</ele><time>2026-04-04T07:18:35.265Z</time></trkpt><trkpt lat="43.4101137" lon="11.2104123"><ele>191.2</ele><time>2026-04-04T07:18:37.265Z</time></trkpt><trkpt lat="43.4100221" lon="11.2104412"><ele>191.6</ele><time>2026-04-04T07:18:39.274Z</time></trkpt><trkpt lat="43.4099257" lon="11.2104825"><ele>192.0</ele><time>2026-04-04T07:18:41.261Z</time></trkpt><trkpt lat="43.4098284" lon="11.2105246"><ele>192.0</ele><time>2026-04-04T07:18:43.279Z</time></trkpt><trkpt lat="43.4097409" lon="11.2105682"><ele>192.0</ele><time>2026-04-04T07:18:45.29Z</time></trkpt><trkpt lat="43.4096574" lon="11.2106023"><ele>192.0</ele><time>2026-04-04T07:18:47.273Z</time></trkpt><trkpt lat="43.4095722" lon="11.2106385"><ele>192.0</ele><time>2026-04-04T07:18:49.342Z</time></trkpt><trkpt lat="43.4094874" lon="11.2107066"><ele>192.0</ele><time>2026-04-04T07:18:51.256Z</time></trkpt><trkpt lat="43.4094054" lon="11.210736"><ele>191.83333333333334</ele><time>2026-04-04T07:18:53.27Z</time></trkpt><trkpt lat="43.4093244" lon="11.2107642"><ele>191.66666666666666</ele><time>2026-04-04T07:18:55.335Z</time></trkpt><trkpt lat="43.4092397" lon="11.2107778"><ele>191.5</ele><time>2026-04-04T07:18:57.272Z</time></trkpt><trkpt lat="43.40917" lon="11.2108129"><ele>191.33333333333331</ele><time>2026-04-04T07:18:59.333Z</time></trkpt><trkpt lat="43.4090953" lon="11.2108709"><ele>191.16666666666666</ele><time>2026-04-04T07:19:01.285Z</time></trkpt><trkpt lat="43.4090133" lon="11.210889"><ele>191.0</ele><time>2026-04-04T07:19:03.277Z</time></trkpt><trkpt lat="43.4089392" lon="11.2109075"><ele>191.0</ele><time>2026-04-04T07:19:05.283Z</time></trkpt><trkpt lat="43.4088682" lon="11.2109585"><ele>191.0</ele><time>2026-04-04T07:19:07.277Z</time></trkpt><trkpt lat="43.4087773" lon="11.2110216"><ele>191.0</ele><time>2026-04-04T07:19:09.333Z</time></trkpt><trkpt lat="43.4086823" lon="11.2110427"><ele>191.0</ele><time>2026-04-04T07:19:10.256Z</time></trkpt><trkpt lat="43.4086173" lon="11.2110977"><ele>191.0</ele><time>2026-04-04T07:19:11.26Z</time></trkpt><trkpt lat="43.4086299" lon="11.2112196"><ele>191.0</ele><time>2026-04-04T07:19:14.276Z</time></trkpt><trkpt lat="43.4086142" lon="11.2113168"><ele>190.83333333333331</ele><time>2026-04-04T07:19:16.273Z</time></trkpt><trkpt lat="43.4085987" lon="11.2114203"><ele>190.66666666666666</ele><time>2026-04-04T07:19:18.263Z</time></trkpt><trkpt lat="43.4085675" lon="11.2115045"><ele>190.5</ele><time>2026-04-04T07:19:20.276Z</time></trkpt><trkpt lat="43.4085432" lon="11.2116181"><ele>190.33333333333334</ele><time>2026-04-04T07:19:22.267Z</time></trkpt><trkpt lat="43.4085004" lon="11.2117106"><ele>190.16666666666669</ele><time>2026-04-04T07:19:24.273Z</time></trkpt><trkpt lat="43.4084327" lon="11.2117571"><ele>190.0</ele><time>2026-04-04T07:19:26.268Z</time></trkpt><trkpt lat="43.4084195" lon="11.2118605"><ele>190.0</ele><time>2026-04-04T07:19:28.272Z</time></trkpt><trkpt lat="43.4083874" lon="11.2119472"><ele>190.0</ele><time>2026-04-04T07:19:30.261Z</time></trkpt><trkpt lat="43.408303" lon="11.2119635"><ele>190.0</ele><time>2026-04-04T07:19:32.283Z</time></trkpt><trkpt lat="43.4082163" lon="11.2120161"><ele>190.0</ele><time>2026-04-04T07:19:34.328Z</time></trkpt><trkpt lat="43.4081426" lon="11.2120477"><ele>190.0</ele><time>2026-04-04T07:19:36.258Z</time></trkpt><trkpt lat="43.4080611" lon="11.2120752"><ele>190.0</ele><time>2026-04-04T07:19:38.273Z</time></trkpt><trkpt lat="43.4079756" lon="11.2121109"><ele>189.8</ele><time>2026-04-04T07:19:40.352Z</time></trkpt><trkpt lat="43.4078971" lon="11.212138"><ele>189.6</ele><time>2026-04-04T07:19:42.269Z</time></trkpt><trkpt lat="43.4077995" lon="11.2121943"><ele>189.39999999999998</ele><time>2026-04-04T07:19:44.341Z</time></trkpt><trkpt lat="43.4077321" lon="11.2122849"><ele>189.2</ele><time>2026-04-04T07:19:46.264Z</time></trkpt><trkpt lat="43.4076618" lon="11.2123983"><ele>189.0</ele><time>2026-04-04T07:19:48.258Z</time></trkpt><trkpt lat="43.4076426" lon="11.2125336"><ele>188.83333333333334</ele><time>2026-04-04T07:19:50.278Z</time></trkpt><trkpt lat="43.4075747" lon="11.2126101"><ele>188.66666666666666</ele><time>2026-04-04T07:19:52.275Z</time></trkpt><trkpt lat="43.4074828" lon="11.2126624"><ele>188.5</ele><time>2026-04-04T07:19:54.328Z</time></trkpt><trkpt lat="43.4074192" lon="11.2126747"><ele>188.33333333333331</ele><time>2026-04-04T07:19:55.333Z</time></trkpt><trkpt lat="43.4073269" lon="11.2127208"><ele>188.16666666666666</ele><time>2026-04-04T07:19:57.277Z</time></trkpt><trkpt lat="43.4072482" lon="11.2127816"><ele>188.0</ele><time>2026-04-04T07:19:59.27Z</time></trkpt><trkpt lat="43.4071675" lon="11.2128253"><ele>188.0</ele><time>2026-04-04T07:20:01.288Z</time></trkpt><trkpt lat="43.4070803" lon="11.2128648"><ele>188.0</ele><time>2026-04-04T07:20:03.281Z</time></trkpt><trkpt lat="43.4069988" lon="11.212901"><ele>188.0</ele><time>2026-04-04T07:20:05.339Z</time></trkpt><trkpt lat="43.4069178" lon="11.2129339"><ele>188.0</ele><time>2026-04-04T07:20:07.279Z</time></trkpt><trkpt lat="43.4068355" lon="11.2129684"><ele>188.0</ele><time>2026-04-04T07:20:09.337Z</time></trkpt><trkpt lat="43.4067646" lon="11.2129739"><ele>188.0</ele><time>2026-04-04T07:20:11.274Z</time></trkpt><trkpt lat="43.4066979" lon="11.2129842"><ele>188.0</ele><time>2026-04-04T07:20:13.285Z</time></trkpt><trkpt lat="43.4065975" lon="11.2130257"><ele>188.0</ele><time>2026-04-04T07:20:15.346Z</time></trkpt><trkpt lat="43.4065032" lon="11.2130809"><ele>188.0</ele><time>2026-04-04T07:20:17.269Z</time></trkpt><trkpt lat="43.4064179" lon="11.2131543"><ele>188.0</ele><time>2026-04-04T07:20:19.324Z</time></trkpt><trkpt lat="43.4063331" lon="11.2132392"><ele>188.0</ele><time>2026-04-04T07:20:21.271Z</time></trkpt><trkpt lat="43.4062589" lon="11.2132733"><ele>187.8</ele><time>2026-04-04T07:20:23.343Z</time></trkpt><trkpt lat="43.4061575" lon="11.2132885"><ele>187.60000000000002</ele><time>2026-04-04T07:20:25.27Z</time></trkpt><trkpt lat="43.4060714" lon="11.2133298"><ele>187.39999999999998</ele><time>2026-04-04T07:20:27.262Z</time></trkpt><trkpt lat="43.4060046" lon="11.2133789"><ele>187.2</ele><time>2026-04-04T07:20:29.262Z</time></trkpt><trkpt lat="43.4059162" lon="11.2134044"><ele>187.0</ele><time>2026-04-04T07:20:31.256Z</time></trkpt><trkpt lat="43.4058297" lon="11.2134416"><ele>187.0</ele><time>2026-04-04T07:20:33.256Z</time></trkpt><trkpt lat="43.4057422" lon="11.2134778"><ele>187.0</ele><time>2026-04-04T07:20:35.267Z</time></trkpt><trkpt lat="43.4056509" lon="11.2135127"><ele>187.0</ele><time>2026-04-04T07:20:37.269Z</time></trkpt><trkpt lat="43.40556" lon="11.213552"><ele>187.0</ele><time>2026-04-04T07:20:39.327Z</time></trkpt><trkpt lat="43.4054597" lon="11.2135914"><ele>187.0</ele><time>2026-04-04T07:20:41.257Z</time></trkpt><trkpt lat="43.4053641" lon="11.2136445"><ele>187.5</ele><time>2026-04-04T07:20:43.266Z</time></trkpt><trkpt lat="43.4052805" lon="11.2136307"><ele>188.0</ele><time>2026-04-04T07:20:46.271Z</time></trkpt><trkpt lat="43.4052207" lon="11.2135469"><ele>188.5</ele><time>2026-04-04T07:20:48.273Z</time></trkpt><trkpt lat="43.4051459" lon="11.2134753"><ele>189.0</ele><time>2026-04-04T07:20:50.347Z</time></trkpt><trkpt lat="43.4050496" lon="11.2134762"><ele>189.5</ele><time>2026-04-04T07:20:52.27Z</time></trkpt><trkpt lat="43.4049648" lon="11.2134963"><ele>190.0</ele><time>2026-04-04T07:20:54.323Z</time></trkpt><trkpt lat="43.4048569" lon="11.213511"><ele>190.0</ele><time>2026-04-04T07:20:56.267Z</time></trkpt><trkpt lat="43.4047645" lon="11.2135182"><ele>190.0</ele><time>2026-04-04T07:20:58.277Z</time></trkpt><trkpt lat="43.4046629" lon="11.2135263"><ele>190.0</ele><time>2026-04-04T07:21:00.277Z</time></trkpt><trkpt lat="43.4045898" lon="11.2135146"><ele>190.0</ele><time>2026-04-04T07:21:02.265Z</time></trkpt><trkpt lat="43.4044941" lon="11.2135066"><ele>190.0</ele><time>2026-04-04T07:21:04.332Z</time></trkpt><trkpt lat="43.4043834" lon="11.2135038"><ele>190.0</ele><time>2026-04-04T07:21:06.257Z</time></trkpt><trkpt lat="43.4042847" lon="11.2135246"><ele>190.0</ele><time>2026-04-04T07:21:08.278Z</time></trkpt><trkpt lat="43.4041614" lon="11.2135424"><ele>190.0</ele><time>2026-04-04T07:21:10.338Z</time></trkpt><trkpt lat="43.4040439" lon="11.2135624"><ele>190.0</ele><time>2026-04-04T07:21:12.27Z</time></trkpt><trkpt lat="43.4039509" lon="11.2135862"><ele>190.0</ele><time>2026-04-04T07:21:14.265Z</time></trkpt><trkpt lat="43.4038785" lon="11.2135626"><ele>190.2</ele><time>2026-04-04T07:21:16.277Z</time></trkpt><trkpt lat="43.4037874" lon="11.2135978"><ele>190.4</ele><time>2026-04-04T07:21:18.336Z</time></trkpt><trkpt lat="43.4037024" lon="11.2136697"><ele>190.60000000000002</ele><time>2026-04-04T07:21:20.274Z</time></trkpt><trkpt lat="43.4036064" lon="11.2137384"><ele>190.8</ele><time>2026-04-04T07:21:22.27Z</time></trkpt><trkpt lat="43.4035119" lon="11.2137948"><ele>191.0</ele><time>2026-04-04T07:21:24.266Z</time></trkpt><trkpt lat="43.4034215" lon="11.213847"><ele>191.0</ele><time>2026-04-04T07:21:26.241Z</time></trkpt><trkpt lat="43.4033569" lon="11.2138934"><ele>191.0</ele><time>2026-04-04T07:21:28.251Z</time></trkpt><trkpt lat="43.4032678" lon="11.2139414"><ele>191.0</ele><time>2026-04-04T07:21:30.27Z</time></trkpt><trkpt lat="43.403171" lon="11.2139877"><ele>191.0</ele><time>2026-04-04T07:21:32.267Z</time></trkpt><trkpt lat="43.4030814" lon="11.2140472"><ele>191.0</ele><time>2026-04-04T07:21:34.267Z</time></trkpt><trkpt lat="43.4029897" lon="11.214097"><ele>191.8</ele><time>2026-04-04T07:21:36.272Z</time></trkpt><trkpt lat="43.4029015" lon="11.2141435"><ele>192.60000000000002</ele><time>2026-04-04T07:21:38.274Z</time></trkpt><trkpt lat="43.4028149" lon="11.2141987"><ele>193.4</ele><time>2026-04-04T07:21:40.327Z</time></trkpt><trkpt lat="43.4027369" lon="11.2142401"><ele>194.2</ele><time>2026-04-04T07:21:42.261Z</time></trkpt><trkpt lat="43.4026461" lon="11.2142846"><ele>195.0</ele><time>2026-04-04T07:21:44.336Z</time></trkpt><trkpt lat="43.4025633" lon="11.2143285"><ele>195.0</ele><time>2026-04-04T07:21:46.251Z</time></trkpt><trkpt lat="43.4024691" lon="11.2143839"><ele>195.0</ele><time>2026-04-04T07:21:48.26Z</time></trkpt><trkpt lat="43.4023889" lon="11.2144412"><ele>195.0</ele><time>2026-04-04T07:21:50.268Z</time></trkpt><trkpt lat="43.4023035" lon="11.2145032"><ele>195.0</ele><time>2026-04-04T07:21:52.268Z</time></trkpt><trkpt lat="43.4022144" lon="11.2145623"><ele>195.0</ele><time>2026-04-04T07:21:54.331Z</time></trkpt><trkpt lat="43.4021337" lon="11.2146143"><ele>198.6</ele><time>2026-04-04T07:21:56.254Z</time></trkpt><trkpt lat="43.4020352" lon="11.2146513"><ele>202.2</ele><time>2026-04-04T07:21:58.266Z</time></trkpt><trkpt lat="43.4019492" lon="11.2146888"><ele>205.8</ele><time>2026-04-04T07:22:00.276Z</time></trkpt><trkpt lat="43.4018638" lon="11.214702"><ele>209.4</ele><time>2026-04-04T07:22:02.269Z</time></trkpt><trkpt lat="43.4017785" lon="11.2147264"><ele>213.0</ele><time>2026-04-04T07:22:04.262Z</time></trkpt><trkpt lat="43.4016989" lon="11.2147649"><ele>213.0</ele><time>2026-04-04T07:22:06.262Z</time></trkpt><trkpt lat="43.4016186" lon="11.2148079"><ele>213.0</ele><time>2026-04-04T07:22:08.324Z</time></trkpt><trkpt lat="43.4015445" lon="11.2148497"><ele>213.0</ele><time>2026-04-04T07:22:10.329Z</time></trkpt><trkpt lat="43.4014652" lon="11.2149157"><ele>213.0</ele><time>2026-04-04T07:22:12.281Z</time></trkpt><trkpt lat="43.4013782" lon="11.2149584"><ele>213.0</ele><time>2026-04-04T07:22:14.262Z</time></trkpt><trkpt lat="43.4012894" lon="11.2150056"><ele>213.0</ele><time>2026-04-04T07:22:16.281Z</time></trkpt><trkpt lat="43.4011942" lon="11.2150461"><ele>211.5</ele><time>2026-04-04T07:22:18.329Z</time></trkpt><trkpt lat="43.4011193" lon="11.2150893"><ele>210.0</ele><time>2026-04-04T07:22:20.342Z</time></trkpt><trkpt lat="43.4010465" lon="11.2151453"><ele>208.5</ele><time>2026-04-04T07:22:22.269Z</time></trkpt><trkpt lat="43.4009727" lon="11.2151909"><ele>207.0</ele><time>2026-04-04T07:22:24.329Z</time></trkpt><trkpt lat="43.4009036" lon="11.2152251"><ele>205.5</ele><time>2026-04-04T07:22:26.263Z</time></trkpt><trkpt lat="43.400832" lon="11.2152911"><ele>204.0</ele><time>2026-04-04T07:22:28.271Z</time></trkpt><trkpt lat="43.4007501" lon="11.2153213"><ele>204.0</ele><time>2026-04-04T07:22:30.329Z</time></trkpt><trkpt lat="43.4006722" lon="11.2153576"><ele>204.0</ele><time>2026-04-04T07:22:32.262Z</time></trkpt><trkpt lat="43.4005962" lon="11.2153917"><ele>204.0</ele><time>2026-04-04T07:22:34.324Z</time></trkpt><trkpt lat="43.4005261" lon="11.2154264"><ele>204.0</ele><time>2026-04-04T07:22:36.266Z</time></trkpt><trkpt lat="43.4004602" lon="11.2154532"><ele>204.0</ele><time>2026-04-04T07:22:38.26Z</time></trkpt><trkpt lat="43.4003795" lon="11.2154979"><ele>204.0</ele><time>2026-04-04T07:22:41.257Z</time></trkpt><trkpt lat="43.4003187" lon="11.2155362"><ele>202.66666666666666</ele><time>2026-04-04T07:22:43.254Z</time></trkpt><trkpt lat="43.4002422" lon="11.2155866"><ele>201.33333333333331</ele><time>2026-04-04T07:22:45.324Z</time></trkpt><trkpt lat="43.4001519" lon="11.2156379"><ele>200.0</ele><time>2026-04-04T07:22:47.276Z</time></trkpt><trkpt lat="43.4000774" lon="11.215688"><ele>198.66666666666666</ele><time>2026-04-04T07:22:49.263Z</time></trkpt><trkpt lat="43.4000006" lon="11.2157327"><ele>197.33333333333331</ele><time>2026-04-04T07:22:51.275Z</time></trkpt><trkpt lat="43.399928" lon="11.215767"><ele>196.0</ele><time>2026-04-04T07:22:53.266Z</time></trkpt><trkpt lat="43.3998564" lon="11.2157984"><ele>196.0</ele><time>2026-04-04T07:22:55.326Z</time></trkpt><trkpt lat="43.3997755" lon="11.2158535"><ele>196.0</ele><time>2026-04-04T07:22:57.262Z</time></trkpt><trkpt lat="43.3996839" lon="11.2158899"><ele>196.0</ele><time>2026-04-04T07:22:59.263Z</time></trkpt><trkpt lat="43.3995768" lon="11.2158777"><ele>196.0</ele><time>2026-04-04T07:23:01.277Z</time></trkpt><trkpt lat="43.3994815" lon="11.2158299"><ele>196.0</ele><time>2026-04-04T07:23:03.249Z</time></trkpt><trkpt lat="43.3993872" lon="11.2157995"><ele>195.60000000000002</ele><time>2026-04-04T07:23:05.336Z</time></trkpt><trkpt lat="43.399291" lon="11.2158034"><ele>195.2</ele><time>2026-04-04T07:23:07.276Z</time></trkpt><trkpt lat="43.3991738" lon="11.2158191"><ele>194.8</ele><time>2026-04-04T07:23:09.351Z</time></trkpt><trkpt lat="43.3990719" lon="11.2158282"><ele>194.39999999999998</ele><time>2026-04-04T07:23:11.273Z</time></trkpt><trkpt lat="43.3989455" lon="11.2158484"><ele>194.0</ele><time>2026-04-04T07:23:13.328Z</time></trkpt><trkpt lat="43.398874" lon="11.2158788"><ele>193.39999999999998</ele><time>2026-04-04T07:23:14.328Z</time></trkpt><trkpt lat="43.3988122" lon="11.215921"><ele>192.8</ele><time>2026-04-04T07:23:15.326Z</time></trkpt><trkpt lat="43.3987169" lon="11.215999"><ele>192.2</ele><time>2026-04-04T07:23:17.262Z</time></trkpt><trkpt lat="43.3986292" lon="11.2160814"><ele>191.60000000000002</ele><time>2026-04-04T07:23:19.324Z</time></trkpt><trkpt lat="43.3985452" lon="11.2161373"><ele>191.0</ele><time>2026-04-04T07:23:21.242Z</time></trkpt><trkpt lat="43.3984493" lon="11.2161876"><ele>191.0</ele><time>2026-04-04T07:23:23.269Z</time></trkpt><trkpt lat="43.3983561" lon="11.216222"><ele>191.0</ele><time>2026-04-04T07:23:25.24Z</time></trkpt><trkpt lat="43.398276" lon="11.2162348"><ele>191.0</ele><time>2026-04-04T07:23:27.271Z</time></trkpt><trkpt lat="43.3981837" lon="11.2162564"><ele>191.0</ele><time>2026-04-04T07:23:29.262Z</time></trkpt><trkpt lat="43.3980771" lon="11.2162985"><ele>191.0</ele><time>2026-04-04T07:23:31.272Z</time></trkpt><trkpt lat="43.3979824" lon="11.216347"><ele>191.4</ele><time>2026-04-04T07:23:33.325Z</time></trkpt><trkpt lat="43.3978905" lon="11.2163854"><ele>191.8</ele><time>2026-04-04T07:23:35.262Z</time></trkpt><trkpt lat="43.3978044" lon="11.2163916"><ele>192.20000000000002</ele><time>2026-04-04T07:23:37.261Z</time></trkpt><trkpt lat="43.3977098" lon="11.2163953"><ele>192.60000000000002</ele><time>2026-04-04T07:23:39.322Z</time></trkpt><trkpt lat="43.3976213" lon="11.2164158"><ele>193.0</ele><time>2026-04-04T07:23:41.276Z</time></trkpt><trkpt lat="43.3975333" lon="11.2164281"><ele>193.0</ele><time>2026-04-04T07:23:43.253Z</time></trkpt><trkpt lat="43.3974453" lon="11.2164532"><ele>193.0</ele><time>2026-04-04T07:23:45.257Z</time></trkpt><trkpt lat="43.3973604" lon="11.216474"><ele>193.0</ele><time>2026-04-04T07:23:47.264Z</time></trkpt><trkpt lat="43.3972676" lon="11.2164975"><ele>193.0</ele><time>2026-04-04T07:23:49.327Z</time></trkpt><trkpt lat="43.3971736" lon="11.2165193"><ele>193.0</ele><time>2026-04-04T07:23:51.261Z</time></trkpt><trkpt lat="43.3970786" lon="11.2165437"><ele>192.8</ele><time>2026-04-04T07:23:53.26Z</time></trkpt><trkpt lat="43.396972" lon="11.2165702"><ele>192.60000000000002</ele><time>2026-04-04T07:23:55.336Z</time></trkpt><trkpt lat="43.3968652" lon="11.2165988"><ele>192.39999999999998</ele><time>2026-04-04T07:23:57.263Z</time></trkpt><trkpt lat="43.3967725" lon="11.2166253"><ele>192.2</ele><time>2026-04-04T07:23:59.325Z</time></trkpt><trkpt lat="43.3966893" lon="11.2166459"><ele>192.0</ele><time>2026-04-04T07:24:01.269Z</time></trkpt><trkpt lat="43.3966013" lon="11.2166695"><ele>192.0</ele><time>2026-04-04T07:24:03.33Z</time></trkpt><trkpt lat="43.3964575" lon="11.2166861"><ele>192.0</ele><time>2026-04-04T07:24:06.233Z</time></trkpt><trkpt lat="43.3963835" lon="11.216734"><ele>192.0</ele><time>2026-04-04T07:24:08.267Z</time></trkpt><trkpt lat="43.3963016" lon="11.2167249"><ele>192.0</ele><time>2026-04-04T07:24:10.324Z</time></trkpt><trkpt lat="43.3962375" lon="11.2167407"><ele>192.0</ele><time>2026-04-04T07:24:12.268Z</time></trkpt><trkpt lat="43.3961749" lon="11.2167589"><ele>192.0</ele><time>2026-04-04T07:24:14.273Z</time></trkpt><trkpt lat="43.3961004" lon="11.2167774"><ele>192.5</ele><time>2026-04-04T07:24:16.244Z</time></trkpt><trkpt lat="43.3960134" lon="11.2168055"><ele>193.0</ele><time>2026-04-04T07:24:19.326Z</time></trkpt><trkpt lat="43.395852" lon="11.2169056"><ele>193.5</ele><time>2026-04-04T07:24:24.333Z</time></trkpt><trkpt lat="43.3957763" lon="11.2170183"><ele>194.0</ele><time>2026-04-04T07:24:28.256Z</time></trkpt><trkpt lat="43.3957128" lon="11.2171006"><ele>194.0</ele><time>2026-04-04T07:24:31.27Z</time></trkpt><trkpt lat="43.3956722" lon="11.2172327"><ele>194.0</ele><time>2026-04-04T07:24:33.269Z</time></trkpt><trkpt lat="43.3956515" lon="11.2173767"><ele>194.0</ele><time>2026-04-04T07:24:35.332Z</time></trkpt><trkpt lat="43.3956209" lon="11.2175337"><ele>194.0</ele><time>2026-04-04T07:24:37.258Z</time></trkpt><trkpt lat="43.3955993" lon="11.2176162"><ele>194.0</ele><time>2026-04-04T07:24:38.271Z</time></trkpt><trkpt lat="43.3955495" lon="11.2177596"><ele>194.2</ele><time>2026-04-04T07:24:40.271Z</time></trkpt><trkpt lat="43.3954858" lon="11.2178966"><ele>194.39999999999998</ele><time>2026-04-04T07:24:42.269Z</time></trkpt><trkpt lat="43.3954298" lon="11.2179566"><ele>194.6</ele><time>2026-04-04T07:24:43.269Z</time></trkpt><trkpt lat="43.3953309" lon="11.2180281"><ele>194.8</ele><time>2026-04-04T07:24:45.268Z</time></trkpt><trkpt lat="43.3952423" lon="11.2180943"><ele>195.0</ele><time>2026-04-04T07:24:47.267Z</time></trkpt><trkpt lat="43.3951594" lon="11.2181543"><ele>195.0</ele><time>2026-04-04T07:24:49.28Z</time></trkpt><trkpt lat="43.3950823" lon="11.218213"><ele>195.0</ele><time>2026-04-04T07:24:51.269Z</time></trkpt><trkpt lat="43.3950109" lon="11.2182713"><ele>195.0</ele><time>2026-04-04T07:24:53.326Z</time></trkpt><trkpt lat="43.3949426" lon="11.2183421"><ele>195.0</ele><time>2026-04-04T07:24:55.262Z</time></trkpt><trkpt lat="43.3948692" lon="11.2184119"><ele>195.0</ele><time>2026-04-04T07:24:57.253Z</time></trkpt><trkpt lat="43.394806" lon="11.2184635"><ele>195.0</ele><time>2026-04-04T07:24:59.271Z</time></trkpt><trkpt lat="43.3947505" lon="11.2185132"><ele>195.0</ele><time>2026-04-04T07:25:01.268Z</time></trkpt><trkpt lat="43.3946931" lon="11.2185646"><ele>195.0</ele><time>2026-04-04T07:25:03.357Z</time></trkpt><trkpt lat="43.3946355" lon="11.2186371"><ele>195.0</ele><time>2026-04-04T07:25:06.269Z</time></trkpt><trkpt lat="43.3945563" lon="11.2187053"><ele>195.0</ele><time>2026-04-04T07:25:09.268Z</time></trkpt><trkpt lat="43.394493" lon="11.2187553"><ele>195.0</ele><time>2026-04-04T07:25:11.253Z</time></trkpt><trkpt lat="43.3944291" lon="11.2188121"><ele>195.0</ele><time>2026-04-04T07:25:13.312Z</time></trkpt><trkpt lat="43.3943691" lon="11.2188706"><ele>195.66666666666666</ele><time>2026-04-04T07:25:15.264Z</time></trkpt><trkpt lat="43.3943152" lon="11.2189291"><ele>196.33333333333331</ele><time>2026-04-04T07:25:17.275Z</time></trkpt><trkpt lat="43.3942638" lon="11.218984"><ele>197.0</ele><time>2026-04-04T07:25:19.267Z</time></trkpt><trkpt lat="43.3942178" lon="11.2190572"><ele>197.66666666666666</ele><time>2026-04-04T07:25:22.255Z</time></trkpt><trkpt lat="43.3941863" lon="11.2191373"><ele>198.33333333333331</ele><time>2026-04-04T07:25:24.264Z</time></trkpt><trkpt lat="43.3941486" lon="11.2192342"><ele>199.0</ele><time>2026-04-04T07:25:26.269Z</time></trkpt><trkpt lat="43.3941293" lon="11.2193818"><ele>199.2</ele><time>2026-04-04T07:25:28.275Z</time></trkpt><trkpt lat="43.3941013" lon="11.2195277"><ele>199.39999999999998</ele><time>2026-04-04T07:25:30.338Z</time></trkpt><trkpt lat="43.3940537" lon="11.2196411"><ele>199.6</ele><time>2026-04-04T07:25:32.261Z</time></trkpt><trkpt lat="43.3939779" lon="11.2196648"><ele>199.8</ele><time>2026-04-04T07:25:34.342Z</time></trkpt><trkpt lat="43.3939144" lon="11.219653"><ele>200.0</ele><time>2026-04-04T07:25:36.247Z</time></trkpt><trkpt lat="43.3936406" lon="11.2195434"><ele>200.57142857142858</ele><time>2026-04-04T07:25:42.273Z</time></trkpt><trkpt lat="43.3935546" lon="11.2195513"><ele>201.14285714285714</ele><time>2026-04-04T07:25:45.264Z</time></trkpt><trkpt lat="43.3934792" lon="11.2195429"><ele>201.71428571428572</ele><time>2026-04-04T07:25:47.278Z</time></trkpt><trkpt lat="43.3934178" lon="11.2195221"><ele>202.28571428571428</ele><time>2026-04-04T07:25:49.328Z</time></trkpt><trkpt lat="43.3933545" lon="11.2195025"><ele>202.85714285714286</ele><time>2026-04-04T07:25:51.278Z</time></trkpt><trkpt lat="43.3932932" lon="11.2194819"><ele>203.42857142857144</ele><time>2026-04-04T07:25:53.274Z</time></trkpt><trkpt lat="43.3932207" lon="11.2194542"><ele>204.0</ele><time>2026-04-04T07:25:55.266Z</time></trkpt><trkpt lat="43.3931368" lon="11.2194294"><ele>204.0</ele><time>2026-04-04T07:25:57.257Z</time></trkpt><trkpt lat="43.3930466" lon="11.2194029"><ele>204.0</ele><time>2026-04-04T07:26:00.266Z</time></trkpt><trkpt lat="43.3929615" lon="11.2193867"><ele>204.0</ele><time>2026-04-04T07:26:03.253Z</time></trkpt><trkpt lat="43.3928794" lon="11.219347"><ele>204.0</ele><time>2026-04-04T07:26:06.244Z</time></trkpt><trkpt lat="43.3928052" lon="11.2192727"><ele>204.0</ele><time>2026-04-04T07:26:09.337Z</time></trkpt><trkpt lat="43.3927283" lon="11.2192164"><ele>204.0</ele><time>2026-04-04T07:26:12.271Z</time></trkpt><trkpt lat="43.3926802" lon="11.2191494"><ele>204.57142857142858</ele><time>2026-04-04T07:26:17.255Z</time></trkpt><trkpt lat="43.3925985" lon="11.2191365"><ele>205.14285714285717</ele><time>2026-04-04T07:26:21.243Z</time></trkpt><trkpt lat="43.392538" lon="11.2191746"><ele>205.71428571428572</ele><time>2026-04-04T07:26:23.263Z</time></trkpt><trkpt lat="43.3924848" lon="11.2192218"><ele>206.28571428571428</ele><time>2026-04-04T07:26:25.267Z</time></trkpt><trkpt lat="43.392426" lon="11.2192558"><ele>206.85714285714286</ele><time>2026-04-04T07:26:27.257Z</time></trkpt><trkpt lat="43.3923569" lon="11.2192903"><ele>207.42857142857142</ele><time>2026-04-04T07:26:29.26Z</time></trkpt><trkpt lat="43.3922703" lon="11.2193102"><ele>208.0</ele><time>2026-04-04T07:26:32.273Z</time></trkpt><trkpt lat="43.3921764" lon="11.2193092"><ele>209.0</ele><time>2026-04-04T07:26:35.259Z</time></trkpt><trkpt lat="43.3921057" lon="11.2193081"><ele>210.0</ele><time>2026-04-04T07:26:37.275Z</time></trkpt><trkpt lat="43.3920309" lon="11.2193125"><ele>211.0</ele><time>2026-04-04T07:26:39.337Z</time></trkpt><trkpt lat="43.391961" lon="11.2193166"><ele>212.0</ele><time>2026-04-04T07:26:41.27Z</time></trkpt><trkpt lat="43.391889" lon="11.2193249"><ele>213.0</ele><time>2026-04-04T07:26:43.247Z</time></trkpt><trkpt lat="43.3918201" lon="11.2193367"><ele>214.0</ele><time>2026-04-04T07:26:45.325Z</time></trkpt><trkpt lat="43.3917454" lon="11.2193532"><ele>215.0</ele><time>2026-04-04T07:26:47.279Z</time></trkpt><trkpt lat="43.3916673" lon="11.2193998"><ele>215.0</ele><time>2026-04-04T07:26:49.247Z</time></trkpt><trkpt lat="43.3916158" lon="11.2194584"><ele>215.0</ele><time>2026-04-04T07:26:51.274Z</time></trkpt><trkpt lat="43.3915277" lon="11.2195457"><ele>215.0</ele><time>2026-04-04T07:26:53.276Z</time></trkpt><trkpt lat="43.3914397" lon="11.2196224"><ele>215.0</ele><time>2026-04-04T07:26:55.27Z</time></trkpt><trkpt lat="43.3913523" lon="11.2196908"><ele>215.0</ele><time>2026-04-04T07:26:57.245Z</time></trkpt><trkpt lat="43.3912735" lon="11.2197516"><ele>214.83333333333334</ele><time>2026-04-04T07:26:59.262Z</time></trkpt><trkpt lat="43.3911976" lon="11.2197918"><ele>214.66666666666669</ele><time>2026-04-04T07:27:01.269Z</time></trkpt><trkpt lat="43.3911205" lon="11.2198252"><ele>214.5</ele><time>2026-04-04T07:27:03.276Z</time></trkpt><trkpt lat="43.3910432" lon="11.2198579"><ele>214.33333333333331</ele><time>2026-04-04T07:27:05.27Z</time></trkpt><trkpt lat="43.3909601" lon="11.2198541"><ele>214.16666666666666</ele><time>2026-04-04T07:27:07.262Z</time></trkpt><trkpt lat="43.390875" lon="11.2198578"><ele>214.0</ele><time>2026-04-04T07:27:09.263Z</time></trkpt><trkpt lat="43.3907946" lon="11.2198613"><ele>214.00000000000003</ele><time>2026-04-04T07:27:11.269Z</time></trkpt><trkpt lat="43.3907174" lon="11.2198651"><ele>214.0</ele><time>2026-04-04T07:27:13.251Z</time></trkpt><trkpt lat="43.3906347" lon="11.2198589"><ele>214.0</ele><time>2026-04-04T07:27:15.264Z</time></trkpt><trkpt lat="43.3905651" lon="11.2198603"><ele>214.0</ele><time>2026-04-04T07:27:17.278Z</time></trkpt><trkpt lat="43.3904947" lon="11.2198585"><ele>214.0</ele><time>2026-04-04T07:27:19.268Z</time></trkpt><trkpt lat="43.3904305" lon="11.2198673"><ele>214.00000000000003</ele><time>2026-04-04T07:27:21.254Z</time></trkpt><trkpt lat="43.3903663" lon="11.2198847"><ele>214.0</ele><time>2026-04-04T07:27:23.263Z</time></trkpt><trkpt lat="43.390301" lon="11.2198884"><ele>214.79999999999998</ele><time>2026-04-04T07:27:25.328Z</time></trkpt><trkpt lat="43.3902345" lon="11.2199142"><ele>215.59999999999997</ele><time>2026-04-04T07:27:27.255Z</time></trkpt><trkpt lat="43.3901597" lon="11.2199582"><ele>216.4</ele><time>2026-04-04T07:27:29.319Z</time></trkpt><trkpt lat="43.3900002" lon="11.2200386"><ele>217.2</ele><time>2026-04-04T07:27:33.239Z</time></trkpt><trkpt lat="43.3899193" lon="11.2201063"><ele>218.0</ele><time>2026-04-04T07:27:36.254Z</time></trkpt><trkpt lat="43.3898464" lon="11.2201542"><ele>218.00000000000003</ele><time>2026-04-04T07:27:39.326Z</time></trkpt><trkpt lat="43.3897819" lon="11.2202104"><ele>218.0</ele><time>2026-04-04T07:27:41.247Z</time></trkpt><trkpt lat="43.3897213" lon="11.2202727"><ele>218.0</ele><time>2026-04-04T07:27:43.251Z</time></trkpt><trkpt lat="43.3896579" lon="11.2203368"><ele>218.0</ele><time>2026-04-04T07:27:45.258Z</time></trkpt><trkpt lat="43.3896029" lon="11.2203895"><ele>218.00000000000003</ele><time>2026-04-04T07:27:47.245Z</time></trkpt><trkpt lat="43.3895407" lon="11.2204391"><ele>218.0</ele><time>2026-04-04T07:27:49.332Z</time></trkpt><trkpt lat="43.3894408" lon="11.2205044"><ele>217.83333333333334</ele><time>2026-04-04T07:27:51.251Z</time></trkpt><trkpt lat="43.3893824" lon="11.220544"><ele>217.66666666666669</ele><time>2026-04-04T07:27:53.259Z</time></trkpt><trkpt lat="43.3893276" lon="11.2206054"><ele>217.5</ele><time>2026-04-04T07:27:55.238Z</time></trkpt><trkpt lat="43.3892788" lon="11.2206976"><ele>217.33333333333331</ele><time>2026-04-04T07:27:58.25Z</time></trkpt><trkpt lat="43.3892044" lon="11.2207527"><ele>217.16666666666666</ele><time>2026-04-04T07:28:02.247Z</time></trkpt><trkpt lat="43.3891359" lon="11.2208139"><ele>217.0</ele><time>2026-04-04T07:28:04.327Z</time></trkpt><trkpt lat="43.3890736" lon="11.2208718"><ele>217.8</ele><time>2026-04-04T07:28:06.248Z</time></trkpt><trkpt lat="43.389018" lon="11.2209244"><ele>218.6</ele><time>2026-04-04T07:28:08.244Z</time></trkpt><trkpt lat="43.3889482" lon="11.2209923"><ele>219.40000000000003</ele><time>2026-04-04T07:28:10.323Z</time></trkpt><trkpt lat="43.3888555" lon="11.2210893"><ele>220.20000000000002</ele><time>2026-04-04T07:28:12.258Z</time></trkpt><trkpt lat="43.3887554" lon="11.2211554"><ele>221.0</ele><time>2026-04-04T07:28:14.319Z</time></trkpt><trkpt lat="43.3886788" lon="11.2212401"><ele>221.00000000000003</ele><time>2026-04-04T07:28:16.251Z</time></trkpt><trkpt lat="43.3886357" lon="11.2213072"><ele>221.0</ele><time>2026-04-04T07:28:18.246Z</time></trkpt><trkpt lat="43.3885642" lon="11.2213709"><ele>221.0</ele><time>2026-04-04T07:28:20.329Z</time></trkpt><trkpt lat="43.3885482" lon="11.2214566"><ele>221.0</ele><time>2026-04-04T07:28:22.259Z</time></trkpt><trkpt lat="43.3884551" lon="11.2215267"><ele>221.00000000000003</ele><time>2026-04-04T07:28:24.323Z</time></trkpt><trkpt lat="43.3883919" lon="11.221577"><ele>221.0</ele><time>2026-04-04T07:28:27.253Z</time></trkpt><trkpt lat="43.3883238" lon="11.2216563"><ele>221.2857142857143</ele><time>2026-04-04T07:28:30.244Z</time></trkpt><trkpt lat="43.388266" lon="11.2217127"><ele>221.57142857142858</ele><time>2026-04-04T07:28:32.253Z</time></trkpt><trkpt lat="43.388206" lon="11.2217435"><ele>221.85714285714286</ele><time>2026-04-04T07:28:34.33Z</time></trkpt><trkpt lat="43.3881314" lon="11.2217165"><ele>222.14285714285717</ele><time>2026-04-04T07:28:36.244Z</time></trkpt><trkpt lat="43.3880695" lon="11.2217506"><ele>222.42857142857142</ele><time>2026-04-04T07:28:38.244Z</time></trkpt><trkpt lat="43.3880535" lon="11.2218395"><ele>222.71428571428572</ele><time>2026-04-04T07:28:41.253Z</time></trkpt><trkpt lat="43.387984" lon="11.2219231"><ele>223.0</ele><time>2026-04-04T07:28:44.314Z</time></trkpt><trkpt lat="43.387932" lon="11.221998"><ele>222.99999999999997</ele><time>2026-04-04T07:28:46.259Z</time></trkpt><trkpt lat="43.3878914" lon="11.2220718"><ele>223.0</ele><time>2026-04-04T07:28:48.262Z</time></trkpt><trkpt lat="43.3878439" lon="11.2221381"><ele>223.0</ele><time>2026-04-04T07:28:50.337Z</time></trkpt><trkpt lat="43.3877803" lon="11.2222106"><ele>223.0</ele><time>2026-04-04T07:28:52.272Z</time></trkpt><trkpt lat="43.3876838" lon="11.2223274"><ele>222.99999999999997</ele><time>2026-04-04T07:28:55.275Z</time></trkpt><trkpt lat="43.3876224" lon="11.2223893"><ele>223.0</ele><time>2026-04-04T07:28:57.281Z</time></trkpt><trkpt lat="43.3875675" lon="11.2224834"><ele>224.2</ele><time>2026-04-04T07:28:59.327Z</time></trkpt><trkpt lat="43.3874743" lon="11.2225855"><ele>225.4</ele><time>2026-04-04T07:29:01.24Z</time></trkpt><trkpt lat="43.3873966" lon="11.2226778"><ele>226.59999999999997</ele><time>2026-04-04T07:29:03.277Z</time></trkpt><trkpt lat="43.3873192" lon="11.2227739"><ele>227.79999999999998</ele><time>2026-04-04T07:29:05.331Z</time></trkpt><trkpt lat="43.3872798" lon="11.2228997"><ele>229.0</ele><time>2026-04-04T07:29:07.259Z</time></trkpt><trkpt lat="43.3872408" lon="11.2229795"><ele>228.6</ele><time>2026-04-04T07:29:09.333Z</time></trkpt><trkpt lat="43.387177" lon="11.2230283"><ele>228.2</ele><time>2026-04-04T07:29:11.256Z</time></trkpt><trkpt lat="43.3871192" lon="11.223088"><ele>227.79999999999998</ele><time>2026-04-04T07:29:13.268Z</time></trkpt><trkpt lat="43.3870262" lon="11.2231705"><ele>227.39999999999998</ele><time>2026-04-04T07:29:15.272Z</time></trkpt><trkpt lat="43.3869498" lon="11.2232571"><ele>227.0</ele><time>2026-04-04T07:29:17.277Z</time></trkpt><trkpt lat="43.3868825" lon="11.2233592"><ele>227.0</ele><time>2026-04-04T07:29:19.331Z</time></trkpt><trkpt lat="43.3868076" lon="11.2234606"><ele>227.0</ele><time>2026-04-04T07:29:21.254Z</time></trkpt><trkpt lat="43.3867348" lon="11.2235728"><ele>227.0</ele><time>2026-04-04T07:29:23.282Z</time></trkpt><trkpt lat="43.3866611" lon="11.2236843"><ele>227.0</ele><time>2026-04-04T07:29:25.271Z</time></trkpt><trkpt lat="43.3865836" lon="11.2238009"><ele>227.0</ele><time>2026-04-04T07:29:27.269Z</time></trkpt><trkpt lat="43.386504" lon="11.2239123"><ele>227.83333333333334</ele><time>2026-04-04T07:29:29.262Z</time></trkpt><trkpt lat="43.386432" lon="11.2240242"><ele>228.66666666666669</ele><time>2026-04-04T07:29:31.262Z</time></trkpt><trkpt lat="43.3863715" lon="11.2241244"><ele>229.5</ele><time>2026-04-04T07:29:33.265Z</time></trkpt><trkpt lat="43.3863132" lon="11.2242205"><ele>230.33333333333331</ele><time>2026-04-04T07:29:35.273Z</time></trkpt><trkpt lat="43.3862609" lon="11.2242985"><ele>231.16666666666666</ele><time>2026-04-04T07:29:37.275Z</time></trkpt><trkpt lat="43.3862074" lon="11.2243753"><ele>232.0</ele><time>2026-04-04T07:29:39.335Z</time></trkpt><trkpt lat="43.3861126" lon="11.2244427"><ele>232.16666666666666</ele><time>2026-04-04T07:29:41.267Z</time></trkpt><trkpt lat="43.3860552" lon="11.2244902"><ele>232.33333333333331</ele><time>2026-04-04T07:29:42.266Z</time></trkpt><trkpt lat="43.386031" lon="11.2245884"><ele>232.5</ele><time>2026-04-04T07:29:46.234Z</time></trkpt><trkpt lat="43.3859916" lon="11.2247264"><ele>232.66666666666669</ele><time>2026-04-04T07:29:48.259Z</time></trkpt><trkpt lat="43.3859546" lon="11.2248027"><ele>232.83333333333334</ele><time>2026-04-04T07:29:50.252Z</time></trkpt><trkpt lat="43.3859135" lon="11.2249156"><ele>233.0</ele><time>2026-04-04T07:29:53.271Z</time></trkpt><trkpt lat="43.3858789" lon="11.2249888"><ele>233.66666666666669</ele><time>2026-04-04T07:29:55.268Z</time></trkpt><trkpt lat="43.3858457" lon="11.2250848"><ele>234.33333333333334</ele><time>2026-04-04T07:29:57.257Z</time></trkpt><trkpt lat="43.3858344" lon="11.2251768"><ele>235.0</ele><time>2026-04-04T07:29:59.279Z</time></trkpt><trkpt lat="43.3858176" lon="11.2252707"><ele>235.66666666666669</ele><time>2026-04-04T07:30:01.26Z</time></trkpt><trkpt lat="43.3857905" lon="11.2253589"><ele>236.33333333333334</ele><time>2026-04-04T07:30:03.257Z</time></trkpt><trkpt lat="43.3857674" lon="11.225454"><ele>237.0</ele><time>2026-04-04T07:30:05.343Z</time></trkpt><trkpt lat="43.3857355" lon="11.2255796"><ele>237.83333333333334</ele><time>2026-04-04T07:30:07.274Z</time></trkpt><trkpt lat="43.3857137" lon="11.2257067"><ele>238.66666666666669</ele><time>2026-04-04T07:30:09.269Z</time></trkpt><trkpt lat="43.3856956" lon="11.2258181"><ele>239.5</ele><time>2026-04-04T07:30:11.279Z</time></trkpt><trkpt lat="43.3856752" lon="11.2259116"><ele>240.33333333333334</ele><time>2026-04-04T07:30:13.266Z</time></trkpt><trkpt lat="43.3856584" lon="11.22601"><ele>241.16666666666669</ele><time>2026-04-04T07:30:15.279Z</time></trkpt><trkpt lat="43.3856481" lon="11.2261049"><ele>242.0</ele><time>2026-04-04T07:30:17.267Z</time></trkpt><trkpt lat="43.3856279" lon="11.2261963"><ele>242.0</ele><time>2026-04-04T07:30:19.277Z</time></trkpt><trkpt lat="43.3856113" lon="11.2262907"><ele>241.99999999999997</ele><time>2026-04-04T07:30:21.258Z</time></trkpt><trkpt lat="43.3855981" lon="11.2263776"><ele>242.0</ele><time>2026-04-04T07:30:23.265Z</time></trkpt><trkpt lat="43.3855799" lon="11.2264695"><ele>242.0</ele><time>2026-04-04T07:30:25.267Z</time></trkpt><trkpt lat="43.3855651" lon="11.2265653"><ele>241.99999999999997</ele><time>2026-04-04T07:30:27.258Z</time></trkpt><trkpt lat="43.385549" lon="11.2266635"><ele>242.0</ele><time>2026-04-04T07:30:29.272Z</time></trkpt><trkpt lat="43.3855356" lon="11.2267613"><ele>242.0</ele><time>2026-04-04T07:30:31.271Z</time></trkpt><trkpt lat="43.3855157" lon="11.2268701"><ele>241.83333333333334</ele><time>2026-04-04T07:30:33.276Z</time></trkpt><trkpt lat="43.3854956" lon="11.2269702"><ele>241.66666666666669</ele><time>2026-04-04T07:30:35.339Z</time></trkpt><trkpt lat="43.3854787" lon="11.2270801"><ele>241.5</ele><time>2026-04-04T07:30:37.262Z</time></trkpt><trkpt lat="43.3854572" lon="11.2271929"><ele>241.33333333333331</ele><time>2026-04-04T07:30:39.353Z</time></trkpt><trkpt lat="43.385435" lon="11.2273072"><ele>241.16666666666666</ele><time>2026-04-04T07:30:41.263Z</time></trkpt><trkpt lat="43.3854029" lon="11.2274003"><ele>241.0</ele><time>2026-04-04T07:30:43.26Z</time></trkpt><trkpt lat="43.3853821" lon="11.2275371"><ele>240.60000000000002</ele><time>2026-04-04T07:30:45.245Z</time></trkpt><trkpt lat="43.3853623" lon="11.2276803"><ele>240.20000000000002</ele><time>2026-04-04T07:30:47.264Z</time></trkpt><trkpt lat="43.3853429" lon="11.2278249"><ele>239.79999999999998</ele><time>2026-04-04T07:30:49.261Z</time></trkpt><trkpt lat="43.3853212" lon="11.2279598"><ele>239.39999999999998</ele><time>2026-04-04T07:30:51.276Z</time></trkpt><trkpt lat="43.3853101" lon="11.2280914"><ele>239.0</ele><time>2026-04-04T07:30:53.334Z</time></trkpt><trkpt lat="43.3852933" lon="11.2282221"><ele>238.5</ele><time>2026-04-04T07:30:55.264Z</time></trkpt><trkpt lat="43.3852814" lon="11.2283637"><ele>238.0</ele><time>2026-04-04T07:30:57.268Z</time></trkpt><trkpt lat="43.3852556" lon="11.228518"><ele>237.5</ele><time>2026-04-04T07:30:59.259Z</time></trkpt><trkpt lat="43.3852244" lon="11.2286855"><ele>237.0</ele><time>2026-04-04T07:31:01.261Z</time></trkpt><trkpt lat="43.3852006" lon="11.2288531"><ele>237.0</ele><time>2026-04-04T07:31:03.267Z</time></trkpt><trkpt lat="43.3851891" lon="11.2289392"><ele>237.0</ele><time>2026-04-04T07:31:04.268Z</time></trkpt><trkpt lat="43.3851689" lon="11.2291076"><ele>237.0</ele><time>2026-04-04T07:31:06.265Z</time></trkpt><trkpt lat="43.3851617" lon="11.2291963"><ele>237.0</ele><time>2026-04-04T07:31:07.246Z</time></trkpt><trkpt lat="43.3851552" lon="11.229294"><ele>237.0</ele><time>2026-04-04T07:31:08.268Z</time></trkpt><trkpt lat="43.3851469" lon="11.2293916"><ele>237.0</ele><time>2026-04-04T07:31:09.264Z</time></trkpt><trkpt lat="43.3851355" lon="11.2294938"><ele>236.83333333333334</ele><time>2026-04-04T07:31:10.271Z</time></trkpt><trkpt lat="43.3851251" lon="11.2295982"><ele>236.66666666666669</ele><time>2026-04-04T07:31:11.259Z</time></trkpt><trkpt lat="43.3851163" lon="11.2297066"><ele>236.5</ele><time>2026-04-04T07:31:12.263Z</time></trkpt><trkpt lat="43.385108" lon="11.2298133"><ele>236.33333333333334</ele><time>2026-04-04T07:31:13.246Z</time></trkpt><trkpt lat="43.3851037" lon="11.2299195"><ele>236.16666666666669</ele><time>2026-04-04T07:31:14.264Z</time></trkpt><trkpt lat="43.3851006" lon="11.2300269"><ele>236.0</ele><time>2026-04-04T07:31:15.347Z</time></trkpt><trkpt lat="43.3850882" lon="11.2302348"><ele>236.00000000000003</ele><time>2026-04-04T07:31:17.261Z</time></trkpt><trkpt lat="43.3850759" lon="11.2303427"><ele>236.0</ele><time>2026-04-04T07:31:18.26Z</time></trkpt><trkpt lat="43.3850634" lon="11.2304495"><ele>236.0</ele><time>2026-04-04T07:31:19.262Z</time></trkpt><trkpt lat="43.3850469" lon="11.2305561"><ele>236.0</ele><time>2026-04-04T07:31:20.334Z</time></trkpt><trkpt lat="43.3850365" lon="11.2306603"><ele>236.00000000000003</ele><time>2026-04-04T07:31:21.25Z</time></trkpt><trkpt lat="43.3850269" lon="11.2307667"><ele>236.0</ele><time>2026-04-04T07:31:22.279Z</time></trkpt><trkpt lat="43.3850249" lon="11.2308613"><ele>235.85714285714283</ele><time>2026-04-04T07:31:23.277Z</time></trkpt><trkpt lat="43.3850173" lon="11.2309595"><ele>235.71428571428572</ele><time>2026-04-04T07:31:24.276Z</time></trkpt><trkpt lat="43.3850095" lon="11.2310641"><ele>235.57142857142856</ele><time>2026-04-04T07:31:25.341Z</time></trkpt><trkpt lat="43.3849993" lon="11.2311563"><ele>235.42857142857142</ele><time>2026-04-04T07:31:26.257Z</time></trkpt><trkpt lat="43.3849875" lon="11.2312566"><ele>235.28571428571428</ele><time>2026-04-04T07:31:27.276Z</time></trkpt><trkpt lat="43.3849753" lon="11.2313559"><ele>235.14285714285714</ele><time>2026-04-04T07:31:28.263Z</time></trkpt><trkpt lat="43.384967" lon="11.2314551"><ele>235.0</ele><time>2026-04-04T07:31:29.263Z</time></trkpt><trkpt lat="43.3849653" lon="11.2315497"><ele>234.66666666666666</ele><time>2026-04-04T07:31:30.262Z</time></trkpt><trkpt lat="43.3849579" lon="11.2316505"><ele>234.33333333333331</ele><time>2026-04-04T07:31:31.264Z</time></trkpt><trkpt lat="43.3849527" lon="11.2317629"><ele>234.0</ele><time>2026-04-04T07:31:32.261Z</time></trkpt><trkpt lat="43.3849632" lon="11.2318804"><ele>233.66666666666669</ele><time>2026-04-04T07:31:33.278Z</time></trkpt><trkpt lat="43.3849797" lon="11.2319939"><ele>233.33333333333334</ele><time>2026-04-04T07:31:34.26Z</time></trkpt><trkpt lat="43.3849973" lon="11.2321055"><ele>233.0</ele><time>2026-04-04T07:31:35.264Z</time></trkpt><trkpt lat="43.385014" lon="11.2322112"><ele>232.0</ele><time>2026-04-04T07:31:36.267Z</time></trkpt><trkpt lat="43.385033" lon="11.2323304"><ele>231.0</ele><time>2026-04-04T07:31:37.261Z</time></trkpt><trkpt lat="43.385052" lon="11.2324577"><ele>230.0</ele><time>2026-04-04T07:31:38.259Z</time></trkpt><trkpt lat="43.385075" lon="11.2325884"><ele>229.0</ele><time>2026-04-04T07:31:39.263Z</time></trkpt><trkpt lat="43.3851006" lon="11.2327227"><ele>228.0</ele><time>2026-04-04T07:31:40.259Z</time></trkpt><trkpt lat="43.3851304" lon="11.2328631"><ele>228.0</ele><time>2026-04-04T07:31:41.269Z</time></trkpt><trkpt lat="43.3851617" lon="11.2330033"><ele>228.0</ele><time>2026-04-04T07:31:42.264Z</time></trkpt><trkpt lat="43.3851995" lon="11.2331425"><ele>228.0</ele><time>2026-04-04T07:31:43.26Z</time></trkpt><trkpt lat="43.3852404" lon="11.2332767"><ele>228.0</ele><time>2026-04-04T07:31:44.275Z</time></trkpt><trkpt lat="43.3852833" lon="11.2334058"><ele>228.0</ele><time>2026-04-04T07:31:45.271Z</time></trkpt><trkpt lat="43.3853265" lon="11.2335317"><ele>227.2</ele><time>2026-04-04T07:31:46.255Z</time></trkpt><trkpt lat="43.3853713" lon="11.2336577"><ele>226.4</ele><time>2026-04-04T07:31:47.271Z</time></trkpt><trkpt lat="43.3854142" lon="11.233781"><ele>225.59999999999997</ele><time>2026-04-04T07:31:48.263Z</time></trkpt><trkpt lat="43.3854535" lon="11.2339044"><ele>224.79999999999998</ele><time>2026-04-04T07:31:49.274Z</time></trkpt><trkpt lat="43.385493" lon="11.2340282"><ele>224.0</ele><time>2026-04-04T07:31:50.273Z</time></trkpt><trkpt lat="43.3855287" lon="11.234149"><ele>223.2</ele><time>2026-04-04T07:31:51.272Z</time></trkpt><trkpt lat="43.3855628" lon="11.2342698"><ele>222.39999999999998</ele><time>2026-04-04T07:31:52.263Z</time></trkpt><trkpt lat="43.3855992" lon="11.2343869"><ele>221.6</ele><time>2026-04-04T07:31:53.268Z</time></trkpt><trkpt lat="43.3856351" lon="11.2345078"><ele>220.8</ele><time>2026-04-04T07:31:54.267Z</time></trkpt><trkpt lat="43.3856699" lon="11.2346234"><ele>220.0</ele><time>2026-04-04T07:31:55.24Z</time></trkpt><trkpt lat="43.3857041" lon="11.2347411"><ele>220.2</ele><time>2026-04-04T07:31:56.257Z</time></trkpt><trkpt lat="43.3857395" lon="11.2348587"><ele>220.4</ele><time>2026-04-04T07:31:57.269Z</time></trkpt><trkpt lat="43.3857735" lon="11.2349726"><ele>220.60000000000002</ele><time>2026-04-04T07:31:58.274Z</time></trkpt><trkpt lat="43.3858041" lon="11.2350722"><ele>220.8</ele><time>2026-04-04T07:31:59.27Z</time></trkpt><trkpt lat="43.385829" lon="11.2351598"><ele>221.0</ele><time>2026-04-04T07:32:00.334Z</time></trkpt><trkpt lat="43.3858873" lon="11.2353327"><ele>221.00000000000003</ele><time>2026-04-04T07:32:02.268Z</time></trkpt><trkpt lat="43.3859328" lon="11.2354456"><ele>221.0</ele><time>2026-04-04T07:32:03.26Z</time></trkpt><trkpt lat="43.3859674" lon="11.2355697"><ele>221.0</ele><time>2026-04-04T07:32:04.332Z</time></trkpt><trkpt lat="43.3860021" lon="11.2356835"><ele>221.0</ele><time>2026-04-04T07:32:05.328Z</time></trkpt><trkpt lat="43.3860318" lon="11.2357902"><ele>221.00000000000003</ele><time>2026-04-04T07:32:06.264Z</time></trkpt><trkpt lat="43.3860648" lon="11.2358976"><ele>221.0</ele><time>2026-04-04T07:32:07.259Z</time></trkpt><trkpt lat="43.3860929" lon="11.2359962"><ele>221.50000000000003</ele><time>2026-04-04T07:32:08.253Z</time></trkpt><trkpt lat="43.3861208" lon="11.2360886"><ele>222.0</ele><time>2026-04-04T07:32:09.253Z</time></trkpt><trkpt lat="43.3861478" lon="11.2361763"><ele>222.5</ele><time>2026-04-04T07:32:10.264Z</time></trkpt><trkpt lat="43.3861749" lon="11.2362599"><ele>223.0</ele><time>2026-04-04T07:32:11.26Z</time></trkpt><trkpt lat="43.3862001" lon="11.2363416"><ele>223.50000000000003</ele><time>2026-04-04T07:32:12.254Z</time></trkpt><trkpt lat="43.3862213" lon="11.2364928"><ele>224.0</ele><time>2026-04-04T07:32:14.27Z</time></trkpt><trkpt lat="43.3862156" lon="11.236644"><ele>225.0</ele><time>2026-04-04T07:32:16.258Z</time></trkpt><trkpt lat="43.3861881" lon="11.2367815"><ele>225.99999999999997</ele><time>2026-04-04T07:32:18.266Z</time></trkpt><trkpt lat="43.3861332" lon="11.2368907"><ele>226.99999999999997</ele><time>2026-04-04T07:32:20.273Z</time></trkpt><trkpt lat="43.3860637" lon="11.2369812"><ele>228.0</ele><time>2026-04-04T07:32:22.264Z</time></trkpt><trkpt lat="43.3859878" lon="11.2370651"><ele>229.0</ele><time>2026-04-04T07:32:24.242Z</time></trkpt><trkpt lat="43.3859095" lon="11.2371401"><ele>229.0</ele><time>2026-04-04T07:32:26.248Z</time></trkpt><trkpt lat="43.3858324" lon="11.2372206"><ele>228.99999999999997</ele><time>2026-04-04T07:32:28.263Z</time></trkpt><trkpt lat="43.3857584" lon="11.2372962"><ele>228.99999999999997</ele><time>2026-04-04T07:32:30.264Z</time></trkpt><trkpt lat="43.3856788" lon="11.2373587"><ele>229.0</ele><time>2026-04-04T07:32:32.265Z</time></trkpt><trkpt lat="43.3855979" lon="11.2374195"><ele>229.0</ele><time>2026-04-04T07:32:34.262Z</time></trkpt><trkpt lat="43.3855154" lon="11.2374881"><ele>231.0</ele><time>2026-04-04T07:32:36.248Z</time></trkpt><trkpt lat="43.3854302" lon="11.2375604"><ele>232.99999999999997</ele><time>2026-04-04T07:32:38.268Z</time></trkpt><trkpt lat="43.3853596" lon="11.2376219"><ele>234.99999999999997</ele><time>2026-04-04T07:32:40.259Z</time></trkpt><trkpt lat="43.3852758" lon="11.2376946"><ele>237.0</ele><time>2026-04-04T07:32:42.271Z</time></trkpt><trkpt lat="43.3851991" lon="11.2377634"><ele>239.0</ele><time>2026-04-04T07:32:44.233Z</time></trkpt><trkpt lat="43.3851315" lon="11.2378378"><ele>239.00000000000003</ele><time>2026-04-04T07:32:46.334Z</time></trkpt><trkpt lat="43.3850536" lon="11.2379106"><ele>239.0</ele><time>2026-04-04T07:32:48.268Z</time></trkpt><trkpt lat="43.3849777" lon="11.2379693"><ele>239.0</ele><time>2026-04-04T07:32:50.342Z</time></trkpt><trkpt lat="43.3849103" lon="11.2380212"><ele>239.0</ele><time>2026-04-04T07:32:52.268Z</time></trkpt><trkpt lat="43.3848418" lon="11.2380817"><ele>239.00000000000003</ele><time>2026-04-04T07:32:54.339Z</time></trkpt><trkpt lat="43.3847677" lon="11.2381446"><ele>239.0</ele><time>2026-04-04T07:32:56.252Z</time></trkpt><trkpt lat="43.3846995" lon="11.2382063"><ele>239.83333333333334</ele><time>2026-04-04T07:32:58.264Z</time></trkpt><trkpt lat="43.3846314" lon="11.238268"><ele>240.66666666666669</ele><time>2026-04-04T07:33:00.26Z</time></trkpt><trkpt lat="43.3845696" lon="11.2383209"><ele>241.5</ele><time>2026-04-04T07:33:02.261Z</time></trkpt><trkpt lat="43.384507" lon="11.238376"><ele>242.33333333333331</ele><time>2026-04-04T07:33:04.245Z</time></trkpt><trkpt lat="43.3844418" lon="11.2384307"><ele>243.16666666666666</ele><time>2026-04-04T07:33:06.332Z</time></trkpt><trkpt lat="43.3843699" lon="11.2384682"><ele>244.0</ele><time>2026-04-04T07:33:08.275Z</time></trkpt><trkpt lat="43.3843033" lon="11.2385133"><ele>244.0</ele><time>2026-04-04T07:33:10.262Z</time></trkpt><trkpt lat="43.3842458" lon="11.2385736"><ele>244.0</ele><time>2026-04-04T07:33:12.257Z</time></trkpt><trkpt lat="43.3841869" lon="11.2386294"><ele>244.0</ele><time>2026-04-04T07:33:14.339Z</time></trkpt><trkpt lat="43.3839907" lon="11.2388206"><ele>244.0</ele><time>2026-04-04T07:33:19.249Z</time></trkpt><trkpt lat="43.3839549" lon="11.2389027"><ele>243.99999999999997</ele><time>2026-04-04T07:33:22.262Z</time></trkpt><trkpt lat="43.3838768" lon="11.2389564"><ele>244.0</ele><time>2026-04-04T07:33:24.324Z</time></trkpt><trkpt lat="43.3838168" lon="11.239011"><ele>244.0</ele><time>2026-04-04T07:33:26.262Z</time></trkpt><trkpt lat="43.3837607" lon="11.2390656"><ele>244.0</ele><time>2026-04-04T07:33:28.266Z</time></trkpt><trkpt lat="43.3836873" lon="11.2391123"><ele>243.99999999999997</ele><time>2026-04-04T07:33:30.331Z</time></trkpt><trkpt lat="43.3836015" lon="11.2391833"><ele>244.0</ele><time>2026-04-04T07:33:33.265Z</time></trkpt><trkpt lat="43.3835277" lon="11.2392303"><ele>243.33333333333331</ele><time>2026-04-04T07:33:36.281Z</time></trkpt><trkpt lat="43.3834504" lon="11.2392975"><ele>242.66666666666666</ele><time>2026-04-04T07:33:39.33Z</time></trkpt><trkpt lat="43.3833742" lon="11.2393581"><ele>242.0</ele><time>2026-04-04T07:33:42.268Z</time></trkpt><trkpt lat="43.3833203" lon="11.2394053"><ele>241.33333333333331</ele><time>2026-04-04T07:33:44.329Z</time></trkpt><trkpt lat="43.3832384" lon="11.2394717"><ele>240.66666666666666</ele><time>2026-04-04T07:33:47.265Z</time></trkpt><trkpt lat="43.3831887" lon="11.2395316"><ele>240.0</ele><time>2026-04-04T07:33:49.28Z</time></trkpt><trkpt lat="43.3831316" lon="11.2395966"><ele>240.0</ele><time>2026-04-04T07:33:51.323Z</time></trkpt><trkpt lat="43.3830697" lon="11.2396682"><ele>240.0</ele><time>2026-04-04T07:33:53.262Z</time></trkpt><trkpt lat="43.3830124" lon="11.2397413"><ele>240.0</ele><time>2026-04-04T07:33:55.267Z</time></trkpt><trkpt lat="43.3829654" lon="11.2398283"><ele>240.0</ele><time>2026-04-04T07:33:57.262Z</time></trkpt><trkpt lat="43.3829287" lon="11.2399192"><ele>240.0</ele><time>2026-04-04T07:33:59.335Z</time></trkpt><trkpt lat="43.3828874" lon="11.2400063"><ele>240.0</ele><time>2026-04-04T07:34:01.247Z</time></trkpt><trkpt lat="43.3828523" lon="11.2401004"><ele>240.6</ele><time>2026-04-04T07:34:03.266Z</time></trkpt><trkpt lat="43.3828184" lon="11.2401895"><ele>241.2</ele><time>2026-04-04T07:34:05.33Z</time></trkpt><trkpt lat="43.3827889" lon="11.2402817"><ele>241.8</ele><time>2026-04-04T07:34:07.272Z</time></trkpt><trkpt lat="43.382756" lon="11.2403783"><ele>242.4</ele><time>2026-04-04T07:34:09.338Z</time></trkpt><trkpt lat="43.382687" lon="11.2406423"><ele>243.0</ele><time>2026-04-04T07:34:13.251Z</time></trkpt><trkpt lat="43.3826409" lon="11.2407496"><ele>243.0</ele><time>2026-04-04T07:34:16.325Z</time></trkpt><trkpt lat="43.382575" lon="11.240835"><ele>243.0</ele><time>2026-04-04T07:34:18.267Z</time></trkpt><trkpt lat="43.3825624" lon="11.2409686"><ele>243.0</ele><time>2026-04-04T07:34:20.33Z</time></trkpt><trkpt lat="43.382528" lon="11.2410804"><ele>243.0</ele><time>2026-04-04T07:34:22.277Z</time></trkpt><trkpt lat="43.3825118" lon="11.2412064"><ele>243.0</ele><time>2026-04-04T07:34:24.266Z</time></trkpt><trkpt lat="43.3824754" lon="11.2413153"><ele>243.0</ele><time>2026-04-04T07:34:26.258Z</time></trkpt><trkpt lat="43.382431" lon="11.2414219"><ele>243.0</ele><time>2026-04-04T07:34:28.263Z</time></trkpt><trkpt lat="43.382381" lon="11.2415303"><ele>243.0</ele><time>2026-04-04T07:34:30.344Z</time></trkpt><trkpt lat="43.3823302" lon="11.2416132"><ele>243.0</ele><time>2026-04-04T07:34:32.27Z</time></trkpt><trkpt lat="43.3822388" lon="11.2416034"><ele>243.0</ele><time>2026-04-04T07:34:35.267Z</time></trkpt><trkpt lat="43.3822184" lon="11.241498"><ele>243.0</ele><time>2026-04-04T07:34:39.243Z</time></trkpt><trkpt lat="43.3822061" lon="11.2413948"><ele>243.0</ele><time>2026-04-04T07:34:44.266Z</time></trkpt><trkpt lat="43.3821666" lon="11.2412996"><ele>243.0</ele><time>2026-04-04T07:34:49.258Z</time></trkpt><trkpt lat="43.3821545" lon="11.2412124"><ele>243.0</ele><time>2026-04-04T07:34:52.266Z</time></trkpt><trkpt lat="43.3821275" lon="11.2411244"><ele>243.0</ele><time>2026-04-04T07:34:56.261Z</time></trkpt><trkpt lat="43.3821013" lon="11.2410455"><ele>243.0</ele><time>2026-04-04T07:34:59.331Z</time></trkpt><trkpt lat="43.3820798" lon="11.2409506"><ele>243.0</ele><time>2026-04-04T07:35:02.245Z</time></trkpt><trkpt lat="43.3820568" lon="11.2408407"><ele>243.0</ele><time>2026-04-04T07:35:07.254Z</time></trkpt><trkpt lat="43.3820178" lon="11.2407548"><ele>243.0</ele><time>2026-04-04T07:35:10.271Z</time></trkpt><trkpt lat="43.3819824" lon="11.2406581"><ele>243.0</ele><time>2026-04-04T07:35:13.253Z</time></trkpt><trkpt lat="43.3819401" lon="11.24059"><ele>243.0</ele><time>2026-04-04T07:35:17.255Z</time></trkpt><trkpt lat="43.3819043" lon="11.2404698"><ele>243.0</ele><time>2026-04-04T07:35:20.272Z</time></trkpt><trkpt lat="43.3818751" lon="11.2403925"><ele>243.0</ele><time>2026-04-04T07:35:22.259Z</time></trkpt><trkpt lat="43.3818358" lon="11.2403207"><ele>243.0</ele><time>2026-04-04T07:35:24.254Z</time></trkpt><trkpt lat="43.3817921" lon="11.2402565"><ele>243.0</ele><time>2026-04-04T07:35:26.276Z</time></trkpt><trkpt lat="43.3817189" lon="11.24019"><ele>243.66666666666666</ele><time>2026-04-04T07:35:29.248Z</time></trkpt><trkpt lat="43.3816364" lon="11.240154"><ele>244.33333333333331</ele><time>2026-04-04T07:35:32.26Z</time></trkpt><trkpt lat="43.3815634" lon="11.2401215"><ele>245.0</ele><time>2026-04-04T07:35:35.333Z</time></trkpt><trkpt lat="43.3814906" lon="11.2400884"><ele>245.66666666666666</ele><time>2026-04-04T07:35:38.263Z</time></trkpt><trkpt lat="43.3814252" lon="11.2400543"><ele>246.33333333333331</ele><time>2026-04-04T07:35:41.258Z</time></trkpt><trkpt lat="43.3813636" lon="11.2400205"><ele>247.0</ele><time>2026-04-04T07:35:44.249Z</time></trkpt><trkpt lat="43.3812947" lon="11.2399625"><ele>246.99999999999997</ele><time>2026-04-04T07:35:47.271Z</time></trkpt><trkpt lat="43.3812101" lon="11.2399271"><ele>247.0</ele><time>2026-04-04T07:35:50.263Z</time></trkpt><trkpt lat="43.381136" lon="11.2398927"><ele>247.0</ele><time>2026-04-04T07:35:53.271Z</time></trkpt><trkpt lat="43.3810646" lon="11.2398623"><ele>247.0</ele><time>2026-04-04T07:35:57.264Z</time></trkpt><trkpt lat="43.3810039" lon="11.2398129"><ele>246.99999999999997</ele><time>2026-04-04T07:36:01.263Z</time></trkpt><trkpt lat="43.3809339" lon="11.239761"><ele>247.0</ele><time>2026-04-04T07:36:06.258Z</time></trkpt><trkpt lat="43.3808544" lon="11.2397294"><ele>247.16666666666666</ele><time>2026-04-04T07:36:10.262Z</time></trkpt><trkpt lat="43.3807941" lon="11.2396969"><ele>247.33333333333331</ele><time>2026-04-04T07:36:13.269Z</time></trkpt><trkpt lat="43.3807298" lon="11.2396586"><ele>247.5</ele><time>2026-04-04T07:36:16.246Z</time></trkpt><trkpt lat="43.3806416" lon="11.2396373"><ele>247.66666666666669</ele><time>2026-04-04T07:36:19.266Z</time></trkpt><trkpt lat="43.3805521" lon="11.2396284"><ele>247.83333333333334</ele><time>2026-04-04T07:36:21.324Z</time></trkpt><trkpt lat="43.3804857" lon="11.2396146"><ele>248.0</ele><time>2026-04-04T07:36:23.252Z</time></trkpt><trkpt lat="43.3804179" lon="11.239593"><ele>248.0</ele><time>2026-04-04T07:36:25.261Z</time></trkpt><trkpt lat="43.3803408" lon="11.2395518"><ele>248.0</ele><time>2026-04-04T07:36:27.333Z</time></trkpt><trkpt lat="43.3802575" lon="11.2394848"><ele>248.0</ele><time>2026-04-04T07:36:29.263Z</time></trkpt><trkpt lat="43.3801888" lon="11.2393855"><ele>248.0</ele><time>2026-04-04T07:36:31.335Z</time></trkpt><trkpt lat="43.380095" lon="11.2392962"><ele>248.0</ele><time>2026-04-04T07:36:33.265Z</time></trkpt><trkpt lat="43.3799867" lon="11.2392231"><ele>248.00000000000003</ele><time>2026-04-04T07:36:35.271Z</time></trkpt><trkpt lat="43.3798876" lon="11.2391661"><ele>248.0</ele><time>2026-04-04T07:36:37.255Z</time></trkpt><trkpt lat="43.3797895" lon="11.2391224"><ele>248.0</ele><time>2026-04-04T07:36:39.267Z</time></trkpt><trkpt lat="43.379701" lon="11.2390906"><ele>248.0</ele><time>2026-04-04T07:36:41.26Z</time></trkpt><trkpt lat="43.3796298" lon="11.2390753"><ele>248.00000000000003</ele><time>2026-04-04T07:36:43.256Z</time></trkpt><trkpt lat="43.3795567" lon="11.2390677"><ele>248.0</ele><time>2026-04-04T07:36:46.25Z</time></trkpt><trkpt lat="43.3794814" lon="11.2390223"><ele>247.50000000000003</ele><time>2026-04-04T07:36:49.268Z</time></trkpt><trkpt lat="43.3794148" lon="11.2389863"><ele>247.0</ele><time>2026-04-04T07:36:51.336Z</time></trkpt><trkpt lat="43.3793216" lon="11.2389762"><ele>246.5</ele><time>2026-04-04T07:36:53.243Z</time></trkpt><trkpt lat="43.3792348" lon="11.2389205"><ele>246.0</ele><time>2026-04-04T07:36:55.265Z</time></trkpt><trkpt lat="43.3791502" lon="11.2388403"><ele>245.50000000000003</ele><time>2026-04-04T07:36:57.327Z</time></trkpt><trkpt lat="43.3790968" lon="11.2387826"><ele>245.0</ele><time>2026-04-04T07:36:59.259Z</time></trkpt><trkpt lat="43.3790132" lon="11.2387339"><ele>245.57142857142856</ele><time>2026-04-04T07:37:01.325Z</time></trkpt><trkpt lat="43.3789359" lon="11.2386753"><ele>246.14285714285714</ele><time>2026-04-04T07:37:03.268Z</time></trkpt><trkpt lat="43.3788793" lon="11.2386212"><ele>246.71428571428572</ele><time>2026-04-04T07:37:05.26Z</time></trkpt><trkpt lat="43.3788323" lon="11.2385607"><ele>247.28571428571428</ele><time>2026-04-04T07:37:07.271Z</time></trkpt><trkpt lat="43.3787866" lon="11.2384966"><ele>247.85714285714283</ele><time>2026-04-04T07:37:09.279Z</time></trkpt><trkpt lat="43.3787424" lon="11.2384276"><ele>248.42857142857142</ele><time>2026-04-04T07:37:11.244Z</time></trkpt><trkpt lat="43.3787049" lon="11.238351"><ele>249.0</ele><time>2026-04-04T07:37:13.275Z</time></trkpt><trkpt lat="43.3786688" lon="11.2382781"><ele>249.0</ele><time>2026-04-04T07:37:15.243Z</time></trkpt><trkpt lat="43.3786301" lon="11.2382026"><ele>249.0</ele><time>2026-04-04T07:37:17.33Z</time></trkpt><trkpt lat="43.3786006" lon="11.238121"><ele>249.0</ele><time>2026-04-04T07:37:19.24Z</time></trkpt><trkpt lat="43.3785741" lon="11.238011"><ele>249.0</ele><time>2026-04-04T07:37:22.338Z</time></trkpt><trkpt lat="43.3785716" lon="11.2379059"><ele>249.0</ele><time>2026-04-04T07:37:25.259Z</time></trkpt><trkpt lat="43.3785511" lon="11.2378015"><ele>249.0</ele><time>2026-04-04T07:37:28.32Z</time></trkpt><trkpt lat="43.3784985" lon="11.2376929"><ele>250.0</ele><time>2026-04-04T07:37:31.263Z</time></trkpt><trkpt lat="43.3784369" lon="11.2376248"><ele>251.0</ele><time>2026-04-04T07:37:33.339Z</time></trkpt><trkpt lat="43.3783859" lon="11.2375459"><ele>252.0</ele><time>2026-04-04T07:37:35.268Z</time></trkpt><trkpt lat="43.3783586" lon="11.2374638"><ele>253.0</ele><time>2026-04-04T07:37:38.24Z</time></trkpt><trkpt lat="43.3783119" lon="11.2373814"><ele>254.0</ele><time>2026-04-04T07:37:41.258Z</time></trkpt><trkpt lat="43.3782808" lon="11.2373034"><ele>255.0</ele><time>2026-04-04T07:37:44.266Z</time></trkpt><trkpt lat="43.3782332" lon="11.2371997"><ele>255.16666666666666</ele><time>2026-04-04T07:37:48.265Z</time></trkpt><trkpt lat="43.378182" lon="11.2371143"><ele>255.33333333333331</ele><time>2026-04-04T07:37:52.328Z</time></trkpt><trkpt lat="43.3781338" lon="11.2370248"><ele>255.5</ele><time>2026-04-04T07:37:56.342Z</time></trkpt><trkpt lat="43.3780867" lon="11.2369464"><ele>255.66666666666666</ele><time>2026-04-04T07:38:00.269Z</time></trkpt><trkpt lat="43.3780337" lon="11.2368646"><ele>255.83333333333331</ele><time>2026-04-04T07:38:04.253Z</time></trkpt><trkpt lat="43.3779905" lon="11.2367924"><ele>256.0</ele><time>2026-04-04T07:38:08.242Z</time></trkpt><trkpt lat="43.3779535" lon="11.2366996"><ele>257.5</ele><time>2026-04-04T07:38:12.256Z</time></trkpt><trkpt lat="43.3779125" lon="11.236615"><ele>259.0</ele><time>2026-04-04T07:38:15.253Z</time></trkpt><trkpt lat="43.3778624" lon="11.2365402"><ele>260.5</ele><time>2026-04-04T07:38:21.359Z</time></trkpt><trkpt lat="43.3778203" lon="11.2364528"><ele>262.0</ele><time>2026-04-04T07:38:25.261Z</time></trkpt><trkpt lat="43.3777692" lon="11.2363648"><ele>263.5</ele><time>2026-04-04T07:38:29.263Z</time></trkpt><trkpt lat="43.3777138" lon="11.2362727"><ele>265.0</ele><time>2026-04-04T07:38:33.333Z</time></trkpt><trkpt lat="43.3776841" lon="11.2361929"><ele>264.99999999999994</ele><time>2026-04-04T07:38:36.258Z</time></trkpt><trkpt lat="43.3776415" lon="11.2361144"><ele>265.0</ele><time>2026-04-04T07:38:40.265Z</time></trkpt><trkpt lat="43.3776075" lon="11.2360239"><ele>265.0</ele><time>2026-04-04T07:38:44.267Z</time></trkpt><trkpt lat="43.3775535" lon="11.2359553"><ele>265.0</ele><time>2026-04-04T07:38:48.24Z</time></trkpt><trkpt lat="43.3774891" lon="11.2359166"><ele>265.0</ele><time>2026-04-04T07:38:52.332Z</time></trkpt><trkpt lat="43.3774178" lon="11.235917"><ele>264.99999999999994</ele><time>2026-04-04T07:38:56.271Z</time></trkpt><trkpt lat="43.3773409" lon="11.2359412"><ele>265.0</ele><time>2026-04-04T07:39:00.257Z</time></trkpt><trkpt lat="43.3772791" lon="11.2359862"><ele>265.0</ele><time>2026-04-04T07:39:03.243Z</time></trkpt><trkpt lat="43.3772039" lon="11.2360299"><ele>265.0</ele><time>2026-04-04T07:39:07.333Z</time></trkpt><trkpt lat="43.3771312" lon="11.2360841"><ele>265.0</ele><time>2026-04-04T07:39:10.258Z</time></trkpt><trkpt lat="43.3770799" lon="11.2361354"><ele>265.0</ele><time>2026-04-04T07:39:12.327Z</time></trkpt><trkpt lat="43.3770084" lon="11.2362159"><ele>265.0</ele><time>2026-04-04T07:39:15.264Z</time></trkpt><trkpt lat="43.3769369" lon="11.2362592"><ele>265.0</ele><time>2026-04-04T07:39:18.344Z</time></trkpt><trkpt lat="43.3768795" lon="11.236314"><ele>265.2857142857143</ele><time>2026-04-04T07:39:22.326Z</time></trkpt><trkpt lat="43.3768176" lon="11.2363405"><ele>265.57142857142856</ele><time>2026-04-04T07:39:25.266Z</time></trkpt><trkpt lat="43.37675" lon="11.2363875"><ele>265.8571428571429</ele><time>2026-04-04T07:39:30.271Z</time></trkpt><trkpt lat="43.3766895" lon="11.2363625"><ele>266.1428571428571</ele><time>2026-04-04T07:39:33.265Z</time></trkpt><trkpt lat="43.3766458" lon="11.2362885"><ele>266.42857142857144</ele><time>2026-04-04T07:39:36.331Z</time></trkpt><trkpt lat="43.376671" lon="11.2362045"><ele>266.7142857142857</ele><time>2026-04-04T07:39:38.339Z</time></trkpt><trkpt lat="43.3766536" lon="11.2360944"><ele>267.0</ele><time>2026-04-04T07:39:41.267Z</time></trkpt><trkpt lat="43.3766194" lon="11.2360175"><ele>267.0</ele><time>2026-04-04T07:39:43.274Z</time></trkpt><trkpt lat="43.3765841" lon="11.2359005"><ele>267.0</ele><time>2026-04-04T07:39:46.248Z</time></trkpt><trkpt lat="43.3765639" lon="11.2358156"><ele>267.0</ele><time>2026-04-04T07:39:48.272Z</time></trkpt><trkpt lat="43.3765504" lon="11.2356883"><ele>267.0</ele><time>2026-04-04T07:39:51.266Z</time></trkpt><trkpt lat="43.3765216" lon="11.2355654"><ele>267.0</ele><time>2026-04-04T07:39:54.257Z</time></trkpt><trkpt lat="43.3764931" lon="11.2354428"><ele>267.0</ele><time>2026-04-04T07:39:57.272Z</time></trkpt><trkpt lat="43.3764597" lon="11.2353284"><ele>268.1666666666667</ele><time>2026-04-04T07:40:00.256Z</time></trkpt><trkpt lat="43.3764201" lon="11.2352351"><ele>269.3333333333333</ele><time>2026-04-04T07:40:03.303Z</time></trkpt><trkpt lat="43.3763708" lon="11.2351574"><ele>270.5</ele><time>2026-04-04T07:40:06.265Z</time></trkpt><trkpt lat="43.3763131" lon="11.235101"><ele>271.66666666666663</ele><time>2026-04-04T07:40:09.265Z</time></trkpt><trkpt lat="43.3762551" lon="11.2350355"><ele>272.8333333333333</ele><time>2026-04-04T07:40:12.345Z</time></trkpt><trkpt lat="43.3761828" lon="11.2350145"><ele>274.0</ele><time>2026-04-04T07:40:15.274Z</time></trkpt><trkpt lat="43.3761383" lon="11.2349274"><ele>274.42857142857144</ele><time>2026-04-04T07:40:19.267Z</time></trkpt><trkpt lat="43.376199" lon="11.2349609"><ele>274.8571428571429</ele><time>2026-04-04T07:40:28.237Z</time></trkpt><trkpt lat="43.3762689" lon="11.2350259"><ele>275.2857142857143</ele><time>2026-04-04T07:41:23.329Z</time></trkpt><trkpt lat="43.3762078" lon="11.2349939"><ele>275.7142857142857</ele><time>2026-04-04T07:41:39.258Z</time></trkpt><trkpt lat="43.3761481" lon="11.2349302"><ele>276.1428571428571</ele><time>2026-04-04T07:41:44.241Z</time></trkpt><trkpt lat="43.3760861" lon="11.2348793"><ele>276.57142857142856</ele><time>2026-04-04T07:41:49.243Z</time></trkpt><trkpt lat="43.3760282" lon="11.2348385"><ele>277.0</ele><time>2026-04-04T07:41:54.247Z</time></trkpt><trkpt lat="43.3759792" lon="11.2347618"><ele>277.1428571428571</ele><time>2026-04-04T07:41:59.264Z</time></trkpt><trkpt lat="43.3759189" lon="11.2347062"><ele>277.2857142857143</ele><time>2026-04-04T07:42:05.264Z</time></trkpt><trkpt lat="43.375854" lon="11.2346363"><ele>277.42857142857144</ele><time>2026-04-04T07:42:09.257Z</time></trkpt><trkpt lat="43.375789" lon="11.2345788"><ele>277.57142857142856</ele><time>2026-04-04T07:42:13.341Z</time></trkpt><trkpt lat="43.3757184" lon="11.234535"><ele>277.7142857142857</ele><time>2026-04-04T07:42:17.267Z</time></trkpt><trkpt lat="43.3756505" lon="11.2345291"><ele>277.85714285714283</ele><time>2026-04-04T07:42:20.236Z</time></trkpt><trkpt lat="43.3755874" lon="11.2345344"><ele>278.0</ele><time>2026-04-04T07:42:23.269Z</time></trkpt><trkpt lat="43.3755169" lon="11.2345708"><ele>278.57142857142856</ele><time>2026-04-04T07:42:26.256Z</time></trkpt><trkpt lat="43.3754509" lon="11.2345959"><ele>279.14285714285717</ele><time>2026-04-04T07:42:29.266Z</time></trkpt><trkpt lat="43.3753836" lon="11.2346073"><ele>279.7142857142857</ele><time>2026-04-04T07:42:32.238Z</time></trkpt><trkpt lat="43.3753039" lon="11.23463"><ele>280.2857142857143</ele><time>2026-04-04T07:42:36.255Z</time></trkpt><trkpt lat="43.3752254" lon="11.2346718"><ele>280.85714285714283</ele><time>2026-04-04T07:42:40.257Z</time></trkpt><trkpt lat="43.3751669" lon="11.2347201"><ele>281.42857142857144</ele><time>2026-04-04T07:42:43.265Z</time></trkpt><trkpt lat="43.3751089" lon="11.2347801"><ele>282.0</ele><time>2026-04-04T07:42:46.267Z</time></trkpt><trkpt lat="43.3750496" lon="11.2348432"><ele>282.0</ele><time>2026-04-04T07:42:49.257Z</time></trkpt><trkpt lat="43.3749983" lon="11.23491"><ele>282.0</ele><time>2026-04-04T07:42:52.326Z</time></trkpt><trkpt lat="43.3749388" lon="11.234975"><ele>282.0</ele><time>2026-04-04T07:42:54.272Z</time></trkpt><trkpt lat="43.3748782" lon="11.2350265"><ele>282.0</ele><time>2026-04-04T07:42:56.256Z</time></trkpt><trkpt lat="43.3748304" lon="11.2350932"><ele>282.0</ele><time>2026-04-04T07:42:59.268Z</time></trkpt><trkpt lat="43.3747764" lon="11.2351614"><ele>282.0</ele><time>2026-04-04T07:43:02.252Z</time></trkpt><trkpt lat="43.3747069" lon="11.2351722"><ele>282.0</ele><time>2026-04-04T07:43:05.269Z</time></trkpt><trkpt lat="43.374631" lon="11.2351787"><ele>282.7142857142857</ele><time>2026-04-04T07:43:08.261Z</time></trkpt><trkpt lat="43.3745598" lon="11.2351647"><ele>283.42857142857144</ele><time>2026-04-04T07:43:11.258Z</time></trkpt><trkpt lat="43.3744905" lon="11.2351413"><ele>284.1428571428571</ele><time>2026-04-04T07:43:14.249Z</time></trkpt><trkpt lat="43.3744197" lon="11.2351119"><ele>284.8571428571429</ele><time>2026-04-04T07:43:17.269Z</time></trkpt><trkpt lat="43.374355" lon="11.2350925"><ele>285.57142857142856</ele><time>2026-04-04T07:43:20.269Z</time></trkpt><trkpt lat="43.3742927" lon="11.2350688"><ele>286.2857142857143</ele><time>2026-04-04T07:43:23.342Z</time></trkpt><trkpt lat="43.3742152" lon="11.2350435"><ele>287.0</ele><time>2026-04-04T07:43:27.337Z</time></trkpt><trkpt lat="43.3741451" lon="11.2350282"><ele>287.0</ele><time>2026-04-04T07:43:31.252Z</time></trkpt><trkpt lat="43.3740774" lon="11.2350462"><ele>287.0</ele><time>2026-04-04T07:43:35.255Z</time></trkpt><trkpt lat="43.3739903" lon="11.2351021"><ele>287.0</ele><time>2026-04-04T07:43:38.346Z</time></trkpt><trkpt lat="43.3739173" lon="11.2351739"><ele>287.0</ele><time>2026-04-04T07:43:40.261Z</time></trkpt><trkpt lat="43.3738574" lon="11.2352105"><ele>287.0</ele><time>2026-04-04T07:43:43.325Z</time></trkpt><trkpt lat="43.3737973" lon="11.2352749"><ele>287.0</ele><time>2026-04-04T07:43:49.28Z</time></trkpt><trkpt lat="43.3737309" lon="11.2353342"><ele>288.1666666666667</ele><time>2026-04-04T07:43:53.266Z</time></trkpt><trkpt lat="43.3736641" lon="11.2353768"><ele>289.33333333333337</ele><time>2026-04-04T07:43:57.263Z</time></trkpt><trkpt lat="43.3735977" lon="11.2354237"><ele>290.5</ele><time>2026-04-04T07:44:01.332Z</time></trkpt><trkpt lat="43.3735359" lon="11.2354631"><ele>291.6666666666667</ele><time>2026-04-04T07:44:04.245Z</time></trkpt><trkpt lat="43.3734757" lon="11.2355223"><ele>292.8333333333333</ele><time>2026-04-04T07:44:09.251Z</time></trkpt><trkpt lat="43.373413" lon="11.2355927"><ele>294.0</ele><time>2026-04-04T07:44:45.262Z</time></trkpt><trkpt lat="43.3733409" lon="11.2356401"><ele>294.0</ele><time>2026-04-04T07:44:50.258Z</time></trkpt><trkpt lat="43.3732861" lon="11.2356831"><ele>294.0</ele><time>2026-04-04T07:44:54.246Z</time></trkpt><trkpt lat="43.3732182" lon="11.2357047"><ele>294.0</ele><time>2026-04-04T07:44:58.333Z</time></trkpt><trkpt lat="43.3731351" lon="11.235672"><ele>294.0</ele><time>2026-04-04T07:45:01.264Z</time></trkpt><trkpt lat="43.3730617" lon="11.2356241"><ele>294.0</ele><time>2026-04-04T07:45:05.257Z</time></trkpt><trkpt lat="43.3730672" lon="11.2354811"><ele>294.0</ele><time>2026-04-04T07:45:11.259Z</time></trkpt><trkpt lat="43.3731081" lon="11.2353986"><ele>294.0</ele><time>2026-04-04T07:45:16.263Z</time></trkpt><trkpt lat="43.3731689" lon="11.2353639"><ele>294.0</ele><time>2026-04-04T07:45:21.325Z</time></trkpt><trkpt lat="43.3731458" lon="11.2352818"><ele>294.0</ele><time>2026-04-04T07:46:21.264Z</time></trkpt><trkpt lat="43.3732192" lon="11.2353088"><ele>294.0</ele><time>2026-04-04T07:47:02.328Z</time></trkpt><trkpt lat="43.3732842" lon="11.2353581"><ele>294.0</ele><time>2026-04-04T07:47:33.337Z</time></trkpt><trkpt lat="43.3732204" lon="11.2353428"><ele>294.0</ele><time>2026-04-04T07:47:45.251Z</time></trkpt><trkpt lat="43.373151" lon="11.2353373"><ele>294.0</ele><time>2026-04-04T07:48:57.257Z</time></trkpt><trkpt lat="43.3730992" lon="11.2352825"><ele>294.0</ele><time>2026-04-04T07:50:46.251Z</time></trkpt><trkpt lat="43.3730347" lon="11.2352997"><ele>294.0</ele><time>2026-04-04T07:52:19.256Z</time></trkpt><trkpt lat="43.3730767" lon="11.2352347"><ele>294.0</ele><time>2026-04-04T07:53:05.26Z</time></trkpt><trkpt lat="43.3731546" lon="11.2352687"><ele>294.0</ele><time>2026-04-04T07:53:25.263Z</time></trkpt><trkpt lat="43.3732155" lon="11.235315"><ele>294.0</ele><time>2026-04-04T07:53:42.333Z</time></trkpt><trkpt lat="43.3731513" lon="11.2353464"><ele>294.0</ele><time>2026-04-04T07:54:05.268Z</time></trkpt><trkpt lat="43.3731017" lon="11.2354112"><ele>294.0</ele><time>2026-04-04T07:54:19.251Z</time></trkpt><trkpt lat="43.3730711" lon="11.2355008"><ele>294.0</ele><time>2026-04-04T07:54:24.269Z</time></trkpt><trkpt lat="43.3730995" lon="11.2355925"><ele>294.0</ele><time>2026-04-04T07:54:27.317Z</time></trkpt><trkpt lat="43.3731688" lon="11.2358146"><ele>294.0</ele><time>2026-04-04T07:54:31.326Z</time></trkpt><trkpt lat="43.3731295" lon="11.2358885"><ele>294.0</ele><time>2026-04-04T07:54:36.264Z</time></trkpt><trkpt lat="43.3730684" lon="11.2359408"><ele>294.0</ele><time>2026-04-04T07:54:40.257Z</time></trkpt><trkpt lat="43.3730164" lon="11.2359963"><ele>296.14285714285717</ele><time>2026-04-04T07:54:47.331Z</time></trkpt><trkpt lat="43.3729601" lon="11.2360526"><ele>298.2857142857143</ele><time>2026-04-04T07:54:51.26Z</time></trkpt><trkpt lat="43.3729057" lon="11.2361099"><ele>300.42857142857144</ele><time>2026-04-04T07:54:54.254Z</time></trkpt><trkpt lat="43.3728482" lon="11.2361556"><ele>302.57142857142856</ele><time>2026-04-04T07:54:57.264Z</time></trkpt><trkpt lat="43.3728024" lon="11.2362417"><ele>304.7142857142857</ele><time>2026-04-04T07:55:01.254Z</time></trkpt><trkpt lat="43.3727474" lon="11.2363056"><ele>306.8571428571429</ele><time>2026-04-04T07:55:05.261Z</time></trkpt><trkpt lat="43.3726859" lon="11.2363532"><ele>309.0</ele><time>2026-04-04T07:55:09.265Z</time></trkpt><trkpt lat="43.3726234" lon="11.2363879"><ele>309.00000000000006</ele><time>2026-04-04T07:55:15.265Z</time></trkpt><trkpt lat="43.3725777" lon="11.2364556"><ele>309.0</ele><time>2026-04-04T07:55:22.328Z</time></trkpt><trkpt lat="43.3725429" lon="11.236532"><ele>309.0</ele><time>2026-04-04T07:55:36.261Z</time></trkpt><trkpt lat="43.3724924" lon="11.2366208"><ele>309.0</ele><time>2026-04-04T07:55:42.322Z</time></trkpt><trkpt lat="43.3724489" lon="11.2367272"><ele>309.0</ele><time>2026-04-04T07:55:45.257Z</time></trkpt><trkpt lat="43.3724092" lon="11.2368016"><ele>309.00000000000006</ele><time>2026-04-04T07:55:50.261Z</time></trkpt><trkpt lat="43.3723708" lon="11.2368893"><ele>309.0</ele><time>2026-04-04T07:55:53.276Z</time></trkpt><trkpt lat="43.3723404" lon="11.2369937"><ele>309.1666666666667</ele><time>2026-04-04T07:56:06.255Z</time></trkpt><trkpt lat="43.3723016" lon="11.2370697"><ele>309.3333333333333</ele><time>2026-04-04T07:56:08.321Z</time></trkpt><trkpt lat="43.3722409" lon="11.2371468"><ele>309.5</ele><time>2026-04-04T07:56:11.271Z</time></trkpt><trkpt lat="43.372217" lon="11.2372428"><ele>309.66666666666663</ele><time>2026-04-04T07:56:13.264Z</time></trkpt><trkpt lat="43.3721771" lon="11.2373341"><ele>309.8333333333333</ele><time>2026-04-04T07:56:15.261Z</time></trkpt><trkpt lat="43.3721576" lon="11.2374332"><ele>310.0</ele><time>2026-04-04T07:56:18.327Z</time></trkpt><trkpt lat="43.3721283" lon="11.2375349"><ele>312.7142857142857</ele><time>2026-04-04T07:56:21.258Z</time></trkpt><trkpt lat="43.3720795" lon="11.237615"><ele>315.42857142857144</ele><time>2026-04-04T07:56:24.267Z</time></trkpt><trkpt lat="43.3720377" lon="11.2376827"><ele>318.1428571428571</ele><time>2026-04-04T07:56:27.259Z</time></trkpt><trkpt lat="43.3719913" lon="11.2377415"><ele>320.8571428571429</ele><time>2026-04-04T07:56:30.274Z</time></trkpt><trkpt lat="43.3719675" lon="11.2378259"><ele>323.57142857142856</ele><time>2026-04-04T07:56:33.267Z</time></trkpt><trkpt lat="43.3719482" lon="11.2379287"><ele>326.2857142857143</ele><time>2026-04-04T07:56:36.308Z</time></trkpt><trkpt lat="43.3719119" lon="11.2380032"><ele>329.0</ele><time>2026-04-04T07:56:39.254Z</time></trkpt><trkpt lat="43.3718776" lon="11.2380918"><ele>328.1666666666667</ele><time>2026-04-04T07:56:42.327Z</time></trkpt><trkpt lat="43.3717912" lon="11.2381491"><ele>327.33333333333337</ele><time>2026-04-04T07:56:45.265Z</time></trkpt><trkpt lat="43.3717669" lon="11.2382552"><ele>326.5</ele><time>2026-04-04T07:56:49.24Z</time></trkpt><trkpt lat="43.3717409" lon="11.2383364"><ele>325.6666666666667</ele><time>2026-04-04T07:56:52.338Z</time></trkpt><trkpt lat="43.3717061" lon="11.2384215"><ele>324.8333333333333</ele><time>2026-04-04T07:56:55.27Z</time></trkpt><trkpt lat="43.3716588" lon="11.2384912"><ele>324.0</ele><time>2026-04-04T07:56:58.242Z</time></trkpt><trkpt lat="43.3716012" lon="11.2385661"><ele>324.0</ele><time>2026-04-04T07:57:01.266Z</time></trkpt><trkpt lat="43.3715644" lon="11.2386442"><ele>324.0</ele><time>2026-04-04T07:57:04.244Z</time></trkpt><trkpt lat="43.3715293" lon="11.2387297"><ele>324.0</ele><time>2026-04-04T07:57:07.264Z</time></trkpt><trkpt lat="43.3714899" lon="11.2388058"><ele>324.0</ele><time>2026-04-04T07:57:10.256Z</time></trkpt><trkpt lat="43.371456" lon="11.238892"><ele>324.0</ele><time>2026-04-04T07:57:13.256Z</time></trkpt><trkpt lat="43.3714208" lon="11.2389862"><ele>324.0</ele><time>2026-04-04T07:57:17.233Z</time></trkpt><trkpt lat="43.3713792" lon="11.239063"><ele>324.0</ele><time>2026-04-04T07:57:20.251Z</time></trkpt><trkpt lat="43.3713367" lon="11.2391356"><ele>325.6666666666667</ele><time>2026-04-04T07:57:23.329Z</time></trkpt><trkpt lat="43.3712739" lon="11.2391739"><ele>327.3333333333333</ele><time>2026-04-04T07:57:26.259Z</time></trkpt><trkpt lat="43.3712336" lon="11.239259"><ele>329.0</ele><time>2026-04-04T07:57:29.248Z</time></trkpt><trkpt lat="43.3712199" lon="11.2393439"><ele>330.66666666666663</ele><time>2026-04-04T07:57:31.265Z</time></trkpt><trkpt lat="43.371159" lon="11.2394356"><ele>332.3333333333333</ele><time>2026-04-04T07:57:35.268Z</time></trkpt><trkpt lat="43.3711304" lon="11.2395196"><ele>334.0</ele><time>2026-04-04T07:57:37.323Z</time></trkpt><trkpt lat="43.3710779" lon="11.2396533"><ele>334.0</ele><time>2026-04-04T07:57:40.26Z</time></trkpt><trkpt lat="43.3710502" lon="11.239757"><ele>334.0</ele><time>2026-04-04T07:57:42.335Z</time></trkpt><trkpt lat="43.3710333" lon="11.2398545"><ele>334.0</ele><time>2026-04-04T07:57:44.26Z</time></trkpt><trkpt lat="43.3710213" lon="11.239963"><ele>334.0</ele><time>2026-04-04T07:57:47.262Z</time></trkpt><trkpt lat="43.371004" lon="11.2400492"><ele>334.0</ele><time>2026-04-04T07:57:49.258Z</time></trkpt><trkpt lat="43.3709858" lon="11.2401346"><ele>334.0</ele><time>2026-04-04T07:57:51.333Z</time></trkpt><trkpt lat="43.3709634" lon="11.2402319"><ele>334.0</ele><time>2026-04-04T07:57:53.261Z</time></trkpt><trkpt lat="43.3709385" lon="11.2403269"><ele>333.5</ele><time>2026-04-04T07:57:55.265Z</time></trkpt><trkpt lat="43.3709135" lon="11.2404347"><ele>333.0</ele><time>2026-04-04T07:57:57.349Z</time></trkpt><trkpt lat="43.3708949" lon="11.2405389"><ele>332.5</ele><time>2026-04-04T07:57:59.248Z</time></trkpt><trkpt lat="43.3708772" lon="11.2406316"><ele>332.0</ele><time>2026-04-04T07:58:01.262Z</time></trkpt><trkpt lat="43.3708611" lon="11.2407241"><ele>331.5</ele><time>2026-04-04T07:58:03.266Z</time></trkpt><trkpt lat="43.3708324" lon="11.240833"><ele>331.0</ele><time>2026-04-04T07:58:06.329Z</time></trkpt><trkpt lat="43.3707972" lon="11.2409524"><ele>331.0</ele><time>2026-04-04T07:58:09.255Z</time></trkpt><trkpt lat="43.370769" lon="11.2410351"><ele>331.0</ele><time>2026-04-04T07:58:11.263Z</time></trkpt><trkpt lat="43.3707262" lon="11.2411265"><ele>331.0</ele><time>2026-04-04T07:58:14.257Z</time></trkpt><trkpt lat="43.3706833" lon="11.2412228"><ele>331.0</ele><time>2026-04-04T07:58:17.33Z</time></trkpt><trkpt lat="43.3706337" lon="11.2413103"><ele>331.0</ele><time>2026-04-04T07:58:21.267Z</time></trkpt><trkpt lat="43.3705829" lon="11.2413867"><ele>331.0</ele><time>2026-04-04T07:58:24.261Z</time></trkpt><trkpt lat="43.3705528" lon="11.241466"><ele>331.0</ele><time>2026-04-04T07:58:26.26Z</time></trkpt><trkpt lat="43.3705127" lon="11.2415484"><ele>331.0</ele><time>2026-04-04T07:58:28.325Z</time></trkpt><trkpt lat="43.3704441" lon="11.2416344"><ele>331.0</ele><time>2026-04-04T07:58:30.259Z</time></trkpt><trkpt lat="43.3704075" lon="11.2417058"><ele>331.0</ele><time>2026-04-04T07:58:32.27Z</time></trkpt><trkpt lat="43.3703525" lon="11.2417987"><ele>331.0</ele><time>2026-04-04T07:58:35.28Z</time></trkpt><trkpt lat="43.3703042" lon="11.241903"><ele>331.0</ele><time>2026-04-04T07:58:38.258Z</time></trkpt><trkpt lat="43.3702594" lon="11.2420037"><ele>331.0</ele><time>2026-04-04T07:58:41.253Z</time></trkpt><trkpt lat="43.3701949" lon="11.2420857"><ele>331.0</ele><time>2026-04-04T07:58:44.261Z</time></trkpt><trkpt lat="43.3701454" lon="11.2421529"><ele>331.0</ele><time>2026-04-04T07:58:47.257Z</time></trkpt><trkpt lat="43.3701106" lon="11.2422271"><ele>331.0</ele><time>2026-04-04T07:58:50.257Z</time></trkpt><trkpt lat="43.3700588" lon="11.2423006"><ele>331.0</ele><time>2026-04-04T07:58:53.329Z</time></trkpt><trkpt lat="43.3700017" lon="11.2423895"><ele>331.0</ele><time>2026-04-04T07:58:56.265Z</time></trkpt><trkpt lat="43.3699676" lon="11.2424919"><ele>331.0</ele><time>2026-04-04T07:58:59.248Z</time></trkpt><trkpt lat="43.3699057" lon="11.2425643"><ele>330.8</ele><time>2026-04-04T07:59:02.247Z</time></trkpt><trkpt lat="43.3698303" lon="11.242646"><ele>330.6</ele><time>2026-04-04T07:59:05.268Z</time></trkpt><trkpt lat="43.369784" lon="11.2427301"><ele>330.4</ele><time>2026-04-04T07:59:07.326Z</time></trkpt><trkpt lat="43.3697562" lon="11.2428467"><ele>330.2</ele><time>2026-04-04T07:59:10.259Z</time></trkpt><trkpt lat="43.3697039" lon="11.2429674"><ele>330.0</ele><time>2026-04-04T07:59:12.336Z</time></trkpt><trkpt lat="43.3696284" lon="11.243059"><ele>329.2</ele><time>2026-04-04T07:59:14.254Z</time></trkpt><trkpt lat="43.3695932" lon="11.2431654"><ele>328.4</ele><time>2026-04-04T07:59:16.263Z</time></trkpt><trkpt lat="43.3695657" lon="11.2432773"><ele>327.6</ele><time>2026-04-04T07:59:18.251Z</time></trkpt><trkpt lat="43.3695188" lon="11.2433974"><ele>326.8</ele><time>2026-04-04T07:59:20.236Z</time></trkpt><trkpt lat="43.3694509" lon="11.2434973"><ele>326.0</ele><time>2026-04-04T07:59:22.33Z</time></trkpt><trkpt lat="43.3694088" lon="11.2436394"><ele>326.0</ele><time>2026-04-04T07:59:24.271Z</time></trkpt><trkpt lat="43.3693829" lon="11.2437567"><ele>326.0</ele><time>2026-04-04T07:59:26.256Z</time></trkpt><trkpt lat="43.3693453" lon="11.2438651"><ele>326.0</ele><time>2026-04-04T07:59:28.255Z</time></trkpt><trkpt lat="43.3693046" lon="11.2439661"><ele>326.0</ele><time>2026-04-04T07:59:30.256Z</time></trkpt><trkpt lat="43.3692571" lon="11.2440677"><ele>326.0</ele><time>2026-04-04T07:59:32.261Z</time></trkpt><trkpt lat="43.3691916" lon="11.2441559"><ele>326.0</ele><time>2026-04-04T07:59:34.258Z</time></trkpt><trkpt lat="43.3691488" lon="11.2442484"><ele>326.4</ele><time>2026-04-04T07:59:36.327Z</time></trkpt><trkpt lat="43.3690904" lon="11.2443383"><ele>326.8</ele><time>2026-04-04T07:59:38.326Z</time></trkpt><trkpt lat="43.3690299" lon="11.2444277"><ele>327.2</ele><time>2026-04-04T07:59:40.268Z</time></trkpt><trkpt lat="43.368969" lon="11.2445126"><ele>327.59999999999997</ele><time>2026-04-04T07:59:42.323Z</time></trkpt><trkpt lat="43.3689109" lon="11.2446005"><ele>328.0</ele><time>2026-04-04T07:59:44.263Z</time></trkpt><trkpt lat="43.3688366" lon="11.2447019"><ele>328.4</ele><time>2026-04-04T07:59:46.251Z</time></trkpt><trkpt lat="43.3687756" lon="11.2448023"><ele>328.79999999999995</ele><time>2026-04-04T07:59:48.334Z</time></trkpt><trkpt lat="43.3687104" lon="11.2449075"><ele>329.2</ele><time>2026-04-04T07:59:50.261Z</time></trkpt><trkpt lat="43.3686636" lon="11.2449861"><ele>329.6</ele><time>2026-04-04T07:59:52.259Z</time></trkpt><trkpt lat="43.3686011" lon="11.2450749"><ele>330.0</ele><time>2026-04-04T07:59:54.264Z</time></trkpt><trkpt lat="43.3685374" lon="11.2451685"><ele>330.0</ele><time>2026-04-04T07:59:56.244Z</time></trkpt><trkpt lat="43.3684612" lon="11.2452708"><ele>330.0</ele><time>2026-04-04T07:59:58.33Z</time></trkpt><trkpt lat="43.368388" lon="11.2453881"><ele>330.0</ele><time>2026-04-04T08:00:00.26Z</time></trkpt><trkpt lat="43.3683159" lon="11.2455105"><ele>330.0</ele><time>2026-04-04T08:00:02.258Z</time></trkpt><trkpt lat="43.3682356" lon="11.2456211"><ele>330.0</ele><time>2026-04-04T08:00:04.277Z</time></trkpt><trkpt lat="43.3681472" lon="11.2457221"><ele>330.2</ele><time>2026-04-04T08:00:06.262Z</time></trkpt><trkpt lat="43.3680824" lon="11.2458157"><ele>330.4</ele><time>2026-04-04T08:00:08.261Z</time></trkpt><trkpt lat="43.3679935" lon="11.2458848"><ele>330.6</ele><time>2026-04-04T08:00:10.262Z</time></trkpt><trkpt lat="43.3678985" lon="11.2459521"><ele>330.8</ele><time>2026-04-04T08:00:12.327Z</time></trkpt><trkpt lat="43.3677904" lon="11.2460192"><ele>331.0</ele><time>2026-04-04T08:00:14.262Z</time></trkpt><trkpt lat="43.3676834" lon="11.2460978"><ele>329.25</ele><time>2026-04-04T08:00:16.267Z</time></trkpt><trkpt lat="43.3675769" lon="11.2461627"><ele>327.5</ele><time>2026-04-04T08:00:18.328Z</time></trkpt><trkpt lat="43.3674781" lon="11.2462411"><ele>325.75</ele><time>2026-04-04T08:00:20.261Z</time></trkpt><trkpt lat="43.3673789" lon="11.2463074"><ele>324.0</ele><time>2026-04-04T08:00:22.261Z</time></trkpt><trkpt lat="43.3672656" lon="11.2463608"><ele>324.0</ele><time>2026-04-04T08:00:24.263Z</time></trkpt><trkpt lat="43.3672044" lon="11.2463839"><ele>324.0</ele><time>2026-04-04T08:00:25.275Z</time></trkpt><trkpt lat="43.3671084" lon="11.2464336"><ele>324.0</ele><time>2026-04-04T08:00:27.257Z</time></trkpt><trkpt lat="43.3670116" lon="11.2464997"><ele>324.0</ele><time>2026-04-04T08:00:29.257Z</time></trkpt><trkpt lat="43.3669499" lon="11.2465471"><ele>324.0</ele><time>2026-04-04T08:00:30.258Z</time></trkpt><trkpt lat="43.3668886" lon="11.2465876"><ele>324.0</ele><time>2026-04-04T08:00:31.334Z</time></trkpt><trkpt lat="43.3667922" lon="11.2466909"><ele>321.75</ele><time>2026-04-04T08:00:33.271Z</time></trkpt><trkpt lat="43.366707" lon="11.2467924"><ele>319.5</ele><time>2026-04-04T08:00:35.256Z</time></trkpt><trkpt lat="43.3666286" lon="11.2469126"><ele>317.25</ele><time>2026-04-04T08:00:37.248Z</time></trkpt><trkpt lat="43.3665615" lon="11.2470476"><ele>315.0</ele><time>2026-04-04T08:00:39.268Z</time></trkpt><trkpt lat="43.3665072" lon="11.2471901"><ele>316.0</ele><time>2026-04-04T08:00:41.238Z</time></trkpt><trkpt lat="43.3664759" lon="11.2473232"><ele>317.0</ele><time>2026-04-04T08:00:43.261Z</time></trkpt><trkpt lat="43.3664576" lon="11.247444"><ele>318.0</ele><time>2026-04-04T08:00:45.258Z</time></trkpt><trkpt lat="43.3664304" lon="11.2475791"><ele>319.0</ele><time>2026-04-04T08:00:47.336Z</time></trkpt><trkpt lat="43.366391" lon="11.2477159"><ele>320.0</ele><time>2026-04-04T08:00:49.264Z</time></trkpt><trkpt lat="43.3663514" lon="11.2478475"><ele>317.2</ele><time>2026-04-04T08:00:51.258Z</time></trkpt><trkpt lat="43.3663145" lon="11.2479785"><ele>314.4</ele><time>2026-04-04T08:00:53.266Z</time></trkpt><trkpt lat="43.3662811" lon="11.2480999"><ele>311.6</ele><time>2026-04-04T08:00:55.268Z</time></trkpt><trkpt lat="43.3662542" lon="11.2482192"><ele>308.8</ele><time>2026-04-04T08:00:57.326Z</time></trkpt><trkpt lat="43.3662354" lon="11.2483332"><ele>306.0</ele><time>2026-04-04T08:00:59.278Z</time></trkpt><trkpt lat="43.3662098" lon="11.24846"><ele>306.0</ele><time>2026-04-04T08:01:01.257Z</time></trkpt><trkpt lat="43.3661574" lon="11.2485461"><ele>306.0</ele><time>2026-04-04T08:01:03.344Z</time></trkpt><trkpt lat="43.3661129" lon="11.2486795"><ele>306.0</ele><time>2026-04-04T08:01:06.261Z</time></trkpt><trkpt lat="43.366063" lon="11.2488367"><ele>306.0</ele><time>2026-04-04T08:01:08.342Z</time></trkpt><trkpt lat="43.366002" lon="11.2489851"><ele>306.0</ele><time>2026-04-04T08:01:10.273Z</time></trkpt><trkpt lat="43.3659656" lon="11.2490666"><ele>306.1428571428571</ele><time>2026-04-04T08:01:11.255Z</time></trkpt><trkpt lat="43.3659283" lon="11.249151"><ele>306.2857142857143</ele><time>2026-04-04T08:01:12.327Z</time></trkpt><trkpt lat="43.3658902" lon="11.2492342"><ele>306.42857142857144</ele><time>2026-04-04T08:01:13.265Z</time></trkpt><trkpt lat="43.3658453" lon="11.2493152"><ele>306.57142857142856</ele><time>2026-04-04T08:01:14.259Z</time></trkpt><trkpt lat="43.3658175" lon="11.2494072"><ele>306.7142857142857</ele><time>2026-04-04T08:01:15.262Z</time></trkpt><trkpt lat="43.3657976" lon="11.2495098"><ele>306.85714285714283</ele><time>2026-04-04T08:01:16.255Z</time></trkpt><trkpt lat="43.3657781" lon="11.2496159"><ele>307.0</ele><time>2026-04-04T08:01:17.247Z</time></trkpt><trkpt lat="43.365748" lon="11.2497072"><ele>307.3333333333333</ele><time>2026-04-04T08:01:18.261Z</time></trkpt><trkpt lat="43.3657153" lon="11.2497991"><ele>307.66666666666663</ele><time>2026-04-04T08:01:19.256Z</time></trkpt><trkpt lat="43.3656817" lon="11.2498898"><ele>308.0</ele><time>2026-04-04T08:01:20.258Z</time></trkpt><trkpt lat="43.3656514" lon="11.2499828"><ele>308.3333333333333</ele><time>2026-04-04T08:01:21.267Z</time></trkpt><trkpt lat="43.3656225" lon="11.2500807"><ele>308.6666666666667</ele><time>2026-04-04T08:01:22.265Z</time></trkpt><trkpt lat="43.365602" lon="11.250181"><ele>309.0</ele><time>2026-04-04T08:01:23.26Z</time></trkpt><trkpt lat="43.3655804" lon="11.2502796"><ele>309.0</ele><time>2026-04-04T08:01:24.237Z</time></trkpt><trkpt lat="43.365559" lon="11.2503756"><ele>309.0</ele><time>2026-04-04T08:01:25.255Z</time></trkpt><trkpt lat="43.3655389" lon="11.2504654"><ele>309.0</ele><time>2026-04-04T08:01:26.331Z</time></trkpt><trkpt lat="43.3655033" lon="11.2506117"><ele>309.0</ele><time>2026-04-04T08:01:28.258Z</time></trkpt><trkpt lat="43.3654736" lon="11.2507115"><ele>309.0</ele><time>2026-04-04T08:01:30.266Z</time></trkpt><trkpt lat="43.3653968" lon="11.2506884"><ele>309.0</ele><time>2026-04-04T08:01:33.332Z</time></trkpt><trkpt lat="43.3653221" lon="11.2506421"><ele>306.6666666666667</ele><time>2026-04-04T08:01:35.26Z</time></trkpt><trkpt lat="43.3652794" lon="11.2505273"><ele>304.3333333333333</ele><time>2026-04-04T08:01:38.327Z</time></trkpt><trkpt lat="43.3652339" lon="11.2504369"><ele>302.0</ele><time>2026-04-04T08:01:41.267Z</time></trkpt><trkpt lat="43.3651847" lon="11.2503781"><ele>299.66666666666663</ele><time>2026-04-04T08:01:44.243Z</time></trkpt><trkpt lat="43.3651348" lon="11.2502995"><ele>297.3333333333333</ele><time>2026-04-04T08:01:47.325Z</time></trkpt><trkpt lat="43.3650918" lon="11.2502057"><ele>295.0</ele><time>2026-04-04T08:01:50.268Z</time></trkpt><trkpt lat="43.3650517" lon="11.2501255"><ele>295.0</ele><time>2026-04-04T08:01:53.344Z</time></trkpt><trkpt lat="43.3649853" lon="11.2500774"><ele>295.0</ele><time>2026-04-04T08:01:55.274Z</time></trkpt><trkpt lat="43.36493" lon="11.2499993"><ele>295.0</ele><time>2026-04-04T08:01:57.258Z</time></trkpt><trkpt lat="43.3648802" lon="11.2498852"><ele>295.0</ele><time>2026-04-04T08:01:59.264Z</time></trkpt><trkpt lat="43.3648203" lon="11.2497978"><ele>295.0</ele><time>2026-04-04T08:02:01.339Z</time></trkpt><trkpt lat="43.3647533" lon="11.249704"><ele>295.0</ele><time>2026-04-04T08:02:03.324Z</time></trkpt><trkpt lat="43.3646822" lon="11.2496181"><ele>294.3333333333333</ele><time>2026-04-04T08:02:05.259Z</time></trkpt><trkpt lat="43.3646028" lon="11.2495521"><ele>293.66666666666663</ele><time>2026-04-04T08:02:07.266Z</time></trkpt><trkpt lat="43.3645396" lon="11.2494733"><ele>293.0</ele><time>2026-04-04T08:02:09.279Z</time></trkpt><trkpt lat="43.3644785" lon="11.2493902"><ele>292.3333333333333</ele><time>2026-04-04T08:02:11.267Z</time></trkpt><trkpt lat="43.3644168" lon="11.2492997"><ele>291.6666666666667</ele><time>2026-04-04T08:02:13.265Z</time></trkpt><trkpt lat="43.364352" lon="11.2492068"><ele>291.0</ele><time>2026-04-04T08:02:15.256Z</time></trkpt><trkpt lat="43.364292" lon="11.2491228"><ele>291.0</ele><time>2026-04-04T08:02:17.268Z</time></trkpt><trkpt lat="43.3642344" lon="11.2490422"><ele>291.0</ele><time>2026-04-04T08:02:19.25Z</time></trkpt><trkpt lat="43.3641828" lon="11.2489699"><ele>291.0</ele><time>2026-04-04T08:02:21.258Z</time></trkpt><trkpt lat="43.3641326" lon="11.248902"><ele>291.0</ele><time>2026-04-04T08:02:23.325Z</time></trkpt><trkpt lat="43.3640883" lon="11.2488382"><ele>291.0</ele><time>2026-04-04T08:02:25.276Z</time></trkpt><trkpt lat="43.3640288" lon="11.2487408"><ele>291.0</ele><time>2026-04-04T08:02:28.337Z</time></trkpt><trkpt lat="43.3639826" lon="11.2486771"><ele>291.0</ele><time>2026-04-04T08:02:30.258Z</time></trkpt><trkpt lat="43.3639306" lon="11.2486183"><ele>291.42857142857144</ele><time>2026-04-04T08:02:33.323Z</time></trkpt><trkpt lat="43.3638899" lon="11.2485325"><ele>291.85714285714283</ele><time>2026-04-04T08:02:36.24Z</time></trkpt><trkpt lat="43.3638469" lon="11.2484656"><ele>292.2857142857143</ele><time>2026-04-04T08:02:41.258Z</time></trkpt><trkpt lat="43.3637972" lon="11.2483971"><ele>292.7142857142857</ele><time>2026-04-04T08:02:46.259Z</time></trkpt><trkpt lat="43.3637517" lon="11.2483298"><ele>293.1428571428571</ele><time>2026-04-04T08:02:51.256Z</time></trkpt><trkpt lat="43.3636957" lon="11.2482609"><ele>293.57142857142856</ele><time>2026-04-04T08:02:57.267Z</time></trkpt><trkpt lat="43.3636472" lon="11.2481973"><ele>294.0</ele><time>2026-04-04T08:03:02.273Z</time></trkpt><trkpt lat="43.3635791" lon="11.248145"><ele>296.57142857142856</ele><time>2026-04-04T08:03:07.262Z</time></trkpt><trkpt lat="43.3635188" lon="11.2480997"><ele>299.1428571428571</ele><time>2026-04-04T08:03:11.263Z</time></trkpt><trkpt lat="43.3634629" lon="11.2480578"><ele>301.7142857142857</ele><time>2026-04-04T08:03:16.26Z</time></trkpt><trkpt lat="43.3634284" lon="11.2479672"><ele>304.2857142857143</ele><time>2026-04-04T08:03:23.323Z</time></trkpt><trkpt lat="43.3633985" lon="11.247874"><ele>306.85714285714283</ele><time>2026-04-04T08:03:33.258Z</time></trkpt><trkpt lat="43.3633663" lon="11.2477859"><ele>309.42857142857144</ele><time>2026-04-04T08:03:38.328Z</time></trkpt><trkpt lat="43.3632825" lon="11.2477382"><ele>312.0</ele><time>2026-04-04T08:03:43.346Z</time></trkpt><trkpt lat="43.3632334" lon="11.2476489"><ele>312.0</ele><time>2026-04-04T08:03:49.249Z</time></trkpt><trkpt lat="43.3632037" lon="11.2475722"><ele>312.0</ele><time>2026-04-04T08:03:54.266Z</time></trkpt><trkpt lat="43.3631472" lon="11.2475167"><ele>312.0</ele><time>2026-04-04T08:04:00.264Z</time></trkpt><trkpt lat="43.3630888" lon="11.2475826"><ele>312.0</ele><time>2026-04-04T08:04:06.256Z</time></trkpt><trkpt lat="43.3630176" lon="11.24763"><ele>312.0</ele><time>2026-04-04T08:04:09.244Z</time></trkpt><trkpt lat="43.3629365" lon="11.2476669"><ele>312.0</ele><time>2026-04-04T08:04:12.331Z</time></trkpt><trkpt lat="43.362875" lon="11.2477141"><ele>312.0</ele><time>2026-04-04T08:04:17.332Z</time></trkpt><trkpt lat="43.3627966" lon="11.2477146"><ele>313.0</ele><time>2026-04-04T08:04:20.258Z</time></trkpt><trkpt lat="43.3627147" lon="11.2477131"><ele>314.0</ele><time>2026-04-04T08:04:23.326Z</time></trkpt><trkpt lat="43.3626404" lon="11.2477138"><ele>315.0</ele><time>2026-04-04T08:04:26.253Z</time></trkpt><trkpt lat="43.3625719" lon="11.2477169"><ele>316.0</ele><time>2026-04-04T08:04:29.26Z</time></trkpt><trkpt lat="43.3624931" lon="11.2477135"><ele>317.0</ele><time>2026-04-04T08:04:32.268Z</time></trkpt><trkpt lat="43.3624263" lon="11.2477069"><ele>318.0</ele><time>2026-04-04T08:04:35.266Z</time></trkpt><trkpt lat="43.362353" lon="11.2477317"><ele>319.0</ele><time>2026-04-04T08:04:40.273Z</time></trkpt><trkpt lat="43.36228" lon="11.2477206"><ele>319.0</ele><time>2026-04-04T08:04:43.337Z</time></trkpt><trkpt lat="43.3622073" lon="11.2477105"><ele>319.0</ele><time>2026-04-04T08:04:46.334Z</time></trkpt><trkpt lat="43.3621375" lon="11.2476945"><ele>319.0</ele><time>2026-04-04T08:04:49.289Z</time></trkpt><trkpt lat="43.3620654" lon="11.2476776"><ele>319.0</ele><time>2026-04-04T08:04:52.326Z</time></trkpt><trkpt lat="43.3619826" lon="11.2476494"><ele>319.0</ele><time>2026-04-04T08:04:55.273Z</time></trkpt><trkpt lat="43.3619482" lon="11.2475378"><ele>319.0</ele><time>2026-04-04T08:04:59.254Z</time></trkpt><trkpt lat="43.3618785" lon="11.247518"><ele>319.14285714285717</ele><time>2026-04-04T08:05:02.324Z</time></trkpt><trkpt lat="43.3618072" lon="11.247526"><ele>319.2857142857143</ele><time>2026-04-04T08:05:05.264Z</time></trkpt><trkpt lat="43.361744" lon="11.2475226"><ele>319.42857142857144</ele><time>2026-04-04T08:05:08.26Z</time></trkpt><trkpt lat="43.361677" lon="11.2475123"><ele>319.57142857142856</ele><time>2026-04-04T08:05:11.255Z</time></trkpt><trkpt lat="43.3616075" lon="11.2474937"><ele>319.7142857142857</ele><time>2026-04-04T08:05:14.25Z</time></trkpt><trkpt lat="43.3615365" lon="11.2474644"><ele>319.85714285714283</ele><time>2026-04-04T08:05:17.257Z</time></trkpt><trkpt lat="43.3614694" lon="11.2474327"><ele>320.0</ele><time>2026-04-04T08:05:20.261Z</time></trkpt><trkpt lat="43.3613978" lon="11.2474137"><ele>320.1428571428571</ele><time>2026-04-04T08:05:23.339Z</time></trkpt><trkpt lat="43.3613348" lon="11.2474562"><ele>320.2857142857143</ele><time>2026-04-04T08:05:26.263Z</time></trkpt><trkpt lat="43.3612508" lon="11.2474726"><ele>320.42857142857144</ele><time>2026-04-04T08:05:29.334Z</time></trkpt><trkpt lat="43.361184" lon="11.2474703"><ele>320.57142857142856</ele><time>2026-04-04T08:05:31.274Z</time></trkpt><trkpt lat="43.3611071" lon="11.2474914"><ele>320.7142857142857</ele><time>2026-04-04T08:05:33.325Z</time></trkpt><trkpt lat="43.3610384" lon="11.2475109"><ele>320.85714285714283</ele><time>2026-04-04T08:05:35.264Z</time></trkpt><trkpt lat="43.3609601" lon="11.2475259"><ele>321.0</ele><time>2026-04-04T08:05:37.331Z</time></trkpt><trkpt lat="43.3608705" lon="11.2475086"><ele>320.99999999999994</ele><time>2026-04-04T08:05:39.248Z</time></trkpt><trkpt lat="43.3607943" lon="11.2475311"><ele>321.0</ele><time>2026-04-04T08:05:41.277Z</time></trkpt><trkpt lat="43.3607139" lon="11.2475395"><ele>321.0</ele><time>2026-04-04T08:05:43.262Z</time></trkpt><trkpt lat="43.3606556" lon="11.2475049"><ele>321.0</ele><time>2026-04-04T08:05:45.279Z</time></trkpt><trkpt lat="43.3605868" lon="11.2474737"><ele>321.0</ele><time>2026-04-04T08:05:47.347Z</time></trkpt><trkpt lat="43.3605178" lon="11.2474544"><ele>320.99999999999994</ele><time>2026-04-04T08:05:49.325Z</time></trkpt><trkpt lat="43.360444" lon="11.2474192"><ele>321.0</ele><time>2026-04-04T08:05:52.271Z</time></trkpt><trkpt lat="43.3603662" lon="11.247352"><ele>320.4285714285714</ele><time>2026-04-04T08:05:55.266Z</time></trkpt><trkpt lat="43.3603014" lon="11.2473026"><ele>319.85714285714283</ele><time>2026-04-04T08:05:57.27Z</time></trkpt><trkpt lat="43.360236" lon="11.2472657"><ele>319.2857142857143</ele><time>2026-04-04T08:05:59.263Z</time></trkpt><trkpt lat="43.3601741" lon="11.2472273"><ele>318.71428571428567</ele><time>2026-04-04T08:06:01.272Z</time></trkpt><trkpt lat="43.3601119" lon="11.2471933"><ele>318.1428571428571</ele><time>2026-04-04T08:06:03.271Z</time></trkpt><trkpt lat="43.3600456" lon="11.2471561"><ele>317.57142857142856</ele><time>2026-04-04T08:06:05.265Z</time></trkpt><trkpt lat="43.3599742" lon="11.2471038"><ele>317.0</ele><time>2026-04-04T08:06:07.321Z</time></trkpt><trkpt lat="43.3599072" lon="11.2470647"><ele>318.33333333333337</ele><time>2026-04-04T08:06:09.243Z</time></trkpt><trkpt lat="43.3598417" lon="11.2470275"><ele>319.6666666666667</ele><time>2026-04-04T08:06:11.259Z</time></trkpt><trkpt lat="43.3597762" lon="11.2469949"><ele>321.0</ele><time>2026-04-04T08:06:13.272Z</time></trkpt><trkpt lat="43.3597089" lon="11.2469857"><ele>322.3333333333333</ele><time>2026-04-04T08:06:15.269Z</time></trkpt><trkpt lat="43.3596143" lon="11.2469699"><ele>323.66666666666663</ele><time>2026-04-04T08:06:18.337Z</time></trkpt><trkpt lat="43.3595538" lon="11.2469426"><ele>325.0</ele><time>2026-04-04T08:06:20.265Z</time></trkpt><trkpt lat="43.3594747" lon="11.2468995"><ele>325.0</ele><time>2026-04-04T08:06:23.327Z</time></trkpt><trkpt lat="43.3594065" lon="11.2468789"><ele>325.0</ele><time>2026-04-04T08:06:25.261Z</time></trkpt><trkpt lat="43.3593295" lon="11.246834"><ele>325.0</ele><time>2026-04-04T08:06:28.342Z</time></trkpt><trkpt lat="43.3592383" lon="11.2467941"><ele>325.0</ele><time>2026-04-04T08:06:30.256Z</time></trkpt><trkpt lat="43.3591513" lon="11.2468116"><ele>325.0</ele><time>2026-04-04T08:06:33.335Z</time></trkpt><trkpt lat="43.3590583" lon="11.2468213"><ele>325.0</ele><time>2026-04-04T08:06:35.257Z</time></trkpt><trkpt lat="43.3589932" lon="11.2468413"><ele>325.0</ele><time>2026-04-04T08:06:37.33Z</time></trkpt><trkpt lat="43.3589323" lon="11.2468654"><ele>325.0</ele><time>2026-04-04T08:06:39.271Z</time></trkpt><trkpt lat="43.3588437" lon="11.2468932"><ele>325.0</ele><time>2026-04-04T08:06:42.261Z</time></trkpt><trkpt lat="43.358761" lon="11.2469089"><ele>325.0</ele><time>2026-04-04T08:06:44.343Z</time></trkpt><trkpt lat="43.3586887" lon="11.2469247"><ele>325.0</ele><time>2026-04-04T08:06:46.259Z</time></trkpt><trkpt lat="43.3586081" lon="11.2469435"><ele>325.0</ele><time>2026-04-04T08:06:48.269Z</time></trkpt><trkpt lat="43.3585194" lon="11.2469619"><ele>325.0</ele><time>2026-04-04T08:06:50.259Z</time></trkpt><trkpt lat="43.3584433" lon="11.246977"><ele>325.0</ele><time>2026-04-04T08:06:52.256Z</time></trkpt><trkpt lat="43.3583747" lon="11.2469822"><ele>325.0</ele><time>2026-04-04T08:06:54.249Z</time></trkpt><trkpt lat="43.358306" lon="11.246975"><ele>325.0</ele><time>2026-04-04T08:06:56.252Z</time></trkpt><trkpt lat="43.3582365" lon="11.2469541"><ele>325.0</ele><time>2026-04-04T08:06:58.262Z</time></trkpt><trkpt lat="43.3581707" lon="11.2469274"><ele>325.0</ele><time>2026-04-04T08:07:00.257Z</time></trkpt><trkpt lat="43.3580899" lon="11.2468762"><ele>325.0</ele><time>2026-04-04T08:07:03.329Z</time></trkpt><trkpt lat="43.3580097" lon="11.246817"><ele>325.16666666666663</ele><time>2026-04-04T08:07:05.26Z</time></trkpt><trkpt lat="43.357938" lon="11.2467806"><ele>325.3333333333333</ele><time>2026-04-04T08:07:08.331Z</time></trkpt><trkpt lat="43.357847" lon="11.2467565"><ele>325.5</ele><time>2026-04-04T08:07:10.256Z</time></trkpt><trkpt lat="43.3577713" lon="11.2467559"><ele>325.6666666666667</ele><time>2026-04-04T08:07:13.312Z</time></trkpt><trkpt lat="43.3577146" lon="11.2467169"><ele>325.83333333333337</ele><time>2026-04-04T08:07:15.26Z</time></trkpt><trkpt lat="43.3576247" lon="11.2467438"><ele>326.0</ele><time>2026-04-04T08:07:26.249Z</time></trkpt><trkpt lat="43.3575571" lon="11.2467962"><ele>326.0</ele><time>2026-04-04T08:07:28.258Z</time></trkpt><trkpt lat="43.3574553" lon="11.2468616"><ele>326.0</ele><time>2026-04-04T08:07:30.264Z</time></trkpt><trkpt lat="43.3573512" lon="11.2469482"><ele>326.0</ele><time>2026-04-04T08:07:32.242Z</time></trkpt><trkpt lat="43.3572663" lon="11.2470295"><ele>326.0</ele><time>2026-04-04T08:07:34.239Z</time></trkpt><trkpt lat="43.3572178" lon="11.247106"><ele>326.0</ele><time>2026-04-04T08:07:36.257Z</time></trkpt><trkpt lat="43.3572031" lon="11.2472151"><ele>324.83333333333337</ele><time>2026-04-04T08:07:38.254Z</time></trkpt><trkpt lat="43.357173" lon="11.2472967"><ele>323.6666666666667</ele><time>2026-04-04T08:07:40.265Z</time></trkpt><trkpt lat="43.357099" lon="11.2473456"><ele>322.5</ele><time>2026-04-04T08:07:42.262Z</time></trkpt><trkpt lat="43.3570176" lon="11.2473276"><ele>321.3333333333333</ele><time>2026-04-04T08:07:46.268Z</time></trkpt><trkpt lat="43.3569361" lon="11.2473051"><ele>320.16666666666663</ele><time>2026-04-04T08:07:51.259Z</time></trkpt><trkpt lat="43.3568721" lon="11.247319"><ele>319.0</ele><time>2026-04-04T08:07:54.33Z</time></trkpt><trkpt lat="43.3567998" lon="11.2473132"><ele>319.0</ele><time>2026-04-04T08:07:59.263Z</time></trkpt><trkpt lat="43.3567187" lon="11.2473343"><ele>319.0</ele><time>2026-04-04T08:08:03.332Z</time></trkpt><trkpt lat="43.3566534" lon="11.2473398"><ele>319.0</ele><time>2026-04-04T08:08:06.275Z</time></trkpt><trkpt lat="43.3565749" lon="11.2473452"><ele>319.0</ele><time>2026-04-04T08:08:08.26Z</time></trkpt><trkpt lat="43.3565043" lon="11.2473412"><ele>319.0</ele><time>2026-04-04T08:08:10.278Z</time></trkpt><trkpt lat="43.3564193" lon="11.2473348"><ele>319.0</ele><time>2026-04-04T08:08:13.332Z</time></trkpt><trkpt lat="43.3563464" lon="11.2473332"><ele>319.42857142857144</ele><time>2026-04-04T08:08:16.266Z</time></trkpt><trkpt lat="43.3562811" lon="11.2473328"><ele>319.85714285714283</ele><time>2026-04-04T08:08:19.326Z</time></trkpt><trkpt lat="43.3562156" lon="11.2473438"><ele>320.2857142857143</ele><time>2026-04-04T08:08:21.261Z</time></trkpt><trkpt lat="43.3561517" lon="11.2473431"><ele>320.7142857142857</ele><time>2026-04-04T08:08:24.335Z</time></trkpt><trkpt lat="43.3560895" lon="11.2473856"><ele>321.1428571428571</ele><time>2026-04-04T08:08:28.341Z</time></trkpt><trkpt lat="43.3560214" lon="11.2474509"><ele>321.57142857142856</ele><time>2026-04-04T08:08:32.269Z</time></trkpt><trkpt lat="43.3560075" lon="11.247573"><ele>322.0</ele><time>2026-04-04T08:08:34.261Z</time></trkpt><trkpt lat="43.3560127" lon="11.247732"><ele>322.0</ele><time>2026-04-04T08:08:36.248Z</time></trkpt><trkpt lat="43.3560282" lon="11.247856"><ele>322.0</ele><time>2026-04-04T08:08:38.278Z</time></trkpt><trkpt lat="43.3560423" lon="11.2479735"><ele>322.0</ele><time>2026-04-04T08:08:40.269Z</time></trkpt><trkpt lat="43.35606" lon="11.2481075"><ele>322.0</ele><time>2026-04-04T08:08:42.319Z</time></trkpt><trkpt lat="43.3560719" lon="11.2482416"><ele>322.0</ele><time>2026-04-04T08:08:44.276Z</time></trkpt><trkpt lat="43.3560891" lon="11.2483946"><ele>320.8</ele><time>2026-04-04T08:08:46.279Z</time></trkpt><trkpt lat="43.3561124" lon="11.2485414"><ele>319.6</ele><time>2026-04-04T08:08:48.337Z</time></trkpt><trkpt lat="43.3561332" lon="11.2487123"><ele>318.40000000000003</ele><time>2026-04-04T08:08:50.268Z</time></trkpt><trkpt lat="43.3561414" lon="11.248799"><ele>317.20000000000005</ele><time>2026-04-04T08:08:51.248Z</time></trkpt><trkpt lat="43.3561518" lon="11.2488851"><ele>316.0</ele><time>2026-04-04T08:08:52.28Z</time></trkpt><trkpt lat="43.3561744" lon="11.2490339"><ele>315.0</ele><time>2026-04-04T08:08:54.278Z</time></trkpt><trkpt lat="43.3561682" lon="11.24917"><ele>314.0</ele><time>2026-04-04T08:08:56.265Z</time></trkpt><trkpt lat="43.3561036" lon="11.2492697"><ele>313.0</ele><time>2026-04-04T08:08:58.265Z</time></trkpt><trkpt lat="43.356014" lon="11.2493333"><ele>312.0</ele><time>2026-04-04T08:09:00.27Z</time></trkpt><trkpt lat="43.3559169" lon="11.2493825"><ele>311.0</ele><time>2026-04-04T08:09:02.263Z</time></trkpt><trkpt lat="43.3558221" lon="11.2494326"><ele>311.0</ele><time>2026-04-04T08:09:04.244Z</time></trkpt><trkpt lat="43.3557314" lon="11.2493965"><ele>311.0</ele><time>2026-04-04T08:09:06.256Z</time></trkpt><trkpt lat="43.3556677" lon="11.2493053"><ele>311.0</ele><time>2026-04-04T08:09:08.281Z</time></trkpt><trkpt lat="43.3555973" lon="11.2492021"><ele>311.0</ele><time>2026-04-04T08:09:10.281Z</time></trkpt><trkpt lat="43.3555359" lon="11.2491125"><ele>311.0</ele><time>2026-04-04T08:09:12.331Z</time></trkpt><trkpt lat="43.3555004" lon="11.2490383"><ele>311.0</ele><time>2026-04-04T08:09:14.316Z</time></trkpt><trkpt lat="43.3554528" lon="11.2489765"><ele>311.85714285714283</ele><time>2026-04-04T08:09:16.261Z</time></trkpt><trkpt lat="43.3554113" lon="11.2489"><ele>312.7142857142857</ele><time>2026-04-04T08:09:18.248Z</time></trkpt><trkpt lat="43.355358" lon="11.2488359"><ele>313.57142857142856</ele><time>2026-04-04T08:09:20.247Z</time></trkpt><trkpt lat="43.3552921" lon="11.248781"><ele>314.42857142857144</ele><time>2026-04-04T08:09:22.259Z</time></trkpt><trkpt lat="43.3552383" lon="11.2487187"><ele>315.2857142857143</ele><time>2026-04-04T08:09:24.269Z</time></trkpt><trkpt lat="43.3551764" lon="11.2486572"><ele>316.14285714285717</ele><time>2026-04-04T08:09:26.264Z</time></trkpt><trkpt lat="43.3551171" lon="11.2486008"><ele>317.0</ele><time>2026-04-04T08:09:28.34Z</time></trkpt><trkpt lat="43.3550544" lon="11.2485122"><ele>317.0</ele><time>2026-04-04T08:09:31.262Z</time></trkpt><trkpt lat="43.3549975" lon="11.2484396"><ele>317.0</ele><time>2026-04-04T08:09:34.34Z</time></trkpt><trkpt lat="43.3549348" lon="11.2484177"><ele>317.0</ele><time>2026-04-04T08:09:37.327Z</time></trkpt><trkpt lat="43.354852" lon="11.2483949"><ele>317.0</ele><time>2026-04-04T08:09:41.279Z</time></trkpt><trkpt lat="43.3547866" lon="11.2483926"><ele>317.0</ele><time>2026-04-04T08:09:44.311Z</time></trkpt><trkpt lat="43.3547041" lon="11.2484005"><ele>317.0</ele><time>2026-04-04T08:09:48.34Z</time></trkpt><trkpt lat="43.3546335" lon="11.2484047"><ele>317.0</ele><time>2026-04-04T08:09:50.267Z</time></trkpt><trkpt lat="43.3545618" lon="11.2484203"><ele>317.6666666666667</ele><time>2026-04-04T08:09:52.256Z</time></trkpt><trkpt lat="43.3544698" lon="11.2484347"><ele>318.33333333333337</ele><time>2026-04-04T08:09:55.25Z</time></trkpt><trkpt lat="43.3544042" lon="11.2484403"><ele>319.0</ele><time>2026-04-04T08:09:57.27Z</time></trkpt><trkpt lat="43.3543198" lon="11.2484476"><ele>319.6666666666667</ele><time>2026-04-04T08:10:00.248Z</time></trkpt><trkpt lat="43.3542277" lon="11.2484521"><ele>320.3333333333333</ele><time>2026-04-04T08:10:03.274Z</time></trkpt><trkpt lat="43.3541521" lon="11.2484283"><ele>321.0</ele><time>2026-04-04T08:10:05.251Z</time></trkpt><trkpt lat="43.3540643" lon="11.2483911"><ele>321.0</ele><time>2026-04-04T08:10:07.248Z</time></trkpt><trkpt lat="43.3539861" lon="11.2484441"><ele>321.0</ele><time>2026-04-04T08:10:12.343Z</time></trkpt><trkpt lat="43.3539079" lon="11.2484745"><ele>321.0</ele><time>2026-04-04T08:10:14.341Z</time></trkpt><trkpt lat="43.3538275" lon="11.2484772"><ele>321.0</ele><time>2026-04-04T08:10:16.254Z</time></trkpt><trkpt lat="43.3537417" lon="11.2484436"><ele>321.0</ele><time>2026-04-04T08:10:19.257Z</time></trkpt><trkpt lat="43.3536506" lon="11.2483931"><ele>321.0</ele><time>2026-04-04T08:10:22.338Z</time></trkpt><trkpt lat="43.3535493" lon="11.2483617"><ele>320.2857142857143</ele><time>2026-04-04T08:10:24.329Z</time></trkpt><trkpt lat="43.3534785" lon="11.2483344"><ele>319.57142857142856</ele><time>2026-04-04T08:10:26.263Z</time></trkpt><trkpt lat="43.3533856" lon="11.2482781"><ele>318.8571428571429</ele><time>2026-04-04T08:10:29.34Z</time></trkpt><trkpt lat="43.3533232" lon="11.2482498"><ele>318.1428571428571</ele><time>2026-04-04T08:10:32.268Z</time></trkpt><trkpt lat="43.3533852" lon="11.2482716"><ele>317.42857142857144</ele><time>2026-04-04T08:10:41.259Z</time></trkpt><trkpt lat="43.3533177" lon="11.2482658"><ele>316.7142857142857</ele><time>2026-04-04T08:10:48.25Z</time></trkpt><trkpt lat="43.3533666" lon="11.2482103"><ele>316.0</ele><time>2026-04-04T08:11:18.342Z</time></trkpt><trkpt lat="43.3532923" lon="11.2482427"><ele>316.0</ele><time>2026-04-04T08:13:06.263Z</time></trkpt><trkpt lat="43.3532095" lon="11.2482378"><ele>316.0</ele><time>2026-04-04T08:13:11.27Z</time></trkpt><trkpt lat="43.353127" lon="11.2482707"><ele>316.0</ele><time>2026-04-04T08:13:14.265Z</time></trkpt><trkpt lat="43.3530479" lon="11.2483229"><ele>316.0</ele><time>2026-04-04T08:13:17.261Z</time></trkpt><trkpt lat="43.352988" lon="11.2483587"><ele>316.0</ele><time>2026-04-04T08:13:19.333Z</time></trkpt><trkpt lat="43.3527967" lon="11.2484701"><ele>316.7142857142857</ele><time>2026-04-04T08:13:23.332Z</time></trkpt><trkpt lat="43.3527336" lon="11.2485077"><ele>317.42857142857144</ele><time>2026-04-04T08:13:26.263Z</time></trkpt><trkpt lat="43.3526713" lon="11.2485289"><ele>318.1428571428571</ele><time>2026-04-04T08:13:29.324Z</time></trkpt><trkpt lat="43.3525901" lon="11.248536"><ele>318.8571428571429</ele><time>2026-04-04T08:13:32.336Z</time></trkpt><trkpt lat="43.352515" lon="11.248509"><ele>319.57142857142856</ele><time>2026-04-04T08:13:35.275Z</time></trkpt><trkpt lat="43.352442" lon="11.2484836"><ele>320.2857142857143</ele><time>2026-04-04T08:13:38.267Z</time></trkpt><trkpt lat="43.3523683" lon="11.2484548"><ele>321.0</ele><time>2026-04-04T08:13:42.272Z</time></trkpt><trkpt lat="43.3523025" lon="11.2484519"><ele>320.99999999999994</ele><time>2026-04-04T08:13:47.271Z</time></trkpt><trkpt lat="43.3522263" lon="11.2484414"><ele>321.0</ele><time>2026-04-04T08:13:51.271Z</time></trkpt><trkpt lat="43.3521605" lon="11.2484383"><ele>321.0</ele><time>2026-04-04T08:13:54.268Z</time></trkpt><trkpt lat="43.3520799" lon="11.2484428"><ele>321.0</ele><time>2026-04-04T08:13:58.274Z</time></trkpt><trkpt lat="43.3520148" lon="11.2484285"><ele>321.0</ele><time>2026-04-04T08:14:01.262Z</time></trkpt><trkpt lat="43.3519407" lon="11.2484358"><ele>320.99999999999994</ele><time>2026-04-04T08:14:05.263Z</time></trkpt><trkpt lat="43.351875" lon="11.2484371"><ele>321.0</ele><time>2026-04-04T08:14:08.257Z</time></trkpt><trkpt lat="43.3518092" lon="11.2483737"><ele>320.8</ele><time>2026-04-04T08:14:11.276Z</time></trkpt><trkpt lat="43.3517316" lon="11.2483598"><ele>320.6</ele><time>2026-04-04T08:14:14.246Z</time></trkpt><trkpt lat="43.3516748" lon="11.2484536"><ele>320.4</ele><time>2026-04-04T08:14:17.254Z</time></trkpt><trkpt lat="43.3516203" lon="11.2485629"><ele>320.2</ele><time>2026-04-04T08:14:19.246Z</time></trkpt><trkpt lat="43.3515539" lon="11.2486694"><ele>320.0</ele><time>2026-04-04T08:14:21.258Z</time></trkpt><trkpt lat="43.351483" lon="11.2487647"><ele>320.0</ele><time>2026-04-04T08:14:23.264Z</time></trkpt><trkpt lat="43.3514068" lon="11.2488487"><ele>320.0</ele><time>2026-04-04T08:14:25.261Z</time></trkpt><trkpt lat="43.3513265" lon="11.2489122"><ele>320.0</ele><time>2026-04-04T08:14:27.252Z</time></trkpt><trkpt lat="43.351241" lon="11.2489511"><ele>320.0</ele><time>2026-04-04T08:14:29.246Z</time></trkpt><trkpt lat="43.3511509" lon="11.2489643"><ele>320.0</ele><time>2026-04-04T08:14:31.257Z</time></trkpt><trkpt lat="43.3510602" lon="11.2489779"><ele>319.83333333333337</ele><time>2026-04-04T08:14:33.273Z</time></trkpt><trkpt lat="43.3509718" lon="11.2489999"><ele>319.6666666666667</ele><time>2026-04-04T08:14:35.284Z</time></trkpt><trkpt lat="43.3508841" lon="11.2490207"><ele>319.5</ele><time>2026-04-04T08:14:37.265Z</time></trkpt><trkpt lat="43.3508216" lon="11.2490599"><ele>319.3333333333333</ele><time>2026-04-04T08:14:39.247Z</time></trkpt><trkpt lat="43.3507572" lon="11.2491327"><ele>319.16666666666663</ele><time>2026-04-04T08:14:42.266Z</time></trkpt><trkpt lat="43.3507202" lon="11.2492409"><ele>319.0</ele><time>2026-04-04T08:14:45.253Z</time></trkpt><trkpt lat="43.3507117" lon="11.2493299"><ele>319.0</ele><time>2026-04-04T08:14:47.269Z</time></trkpt><trkpt lat="43.3507191" lon="11.2494485"><ele>319.0</ele><time>2026-04-04T08:14:50.252Z</time></trkpt><trkpt lat="43.3507417" lon="11.2495484"><ele>319.0</ele><time>2026-04-04T08:14:53.257Z</time></trkpt><trkpt lat="43.3507657" lon="11.249646"><ele>319.0</ele><time>2026-04-04T08:14:56.261Z</time></trkpt><trkpt lat="43.3507892" lon="11.249773"><ele>319.0</ele><time>2026-04-04T08:14:59.268Z</time></trkpt><trkpt lat="43.3508148" lon="11.2498665"><ele>319.0</ele><time>2026-04-04T08:15:01.268Z</time></trkpt><trkpt lat="43.3508443" lon="11.2499567"><ele>319.0</ele><time>2026-04-04T08:15:03.262Z</time></trkpt><trkpt lat="43.3508743" lon="11.2500368"><ele>319.0</ele><time>2026-04-04T08:15:05.265Z</time></trkpt><trkpt lat="43.3509177" lon="11.2501518"><ele>319.0</ele><time>2026-04-04T08:15:08.262Z</time></trkpt><trkpt lat="43.3509547" lon="11.2502235"><ele>319.0</ele><time>2026-04-04T08:15:10.271Z</time></trkpt><trkpt lat="43.3509885" lon="11.2502996"><ele>319.0</ele><time>2026-04-04T08:15:12.26Z</time></trkpt><trkpt lat="43.3510213" lon="11.2503788"><ele>319.0</ele><time>2026-04-04T08:15:14.252Z</time></trkpt><trkpt lat="43.3510387" lon="11.2504708"><ele>319.0</ele><time>2026-04-04T08:15:16.264Z</time></trkpt><trkpt lat="43.3510398" lon="11.2505634"><ele>319.16666666666663</ele><time>2026-04-04T08:15:18.26Z</time></trkpt><trkpt lat="43.3510349" lon="11.2506567"><ele>319.3333333333333</ele><time>2026-04-04T08:15:20.259Z</time></trkpt><trkpt lat="43.3510252" lon="11.2507553"><ele>319.5</ele><time>2026-04-04T08:15:22.27Z</time></trkpt><trkpt lat="43.351015" lon="11.2508476"><ele>319.6666666666667</ele><time>2026-04-04T08:15:24.266Z</time></trkpt><trkpt lat="43.3510032" lon="11.2509359"><ele>319.83333333333337</ele><time>2026-04-04T08:15:26.265Z</time></trkpt><trkpt lat="43.3509898" lon="11.2510539"><ele>320.0</ele><time>2026-04-04T08:15:29.269Z</time></trkpt><trkpt lat="43.3509783" lon="11.2511861"><ele>320.0</ele><time>2026-04-04T08:15:32.269Z</time></trkpt><trkpt lat="43.3509594" lon="11.2512786"><ele>320.0</ele><time>2026-04-04T08:15:34.271Z</time></trkpt><trkpt lat="43.3509347" lon="11.2513722"><ele>320.0</ele><time>2026-04-04T08:15:36.272Z</time></trkpt><trkpt lat="43.3509039" lon="11.251485"><ele>320.0</ele><time>2026-04-04T08:15:38.266Z</time></trkpt><trkpt lat="43.3508544" lon="11.2515753"><ele>320.0</ele><time>2026-04-04T08:15:40.269Z</time></trkpt><trkpt lat="43.3507952" lon="11.2516238"><ele>320.0</ele><time>2026-04-04T08:15:42.264Z</time></trkpt><trkpt lat="43.3507226" lon="11.2516288"><ele>320.0</ele><time>2026-04-04T08:15:44.277Z</time></trkpt><trkpt lat="43.3506523" lon="11.2515988"><ele>320.0</ele><time>2026-04-04T08:15:47.268Z</time></trkpt><trkpt lat="43.3506042" lon="11.2514932"><ele>320.0</ele><time>2026-04-04T08:15:50.256Z</time></trkpt><trkpt lat="43.3505489" lon="11.2513946"><ele>320.0</ele><time>2026-04-04T08:15:53.267Z</time></trkpt><trkpt lat="43.3504635" lon="11.2513575"><ele>320.0</ele><time>2026-04-04T08:15:56.247Z</time></trkpt><trkpt lat="43.3504012" lon="11.2514041"><ele>320.0</ele><time>2026-04-04T08:15:59.246Z</time></trkpt><trkpt lat="43.3503649" lon="11.2515239"><ele>318.6666666666667</ele><time>2026-04-04T08:16:02.274Z</time></trkpt><trkpt lat="43.3503229" lon="11.2516308"><ele>317.33333333333337</ele><time>2026-04-04T08:16:05.258Z</time></trkpt><trkpt lat="43.3502901" lon="11.2517088"><ele>316.0</ele><time>2026-04-04T08:16:07.269Z</time></trkpt><trkpt lat="43.3502582" lon="11.2517862"><ele>314.6666666666667</ele><time>2026-04-04T08:16:09.272Z</time></trkpt><trkpt lat="43.3502105" lon="11.2518939"><ele>313.3333333333333</ele><time>2026-04-04T08:16:12.265Z</time></trkpt><trkpt lat="43.350172" lon="11.2519936"><ele>312.0</ele><time>2026-04-04T08:16:15.268Z</time></trkpt><trkpt lat="43.3501346" lon="11.2520723"><ele>312.0</ele><time>2026-04-04T08:16:18.254Z</time></trkpt><trkpt lat="43.3500556" lon="11.2521567"><ele>312.0</ele><time>2026-04-04T08:16:21.258Z</time></trkpt><trkpt lat="43.3499846" lon="11.2522115"><ele>312.0</ele><time>2026-04-04T08:16:25.258Z</time></trkpt><trkpt lat="43.3499298" lon="11.2522603"><ele>312.0</ele><time>2026-04-04T08:16:29.336Z</time></trkpt><trkpt lat="43.3498849" lon="11.252345"><ele>312.0</ele><time>2026-04-04T08:16:33.263Z</time></trkpt><trkpt lat="43.3498233" lon="11.2524105"><ele>312.0</ele><time>2026-04-04T08:16:37.273Z</time></trkpt><trkpt lat="43.3497753" lon="11.2524824"><ele>309.7142857142857</ele><time>2026-04-04T08:16:41.264Z</time></trkpt><trkpt lat="43.3497017" lon="11.2525212"><ele>307.4285714285714</ele><time>2026-04-04T08:16:45.27Z</time></trkpt><trkpt lat="43.3496371" lon="11.2525486"><ele>305.1428571428571</ele><time>2026-04-04T08:16:48.256Z</time></trkpt><trkpt lat="43.3495666" lon="11.2525511"><ele>302.8571428571429</ele><time>2026-04-04T08:16:51.263Z</time></trkpt><trkpt lat="43.349489" lon="11.2525354"><ele>300.57142857142856</ele><time>2026-04-04T08:16:54.267Z</time></trkpt><trkpt lat="43.3494184" lon="11.2525254"><ele>298.2857142857143</ele><time>2026-04-04T08:16:57.268Z</time></trkpt><trkpt lat="43.3493417" lon="11.2525395"><ele>296.0</ele><time>2026-04-04T08:17:01.263Z</time></trkpt><trkpt lat="43.3492734" lon="11.2525344"><ele>296.0</ele><time>2026-04-04T08:17:06.266Z</time></trkpt><trkpt lat="43.3492055" lon="11.2525071"><ele>296.0</ele><time>2026-04-04T08:17:09.274Z</time></trkpt><trkpt lat="43.3491279" lon="11.2524962"><ele>296.0</ele><time>2026-04-04T08:17:13.26Z</time></trkpt><trkpt lat="43.3490553" lon="11.2525013"><ele>296.0</ele><time>2026-04-04T08:17:18.268Z</time></trkpt><trkpt lat="43.3489922" lon="11.2525083"><ele>296.0</ele><time>2026-04-04T08:17:21.267Z</time></trkpt><trkpt lat="43.3489208" lon="11.2525039"><ele>296.0</ele><time>2026-04-04T08:17:25.257Z</time></trkpt><trkpt lat="43.3488469" lon="11.2525269"><ele>296.0</ele><time>2026-04-04T08:17:29.262Z</time></trkpt><trkpt lat="43.3487691" lon="11.252521"><ele>294.33333333333337</ele><time>2026-04-04T08:17:32.271Z</time></trkpt><trkpt lat="43.3486874" lon="11.2524955"><ele>292.6666666666667</ele><time>2026-04-04T08:17:35.274Z</time></trkpt><trkpt lat="43.3486092" lon="11.2524946"><ele>291.0</ele><time>2026-04-04T08:17:38.26Z</time></trkpt><trkpt lat="43.3485271" lon="11.2524877"><ele>289.3333333333333</ele><time>2026-04-04T08:17:43.265Z</time></trkpt><trkpt lat="43.3484421" lon="11.2525302"><ele>287.66666666666663</ele><time>2026-04-04T08:17:47.255Z</time></trkpt><trkpt lat="43.3483675" lon="11.2525402"><ele>286.0</ele><time>2026-04-04T08:17:50.231Z</time></trkpt><trkpt lat="43.3483058" lon="11.2524939"><ele>286.0</ele><time>2026-04-04T08:18:00.263Z</time></trkpt><trkpt lat="43.348241" lon="11.2525128"><ele>286.0</ele><time>2026-04-04T08:18:13.265Z</time></trkpt><trkpt lat="43.3481431" lon="11.2524488"><ele>286.0</ele><time>2026-04-04T08:18:25.256Z</time></trkpt><trkpt lat="43.3480704" lon="11.2524504"><ele>286.0</ele><time>2026-04-04T08:18:31.237Z</time></trkpt><trkpt lat="43.3479473" lon="11.2523969"><ele>286.0</ele><time>2026-04-04T08:18:39.335Z</time></trkpt><trkpt lat="43.3478992" lon="11.2523371"><ele>286.0</ele><time>2026-04-04T08:18:40.272Z</time></trkpt><trkpt lat="43.3478237" lon="11.2523162"><ele>284.57142857142856</ele><time>2026-04-04T08:18:45.264Z</time></trkpt><trkpt lat="43.3477614" lon="11.2522728"><ele>283.1428571428571</ele><time>2026-04-04T08:18:48.246Z</time></trkpt><trkpt lat="43.3477107" lon="11.2522203"><ele>281.7142857142857</ele><time>2026-04-04T08:18:51.271Z</time></trkpt><trkpt lat="43.3476551" lon="11.2521495"><ele>280.2857142857143</ele><time>2026-04-04T08:18:55.275Z</time></trkpt><trkpt lat="43.3476052" lon="11.2520568"><ele>278.8571428571429</ele><time>2026-04-04T08:18:58.264Z</time></trkpt><trkpt lat="43.3475715" lon="11.2519759"><ele>277.42857142857144</ele><time>2026-04-04T08:19:01.272Z</time></trkpt><trkpt lat="43.3475327" lon="11.2519014"><ele>276.0</ele><time>2026-04-04T08:19:04.268Z</time></trkpt><trkpt lat="43.3475013" lon="11.251811"><ele>276.0</ele><time>2026-04-04T08:19:07.271Z</time></trkpt><trkpt lat="43.3474788" lon="11.2517196"><ele>276.0</ele><time>2026-04-04T08:19:10.261Z</time></trkpt><trkpt lat="43.3474646" lon="11.2516237"><ele>276.0</ele><time>2026-04-04T08:19:13.265Z</time></trkpt><trkpt lat="43.3474559" lon="11.2515233"><ele>276.0</ele><time>2026-04-04T08:19:16.261Z</time></trkpt><trkpt lat="43.3474365" lon="11.2514254"><ele>276.0</ele><time>2026-04-04T08:19:19.271Z</time></trkpt><trkpt lat="43.3474069" lon="11.2513226"><ele>276.0</ele><time>2026-04-04T08:19:23.271Z</time></trkpt><trkpt lat="43.3473816" lon="11.2512419"><ele>276.0</ele><time>2026-04-04T08:19:26.261Z</time></trkpt><trkpt lat="43.3473358" lon="11.2511801"><ele>277.0</ele><time>2026-04-04T08:19:29.266Z</time></trkpt><trkpt lat="43.3472819" lon="11.2511298"><ele>278.0</ele><time>2026-04-04T08:19:34.266Z</time></trkpt><trkpt lat="43.3472467" lon="11.251047"><ele>279.0</ele><time>2026-04-04T08:19:39.257Z</time></trkpt><trkpt lat="43.3472019" lon="11.2509464"><ele>280.0</ele><time>2026-04-04T08:19:42.242Z</time></trkpt><trkpt lat="43.3471493" lon="11.2508655"><ele>281.0</ele><time>2026-04-04T08:19:45.266Z</time></trkpt><trkpt lat="43.3470755" lon="11.2507847"><ele>282.0</ele><time>2026-04-04T08:19:48.258Z</time></trkpt><trkpt lat="43.3470011" lon="11.250704"><ele>281.8333333333333</ele><time>2026-04-04T08:19:51.267Z</time></trkpt><trkpt lat="43.3469379" lon="11.2506658"><ele>281.6666666666667</ele><time>2026-04-04T08:19:53.264Z</time></trkpt><trkpt lat="43.3468755" lon="11.2506448"><ele>281.5</ele><time>2026-04-04T08:19:55.272Z</time></trkpt><trkpt lat="43.3468061" lon="11.2506144"><ele>281.33333333333337</ele><time>2026-04-04T08:19:57.266Z</time></trkpt><trkpt lat="43.3467297" lon="11.2505936"><ele>281.1666666666667</ele><time>2026-04-04T08:19:59.265Z</time></trkpt><trkpt lat="43.346653" lon="11.2505594"><ele>281.0</ele><time>2026-04-04T08:20:01.256Z</time></trkpt><trkpt lat="43.3465707" lon="11.2505203"><ele>281.0</ele><time>2026-04-04T08:20:03.265Z</time></trkpt><trkpt lat="43.3464959" lon="11.2504665"><ele>281.0</ele><time>2026-04-04T08:20:05.262Z</time></trkpt><trkpt lat="43.346429" lon="11.2503948"><ele>281.0</ele><time>2026-04-04T08:20:07.261Z</time></trkpt><trkpt lat="43.3463715" lon="11.2503033"><ele>281.0</ele><time>2026-04-04T08:20:09.257Z</time></trkpt><trkpt lat="43.3463318" lon="11.2502286"><ele>281.0</ele><time>2026-04-04T08:20:11.262Z</time></trkpt><trkpt lat="43.346285" lon="11.2501648"><ele>281.0</ele><time>2026-04-04T08:20:13.268Z</time></trkpt><trkpt lat="43.3462236" lon="11.2501003"><ele>280.1666666666667</ele><time>2026-04-04T08:20:15.269Z</time></trkpt><trkpt lat="43.3461478" lon="11.2500251"><ele>279.33333333333337</ele><time>2026-04-04T08:20:17.274Z</time></trkpt><trkpt lat="43.3460878" lon="11.2499498"><ele>278.5</ele><time>2026-04-04T08:20:19.264Z</time></trkpt><trkpt lat="43.3460326" lon="11.2498711"><ele>277.6666666666667</ele><time>2026-04-04T08:20:21.261Z</time></trkpt><trkpt lat="43.3459787" lon="11.2497945"><ele>276.8333333333333</ele><time>2026-04-04T08:20:23.258Z</time></trkpt><trkpt lat="43.3459281" lon="11.2497097"><ele>276.0</ele><time>2026-04-04T08:20:25.26Z</time></trkpt><trkpt lat="43.3458828" lon="11.2496242"><ele>276.0</ele><time>2026-04-04T08:20:27.269Z</time></trkpt><trkpt lat="43.345833" lon="11.2495309"><ele>276.0</ele><time>2026-04-04T08:20:29.255Z</time></trkpt><trkpt lat="43.3457939" lon="11.2494348"><ele>276.0</ele><time>2026-04-04T08:20:31.264Z</time></trkpt><trkpt lat="43.3457641" lon="11.2493324"><ele>276.0</ele><time>2026-04-04T08:20:33.257Z</time></trkpt><trkpt lat="43.3457339" lon="11.2492227"><ele>276.0</ele><time>2026-04-04T08:20:35.261Z</time></trkpt><trkpt lat="43.3457032" lon="11.2491243"><ele>276.0</ele><time>2026-04-04T08:20:37.267Z</time></trkpt><trkpt lat="43.3456777" lon="11.2490438"><ele>276.2857142857143</ele><time>2026-04-04T08:20:39.269Z</time></trkpt><trkpt lat="43.3456641" lon="11.2489466"><ele>276.5714285714286</ele><time>2026-04-04T08:20:42.259Z</time></trkpt><trkpt lat="43.3456496" lon="11.2488598"><ele>276.8571428571429</ele><time>2026-04-04T08:20:46.275Z</time></trkpt><trkpt lat="43.3456474" lon="11.248759"><ele>277.14285714285717</ele><time>2026-04-04T08:20:50.276Z</time></trkpt><trkpt lat="43.3456481" lon="11.2486673"><ele>277.42857142857144</ele><time>2026-04-04T08:20:53.267Z</time></trkpt><trkpt lat="43.3456364" lon="11.2485682"><ele>277.7142857142857</ele><time>2026-04-04T08:20:56.264Z</time></trkpt><trkpt lat="43.3455947" lon="11.2484448"><ele>278.0</ele><time>2026-04-04T08:20:59.257Z</time></trkpt><trkpt lat="43.3455498" lon="11.2483709"><ele>276.33333333333337</ele><time>2026-04-04T08:21:01.26Z</time></trkpt><trkpt lat="43.3454805" lon="11.2483637"><ele>274.6666666666667</ele><time>2026-04-04T08:21:03.26Z</time></trkpt><trkpt lat="43.3454161" lon="11.2484002"><ele>273.0</ele><time>2026-04-04T08:21:05.26Z</time></trkpt><trkpt lat="43.3453313" lon="11.2484647"><ele>271.3333333333333</ele><time>2026-04-04T08:21:07.254Z</time></trkpt><trkpt lat="43.3452425" lon="11.2485108"><ele>269.66666666666663</ele><time>2026-04-04T08:21:09.271Z</time></trkpt><trkpt lat="43.3451603" lon="11.2485375"><ele>268.0</ele><time>2026-04-04T08:21:11.263Z</time></trkpt><trkpt lat="43.3450761" lon="11.2485726"><ele>268.0</ele><time>2026-04-04T08:21:13.258Z</time></trkpt><trkpt lat="43.3449855" lon="11.2486078"><ele>268.0</ele><time>2026-04-04T08:21:15.262Z</time></trkpt><trkpt lat="43.3448924" lon="11.2486341"><ele>268.0</ele><time>2026-04-04T08:21:17.262Z</time></trkpt><trkpt lat="43.344804" lon="11.2486442"><ele>268.0</ele><time>2026-04-04T08:21:19.253Z</time></trkpt><trkpt lat="43.3447325" lon="11.2486508"><ele>268.0</ele><time>2026-04-04T08:21:21.267Z</time></trkpt><trkpt lat="43.3446625" lon="11.2486809"><ele>268.0</ele><time>2026-04-04T08:21:23.266Z</time></trkpt><trkpt lat="43.3446035" lon="11.2487369"><ele>267.0</ele><time>2026-04-04T08:21:25.257Z</time></trkpt><trkpt lat="43.3445445" lon="11.2488327"><ele>266.0</ele><time>2026-04-04T08:21:27.263Z</time></trkpt><trkpt lat="43.3444851" lon="11.2489312"><ele>265.0</ele><time>2026-04-04T08:21:29.331Z</time></trkpt><trkpt lat="43.3444221" lon="11.2490336"><ele>264.0</ele><time>2026-04-04T08:21:31.271Z</time></trkpt><trkpt lat="43.3443562" lon="11.2491264"><ele>263.0</ele><time>2026-04-04T08:21:33.26Z</time></trkpt><trkpt lat="43.3442949" lon="11.2492214"><ele>262.83333333333337</ele><time>2026-04-04T08:21:35.263Z</time></trkpt><trkpt lat="43.3442295" lon="11.2493082"><ele>262.6666666666667</ele><time>2026-04-04T08:21:37.263Z</time></trkpt><trkpt lat="43.3441709" lon="11.2493771"><ele>262.5</ele><time>2026-04-04T08:21:39.246Z</time></trkpt><trkpt lat="43.3441127" lon="11.2494483"><ele>262.3333333333333</ele><time>2026-04-04T08:21:41.25Z</time></trkpt><trkpt lat="43.3440621" lon="11.2495321"><ele>262.16666666666663</ele><time>2026-04-04T08:21:43.251Z</time></trkpt><trkpt lat="43.3440008" lon="11.2496254"><ele>262.0</ele><time>2026-04-04T08:21:45.258Z</time></trkpt><trkpt lat="43.3439374" lon="11.2497239"><ele>261.6</ele><time>2026-04-04T08:21:47.267Z</time></trkpt><trkpt lat="43.3438701" lon="11.2498355"><ele>261.2</ele><time>2026-04-04T08:21:49.241Z</time></trkpt><trkpt lat="43.343799" lon="11.2499513"><ele>260.8</ele><time>2026-04-04T08:21:51.258Z</time></trkpt><trkpt lat="43.3437319" lon="11.250069"><ele>260.4</ele><time>2026-04-04T08:21:53.26Z</time></trkpt><trkpt lat="43.3436577" lon="11.2501896"><ele>260.0</ele><time>2026-04-04T08:21:55.256Z</time></trkpt><trkpt lat="43.3436" lon="11.2503051"><ele>260.0</ele><time>2026-04-04T08:21:57.272Z</time></trkpt><trkpt lat="43.343538" lon="11.2504232"><ele>260.0</ele><time>2026-04-04T08:21:59.265Z</time></trkpt><trkpt lat="43.3434755" lon="11.2505385"><ele>260.0</ele><time>2026-04-04T08:22:01.259Z</time></trkpt><trkpt lat="43.3434065" lon="11.2506476"><ele>260.0</ele><time>2026-04-04T08:22:03.267Z</time></trkpt><trkpt lat="43.3433442" lon="11.2507514"><ele>260.0</ele><time>2026-04-04T08:22:05.267Z</time></trkpt><trkpt lat="43.3432878" lon="11.2508436"><ele>260.0</ele><time>2026-04-04T08:22:07.26Z</time></trkpt><trkpt lat="43.3432225" lon="11.2509291"><ele>260.0</ele><time>2026-04-04T08:22:09.264Z</time></trkpt><trkpt lat="43.3431506" lon="11.2510142"><ele>260.0</ele><time>2026-04-04T08:22:11.267Z</time></trkpt><trkpt lat="43.3430896" lon="11.2511069"><ele>260.0</ele><time>2026-04-04T08:22:13.257Z</time></trkpt><trkpt lat="43.3430238" lon="11.2511938"><ele>260.0</ele><time>2026-04-04T08:22:15.27Z</time></trkpt><trkpt lat="43.3429501" lon="11.251274"><ele>259.83333333333337</ele><time>2026-04-04T08:22:17.259Z</time></trkpt><trkpt lat="43.3428789" lon="11.251345"><ele>259.6666666666667</ele><time>2026-04-04T08:22:19.263Z</time></trkpt><trkpt lat="43.3428074" lon="11.2513875"><ele>259.5</ele><time>2026-04-04T08:22:21.263Z</time></trkpt><trkpt lat="43.342733" lon="11.2514441"><ele>259.3333333333333</ele><time>2026-04-04T08:22:23.259Z</time></trkpt><trkpt lat="43.3426566" lon="11.2515043"><ele>259.16666666666663</ele><time>2026-04-04T08:22:25.265Z</time></trkpt><trkpt lat="43.342583" lon="11.2515937"><ele>259.0</ele><time>2026-04-04T08:22:27.256Z</time></trkpt><trkpt lat="43.3425069" lon="11.2516873"><ele>259.0</ele><time>2026-04-04T08:22:29.259Z</time></trkpt><trkpt lat="43.3424306" lon="11.2517862"><ele>259.0</ele><time>2026-04-04T08:22:31.263Z</time></trkpt><trkpt lat="43.342356" lon="11.2518751"><ele>259.0</ele><time>2026-04-04T08:22:33.263Z</time></trkpt><trkpt lat="43.3422836" lon="11.2519409"><ele>259.0</ele><time>2026-04-04T08:22:35.256Z</time></trkpt><trkpt lat="43.3421929" lon="11.2519169"><ele>259.0</ele><time>2026-04-04T08:22:38.271Z</time></trkpt><trkpt lat="43.3421177" lon="11.2518784"><ele>258.85714285714283</ele><time>2026-04-04T08:22:41.262Z</time></trkpt><trkpt lat="43.3420492" lon="11.2518336"><ele>258.7142857142857</ele><time>2026-04-04T08:22:44.261Z</time></trkpt><trkpt lat="43.3419827" lon="11.2517742"><ele>258.57142857142856</ele><time>2026-04-04T08:22:47.259Z</time></trkpt><trkpt lat="43.3419133" lon="11.2516914"><ele>258.42857142857144</ele><time>2026-04-04T08:22:50.265Z</time></trkpt><trkpt lat="43.3418653" lon="11.2516301"><ele>258.2857142857143</ele><time>2026-04-04T08:22:52.273Z</time></trkpt><trkpt lat="43.3418144" lon="11.2515689"><ele>258.1428571428571</ele><time>2026-04-04T08:22:54.271Z</time></trkpt><trkpt lat="43.3417701" lon="11.2515035"><ele>258.0</ele><time>2026-04-04T08:22:56.262Z</time></trkpt><trkpt lat="43.3417144" lon="11.2514099"><ele>257.85714285714283</ele><time>2026-04-04T08:22:59.267Z</time></trkpt><trkpt lat="43.3416703" lon="11.2513383"><ele>257.7142857142857</ele><time>2026-04-04T08:23:01.268Z</time></trkpt><trkpt lat="43.3416138" lon="11.2512743"><ele>257.57142857142856</ele><time>2026-04-04T08:23:03.27Z</time></trkpt><trkpt lat="43.3415516" lon="11.251223"><ele>257.42857142857144</ele><time>2026-04-04T08:23:05.257Z</time></trkpt><trkpt lat="43.3414952" lon="11.2511715"><ele>257.2857142857143</ele><time>2026-04-04T08:23:07.259Z</time></trkpt><trkpt lat="43.3414396" lon="11.2511125"><ele>257.1428571428571</ele><time>2026-04-04T08:23:09.269Z</time></trkpt><trkpt lat="43.3413666" lon="11.2510488"><ele>257.0</ele><time>2026-04-04T08:23:11.26Z</time></trkpt><trkpt lat="43.3412962" lon="11.2509834"><ele>257.0</ele><time>2026-04-04T08:23:13.268Z</time></trkpt><trkpt lat="43.3412169" lon="11.2509358"><ele>257.0</ele><time>2026-04-04T08:23:15.27Z</time></trkpt><trkpt lat="43.3411404" lon="11.2509175"><ele>257.0</ele><time>2026-04-04T08:23:17.262Z</time></trkpt><trkpt lat="43.341067" lon="11.2508879"><ele>257.0</ele><time>2026-04-04T08:23:19.261Z</time></trkpt><trkpt lat="43.3409963" lon="11.2508679"><ele>257.0</ele><time>2026-04-04T08:23:21.268Z</time></trkpt><trkpt lat="43.340914" lon="11.2508809"><ele>257.0</ele><time>2026-04-04T08:23:23.259Z</time></trkpt><trkpt lat="43.3408382" lon="11.2508858"><ele>257.0</ele><time>2026-04-04T08:23:25.255Z</time></trkpt><trkpt lat="43.3407671" lon="11.2508891"><ele>257.0</ele><time>2026-04-04T08:23:27.256Z</time></trkpt><trkpt lat="43.3406981" lon="11.2508876"><ele>257.0</ele><time>2026-04-04T08:23:29.271Z</time></trkpt><trkpt lat="43.3406123" lon="11.2508864"><ele>257.0</ele><time>2026-04-04T08:23:31.28Z</time></trkpt><trkpt lat="43.3405216" lon="11.2508978"><ele>257.0</ele><time>2026-04-04T08:23:33.262Z</time></trkpt><trkpt lat="43.3404317" lon="11.2509107"><ele>257.0</ele><time>2026-04-04T08:23:35.266Z</time></trkpt><trkpt lat="43.3403392" lon="11.2509197"><ele>256.83333333333337</ele><time>2026-04-04T08:23:37.271Z</time></trkpt><trkpt lat="43.3402647" lon="11.2509506"><ele>256.6666666666667</ele><time>2026-04-04T08:23:39.259Z</time></trkpt><trkpt lat="43.3401968" lon="11.2509683"><ele>256.5</ele><time>2026-04-04T08:23:41.275Z</time></trkpt><trkpt lat="43.3401271" lon="11.2509894"><ele>256.3333333333333</ele><time>2026-04-04T08:23:43.27Z</time></trkpt><trkpt lat="43.340047" lon="11.2510135"><ele>256.16666666666663</ele><time>2026-04-04T08:23:45.263Z</time></trkpt><trkpt lat="43.339957" lon="11.2510316"><ele>256.0</ele><time>2026-04-04T08:23:47.257Z</time></trkpt><trkpt lat="43.3398677" lon="11.2510443"><ele>255.99999999999997</ele><time>2026-04-04T08:23:49.256Z</time></trkpt><trkpt lat="43.3397781" lon="11.251056"><ele>256.0</ele><time>2026-04-04T08:23:51.272Z</time></trkpt><trkpt lat="43.3396836" lon="11.2510596"><ele>256.0</ele><time>2026-04-04T08:23:53.266Z</time></trkpt><trkpt lat="43.3395974" lon="11.2510688"><ele>256.0</ele><time>2026-04-04T08:23:55.258Z</time></trkpt><trkpt lat="43.3395137" lon="11.2510747"><ele>255.99999999999997</ele><time>2026-04-04T08:23:57.275Z</time></trkpt><trkpt lat="43.3394298" lon="11.2510815"><ele>256.0</ele><time>2026-04-04T08:23:59.265Z</time></trkpt><trkpt lat="43.3393425" lon="11.2510944"><ele>255.99999999999997</ele><time>2026-04-04T08:24:01.256Z</time></trkpt><trkpt lat="43.3392564" lon="11.2511055"><ele>256.0</ele><time>2026-04-04T08:24:03.267Z</time></trkpt><trkpt lat="43.3391701" lon="11.2511244"><ele>256.0</ele><time>2026-04-04T08:24:05.259Z</time></trkpt><trkpt lat="43.3390816" lon="11.2511402"><ele>256.0</ele><time>2026-04-04T08:24:07.259Z</time></trkpt><trkpt lat="43.3390002" lon="11.2511565"><ele>255.99999999999997</ele><time>2026-04-04T08:24:09.261Z</time></trkpt><trkpt lat="43.3389198" lon="11.2511705"><ele>256.0</ele><time>2026-04-04T08:24:11.262Z</time></trkpt><trkpt lat="43.3388439" lon="11.2511786"><ele>256.0</ele><time>2026-04-04T08:24:13.259Z</time></trkpt><trkpt lat="43.3387746" lon="11.2511849"><ele>255.99999999999997</ele><time>2026-04-04T08:24:15.261Z</time></trkpt><trkpt lat="43.3387036" lon="11.2511937"><ele>256.0</ele><time>2026-04-04T08:24:17.274Z</time></trkpt><trkpt lat="43.3386282" lon="11.2512033"><ele>256.0</ele><time>2026-04-04T08:24:19.261Z</time></trkpt><trkpt lat="43.3385499" lon="11.2512181"><ele>255.99999999999997</ele><time>2026-04-04T08:24:21.267Z</time></trkpt><trkpt lat="43.3384786" lon="11.251223"><ele>256.0</ele><time>2026-04-04T08:24:23.266Z</time></trkpt><trkpt lat="43.3384015" lon="11.2512296"><ele>256.0</ele><time>2026-04-04T08:24:26.258Z</time></trkpt><trkpt lat="43.3383366" lon="11.2511682"><ele>255.99999999999997</ele><time>2026-04-04T08:24:30.254Z</time></trkpt><trkpt lat="43.3383424" lon="11.2510434"><ele>256.0</ele><time>2026-04-04T08:24:33.266Z</time></trkpt><trkpt lat="43.3383484" lon="11.2509562"><ele>256.0</ele><time>2026-04-04T08:24:35.255Z</time></trkpt><trkpt lat="43.3383697" lon="11.2508287"><ele>256.0</ele><time>2026-04-04T08:24:38.259Z</time></trkpt><trkpt lat="43.3383919" lon="11.2507425"><ele>255.99999999999997</ele><time>2026-04-04T08:24:40.259Z</time></trkpt><trkpt lat="43.3384237" lon="11.2506593"><ele>256.0</ele><time>2026-04-04T08:24:42.259Z</time></trkpt><trkpt lat="43.3384549" lon="11.2505721"><ele>256.0</ele><time>2026-04-04T08:24:44.264Z</time></trkpt><trkpt lat="43.3384937" lon="11.2504907"><ele>255.99999999999997</ele><time>2026-04-04T08:24:46.259Z</time></trkpt><trkpt lat="43.3385351" lon="11.2504118"><ele>256.0</ele><time>2026-04-04T08:24:48.259Z</time></trkpt><trkpt lat="43.3385712" lon="11.2503198"><ele>256.0</ele><time>2026-04-04T08:24:50.264Z</time></trkpt><trkpt lat="43.3386115" lon="11.2502305"><ele>255.99999999999997</ele><time>2026-04-04T08:24:52.26Z</time></trkpt><trkpt lat="43.3386518" lon="11.2501454"><ele>256.0</ele><time>2026-04-04T08:24:54.275Z</time></trkpt><trkpt lat="43.3386903" lon="11.2500582"><ele>256.0</ele><time>2026-04-04T08:24:56.258Z</time></trkpt><trkpt lat="43.3387309" lon="11.2499596"><ele>255.99999999999997</ele><time>2026-04-04T08:24:58.26Z</time></trkpt><trkpt lat="43.3387733" lon="11.249863"><ele>256.0</ele><time>2026-04-04T08:25:00.271Z</time></trkpt><trkpt lat="43.338813" lon="11.2497607"><ele>256.0</ele><time>2026-04-04T08:25:02.261Z</time></trkpt><trkpt lat="43.3388439" lon="11.2496502"><ele>256.0</ele><time>2026-04-04T08:25:04.258Z</time></trkpt><trkpt lat="43.3388697" lon="11.2495462"><ele>255.99999999999997</ele><time>2026-04-04T08:25:06.276Z</time></trkpt><trkpt lat="43.3389108" lon="11.2494607"><ele>256.0</ele><time>2026-04-04T08:25:08.273Z</time></trkpt><trkpt lat="43.3389471" lon="11.2493724"><ele>256.16666666666663</ele><time>2026-04-04T08:25:10.266Z</time></trkpt><trkpt lat="43.3389688" lon="11.2492613"><ele>256.3333333333333</ele><time>2026-04-04T08:25:12.266Z</time></trkpt><trkpt lat="43.3389902" lon="11.249148"><ele>256.5</ele><time>2026-04-04T08:25:14.263Z</time></trkpt><trkpt lat="43.339007" lon="11.2490269"><ele>256.6666666666667</ele><time>2026-04-04T08:25:16.261Z</time></trkpt><trkpt lat="43.3390157" lon="11.2488985"><ele>256.83333333333337</ele><time>2026-04-04T08:25:18.264Z</time></trkpt><trkpt lat="43.3390264" lon="11.2487706"><ele>257.0</ele><time>2026-04-04T08:25:20.271Z</time></trkpt><trkpt lat="43.3390303" lon="11.2486342"><ele>257.4</ele><time>2026-04-04T08:25:22.258Z</time></trkpt><trkpt lat="43.3390236" lon="11.2484954"><ele>257.79999999999995</ele><time>2026-04-04T08:25:24.261Z</time></trkpt><trkpt lat="43.3390174" lon="11.2483593"><ele>258.2</ele><time>2026-04-04T08:25:26.268Z</time></trkpt><trkpt lat="43.3390031" lon="11.2482213"><ele>258.59999999999997</ele><time>2026-04-04T08:25:28.253Z</time></trkpt><trkpt lat="43.3389801" lon="11.2480793"><ele>259.0</ele><time>2026-04-04T08:25:30.265Z</time></trkpt><trkpt lat="43.3389521" lon="11.2479308"><ele>259.2</ele><time>2026-04-04T08:25:32.265Z</time></trkpt><trkpt lat="43.3389132" lon="11.2477937"><ele>259.4</ele><time>2026-04-04T08:25:34.256Z</time></trkpt><trkpt lat="43.3388674" lon="11.2476563"><ele>259.6</ele><time>2026-04-04T08:25:36.266Z</time></trkpt><trkpt lat="43.3388215" lon="11.2475168"><ele>259.8</ele><time>2026-04-04T08:25:38.265Z</time></trkpt><trkpt lat="43.3387723" lon="11.2473727"><ele>260.0</ele><time>2026-04-04T08:25:40.261Z</time></trkpt><trkpt lat="43.3387145" lon="11.2472317"><ele>260.0</ele><time>2026-04-04T08:25:42.348Z</time></trkpt><trkpt lat="43.3386572" lon="11.2470896"><ele>260.0</ele><time>2026-04-04T08:25:44.275Z</time></trkpt><trkpt lat="43.338603" lon="11.2469469"><ele>260.0</ele><time>2026-04-04T08:25:46.271Z</time></trkpt><trkpt lat="43.3385548" lon="11.2468175"><ele>260.0</ele><time>2026-04-04T08:25:48.241Z</time></trkpt><trkpt lat="43.3385087" lon="11.2466755"><ele>260.0</ele><time>2026-04-04T08:25:50.262Z</time></trkpt><trkpt lat="43.3384542" lon="11.2465369"><ele>260.0</ele><time>2026-04-04T08:25:52.267Z</time></trkpt><trkpt lat="43.3384086" lon="11.24641"><ele>260.0</ele><time>2026-04-04T08:25:54.259Z</time></trkpt><trkpt lat="43.3383606" lon="11.2462795"><ele>260.0</ele><time>2026-04-04T08:25:56.26Z</time></trkpt><trkpt lat="43.3383207" lon="11.2461452"><ele>260.0</ele><time>2026-04-04T08:25:58.265Z</time></trkpt><trkpt lat="43.3382785" lon="11.2460127"><ele>260.2</ele><time>2026-04-04T08:26:00.256Z</time></trkpt><trkpt lat="43.3382372" lon="11.2458783"><ele>260.4</ele><time>2026-04-04T08:26:02.27Z</time></trkpt><trkpt lat="43.3381931" lon="11.2457484"><ele>260.6</ele><time>2026-04-04T08:26:04.271Z</time></trkpt><trkpt lat="43.3381292" lon="11.2456297"><ele>260.8</ele><time>2026-04-04T08:26:06.26Z</time></trkpt><trkpt lat="43.3381083" lon="11.2454958"><ele>261.0</ele><time>2026-04-04T08:26:08.236Z</time></trkpt><trkpt lat="43.3380881" lon="11.2453314"><ele>261.0</ele><time>2026-04-04T08:26:10.267Z</time></trkpt><trkpt lat="43.3380501" lon="11.2451895"><ele>261.0</ele><time>2026-04-04T08:26:12.263Z</time></trkpt><trkpt lat="43.3380269" lon="11.2450607"><ele>261.0</ele><time>2026-04-04T08:26:14.236Z</time></trkpt><trkpt lat="43.3380006" lon="11.244945"><ele>261.0</ele><time>2026-04-04T08:26:16.251Z</time></trkpt><trkpt lat="43.3379431" lon="11.2448337"><ele>261.0</ele><time>2026-04-04T08:26:18.236Z</time></trkpt><trkpt lat="43.3379008" lon="11.2447102"><ele>261.0</ele><time>2026-04-04T08:26:20.245Z</time></trkpt><trkpt lat="43.337858" lon="11.2445938"><ele>261.0</ele><time>2026-04-04T08:26:22.255Z</time></trkpt><trkpt lat="43.3378154" lon="11.2444776"><ele>261.0</ele><time>2026-04-04T08:26:24.235Z</time></trkpt><trkpt lat="43.3377648" lon="11.2443543"><ele>261.0</ele><time>2026-04-04T08:26:26.266Z</time></trkpt><trkpt lat="43.337708" lon="11.2442346"><ele>261.0</ele><time>2026-04-04T08:26:28.262Z</time></trkpt><trkpt lat="43.3376438" lon="11.2441243"><ele>261.0</ele><time>2026-04-04T08:26:30.257Z</time></trkpt><trkpt lat="43.3375797" lon="11.2440131"><ele>261.0</ele><time>2026-04-04T08:26:32.263Z</time></trkpt><trkpt lat="43.3375158" lon="11.2439083"><ele>261.0</ele><time>2026-04-04T08:26:34.25Z</time></trkpt><trkpt lat="43.3374481" lon="11.243806"><ele>261.0</ele><time>2026-04-04T08:26:36.254Z</time></trkpt><trkpt lat="43.3373779" lon="11.2437152"><ele>261.0</ele><time>2026-04-04T08:26:38.256Z</time></trkpt><trkpt lat="43.3373133" lon="11.2436182"><ele>260.8</ele><time>2026-04-04T08:26:40.264Z</time></trkpt><trkpt lat="43.3372448" lon="11.2435257"><ele>260.6</ele><time>2026-04-04T08:26:42.253Z</time></trkpt><trkpt lat="43.3371761" lon="11.2434404"><ele>260.4</ele><time>2026-04-04T08:26:44.343Z</time></trkpt><trkpt lat="43.3371146" lon="11.2433601"><ele>260.2</ele><time>2026-04-04T08:26:46.263Z</time></trkpt><trkpt lat="43.3370513" lon="11.2432813"><ele>260.0</ele><time>2026-04-04T08:26:48.27Z</time></trkpt><trkpt lat="43.336971" lon="11.2432024"><ele>260.4</ele><time>2026-04-04T08:26:50.267Z</time></trkpt><trkpt lat="43.3368787" lon="11.2431304"><ele>260.8</ele><time>2026-04-04T08:26:52.264Z</time></trkpt><trkpt lat="43.3367823" lon="11.2430556"><ele>261.2</ele><time>2026-04-04T08:26:54.261Z</time></trkpt><trkpt lat="43.3366829" lon="11.2429771"><ele>261.6</ele><time>2026-04-04T08:26:56.275Z</time></trkpt><trkpt lat="43.3365842" lon="11.2428968"><ele>262.0</ele><time>2026-04-04T08:26:58.261Z</time></trkpt><trkpt lat="43.3364897" lon="11.2428182"><ele>262.0</ele><time>2026-04-04T08:27:00.252Z</time></trkpt><trkpt lat="43.3363884" lon="11.2427534"><ele>262.0</ele><time>2026-04-04T08:27:02.253Z</time></trkpt><trkpt lat="43.3362913" lon="11.2426866"><ele>262.0</ele><time>2026-04-04T08:27:04.253Z</time></trkpt><trkpt lat="43.3361549" lon="11.2426014"><ele>262.0</ele><time>2026-04-04T08:27:07.264Z</time></trkpt><trkpt lat="43.3360564" lon="11.2425439"><ele>262.0</ele><time>2026-04-04T08:27:09.278Z</time></trkpt><trkpt lat="43.3359553" lon="11.2424941"><ele>262.0</ele><time>2026-04-04T08:27:11.271Z</time></trkpt><trkpt lat="43.3358502" lon="11.2424491"><ele>262.0</ele><time>2026-04-04T08:27:13.277Z</time></trkpt><trkpt lat="43.3357472" lon="11.2424096"><ele>262.0</ele><time>2026-04-04T08:27:15.245Z</time></trkpt><trkpt lat="43.3356365" lon="11.2423747"><ele>262.0</ele><time>2026-04-04T08:27:17.258Z</time></trkpt><trkpt lat="43.3355202" lon="11.2423459"><ele>262.0</ele><time>2026-04-04T08:27:19.285Z</time></trkpt><trkpt lat="43.3354092" lon="11.2423197"><ele>262.0</ele><time>2026-04-04T08:27:21.246Z</time></trkpt><trkpt lat="43.3352994" lon="11.2423002"><ele>262.0</ele><time>2026-04-04T08:27:23.251Z</time></trkpt><trkpt lat="43.3351862" lon="11.2422927"><ele>262.0</ele><time>2026-04-04T08:27:25.257Z</time></trkpt><trkpt lat="43.3350707" lon="11.242299"><ele>262.0</ele><time>2026-04-04T08:27:27.251Z</time></trkpt><trkpt lat="43.3349566" lon="11.2423099"><ele>262.0</ele><time>2026-04-04T08:27:29.25Z</time></trkpt><trkpt lat="43.3348505" lon="11.2423285"><ele>262.0</ele><time>2026-04-04T08:27:31.265Z</time></trkpt><trkpt lat="43.3347455" lon="11.2423426"><ele>262.0</ele><time>2026-04-04T08:27:33.262Z</time></trkpt><trkpt lat="43.3346411" lon="11.2423628"><ele>262.0</ele><time>2026-04-04T08:27:35.247Z</time></trkpt><trkpt lat="43.3345308" lon="11.2423943"><ele>262.6</ele><time>2026-04-04T08:27:37.251Z</time></trkpt><trkpt lat="43.3344257" lon="11.2424237"><ele>263.2</ele><time>2026-04-04T08:27:39.259Z</time></trkpt><trkpt lat="43.3343221" lon="11.2424475"><ele>263.8</ele><time>2026-04-04T08:27:41.251Z</time></trkpt><trkpt lat="43.3342155" lon="11.2424674"><ele>264.4</ele><time>2026-04-04T08:27:43.239Z</time></trkpt><trkpt lat="43.3341091" lon="11.2424869"><ele>265.0</ele><time>2026-04-04T08:27:45.239Z</time></trkpt><trkpt lat="43.3339997" lon="11.2425131"><ele>265.0</ele><time>2026-04-04T08:27:47.254Z</time></trkpt><trkpt lat="43.3338959" lon="11.2425418"><ele>265.0</ele><time>2026-04-04T08:27:49.247Z</time></trkpt><trkpt lat="43.3337917" lon="11.2425671"><ele>265.0</ele><time>2026-04-04T08:27:51.256Z</time></trkpt><trkpt lat="43.3336877" lon="11.2425925"><ele>265.0</ele><time>2026-04-04T08:27:53.256Z</time></trkpt><trkpt lat="43.333587" lon="11.2426224"><ele>265.0</ele><time>2026-04-04T08:27:55.254Z</time></trkpt><trkpt lat="43.3334876" lon="11.2426538"><ele>265.4</ele><time>2026-04-04T08:27:57.25Z</time></trkpt><trkpt lat="43.3333903" lon="11.2426854"><ele>265.8</ele><time>2026-04-04T08:27:59.244Z</time></trkpt><trkpt lat="43.3332896" lon="11.2427166"><ele>266.2</ele><time>2026-04-04T08:28:01.25Z</time></trkpt><trkpt lat="43.3331886" lon="11.2427412"><ele>266.6</ele><time>2026-04-04T08:28:03.254Z</time></trkpt><trkpt lat="43.3330932" lon="11.2427661"><ele>267.0</ele><time>2026-04-04T08:28:05.25Z</time></trkpt><trkpt lat="43.3329961" lon="11.2427865"><ele>267.0</ele><time>2026-04-04T08:28:07.255Z</time></trkpt><trkpt lat="43.3328915" lon="11.2428103"><ele>267.0</ele><time>2026-04-04T08:28:09.244Z</time></trkpt><trkpt lat="43.3327905" lon="11.2428359"><ele>267.0</ele><time>2026-04-04T08:28:11.255Z</time></trkpt><trkpt lat="43.3326917" lon="11.2428546"><ele>267.0</ele><time>2026-04-04T08:28:13.257Z</time></trkpt><trkpt lat="43.3325929" lon="11.2428585"><ele>267.0</ele><time>2026-04-04T08:28:15.245Z</time></trkpt><trkpt lat="43.3324941" lon="11.2428647"><ele>267.0</ele><time>2026-04-04T08:28:17.25Z</time></trkpt><trkpt lat="43.3323969" lon="11.2428735"><ele>267.0</ele><time>2026-04-04T08:28:19.257Z</time></trkpt><trkpt lat="43.3323" lon="11.2428751"><ele>267.0</ele><time>2026-04-04T08:28:21.253Z</time></trkpt><trkpt lat="43.3322023" lon="11.2428735"><ele>267.0</ele><time>2026-04-04T08:28:23.245Z</time></trkpt><trkpt lat="43.3321092" lon="11.2428696"><ele>267.0</ele><time>2026-04-04T08:28:25.256Z</time></trkpt><trkpt lat="43.3320209" lon="11.2428706"><ele>268.5</ele><time>2026-04-04T08:28:27.242Z</time></trkpt><trkpt lat="43.3319278" lon="11.2428703"><ele>270.0</ele><time>2026-04-04T08:28:29.257Z</time></trkpt><trkpt lat="43.3318411" lon="11.242864"><ele>271.5</ele><time>2026-04-04T08:28:31.26Z</time></trkpt><trkpt lat="43.3317576" lon="11.2428552"><ele>273.0</ele><time>2026-04-04T08:28:33.243Z</time></trkpt><trkpt lat="43.3316803" lon="11.2428486"><ele>274.5</ele><time>2026-04-04T08:28:35.251Z</time></trkpt><trkpt lat="43.3316055" lon="11.2428412"><ele>276.0</ele><time>2026-04-04T08:28:37.243Z</time></trkpt><trkpt lat="43.3315198" lon="11.2428211"><ele>276.0</ele><time>2026-04-04T08:28:40.249Z</time></trkpt><trkpt lat="43.3314307" lon="11.2428108"><ele>276.0</ele><time>2026-04-04T08:28:43.255Z</time></trkpt><trkpt lat="43.3313467" lon="11.2427859"><ele>276.0</ele><time>2026-04-04T08:28:46.256Z</time></trkpt><trkpt lat="43.3312563" lon="11.2427569"><ele>276.0</ele><time>2026-04-04T08:28:49.254Z</time></trkpt><trkpt lat="43.3311906" lon="11.2427235"><ele>276.0</ele><time>2026-04-04T08:28:51.246Z</time></trkpt><trkpt lat="43.3311266" lon="11.2426935"><ele>276.0</ele><time>2026-04-04T08:28:53.256Z</time></trkpt><trkpt lat="43.3310665" lon="11.2426641"><ele>276.3333333333333</ele><time>2026-04-04T08:28:55.253Z</time></trkpt><trkpt lat="43.3309814" lon="11.242622"><ele>276.6666666666667</ele><time>2026-04-04T08:28:58.253Z</time></trkpt><trkpt lat="43.330898" lon="11.2425884"><ele>277.0</ele><time>2026-04-04T08:29:01.251Z</time></trkpt><trkpt lat="43.3308193" lon="11.2425534"><ele>277.33333333333337</ele><time>2026-04-04T08:29:04.246Z</time></trkpt><trkpt lat="43.3307423" lon="11.2425273"><ele>277.6666666666667</ele><time>2026-04-04T08:29:07.247Z</time></trkpt><trkpt lat="43.3306716" lon="11.2425093"><ele>278.0</ele><time>2026-04-04T08:29:09.253Z</time></trkpt><trkpt lat="43.3305955" lon="11.2424929"><ele>278.1666666666667</ele><time>2026-04-04T08:29:11.259Z</time></trkpt><trkpt lat="43.3305152" lon="11.2424701"><ele>278.33333333333337</ele><time>2026-04-04T08:29:13.25Z</time></trkpt><trkpt lat="43.3304332" lon="11.2424526"><ele>278.5</ele><time>2026-04-04T08:29:15.25Z</time></trkpt><trkpt lat="43.330342" lon="11.2424374"><ele>278.6666666666667</ele><time>2026-04-04T08:29:17.238Z</time></trkpt><trkpt lat="43.3302554" lon="11.2424316"><ele>278.8333333333333</ele><time>2026-04-04T08:29:19.255Z</time></trkpt><trkpt lat="43.3301663" lon="11.2424486"><ele>279.0</ele><time>2026-04-04T08:29:21.237Z</time></trkpt><trkpt lat="43.3300765" lon="11.2424735"><ele>279.0</ele><time>2026-04-04T08:29:23.251Z</time></trkpt><trkpt lat="43.3299898" lon="11.2424951"><ele>279.0</ele><time>2026-04-04T08:29:25.249Z</time></trkpt><trkpt lat="43.3299085" lon="11.2425246"><ele>279.0</ele><time>2026-04-04T08:29:27.25Z</time></trkpt><trkpt lat="43.3298402" lon="11.2425627"><ele>279.0</ele><time>2026-04-04T08:29:29.238Z</time></trkpt><trkpt lat="43.3297584" lon="11.2425922"><ele>279.0</ele><time>2026-04-04T08:29:31.243Z</time></trkpt><trkpt lat="43.3296675" lon="11.2426251"><ele>279.0</ele><time>2026-04-04T08:29:33.256Z</time></trkpt><trkpt lat="43.3295662" lon="11.2426791"><ele>279.5</ele><time>2026-04-04T08:29:35.243Z</time></trkpt><trkpt lat="43.3295043" lon="11.242708"><ele>280.0</ele><time>2026-04-04T08:29:36.239Z</time></trkpt><trkpt lat="43.3294388" lon="11.242744"><ele>280.5</ele><time>2026-04-04T08:29:37.256Z</time></trkpt><trkpt lat="43.3293727" lon="11.2427888"><ele>281.0</ele><time>2026-04-04T08:29:38.255Z</time></trkpt><trkpt lat="43.329295" lon="11.2428398"><ele>281.5</ele><time>2026-04-04T08:29:39.249Z</time></trkpt><trkpt lat="43.3292135" lon="11.2428952"><ele>282.0</ele><time>2026-04-04T08:29:40.263Z</time></trkpt><trkpt lat="43.329123" lon="11.2429551"><ele>282.0</ele><time>2026-04-04T08:29:41.259Z</time></trkpt><trkpt lat="43.3290292" lon="11.2430124"><ele>282.0</ele><time>2026-04-04T08:29:42.252Z</time></trkpt><trkpt lat="43.3289334" lon="11.2430563"><ele>282.0</ele><time>2026-04-04T08:29:43.268Z</time></trkpt><trkpt lat="43.3288437" lon="11.2430921"><ele>282.0</ele><time>2026-04-04T08:29:44.253Z</time></trkpt><trkpt lat="43.3287563" lon="11.2431247"><ele>282.0</ele><time>2026-04-04T08:29:45.263Z</time></trkpt><trkpt lat="43.3286675" lon="11.2431708"><ele>281.14285714285717</ele><time>2026-04-04T08:29:46.273Z</time></trkpt><trkpt lat="43.328588" lon="11.2432118"><ele>280.2857142857143</ele><time>2026-04-04T08:29:47.257Z</time></trkpt><trkpt lat="43.3285079" lon="11.2432408"><ele>279.42857142857144</ele><time>2026-04-04T08:29:48.259Z</time></trkpt><trkpt lat="43.3284318" lon="11.2432513"><ele>278.57142857142856</ele><time>2026-04-04T08:29:49.252Z</time></trkpt><trkpt lat="43.3283629" lon="11.2432334"><ele>277.7142857142857</ele><time>2026-04-04T08:29:50.256Z</time></trkpt><trkpt lat="43.3282983" lon="11.2431986"><ele>276.8571428571429</ele><time>2026-04-04T08:29:51.242Z</time></trkpt><trkpt lat="43.3282427" lon="11.2431539"><ele>276.0</ele><time>2026-04-04T08:29:52.276Z</time></trkpt><trkpt lat="43.3281572" lon="11.2430631"><ele>276.0</ele><time>2026-04-04T08:29:54.256Z</time></trkpt><trkpt lat="43.32809" lon="11.2429918"><ele>276.0</ele><time>2026-04-04T08:29:56.239Z</time></trkpt><trkpt lat="43.3280292" lon="11.2429388"><ele>276.0</ele><time>2026-04-04T08:29:58.24Z</time></trkpt><trkpt lat="43.327948" lon="11.2428761"><ele>276.0</ele><time>2026-04-04T08:30:01.25Z</time></trkpt><trkpt lat="43.3278675" lon="11.2428043"><ele>276.0</ele><time>2026-04-04T08:30:04.263Z</time></trkpt><trkpt lat="43.3278224" lon="11.2427435"><ele>276.0</ele><time>2026-04-04T08:30:06.243Z</time></trkpt><trkpt lat="43.327764" lon="11.2426658"><ele>276.5</ele><time>2026-04-04T08:30:09.268Z</time></trkpt><trkpt lat="43.327726" lon="11.2425826"><ele>277.0</ele><time>2026-04-04T08:30:12.254Z</time></trkpt><trkpt lat="43.3276853" lon="11.2424993"><ele>277.5</ele><time>2026-04-04T08:30:16.25Z</time></trkpt><trkpt lat="43.3276244" lon="11.242415"><ele>278.0</ele><time>2026-04-04T08:30:19.272Z</time></trkpt><trkpt lat="43.3275563" lon="11.2423626"><ele>278.5</ele><time>2026-04-04T08:30:22.275Z</time></trkpt><trkpt lat="43.3274949" lon="11.2422958"><ele>279.0</ele><time>2026-04-04T08:30:25.239Z</time></trkpt><trkpt lat="43.3274221" lon="11.2422368"><ele>279.0</ele><time>2026-04-04T08:30:28.265Z</time></trkpt><trkpt lat="43.3273505" lon="11.2421899"><ele>279.0</ele><time>2026-04-04T08:30:31.256Z</time></trkpt><trkpt lat="43.3272876" lon="11.2421242"><ele>279.0</ele><time>2026-04-04T08:30:34.259Z</time></trkpt><trkpt lat="43.327217" lon="11.2420819"><ele>279.0</ele><time>2026-04-04T08:30:37.318Z</time></trkpt><trkpt lat="43.3271499" lon="11.2420572"><ele>279.0</ele><time>2026-04-04T08:30:40.239Z</time></trkpt><trkpt lat="43.3270734" lon="11.2420435"><ele>279.0</ele><time>2026-04-04T08:30:44.25Z</time></trkpt><trkpt lat="43.3269983" lon="11.2420273"><ele>279.99999999999994</ele><time>2026-04-04T08:30:48.325Z</time></trkpt><trkpt lat="43.3269213" lon="11.2420118"><ele>281.0</ele><time>2026-04-04T08:30:52.251Z</time></trkpt><trkpt lat="43.3268442" lon="11.2419918"><ele>282.0</ele><time>2026-04-04T08:30:55.265Z</time></trkpt><trkpt lat="43.3268" lon="11.2420895"><ele>283.0</ele><time>2026-04-04T08:31:02.267Z</time></trkpt><trkpt lat="43.3267593" lon="11.2421648"><ele>284.0</ele><time>2026-04-04T08:31:05.249Z</time></trkpt><trkpt lat="43.3267047" lon="11.2422223"><ele>284.99999999999994</ele><time>2026-04-04T08:31:11.259Z</time></trkpt><trkpt lat="43.3266413" lon="11.2422344"><ele>286.0</ele><time>2026-04-04T08:31:15.259Z</time></trkpt><trkpt lat="43.3265778" lon="11.2422762"><ele>286.16666666666663</ele><time>2026-04-04T08:31:19.261Z</time></trkpt><trkpt lat="43.3265283" lon="11.2423369"><ele>286.3333333333333</ele><time>2026-04-04T08:31:23.33Z</time></trkpt><trkpt lat="43.3264719" lon="11.2423887"><ele>286.5</ele><time>2026-04-04T08:31:26.263Z</time></trkpt><trkpt lat="43.3264499" lon="11.2424933"><ele>286.6666666666667</ele><time>2026-04-04T08:31:29.259Z</time></trkpt><trkpt lat="43.3264405" lon="11.2426105"><ele>286.83333333333337</ele><time>2026-04-04T08:31:31.256Z</time></trkpt><trkpt lat="43.3264321" lon="11.2427404"><ele>287.0</ele><time>2026-04-04T08:31:33.318Z</time></trkpt><trkpt lat="43.3264149" lon="11.2428574"><ele>287.0</ele><time>2026-04-04T08:31:35.256Z</time></trkpt><trkpt lat="43.3264052" lon="11.2429848"><ele>287.0</ele><time>2026-04-04T08:31:37.274Z</time></trkpt><trkpt lat="43.3264056" lon="11.2431297"><ele>287.0</ele><time>2026-04-04T08:31:39.259Z</time></trkpt><trkpt lat="43.3264047" lon="11.2432164"><ele>287.0</ele><time>2026-04-04T08:31:40.271Z</time></trkpt><trkpt lat="43.3263997" lon="11.2433034"><ele>287.0</ele><time>2026-04-04T08:31:41.242Z</time></trkpt><trkpt lat="43.3263943" lon="11.2433952"><ele>287.0</ele><time>2026-04-04T08:31:42.259Z</time></trkpt><trkpt lat="43.3263921" lon="11.2434935"><ele>287.6666666666667</ele><time>2026-04-04T08:31:43.268Z</time></trkpt><trkpt lat="43.3263837" lon="11.2435939"><ele>288.33333333333337</ele><time>2026-04-04T08:31:44.258Z</time></trkpt><trkpt lat="43.3263776" lon="11.2437092"><ele>289.0</ele><time>2026-04-04T08:31:45.258Z</time></trkpt><trkpt lat="43.326373" lon="11.2438194"><ele>289.6666666666667</ele><time>2026-04-04T08:31:46.276Z</time></trkpt><trkpt lat="43.3263696" lon="11.2439412"><ele>290.3333333333333</ele><time>2026-04-04T08:31:47.272Z</time></trkpt><trkpt lat="43.3263693" lon="11.2440724"><ele>291.0</ele><time>2026-04-04T08:31:48.266Z</time></trkpt><trkpt lat="43.3263709" lon="11.2441996"><ele>291.0</ele><time>2026-04-04T08:31:49.238Z</time></trkpt><trkpt lat="43.3263688" lon="11.2443242"><ele>291.0</ele><time>2026-04-04T08:31:50.261Z</time></trkpt><trkpt lat="43.3263655" lon="11.2444502"><ele>291.0</ele><time>2026-04-04T08:31:51.27Z</time></trkpt><trkpt lat="43.326358" lon="11.244573"><ele>291.0</ele><time>2026-04-04T08:31:52.262Z</time></trkpt><trkpt lat="43.3263494" lon="11.2447028"><ele>291.0</ele><time>2026-04-04T08:31:53.254Z</time></trkpt><trkpt lat="43.3263372" lon="11.2448327"><ele>290.0</ele><time>2026-04-04T08:31:54.259Z</time></trkpt><trkpt lat="43.3263281" lon="11.2449576"><ele>289.0</ele><time>2026-04-04T08:31:55.274Z</time></trkpt><trkpt lat="43.326321" lon="11.2450837"><ele>288.0</ele><time>2026-04-04T08:31:56.257Z</time></trkpt><trkpt lat="43.3263155" lon="11.2452046"><ele>287.0</ele><time>2026-04-04T08:31:57.257Z</time></trkpt><trkpt lat="43.3263058" lon="11.2453192"><ele>286.0</ele><time>2026-04-04T08:31:58.264Z</time></trkpt><trkpt lat="43.3262935" lon="11.2454336"><ele>285.0</ele><time>2026-04-04T08:31:59.256Z</time></trkpt><trkpt lat="43.3262906" lon="11.2455485"><ele>283.3333333333333</ele><time>2026-04-04T08:32:00.251Z</time></trkpt><trkpt lat="43.3262882" lon="11.2456566"><ele>281.6666666666667</ele><time>2026-04-04T08:32:01.258Z</time></trkpt><trkpt lat="43.3262902" lon="11.2457651"><ele>280.0</ele><time>2026-04-04T08:32:02.269Z</time></trkpt><trkpt lat="43.3262897" lon="11.245881"><ele>278.33333333333337</ele><time>2026-04-04T08:32:03.258Z</time></trkpt><trkpt lat="43.3262811" lon="11.2459902"><ele>276.6666666666667</ele><time>2026-04-04T08:32:04.262Z</time></trkpt><trkpt lat="43.3262697" lon="11.2460991"><ele>275.0</ele><time>2026-04-04T08:32:05.245Z</time></trkpt><trkpt lat="43.3262588" lon="11.2462096"><ele>275.0</ele><time>2026-04-04T08:32:06.262Z</time></trkpt><trkpt lat="43.3262452" lon="11.2463168"><ele>275.0</ele><time>2026-04-04T08:32:07.256Z</time></trkpt><trkpt lat="43.3262273" lon="11.246426"><ele>275.0</ele><time>2026-04-04T08:32:08.266Z</time></trkpt><trkpt lat="43.3261936" lon="11.2465349"><ele>275.0</ele><time>2026-04-04T08:32:09.264Z</time></trkpt><trkpt lat="43.326153" lon="11.2466248"><ele>275.0</ele><time>2026-04-04T08:32:10.255Z</time></trkpt><trkpt lat="43.3261064" lon="11.246716"><ele>275.0</ele><time>2026-04-04T08:32:11.271Z</time></trkpt><trkpt lat="43.3260578" lon="11.2468022"><ele>273.7142857142857</ele><time>2026-04-04T08:32:12.278Z</time></trkpt><trkpt lat="43.3260078" lon="11.2468849"><ele>272.42857142857144</ele><time>2026-04-04T08:32:13.261Z</time></trkpt><trkpt lat="43.3259613" lon="11.2469626"><ele>271.1428571428571</ele><time>2026-04-04T08:32:14.261Z</time></trkpt><trkpt lat="43.3259125" lon="11.2470394"><ele>269.8571428571429</ele><time>2026-04-04T08:32:15.273Z</time></trkpt><trkpt lat="43.3258665" lon="11.247116"><ele>268.57142857142856</ele><time>2026-04-04T08:32:16.274Z</time></trkpt><trkpt lat="43.3258231" lon="11.2471879"><ele>267.2857142857143</ele><time>2026-04-04T08:32:17.266Z</time></trkpt><trkpt lat="43.3257781" lon="11.2472522"><ele>266.0</ele><time>2026-04-04T08:32:18.259Z</time></trkpt><trkpt lat="43.3257355" lon="11.2473176"><ele>265.5</ele><time>2026-04-04T08:32:19.268Z</time></trkpt><trkpt lat="43.3256922" lon="11.2473816"><ele>265.0</ele><time>2026-04-04T08:32:20.263Z</time></trkpt><trkpt lat="43.3256472" lon="11.247449"><ele>264.5</ele><time>2026-04-04T08:32:21.269Z</time></trkpt><trkpt lat="43.3255995" lon="11.2475123"><ele>264.0</ele><time>2026-04-04T08:32:22.271Z</time></trkpt><trkpt lat="43.3255027" lon="11.2476192"><ele>263.5</ele><time>2026-04-04T08:32:24.267Z</time></trkpt><trkpt lat="43.3254127" lon="11.2477268"><ele>263.0</ele><time>2026-04-04T08:32:26.26Z</time></trkpt><trkpt lat="43.3253215" lon="11.2478335"><ele>263.0</ele><time>2026-04-04T08:32:28.259Z</time></trkpt><trkpt lat="43.325239" lon="11.2479515"><ele>263.0</ele><time>2026-04-04T08:32:30.272Z</time></trkpt><trkpt lat="43.3251699" lon="11.2480748"><ele>263.0</ele><time>2026-04-04T08:32:32.263Z</time></trkpt><trkpt lat="43.3251004" lon="11.2481905"><ele>263.0</ele><time>2026-04-04T08:32:34.258Z</time></trkpt><trkpt lat="43.32503" lon="11.2482979"><ele>263.0</ele><time>2026-04-04T08:32:36.257Z</time></trkpt><trkpt lat="43.3249582" lon="11.2484218"><ele>262.2</ele><time>2026-04-04T08:32:38.27Z</time></trkpt><trkpt lat="43.3248979" lon="11.2485458"><ele>261.4</ele><time>2026-04-04T08:32:40.259Z</time></trkpt><trkpt lat="43.3248376" lon="11.2486518"><ele>260.59999999999997</ele><time>2026-04-04T08:32:42.259Z</time></trkpt><trkpt lat="43.3247828" lon="11.2487517"><ele>259.8</ele><time>2026-04-04T08:32:44.272Z</time></trkpt><trkpt lat="43.324733" lon="11.248863"><ele>259.0</ele><time>2026-04-04T08:32:46.262Z</time></trkpt><trkpt lat="43.3246832" lon="11.2489676"><ele>259.0</ele><time>2026-04-04T08:32:48.258Z</time></trkpt><trkpt lat="43.3246289" lon="11.2490718"><ele>259.0</ele><time>2026-04-04T08:32:50.259Z</time></trkpt><trkpt lat="43.3245788" lon="11.2491801"><ele>259.0</ele><time>2026-04-04T08:32:52.265Z</time></trkpt><trkpt lat="43.3245234" lon="11.2492917"><ele>259.0</ele><time>2026-04-04T08:32:54.246Z</time></trkpt><trkpt lat="43.3244716" lon="11.2494067"><ele>259.0</ele><time>2026-04-04T08:32:56.28Z</time></trkpt><trkpt lat="43.3244226" lon="11.249517"><ele>259.0</ele><time>2026-04-04T08:32:58.267Z</time></trkpt><trkpt lat="43.3243683" lon="11.2496317"><ele>259.0</ele><time>2026-04-04T08:33:00.257Z</time></trkpt><trkpt lat="43.3243163" lon="11.24975"><ele>259.0</ele><time>2026-04-04T08:33:02.263Z</time></trkpt><trkpt lat="43.3242681" lon="11.2498663"><ele>259.0</ele><time>2026-04-04T08:33:04.272Z</time></trkpt><trkpt lat="43.3242256" lon="11.249989"><ele>259.0</ele><time>2026-04-04T08:33:06.255Z</time></trkpt><trkpt lat="43.3241797" lon="11.2501179"><ele>258.2</ele><time>2026-04-04T08:33:08.267Z</time></trkpt><trkpt lat="43.3241418" lon="11.2502479"><ele>257.4</ele><time>2026-04-04T08:33:10.269Z</time></trkpt><trkpt lat="43.3241067" lon="11.2503753"><ele>256.6</ele><time>2026-04-04T08:33:12.273Z</time></trkpt><trkpt lat="43.3240759" lon="11.2504993"><ele>255.8</ele><time>2026-04-04T08:33:14.264Z</time></trkpt><trkpt lat="43.3240518" lon="11.2506265"><ele>255.0</ele><time>2026-04-04T08:33:16.258Z</time></trkpt><trkpt lat="43.324018" lon="11.2507505"><ele>254.8</ele><time>2026-04-04T08:33:18.263Z</time></trkpt><trkpt lat="43.3239884" lon="11.25088"><ele>254.6</ele><time>2026-04-04T08:33:20.278Z</time></trkpt><trkpt lat="43.3239519" lon="11.2510073"><ele>254.39999999999998</ele><time>2026-04-04T08:33:22.33Z</time></trkpt><trkpt lat="43.3239073" lon="11.2511195"><ele>254.2</ele><time>2026-04-04T08:33:24.33Z</time></trkpt><trkpt lat="43.3238435" lon="11.2512194"><ele>254.0</ele><time>2026-04-04T08:33:26.26Z</time></trkpt><trkpt lat="43.3237638" lon="11.2513182"><ele>254.79999999999998</ele><time>2026-04-04T08:33:28.255Z</time></trkpt><trkpt lat="43.3236844" lon="11.2513949"><ele>255.59999999999997</ele><time>2026-04-04T08:33:30.271Z</time></trkpt><trkpt lat="43.323597" lon="11.2514705"><ele>256.4</ele><time>2026-04-04T08:33:32.33Z</time></trkpt><trkpt lat="43.3235214" lon="11.2515568"><ele>257.2</ele><time>2026-04-04T08:33:34.333Z</time></trkpt><trkpt lat="43.3234442" lon="11.2516219"><ele>258.0</ele><time>2026-04-04T08:33:36.267Z</time></trkpt><trkpt lat="43.323357" lon="11.2517009"><ele>258.0</ele><time>2026-04-04T08:33:38.261Z</time></trkpt><trkpt lat="43.3232772" lon="11.2517794"><ele>258.0</ele><time>2026-04-04T08:33:40.264Z</time></trkpt><trkpt lat="43.3232008" lon="11.2518566"><ele>258.0</ele><time>2026-04-04T08:33:42.27Z</time></trkpt><trkpt lat="43.3231219" lon="11.2519251"><ele>258.0</ele><time>2026-04-04T08:33:44.245Z</time></trkpt><trkpt lat="43.32304" lon="11.252014"><ele>258.0</ele><time>2026-04-04T08:33:46.265Z</time></trkpt><trkpt lat="43.3229762" lon="11.2521099"><ele>258.6</ele><time>2026-04-04T08:33:48.272Z</time></trkpt><trkpt lat="43.3229104" lon="11.2522047"><ele>259.20000000000005</ele><time>2026-04-04T08:33:50.265Z</time></trkpt><trkpt lat="43.3228418" lon="11.2523032"><ele>259.8</ele><time>2026-04-04T08:33:52.275Z</time></trkpt><trkpt lat="43.3227778" lon="11.2523993"><ele>260.40000000000003</ele><time>2026-04-04T08:33:54.34Z</time></trkpt><trkpt lat="43.3227178" lon="11.2524919"><ele>261.0</ele><time>2026-04-04T08:33:56.254Z</time></trkpt><trkpt lat="43.3226602" lon="11.2525872"><ele>261.0</ele><time>2026-04-04T08:33:58.263Z</time></trkpt><trkpt lat="43.322603" lon="11.2526838"><ele>261.0</ele><time>2026-04-04T08:34:00.327Z</time></trkpt><trkpt lat="43.3225474" lon="11.2527588"><ele>261.0</ele><time>2026-04-04T08:34:02.257Z</time></trkpt><trkpt lat="43.3224951" lon="11.2528709"><ele>261.0</ele><time>2026-04-04T08:34:04.339Z</time></trkpt><trkpt lat="43.3224337" lon="11.2529695"><ele>261.0</ele><time>2026-04-04T08:34:06.257Z</time></trkpt><trkpt lat="43.3223729" lon="11.2530866"><ele>260.8</ele><time>2026-04-04T08:34:08.338Z</time></trkpt><trkpt lat="43.3223153" lon="11.2531826"><ele>260.6</ele><time>2026-04-04T08:34:11.261Z</time></trkpt><trkpt lat="43.3222683" lon="11.2532806"><ele>260.4</ele><time>2026-04-04T08:34:13.262Z</time></trkpt><trkpt lat="43.3222017" lon="11.2534028"><ele>260.2</ele><time>2026-04-04T08:34:15.268Z</time></trkpt><trkpt lat="43.3221419" lon="11.2535264"><ele>260.0</ele><time>2026-04-04T08:34:17.268Z</time></trkpt><trkpt lat="43.322087" lon="11.2536382"><ele>261.0</ele><time>2026-04-04T08:34:19.262Z</time></trkpt><trkpt lat="43.322034" lon="11.2537395"><ele>262.0</ele><time>2026-04-04T08:34:21.261Z</time></trkpt><trkpt lat="43.3219961" lon="11.2538465"><ele>263.0</ele><time>2026-04-04T08:34:23.342Z</time></trkpt><trkpt lat="43.3219648" lon="11.2539502"><ele>264.0</ele><time>2026-04-04T08:34:25.256Z</time></trkpt><trkpt lat="43.3219365" lon="11.2540352"><ele>265.0</ele><time>2026-04-04T08:34:27.259Z</time></trkpt><trkpt lat="43.3218884" lon="11.2540967"><ele>266.0</ele><time>2026-04-04T08:34:29.319Z</time></trkpt><trkpt lat="43.3218615" lon="11.2541785"><ele>266.6666666666667</ele><time>2026-04-04T08:34:31.256Z</time></trkpt><trkpt lat="43.3218669" lon="11.2542722"><ele>267.33333333333337</ele><time>2026-04-04T08:34:33.261Z</time></trkpt><trkpt lat="43.3219072" lon="11.2543859"><ele>268.0</ele><time>2026-04-04T08:34:36.274Z</time></trkpt><trkpt lat="43.321934" lon="11.2545067"><ele>268.6666666666667</ele><time>2026-04-04T08:34:39.325Z</time></trkpt><trkpt lat="43.3219613" lon="11.254633"><ele>269.3333333333333</ele><time>2026-04-04T08:34:42.255Z</time></trkpt><trkpt lat="43.3219816" lon="11.2547174"><ele>270.0</ele><time>2026-04-04T08:34:44.26Z</time></trkpt><trkpt lat="43.3219985" lon="11.2548092"><ele>271.0</ele><time>2026-04-04T08:34:46.259Z</time></trkpt><trkpt lat="43.3220146" lon="11.2549097"><ele>272.0</ele><time>2026-04-04T08:34:48.259Z</time></trkpt><trkpt lat="43.3220368" lon="11.2549961"><ele>273.0</ele><time>2026-04-04T08:34:50.271Z</time></trkpt><trkpt lat="43.322075" lon="11.2550997"><ele>274.0</ele><time>2026-04-04T08:34:53.27Z</time></trkpt><trkpt lat="43.3220989" lon="11.2552097"><ele>275.0</ele><time>2026-04-04T08:34:58.263Z</time></trkpt><trkpt lat="43.3221442" lon="11.2553101"><ele>276.0</ele><time>2026-04-04T08:35:01.256Z</time></trkpt><trkpt lat="43.322169" lon="11.2553973"><ele>276.0</ele><time>2026-04-04T08:35:04.34Z</time></trkpt><trkpt lat="43.3222017" lon="11.2554879"><ele>276.0</ele><time>2026-04-04T08:35:07.331Z</time></trkpt><trkpt lat="43.322246" lon="11.2555785"><ele>276.0</ele><time>2026-04-04T08:35:10.282Z</time></trkpt><trkpt lat="43.3222593" lon="11.2556769"><ele>276.0</ele><time>2026-04-04T08:35:12.335Z</time></trkpt><trkpt lat="43.3222623" lon="11.255768"><ele>276.0</ele><time>2026-04-04T08:35:14.317Z</time></trkpt><trkpt lat="43.3222992" lon="11.2558516"><ele>276.0</ele><time>2026-04-04T08:35:17.254Z</time></trkpt><trkpt lat="43.3223605" lon="11.2558898"><ele>276.0</ele><time>2026-04-04T08:35:21.265Z</time></trkpt><trkpt lat="43.3223956" lon="11.2559905"><ele>275.3333333333333</ele><time>2026-04-04T08:35:25.253Z</time></trkpt><trkpt lat="43.3224354" lon="11.2560851"><ele>274.6666666666667</ele><time>2026-04-04T08:35:28.257Z</time></trkpt><trkpt lat="43.3224744" lon="11.256196"><ele>274.0</ele><time>2026-04-04T08:35:31.255Z</time></trkpt><trkpt lat="43.3225007" lon="11.2563194"><ele>273.33333333333337</ele><time>2026-04-04T08:35:34.33Z</time></trkpt><trkpt lat="43.3225446" lon="11.2564258"><ele>272.6666666666667</ele><time>2026-04-04T08:35:37.259Z</time></trkpt><trkpt lat="43.3226047" lon="11.2565277"><ele>272.0</ele><time>2026-04-04T08:35:40.259Z</time></trkpt><trkpt lat="43.3226452" lon="11.2566122"><ele>272.0</ele><time>2026-04-04T08:35:42.246Z</time></trkpt><trkpt lat="43.3226789" lon="11.2566909"><ele>272.0</ele><time>2026-04-04T08:35:44.341Z</time></trkpt><trkpt lat="43.3227465" lon="11.2567657"><ele>272.0</ele><time>2026-04-04T08:35:47.251Z</time></trkpt><trkpt lat="43.3228193" lon="11.2568022"><ele>272.0</ele><time>2026-04-04T08:35:49.337Z</time></trkpt><trkpt lat="43.3228877" lon="11.2568266"><ele>272.0</ele><time>2026-04-04T08:35:51.259Z</time></trkpt><trkpt lat="43.3229683" lon="11.2568543"><ele>272.0</ele><time>2026-04-04T08:35:54.343Z</time></trkpt><trkpt lat="43.3230325" lon="11.2568813"><ele>271.5</ele><time>2026-04-04T08:35:56.258Z</time></trkpt><trkpt lat="43.3231135" lon="11.2569184"><ele>271.0</ele><time>2026-04-04T08:35:58.341Z</time></trkpt><trkpt lat="43.3231766" lon="11.2569763"><ele>270.5</ele><time>2026-04-04T08:36:00.256Z</time></trkpt><trkpt lat="43.3232479" lon="11.2570344"><ele>270.0</ele><time>2026-04-04T08:36:02.245Z</time></trkpt><trkpt lat="43.3233093" lon="11.2571157"><ele>269.5</ele><time>2026-04-04T08:36:04.334Z</time></trkpt><trkpt lat="43.3233477" lon="11.2572058"><ele>269.0</ele><time>2026-04-04T08:36:06.25Z</time></trkpt><trkpt lat="43.3233905" lon="11.257297"><ele>269.0</ele><time>2026-04-04T08:36:08.267Z</time></trkpt><trkpt lat="43.3234427" lon="11.2573806"><ele>269.0</ele><time>2026-04-04T08:36:10.263Z</time></trkpt><trkpt lat="43.3234895" lon="11.2574787"><ele>269.0</ele><time>2026-04-04T08:36:12.269Z</time></trkpt><trkpt lat="43.3235238" lon="11.257584"><ele>269.0</ele><time>2026-04-04T08:36:14.249Z</time></trkpt><trkpt lat="43.3235659" lon="11.2576948"><ele>269.0</ele><time>2026-04-04T08:36:16.244Z</time></trkpt><trkpt lat="43.3236215" lon="11.2577908"><ele>269.0</ele><time>2026-04-04T08:36:18.258Z</time></trkpt><trkpt lat="43.3236617" lon="11.2578677"><ele>269.0</ele><time>2026-04-04T08:36:20.263Z</time></trkpt><trkpt lat="43.3236972" lon="11.257957"><ele>269.0</ele><time>2026-04-04T08:36:22.261Z</time></trkpt><trkpt lat="43.3237313" lon="11.2580627"><ele>269.0</ele><time>2026-04-04T08:36:24.323Z</time></trkpt><trkpt lat="43.3237763" lon="11.2581719"><ele>269.0</ele><time>2026-04-04T08:36:26.25Z</time></trkpt><trkpt lat="43.3238399" lon="11.2582884"><ele>269.0</ele><time>2026-04-04T08:36:28.249Z</time></trkpt><trkpt lat="43.3238783" lon="11.2583734"><ele>269.0</ele><time>2026-04-04T08:36:29.268Z</time></trkpt><trkpt lat="43.3239236" lon="11.2584356"><ele>266.59999999999997</ele><time>2026-04-04T08:36:30.342Z</time></trkpt><trkpt lat="43.3240014" lon="11.258566"><ele>264.2</ele><time>2026-04-04T08:36:32.261Z</time></trkpt><trkpt lat="43.3240944" lon="11.258678"><ele>261.79999999999995</ele><time>2026-04-04T08:36:34.326Z</time></trkpt><trkpt lat="43.3241695" lon="11.2587709"><ele>259.4</ele><time>2026-04-04T08:36:36.265Z</time></trkpt><trkpt lat="43.3242371" lon="11.2588559"><ele>257.0</ele><time>2026-04-04T08:36:38.313Z</time></trkpt><trkpt lat="43.3242937" lon="11.2589491"><ele>257.2</ele><time>2026-04-04T08:36:40.32Z</time></trkpt><trkpt lat="43.3243363" lon="11.2590317"><ele>257.4</ele><time>2026-04-04T08:36:42.245Z</time></trkpt><trkpt lat="43.3243087" lon="11.2591522"><ele>257.6</ele><time>2026-04-04T08:36:44.255Z</time></trkpt><trkpt lat="43.3242677" lon="11.2592768"><ele>257.8</ele><time>2026-04-04T08:36:46.266Z</time></trkpt><trkpt lat="43.3242186" lon="11.2593928"><ele>258.0</ele><time>2026-04-04T08:36:48.238Z</time></trkpt><trkpt lat="43.324167" lon="11.2595014"><ele>258.0</ele><time>2026-04-04T08:36:50.259Z</time></trkpt><trkpt lat="43.3241172" lon="11.2596003"><ele>258.0</ele><time>2026-04-04T08:36:52.256Z</time></trkpt><trkpt lat="43.3240771" lon="11.2597013"><ele>258.0</ele><time>2026-04-04T08:36:54.275Z</time></trkpt><trkpt lat="43.3240662" lon="11.2598101"><ele>258.0</ele><time>2026-04-04T08:36:56.253Z</time></trkpt><trkpt lat="43.3240658" lon="11.2599205"><ele>258.0</ele><time>2026-04-04T08:36:58.329Z</time></trkpt><trkpt lat="43.324115" lon="11.2600253"><ele>258.0</ele><time>2026-04-04T08:37:00.27Z</time></trkpt><trkpt lat="43.3241714" lon="11.2600916"><ele>258.1428571428571</ele><time>2026-04-04T08:37:02.245Z</time></trkpt><trkpt lat="43.3242173" lon="11.260153"><ele>258.2857142857143</ele><time>2026-04-04T08:37:04.341Z</time></trkpt><trkpt lat="43.3242594" lon="11.2602179"><ele>258.42857142857144</ele><time>2026-04-04T08:37:06.259Z</time></trkpt><trkpt lat="43.3243095" lon="11.2603012"><ele>258.57142857142856</ele><time>2026-04-04T08:37:09.273Z</time></trkpt><trkpt lat="43.3243459" lon="11.2603886"><ele>258.7142857142857</ele><time>2026-04-04T08:37:14.234Z</time></trkpt><trkpt lat="43.3243719" lon="11.2604678"><ele>258.85714285714283</ele><time>2026-04-04T08:37:20.26Z</time></trkpt><trkpt lat="43.3244063" lon="11.2605475"><ele>259.0</ele><time>2026-04-04T08:37:24.339Z</time></trkpt><trkpt lat="43.32446" lon="11.2606148"><ele>259.57142857142856</ele><time>2026-04-04T08:37:28.256Z</time></trkpt><trkpt lat="43.3245221" lon="11.2606793"><ele>260.1428571428571</ele><time>2026-04-04T08:37:32.256Z</time></trkpt><trkpt lat="43.3245981" lon="11.2607003"><ele>260.7142857142857</ele><time>2026-04-04T08:37:36.261Z</time></trkpt><trkpt lat="43.3246719" lon="11.2607046"><ele>261.2857142857143</ele><time>2026-04-04T08:37:40.244Z</time></trkpt><trkpt lat="43.3247357" lon="11.260719"><ele>261.85714285714283</ele><time>2026-04-04T08:37:44.267Z</time></trkpt><trkpt lat="43.3248049" lon="11.2606975"><ele>262.42857142857144</ele><time>2026-04-04T08:37:47.254Z</time></trkpt><trkpt lat="43.324876" lon="11.2606952"><ele>263.0</ele><time>2026-04-04T08:37:50.258Z</time></trkpt><trkpt lat="43.3249348" lon="11.2607267"><ele>263.57142857142856</ele><time>2026-04-04T08:37:55.283Z</time></trkpt><trkpt lat="43.3250041" lon="11.2607229"><ele>264.1428571428571</ele><time>2026-04-04T08:38:00.25Z</time></trkpt><trkpt lat="43.3250535" lon="11.260786"><ele>264.7142857142857</ele><time>2026-04-04T08:38:05.282Z</time></trkpt><trkpt lat="43.325073" lon="11.2608867"><ele>265.2857142857143</ele><time>2026-04-04T08:38:10.329Z</time></trkpt><trkpt lat="43.3250756" lon="11.2609952"><ele>265.8571428571429</ele><time>2026-04-04T08:38:15.273Z</time></trkpt><trkpt lat="43.3250834" lon="11.2610843"><ele>266.42857142857144</ele><time>2026-04-04T08:38:19.26Z</time></trkpt><trkpt lat="43.3250745" lon="11.2611754"><ele>267.0</ele><time>2026-04-04T08:38:22.259Z</time></trkpt><trkpt lat="43.3251185" lon="11.2612373"><ele>267.00000000000006</ele><time>2026-04-04T08:38:26.276Z</time></trkpt><trkpt lat="43.3251639" lon="11.2613065"><ele>267.0</ele><time>2026-04-04T08:38:30.334Z</time></trkpt><trkpt lat="43.3251955" lon="11.261387"><ele>267.0</ele><time>2026-04-04T08:38:35.259Z</time></trkpt><trkpt lat="43.3252285" lon="11.2614705"><ele>267.0</ele><time>2026-04-04T08:38:39.317Z</time></trkpt><trkpt lat="43.325271" lon="11.261553"><ele>267.0</ele><time>2026-04-04T08:38:43.257Z</time></trkpt><trkpt lat="43.3253125" lon="11.2616443"><ele>267.00000000000006</ele><time>2026-04-04T08:38:48.26Z</time></trkpt><trkpt lat="43.3253238" lon="11.261736"><ele>267.0</ele><time>2026-04-04T08:38:52.243Z</time></trkpt><trkpt lat="43.3253545" lon="11.2618163"><ele>267.7142857142857</ele><time>2026-04-04T08:38:56.268Z</time></trkpt><trkpt lat="43.3254066" lon="11.2618927"><ele>268.42857142857144</ele><time>2026-04-04T08:39:01.267Z</time></trkpt><trkpt lat="43.3254482" lon="11.2619608"><ele>269.1428571428571</ele><time>2026-04-04T08:39:05.26Z</time></trkpt><trkpt lat="43.3254806" lon="11.2620381"><ele>269.8571428571429</ele><time>2026-04-04T08:39:09.335Z</time></trkpt><trkpt lat="43.3255143" lon="11.2621279"><ele>270.57142857142856</ele><time>2026-04-04T08:39:13.331Z</time></trkpt><trkpt lat="43.3255493" lon="11.2622075"><ele>271.2857142857143</ele><time>2026-04-04T08:39:16.247Z</time></trkpt><trkpt lat="43.3255966" lon="11.2622839"><ele>272.0</ele><time>2026-04-04T08:39:20.321Z</time></trkpt><trkpt lat="43.3256087" lon="11.2623835"><ele>273.1428571428571</ele><time>2026-04-04T08:39:24.251Z</time></trkpt><trkpt lat="43.3256543" lon="11.2624785"><ele>274.2857142857143</ele><time>2026-04-04T08:39:28.266Z</time></trkpt><trkpt lat="43.3256883" lon="11.2625772"><ele>275.42857142857144</ele><time>2026-04-04T08:39:32.248Z</time></trkpt><trkpt lat="43.3257005" lon="11.2626693"><ele>276.57142857142856</ele><time>2026-04-04T08:39:36.254Z</time></trkpt><trkpt lat="43.3257258" lon="11.2627517"><ele>277.7142857142857</ele><time>2026-04-04T08:39:40.266Z</time></trkpt><trkpt lat="43.3257515" lon="11.2628451"><ele>278.85714285714283</ele><time>2026-04-04T08:39:44.333Z</time></trkpt><trkpt lat="43.3257743" lon="11.2629262"><ele>280.0</ele><time>2026-04-04T08:39:47.258Z</time></trkpt><trkpt lat="43.3258128" lon="11.2630129"><ele>280.0</ele><time>2026-04-04T08:39:50.265Z</time></trkpt><trkpt lat="43.3258688" lon="11.2630953"><ele>280.0</ele><time>2026-04-04T08:39:53.323Z</time></trkpt><trkpt lat="43.3259094" lon="11.2631733"><ele>280.0</ele><time>2026-04-04T08:39:56.258Z</time></trkpt><trkpt lat="43.3259662" lon="11.263259"><ele>280.0</ele><time>2026-04-04T08:39:59.321Z</time></trkpt><trkpt lat="43.3260055" lon="11.2633304"><ele>280.0</ele><time>2026-04-04T08:40:01.259Z</time></trkpt><trkpt lat="43.3260548" lon="11.2634359"><ele>280.0</ele><time>2026-04-04T08:40:04.258Z</time></trkpt><trkpt lat="43.3260876" lon="11.26352"><ele>280.0</ele><time>2026-04-04T08:40:07.271Z</time></trkpt><trkpt lat="43.3261277" lon="11.2635982"><ele>280.0</ele><time>2026-04-04T08:40:12.263Z</time></trkpt><trkpt lat="43.3261557" lon="11.2636979"><ele>280.0</ele><time>2026-04-04T08:40:17.26Z</time></trkpt><trkpt lat="43.3261751" lon="11.263784"><ele>280.0</ele><time>2026-04-04T08:40:21.264Z</time></trkpt><trkpt lat="43.3262061" lon="11.2638801"><ele>280.0</ele><time>2026-04-04T08:40:24.259Z</time></trkpt><trkpt lat="43.3262329" lon="11.2639996"><ele>280.0</ele><time>2026-04-04T08:40:27.263Z</time></trkpt><trkpt lat="43.3262842" lon="11.2640983"><ele>279.85714285714283</ele><time>2026-04-04T08:40:30.328Z</time></trkpt><trkpt lat="43.3263656" lon="11.2641574"><ele>279.7142857142857</ele><time>2026-04-04T08:40:33.313Z</time></trkpt><trkpt lat="43.3264422" lon="11.2641897"><ele>279.57142857142856</ele><time>2026-04-04T08:40:36.257Z</time></trkpt><trkpt lat="43.3265039" lon="11.2642137"><ele>279.42857142857144</ele><time>2026-04-04T08:40:39.261Z</time></trkpt><trkpt lat="43.3265707" lon="11.2642161"><ele>279.2857142857143</ele><time>2026-04-04T08:40:41.268Z</time></trkpt><trkpt lat="43.3266344" lon="11.264209"><ele>279.1428571428571</ele><time>2026-04-04T08:40:43.261Z</time></trkpt><trkpt lat="43.326711" lon="11.2641986"><ele>279.0</ele><time>2026-04-04T08:40:46.282Z</time></trkpt><trkpt lat="43.3267883" lon="11.2642104"><ele>278.99999999999994</ele><time>2026-04-04T08:40:49.259Z</time></trkpt><trkpt lat="43.3268455" lon="11.2642622"><ele>279.0</ele><time>2026-04-04T08:40:52.264Z</time></trkpt><trkpt lat="43.3268321" lon="11.2643711"><ele>279.0</ele><time>2026-04-04T08:40:55.264Z</time></trkpt><trkpt lat="43.3268184" lon="11.264484"><ele>279.0</ele><time>2026-04-04T08:40:58.272Z</time></trkpt><trkpt lat="43.3268088" lon="11.2645712"><ele>279.0</ele><time>2026-04-04T08:41:01.263Z</time></trkpt><trkpt lat="43.3268002" lon="11.2646674"><ele>278.99999999999994</ele><time>2026-04-04T08:41:06.271Z</time></trkpt><trkpt lat="43.3268041" lon="11.2647788"><ele>279.0</ele><time>2026-04-04T08:41:10.278Z</time></trkpt><trkpt lat="43.3268024" lon="11.2648654"><ele>278.6666666666667</ele><time>2026-04-04T08:41:13.263Z</time></trkpt><trkpt lat="43.326788" lon="11.264974"><ele>278.3333333333333</ele><time>2026-04-04T08:41:17.269Z</time></trkpt><trkpt lat="43.3267882" lon="11.2650813"><ele>278.0</ele><time>2026-04-04T08:41:19.36Z</time></trkpt><trkpt lat="43.3267881" lon="11.2652036"><ele>277.66666666666663</ele><time>2026-04-04T08:41:21.259Z</time></trkpt><trkpt lat="43.3267908" lon="11.265308"><ele>277.3333333333333</ele><time>2026-04-04T08:41:23.238Z</time></trkpt><trkpt lat="43.3268051" lon="11.265405"><ele>277.0</ele><time>2026-04-04T08:41:25.267Z</time></trkpt><trkpt lat="43.3268298" lon="11.265525"><ele>276.5</ele><time>2026-04-04T08:41:28.276Z</time></trkpt><trkpt lat="43.3268595" lon="11.2656285"><ele>276.0</ele><time>2026-04-04T08:41:32.267Z</time></trkpt><trkpt lat="43.3269093" lon="11.2656941"><ele>275.5</ele><time>2026-04-04T08:41:35.253Z</time></trkpt><trkpt lat="43.3269419" lon="11.2658086"><ele>275.0</ele><time>2026-04-04T08:41:38.268Z</time></trkpt><trkpt lat="43.3269652" lon="11.2659056"><ele>274.5</ele><time>2026-04-04T08:41:40.258Z</time></trkpt><trkpt lat="43.327001" lon="11.265999"><ele>274.0</ele><time>2026-04-04T08:41:42.279Z</time></trkpt><trkpt lat="43.3270368" lon="11.2660884"><ele>274.0</ele><time>2026-04-04T08:41:44.262Z</time></trkpt><trkpt lat="43.3270739" lon="11.2661964"><ele>274.0</ele><time>2026-04-04T08:41:47.26Z</time></trkpt><trkpt lat="43.3271178" lon="11.2663097"><ele>274.0</ele><time>2026-04-04T08:41:50.263Z</time></trkpt><trkpt lat="43.3271584" lon="11.2664249"><ele>274.0</ele><time>2026-04-04T08:41:53.271Z</time></trkpt><trkpt lat="43.327186" lon="11.2665046"><ele>274.0</ele><time>2026-04-04T08:41:55.271Z</time></trkpt><trkpt lat="43.3272137" lon="11.266587"><ele>274.0</ele><time>2026-04-04T08:41:57.272Z</time></trkpt><trkpt lat="43.3272318" lon="11.2666764"><ele>274.0</ele><time>2026-04-04T08:41:59.256Z</time></trkpt><trkpt lat="43.3272554" lon="11.2667675"><ele>274.0</ele><time>2026-04-04T08:42:01.259Z</time></trkpt><trkpt lat="43.3272821" lon="11.2668605"><ele>274.0</ele><time>2026-04-04T08:42:03.257Z</time></trkpt><trkpt lat="43.3273155" lon="11.2669625"><ele>274.0</ele><time>2026-04-04T08:42:05.328Z</time></trkpt><trkpt lat="43.3273484" lon="11.2670562"><ele>274.0</ele><time>2026-04-04T08:42:07.265Z</time></trkpt><trkpt lat="43.327389" lon="11.2671632"><ele>274.0</ele><time>2026-04-04T08:42:09.325Z</time></trkpt><trkpt lat="43.3274136" lon="11.2672764"><ele>273.8571428571429</ele><time>2026-04-04T08:42:11.256Z</time></trkpt><trkpt lat="43.3274205" lon="11.2673637"><ele>273.7142857142857</ele><time>2026-04-04T08:42:13.244Z</time></trkpt><trkpt lat="43.3274512" lon="11.2674699"><ele>273.57142857142856</ele><time>2026-04-04T08:42:15.25Z</time></trkpt><trkpt lat="43.3274843" lon="11.267567"><ele>273.42857142857144</ele><time>2026-04-04T08:42:18.26Z</time></trkpt><trkpt lat="43.3275176" lon="11.2676514"><ele>273.2857142857143</ele><time>2026-04-04T08:42:21.256Z</time></trkpt><trkpt lat="43.3275028" lon="11.2677412"><ele>273.14285714285717</ele><time>2026-04-04T08:42:24.267Z</time></trkpt><trkpt lat="43.3274599" lon="11.2678226"><ele>273.0</ele><time>2026-04-04T08:42:27.244Z</time></trkpt><trkpt lat="43.3274249" lon="11.2679228"><ele>273.0</ele><time>2026-04-04T08:42:30.305Z</time></trkpt><trkpt lat="43.3273931" lon="11.2680076"><ele>273.0</ele><time>2026-04-04T08:42:33.334Z</time></trkpt><trkpt lat="43.3273393" lon="11.2680705"><ele>273.0</ele><time>2026-04-04T08:42:37.27Z</time></trkpt><trkpt lat="43.3273118" lon="11.2681619"><ele>273.0</ele><time>2026-04-04T08:42:41.248Z</time></trkpt><trkpt lat="43.3272478" lon="11.2682268"><ele>273.0</ele><time>2026-04-04T08:42:46.27Z</time></trkpt><trkpt lat="43.3271777" lon="11.2682403"><ele>273.0</ele><time>2026-04-04T08:42:51.277Z</time></trkpt><trkpt lat="43.3271075" lon="11.2682764"><ele>273.0</ele><time>2026-04-04T08:43:08.248Z</time></trkpt><trkpt lat="43.3270469" lon="11.2683075"><ele>274.7142857142857</ele><time>2026-04-04T08:43:22.261Z</time></trkpt><trkpt lat="43.3269737" lon="11.2683347"><ele>276.42857142857144</ele><time>2026-04-04T08:43:27.26Z</time></trkpt><trkpt lat="43.3269025" lon="11.2683348"><ele>278.1428571428571</ele><time>2026-04-04T08:43:34.33Z</time></trkpt><trkpt lat="43.326836" lon="11.2683202"><ele>279.8571428571429</ele><time>2026-04-04T08:43:51.271Z</time></trkpt><trkpt lat="43.3267987" lon="11.2683972"><ele>281.57142857142856</ele><time>2026-04-04T08:43:59.267Z</time></trkpt><trkpt lat="43.3267361" lon="11.268458"><ele>283.2857142857143</ele><time>2026-04-04T08:44:05.267Z</time></trkpt><trkpt lat="43.3266614" lon="11.2684845"><ele>285.0</ele><time>2026-04-04T08:44:10.335Z</time></trkpt><trkpt lat="43.3265846" lon="11.2684981"><ele>285.0</ele><time>2026-04-04T08:44:14.325Z</time></trkpt><trkpt lat="43.3264359" lon="11.2686151"><ele>285.0</ele><time>2026-04-04T08:44:19.329Z</time></trkpt><trkpt lat="43.3263779" lon="11.2686516"><ele>285.0</ele><time>2026-04-04T08:44:24.263Z</time></trkpt><trkpt lat="43.3263141" lon="11.2686952"><ele>285.0</ele><time>2026-04-04T08:44:30.249Z</time></trkpt><trkpt lat="43.3262362" lon="11.268703"><ele>285.0</ele><time>2026-04-04T08:44:36.263Z</time></trkpt><trkpt lat="43.326165" lon="11.2687174"><ele>285.6666666666667</ele><time>2026-04-04T08:44:41.259Z</time></trkpt><trkpt lat="43.3260935" lon="11.2687189"><ele>286.3333333333333</ele><time>2026-04-04T08:44:46.244Z</time></trkpt><trkpt lat="43.3260186" lon="11.2687683"><ele>287.0</ele><time>2026-04-04T08:44:52.264Z</time></trkpt><trkpt lat="43.3259804" lon="11.2688579"><ele>287.66666666666663</ele><time>2026-04-04T08:44:57.263Z</time></trkpt><trkpt lat="43.3259189" lon="11.2689708"><ele>288.3333333333333</ele><time>2026-04-04T08:45:26.244Z</time></trkpt><trkpt lat="43.3258716" lon="11.2690673"><ele>289.0</ele><time>2026-04-04T08:45:28.259Z</time></trkpt><trkpt lat="43.32583" lon="11.2691595"><ele>289.57142857142856</ele><time>2026-04-04T08:45:33.256Z</time></trkpt><trkpt lat="43.3258019" lon="11.2692638"><ele>290.1428571428571</ele><time>2026-04-04T08:45:37.275Z</time></trkpt><trkpt lat="43.3257908" lon="11.2693631"><ele>290.71428571428567</ele><time>2026-04-04T08:45:40.336Z</time></trkpt><trkpt lat="43.3257612" lon="11.2694535"><ele>291.2857142857143</ele><time>2026-04-04T08:45:43.269Z</time></trkpt><trkpt lat="43.3257337" lon="11.2695529"><ele>291.85714285714283</ele><time>2026-04-04T08:45:47.261Z</time></trkpt><trkpt lat="43.32575" lon="11.2696613"><ele>292.4285714285714</ele><time>2026-04-04T08:45:50.317Z</time></trkpt><trkpt lat="43.3257392" lon="11.2697485"><ele>293.0</ele><time>2026-04-04T08:45:53.271Z</time></trkpt><trkpt lat="43.32572" lon="11.2698434"><ele>293.1428571428571</ele><time>2026-04-04T08:45:56.268Z</time></trkpt><trkpt lat="43.3256887" lon="11.2699263"><ele>293.2857142857143</ele><time>2026-04-04T08:45:59.334Z</time></trkpt><trkpt lat="43.3256662" lon="11.2700141"><ele>293.42857142857144</ele><time>2026-04-04T08:46:03.271Z</time></trkpt><trkpt lat="43.3256521" lon="11.2701024"><ele>293.57142857142856</ele><time>2026-04-04T08:46:06.24Z</time></trkpt><trkpt lat="43.3256365" lon="11.2701911"><ele>293.7142857142857</ele><time>2026-04-04T08:46:09.33Z</time></trkpt><trkpt lat="43.3256211" lon="11.2703176"><ele>293.85714285714283</ele><time>2026-04-04T08:46:13.257Z</time></trkpt><trkpt lat="43.3256019" lon="11.2704165"><ele>294.0</ele><time>2026-04-04T08:46:16.255Z</time></trkpt><trkpt lat="43.3255662" lon="11.2704987"><ele>294.0</ele><time>2026-04-04T08:46:18.325Z</time></trkpt><trkpt lat="43.3255716" lon="11.2706321"><ele>294.0</ele><time>2026-04-04T08:46:21.245Z</time></trkpt><trkpt lat="43.325574" lon="11.2707211"><ele>294.0</ele><time>2026-04-04T08:46:23.272Z</time></trkpt><trkpt lat="43.3255164" lon="11.2708011"><ele>294.0</ele><time>2026-04-04T08:46:28.271Z</time></trkpt><trkpt lat="43.3254397" lon="11.270848"><ele>294.0</ele><time>2026-04-04T08:46:32.273Z</time></trkpt><trkpt lat="43.3253558" lon="11.2708757"><ele>294.0</ele><time>2026-04-04T08:46:35.321Z</time></trkpt><trkpt lat="43.3252762" lon="11.2709626"><ele>294.14285714285717</ele><time>2026-04-04T08:46:38.253Z</time></trkpt><trkpt lat="43.3252518" lon="11.271047"><ele>294.2857142857143</ele><time>2026-04-04T08:46:40.262Z</time></trkpt><trkpt lat="43.3252176" lon="11.2711443"><ele>294.42857142857144</ele><time>2026-04-04T08:46:43.27Z</time></trkpt><trkpt lat="43.3251715" lon="11.2712207"><ele>294.57142857142856</ele><time>2026-04-04T08:46:46.302Z</time></trkpt><trkpt lat="43.3251404" lon="11.2713081"><ele>294.7142857142857</ele><time>2026-04-04T08:46:49.26Z</time></trkpt><trkpt lat="43.3250936" lon="11.2713677"><ele>294.8571428571429</ele><time>2026-04-04T08:46:52.265Z</time></trkpt><trkpt lat="43.325021" lon="11.2714305"><ele>295.0</ele><time>2026-04-04T08:46:56.259Z</time></trkpt><trkpt lat="43.32495" lon="11.2714846"><ele>295.7142857142857</ele><time>2026-04-04T08:46:59.326Z</time></trkpt><trkpt lat="43.3248643" lon="11.271516"><ele>296.42857142857144</ele><time>2026-04-04T08:47:02.254Z</time></trkpt><trkpt lat="43.3248141" lon="11.2715729"><ele>297.1428571428571</ele><time>2026-04-04T08:47:06.278Z</time></trkpt><trkpt lat="43.3247741" lon="11.2716615"><ele>297.8571428571429</ele><time>2026-04-04T08:47:08.263Z</time></trkpt><trkpt lat="43.3247387" lon="11.2717452"><ele>298.57142857142856</ele><time>2026-04-04T08:47:10.331Z</time></trkpt><trkpt lat="43.3247261" lon="11.271839"><ele>299.2857142857143</ele><time>2026-04-04T08:47:12.263Z</time></trkpt><trkpt lat="43.3247302" lon="11.2719449"><ele>300.0</ele><time>2026-04-04T08:47:15.323Z</time></trkpt><trkpt lat="43.3247011" lon="11.272027"><ele>300.8333333333333</ele><time>2026-04-04T08:47:18.26Z</time></trkpt><trkpt lat="43.3246433" lon="11.2721038"><ele>301.6666666666667</ele><time>2026-04-04T08:47:21.236Z</time></trkpt><trkpt lat="43.3246023" lon="11.2721954"><ele>302.5</ele><time>2026-04-04T08:47:24.251Z</time></trkpt><trkpt lat="43.3245933" lon="11.2722849"><ele>303.33333333333337</ele><time>2026-04-04T08:47:26.241Z</time></trkpt><trkpt lat="43.3245502" lon="11.2723678"><ele>304.1666666666667</ele><time>2026-04-04T08:47:29.327Z</time></trkpt><trkpt lat="43.3244594" lon="11.2723368"><ele>305.0</ele><time>2026-04-04T08:47:32.269Z</time></trkpt><trkpt lat="43.3243869" lon="11.2723491"><ele>305.33333333333337</ele><time>2026-04-04T08:47:34.265Z</time></trkpt><trkpt lat="43.3243219" lon="11.2723798"><ele>305.6666666666667</ele><time>2026-04-04T08:47:36.253Z</time></trkpt><trkpt lat="43.3242485" lon="11.272426"><ele>306.0</ele><time>2026-04-04T08:47:39.258Z</time></trkpt><trkpt lat="43.3241724" lon="11.2724532"><ele>306.3333333333333</ele><time>2026-04-04T08:47:42.268Z</time></trkpt><trkpt lat="43.324091" lon="11.2724778"><ele>306.66666666666663</ele><time>2026-04-04T08:47:46.253Z</time></trkpt><trkpt lat="43.3240193" lon="11.2724859"><ele>307.0</ele><time>2026-04-04T08:47:49.328Z</time></trkpt><trkpt lat="43.3239525" lon="11.2725343"><ele>306.99999999999994</ele><time>2026-04-04T08:47:53.259Z</time></trkpt><trkpt lat="43.323886" lon="11.2725332"><ele>307.0</ele><time>2026-04-04T08:47:55.328Z</time></trkpt><trkpt lat="43.3238224" lon="11.2725398"><ele>307.0</ele><time>2026-04-04T08:47:57.267Z</time></trkpt><trkpt lat="43.3237769" lon="11.2726041"><ele>307.0</ele><time>2026-04-04T08:47:59.325Z</time></trkpt><trkpt lat="43.3237235" lon="11.2726764"><ele>307.0</ele><time>2026-04-04T08:48:02.256Z</time></trkpt><trkpt lat="43.323658" lon="11.272689"><ele>306.99999999999994</ele><time>2026-04-04T08:48:05.332Z</time></trkpt><trkpt lat="43.3235977" lon="11.272779"><ele>307.0</ele><time>2026-04-04T08:48:08.262Z</time></trkpt><trkpt lat="43.3235469" lon="11.2728306"><ele>307.0</ele><time>2026-04-04T08:48:10.257Z</time></trkpt><trkpt lat="43.3234653" lon="11.2728971"><ele>307.0</ele><time>2026-04-04T08:48:13.245Z</time></trkpt><trkpt lat="43.3233935" lon="11.2729583"><ele>307.0</ele><time>2026-04-04T08:48:16.251Z</time></trkpt><trkpt lat="43.3233462" lon="11.273051"><ele>307.0</ele><time>2026-04-04T08:48:19.263Z</time></trkpt><trkpt lat="43.3233381" lon="11.27316"><ele>307.0</ele><time>2026-04-04T08:48:22.243Z</time></trkpt><trkpt lat="43.3233681" lon="11.2732807"><ele>307.0</ele><time>2026-04-04T08:48:25.258Z</time></trkpt><trkpt lat="43.3233871" lon="11.2733767"><ele>307.3333333333333</ele><time>2026-04-04T08:48:27.271Z</time></trkpt><trkpt lat="43.3234006" lon="11.2734765"><ele>307.66666666666663</ele><time>2026-04-04T08:48:29.253Z</time></trkpt><trkpt lat="43.3234204" lon="11.2736066"><ele>308.0</ele><time>2026-04-04T08:48:32.276Z</time></trkpt><trkpt lat="43.3234102" lon="11.273706"><ele>308.3333333333333</ele><time>2026-04-04T08:48:34.338Z</time></trkpt><trkpt lat="43.3233822" lon="11.2737848"><ele>308.6666666666667</ele><time>2026-04-04T08:48:36.276Z</time></trkpt><trkpt lat="43.3233644" lon="11.2738897"><ele>309.0</ele><time>2026-04-04T08:48:38.262Z</time></trkpt><trkpt lat="43.3233535" lon="11.2740205"><ele>307.8</ele><time>2026-04-04T08:48:40.274Z</time></trkpt><trkpt lat="43.3233953" lon="11.2741594"><ele>306.59999999999997</ele><time>2026-04-04T08:48:42.276Z</time></trkpt><trkpt lat="43.3234212" lon="11.2742595"><ele>305.4</ele><time>2026-04-04T08:48:44.334Z</time></trkpt><trkpt lat="43.3234536" lon="11.2743681"><ele>304.2</ele><time>2026-04-04T08:48:46.259Z</time></trkpt><trkpt lat="43.3234707" lon="11.2744931"><ele>303.0</ele><time>2026-04-04T08:48:48.33Z</time></trkpt><trkpt lat="43.3234537" lon="11.2746078"><ele>303.0</ele><time>2026-04-04T08:48:50.33Z</time></trkpt><trkpt lat="43.3234398" lon="11.2747192"><ele>303.0</ele><time>2026-04-04T08:48:52.263Z</time></trkpt><trkpt lat="43.3234955" lon="11.27484"><ele>303.0</ele><time>2026-04-04T08:48:54.298Z</time></trkpt><trkpt lat="43.3235051" lon="11.2749601"><ele>303.0</ele><time>2026-04-04T08:48:56.274Z</time></trkpt><trkpt lat="43.323459" lon="11.2750783"><ele>303.0</ele><time>2026-04-04T08:48:58.272Z</time></trkpt><trkpt lat="43.3234073" lon="11.2751597"><ele>302.0</ele><time>2026-04-04T08:49:00.269Z</time></trkpt><trkpt lat="43.3233431" lon="11.2752473"><ele>301.0</ele><time>2026-04-04T08:49:02.259Z</time></trkpt><trkpt lat="43.3232869" lon="11.2753199"><ele>300.0</ele><time>2026-04-04T08:49:04.258Z</time></trkpt><trkpt lat="43.3232315" lon="11.2753997"><ele>299.0</ele><time>2026-04-04T08:49:06.255Z</time></trkpt><trkpt lat="43.3231737" lon="11.2755051"><ele>298.0</ele><time>2026-04-04T08:49:08.268Z</time></trkpt><trkpt lat="43.3231253" lon="11.2756152"><ele>297.0</ele><time>2026-04-04T08:49:10.264Z</time></trkpt><trkpt lat="43.3230912" lon="11.2757141"><ele>296.0</ele><time>2026-04-04T08:49:12.262Z</time></trkpt><trkpt lat="43.3230629" lon="11.2758396"><ele>295.0</ele><time>2026-04-04T08:49:14.259Z</time></trkpt><trkpt lat="43.3230072" lon="11.2759461"><ele>294.0</ele><time>2026-04-04T08:49:16.253Z</time></trkpt><trkpt lat="43.3229813" lon="11.2760403"><ele>293.0</ele><time>2026-04-04T08:49:18.262Z</time></trkpt><trkpt lat="43.3229606" lon="11.2761321"><ele>292.0</ele><time>2026-04-04T08:49:20.33Z</time></trkpt><trkpt lat="43.3229331" lon="11.2762112"><ele>291.0</ele><time>2026-04-04T08:49:22.263Z</time></trkpt><trkpt lat="43.3229003" lon="11.276295"><ele>291.0</ele><time>2026-04-04T08:49:24.338Z</time></trkpt><trkpt lat="43.3228695" lon="11.2763868"><ele>291.0</ele><time>2026-04-04T08:49:26.257Z</time></trkpt><trkpt lat="43.3228457" lon="11.2764954"><ele>291.0</ele><time>2026-04-04T08:49:28.247Z</time></trkpt><trkpt lat="43.3228128" lon="11.2765957"><ele>291.0</ele><time>2026-04-04T08:49:30.327Z</time></trkpt><trkpt lat="43.3227619" lon="11.2766866"><ele>291.0</ele><time>2026-04-04T08:49:32.271Z</time></trkpt><trkpt lat="43.3227245" lon="11.2767596"><ele>291.0</ele><time>2026-04-04T08:49:34.343Z</time></trkpt><trkpt lat="43.3226786" lon="11.2768457"><ele>291.1428571428571</ele><time>2026-04-04T08:49:36.257Z</time></trkpt><trkpt lat="43.3226417" lon="11.2769503"><ele>291.2857142857143</ele><time>2026-04-04T08:49:38.262Z</time></trkpt><trkpt lat="43.3225977" lon="11.2770347"><ele>291.42857142857144</ele><time>2026-04-04T08:49:40.265Z</time></trkpt><trkpt lat="43.3225575" lon="11.2771098"><ele>291.57142857142856</ele><time>2026-04-04T08:49:42.258Z</time></trkpt><trkpt lat="43.3225197" lon="11.2771851"><ele>291.7142857142857</ele><time>2026-04-04T08:49:44.33Z</time></trkpt><trkpt lat="43.3224673" lon="11.2772494"><ele>291.85714285714283</ele><time>2026-04-04T08:49:46.261Z</time></trkpt><trkpt lat="43.3224269" lon="11.2773196"><ele>292.0</ele><time>2026-04-04T08:49:48.267Z</time></trkpt><trkpt lat="43.3223745" lon="11.2773982"><ele>292.0</ele><time>2026-04-04T08:49:50.264Z</time></trkpt><trkpt lat="43.322334" lon="11.2774822"><ele>292.0</ele><time>2026-04-04T08:49:52.253Z</time></trkpt><trkpt lat="43.3222742" lon="11.277563"><ele>292.0</ele><time>2026-04-04T08:49:54.324Z</time></trkpt><trkpt lat="43.3222242" lon="11.2776516"><ele>292.0</ele><time>2026-04-04T08:49:56.267Z</time></trkpt><trkpt lat="43.3221787" lon="11.2777365"><ele>292.0</ele><time>2026-04-04T08:49:58.247Z</time></trkpt><trkpt lat="43.3221309" lon="11.277821"><ele>292.0</ele><time>2026-04-04T08:50:00.255Z</time></trkpt><trkpt lat="43.3220871" lon="11.2779069"><ele>292.2857142857143</ele><time>2026-04-04T08:50:02.261Z</time></trkpt><trkpt lat="43.3220375" lon="11.2779827"><ele>292.57142857142856</ele><time>2026-04-04T08:50:04.273Z</time></trkpt><trkpt lat="43.3219821" lon="11.2780493"><ele>292.8571428571429</ele><time>2026-04-04T08:50:06.258Z</time></trkpt><trkpt lat="43.3219288" lon="11.2781177"><ele>293.1428571428571</ele><time>2026-04-04T08:50:08.34Z</time></trkpt><trkpt lat="43.3218785" lon="11.278186"><ele>293.42857142857144</ele><time>2026-04-04T08:50:10.332Z</time></trkpt><trkpt lat="43.3218192" lon="11.2782511"><ele>293.7142857142857</ele><time>2026-04-04T08:50:12.26Z</time></trkpt><trkpt lat="43.3217777" lon="11.278334"><ele>294.0</ele><time>2026-04-04T08:50:14.337Z</time></trkpt><trkpt lat="43.321724" lon="11.2784283"><ele>294.1666666666667</ele><time>2026-04-04T08:50:16.255Z</time></trkpt><trkpt lat="43.3216671" lon="11.2785189"><ele>294.3333333333333</ele><time>2026-04-04T08:50:18.273Z</time></trkpt><trkpt lat="43.3216078" lon="11.2786073"><ele>294.5</ele><time>2026-04-04T08:50:20.269Z</time></trkpt><trkpt lat="43.3215555" lon="11.2786887"><ele>294.66666666666663</ele><time>2026-04-04T08:50:22.259Z</time></trkpt><trkpt lat="43.3215093" lon="11.278766"><ele>294.8333333333333</ele><time>2026-04-04T08:50:24.339Z</time></trkpt><trkpt lat="43.3214574" lon="11.2788453"><ele>295.0</ele><time>2026-04-04T08:50:26.273Z</time></trkpt><trkpt lat="43.3214034" lon="11.2789424"><ele>295.00000000000006</ele><time>2026-04-04T08:50:28.267Z</time></trkpt><trkpt lat="43.3213485" lon="11.2790355"><ele>295.0</ele><time>2026-04-04T08:50:30.334Z</time></trkpt><trkpt lat="43.3213066" lon="11.2791259"><ele>295.0</ele><time>2026-04-04T08:50:32.262Z</time></trkpt><trkpt lat="43.3212659" lon="11.2792062"><ele>295.0</ele><time>2026-04-04T08:50:34.269Z</time></trkpt><trkpt lat="43.3212211" lon="11.2792762"><ele>295.0</ele><time>2026-04-04T08:50:36.267Z</time></trkpt><trkpt lat="43.3211794" lon="11.2793472"><ele>295.00000000000006</ele><time>2026-04-04T08:50:38.265Z</time></trkpt><trkpt lat="43.3211337" lon="11.2794124"><ele>295.0</ele><time>2026-04-04T08:50:40.328Z</time></trkpt><trkpt lat="43.3210913" lon="11.2794941"><ele>295.0</ele><time>2026-04-04T08:50:42.261Z</time></trkpt><trkpt lat="43.3210467" lon="11.2795876"><ele>295.0</ele><time>2026-04-04T08:50:44.258Z</time></trkpt><trkpt lat="43.3209956" lon="11.2796795"><ele>295.0</ele><time>2026-04-04T08:50:46.267Z</time></trkpt><trkpt lat="43.3209354" lon="11.2797731"><ele>295.0</ele><time>2026-04-04T08:50:48.327Z</time></trkpt><trkpt lat="43.3209007" lon="11.2798621"><ele>295.0</ele><time>2026-04-04T08:50:50.33Z</time></trkpt><trkpt lat="43.3208738" lon="11.2799548"><ele>295.0</ele><time>2026-04-04T08:50:52.27Z</time></trkpt><trkpt lat="43.3208611" lon="11.2800421"><ele>294.8333333333333</ele><time>2026-04-04T08:50:54.334Z</time></trkpt><trkpt lat="43.320872" lon="11.2801385"><ele>294.66666666666663</ele><time>2026-04-04T08:50:56.267Z</time></trkpt><trkpt lat="43.3209615" lon="11.2802012"><ele>294.5</ele><time>2026-04-04T08:50:59.331Z</time></trkpt><trkpt lat="43.3210102" lon="11.280267"><ele>294.3333333333333</ele><time>2026-04-04T08:51:01.253Z</time></trkpt><trkpt lat="43.3210714" lon="11.2803057"><ele>294.1666666666667</ele><time>2026-04-04T08:51:03.266Z</time></trkpt><trkpt lat="43.3211536" lon="11.2803313"><ele>294.0</ele><time>2026-04-04T08:51:05.266Z</time></trkpt><trkpt lat="43.3212421" lon="11.2803707"><ele>294.0</ele><time>2026-04-04T08:51:07.26Z</time></trkpt><trkpt lat="43.3213435" lon="11.2804146"><ele>294.0</ele><time>2026-04-04T08:51:09.346Z</time></trkpt><trkpt lat="43.3214578" lon="11.280459"><ele>294.0</ele><time>2026-04-04T08:51:11.26Z</time></trkpt><trkpt lat="43.3215235" lon="11.2804781"><ele>294.0</ele><time>2026-04-04T08:51:12.264Z</time></trkpt><trkpt lat="43.3215904" lon="11.2805083"><ele>294.0</ele><time>2026-04-04T08:51:13.264Z</time></trkpt><trkpt lat="43.32166" lon="11.280541"><ele>294.0</ele><time>2026-04-04T08:51:14.265Z</time></trkpt><trkpt lat="43.3217309" lon="11.2805778"><ele>292.8333333333333</ele><time>2026-04-04T08:51:15.259Z</time></trkpt><trkpt lat="43.3218022" lon="11.2806155"><ele>291.6666666666667</ele><time>2026-04-04T08:51:16.255Z</time></trkpt><trkpt lat="43.3218738" lon="11.2806556"><ele>290.5</ele><time>2026-04-04T08:51:17.259Z</time></trkpt><trkpt lat="43.3219477" lon="11.2806914"><ele>289.33333333333337</ele><time>2026-04-04T08:51:18.268Z</time></trkpt><trkpt lat="43.3220224" lon="11.280726"><ele>288.1666666666667</ele><time>2026-04-04T08:51:19.26Z</time></trkpt><trkpt lat="43.3221051" lon="11.2807619"><ele>287.0</ele><time>2026-04-04T08:51:20.272Z</time></trkpt><trkpt lat="43.322195" lon="11.2808088"><ele>286.0</ele><time>2026-04-04T08:51:21.263Z</time></trkpt><trkpt lat="43.3222892" lon="11.2808632"><ele>285.0</ele><time>2026-04-04T08:51:22.269Z</time></trkpt><trkpt lat="43.3223794" lon="11.2809293"><ele>284.0</ele><time>2026-04-04T08:51:23.267Z</time></trkpt><trkpt lat="43.3224685" lon="11.2809952"><ele>283.0</ele><time>2026-04-04T08:51:24.259Z</time></trkpt><trkpt lat="43.3225589" lon="11.2810637"><ele>282.0</ele><time>2026-04-04T08:51:25.261Z</time></trkpt><trkpt lat="43.322651" lon="11.2811308"><ele>282.0</ele><time>2026-04-04T08:51:26.257Z</time></trkpt><trkpt lat="43.322744" lon="11.2811944"><ele>282.0</ele><time>2026-04-04T08:51:27.26Z</time></trkpt><trkpt lat="43.3228331" lon="11.2812568"><ele>282.0</ele><time>2026-04-04T08:51:28.261Z</time></trkpt><trkpt lat="43.3229239" lon="11.281312"><ele>282.0</ele><time>2026-04-04T08:51:29.329Z</time></trkpt><trkpt lat="43.3230077" lon="11.2813436"><ele>282.0</ele><time>2026-04-04T08:51:30.316Z</time></trkpt><trkpt lat="43.3230909" lon="11.2813863"><ele>282.0</ele><time>2026-04-04T08:51:31.254Z</time></trkpt><trkpt lat="43.3231743" lon="11.2814374"><ele>282.0</ele><time>2026-04-04T08:51:32.266Z</time></trkpt><trkpt lat="43.3232518" lon="11.2814818"><ele>282.0</ele><time>2026-04-04T08:51:33.267Z</time></trkpt><trkpt lat="43.3233286" lon="11.2815237"><ele>282.0</ele><time>2026-04-04T08:51:34.302Z</time></trkpt><trkpt lat="43.3234036" lon="11.2815558"><ele>282.0</ele><time>2026-04-04T08:51:35.327Z</time></trkpt><trkpt lat="43.3234737" lon="11.2815833"><ele>282.0</ele><time>2026-04-04T08:51:36.249Z</time></trkpt><trkpt lat="43.3235431" lon="11.2816165"><ele>282.0</ele><time>2026-04-04T08:51:37.273Z</time></trkpt><trkpt lat="43.3236069" lon="11.281649"><ele>282.0</ele><time>2026-04-04T08:51:38.28Z</time></trkpt><trkpt lat="43.3236674" lon="11.2816797"><ele>282.0</ele><time>2026-04-04T08:51:39.271Z</time></trkpt><trkpt lat="43.323785" lon="11.2817398"><ele>282.0</ele><time>2026-04-04T08:51:41.265Z</time></trkpt><trkpt lat="43.3238885" lon="11.2817999"><ele>282.0</ele><time>2026-04-04T08:51:43.328Z</time></trkpt><trkpt lat="43.3239738" lon="11.2818331"><ele>283.0</ele><time>2026-04-04T08:51:45.336Z</time></trkpt><trkpt lat="43.3241004" lon="11.2819137"><ele>284.0</ele><time>2026-04-04T08:51:48.259Z</time></trkpt><trkpt lat="43.324154" lon="11.2819998"><ele>285.0</ele><time>2026-04-04T08:51:52.259Z</time></trkpt><trkpt lat="43.3242413" lon="11.2820492"><ele>286.0</ele><time>2026-04-04T08:51:55.329Z</time></trkpt><trkpt lat="43.3243156" lon="11.2820926"><ele>287.0</ele><time>2026-04-04T08:51:58.245Z</time></trkpt><trkpt lat="43.3243817" lon="11.282127"><ele>287.0</ele><time>2026-04-04T08:52:01.258Z</time></trkpt><trkpt lat="43.3244545" lon="11.2821547"><ele>287.0</ele><time>2026-04-04T08:52:04.335Z</time></trkpt><trkpt lat="43.3245234" lon="11.282186"><ele>287.0</ele><time>2026-04-04T08:52:07.265Z</time></trkpt><trkpt lat="43.3246003" lon="11.28221"><ele>287.0</ele><time>2026-04-04T08:52:11.27Z</time></trkpt><trkpt lat="43.3246839" lon="11.2822461"><ele>287.0</ele><time>2026-04-04T08:52:15.334Z</time></trkpt><trkpt lat="43.3247593" lon="11.2822701"><ele>287.0</ele><time>2026-04-04T08:52:19.237Z</time></trkpt><trkpt lat="43.32483" lon="11.2822942"><ele>288.2857142857143</ele><time>2026-04-04T08:52:23.319Z</time></trkpt><trkpt lat="43.3248962" lon="11.2823177"><ele>289.57142857142856</ele><time>2026-04-04T08:52:28.269Z</time></trkpt><trkpt lat="43.3249583" lon="11.2823453"><ele>290.8571428571429</ele><time>2026-04-04T08:52:31.268Z</time></trkpt><trkpt lat="43.3250294" lon="11.2823723"><ele>292.1428571428571</ele><time>2026-04-04T08:52:35.247Z</time></trkpt><trkpt lat="43.3251063" lon="11.2823947"><ele>293.42857142857144</ele><time>2026-04-04T08:52:39.26Z</time></trkpt><trkpt lat="43.325181" lon="11.2824323"><ele>294.7142857142857</ele><time>2026-04-04T08:52:44.256Z</time></trkpt><trkpt lat="43.3252428" lon="11.2824631"><ele>296.0</ele><time>2026-04-04T08:52:49.271Z</time></trkpt><trkpt lat="43.3253046" lon="11.2824947"><ele>296.0</ele><time>2026-04-04T08:52:55.256Z</time></trkpt><trkpt lat="43.3253685" lon="11.2825093"><ele>296.0</ele><time>2026-04-04T08:52:59.316Z</time></trkpt><trkpt lat="43.3254358" lon="11.2825433"><ele>296.0</ele><time>2026-04-04T08:53:03.321Z</time></trkpt><trkpt lat="43.3255011" lon="11.2825432"><ele>296.0</ele><time>2026-04-04T08:53:07.255Z</time></trkpt><trkpt lat="43.3255555" lon="11.2824991"><ele>296.0</ele><time>2026-04-04T08:53:13.24Z</time></trkpt><trkpt lat="43.325615" lon="11.2825367"><ele>296.0</ele><time>2026-04-04T08:53:17.249Z</time></trkpt><trkpt lat="43.3256794" lon="11.2825347"><ele>296.0</ele><time>2026-04-04T08:53:21.245Z</time></trkpt><trkpt lat="43.3257542" lon="11.2825433"><ele>297.5</ele><time>2026-04-04T08:53:26.277Z</time></trkpt><trkpt lat="43.3258179" lon="11.2825456"><ele>299.0</ele><time>2026-04-04T08:53:31.256Z</time></trkpt><trkpt lat="43.3258816" lon="11.2825477"><ele>300.5</ele><time>2026-04-04T08:53:54.325Z</time></trkpt><trkpt lat="43.3259839" lon="11.2825907"><ele>302.0</ele><time>2026-04-04T08:54:39.331Z</time></trkpt><trkpt lat="43.3258836" lon="11.2825423"><ele>303.5</ele><time>2026-04-04T08:54:46.253Z</time></trkpt><trkpt lat="43.3259476" lon="11.2825482"><ele>305.0</ele><time>2026-04-04T08:55:29.261Z</time></trkpt><trkpt lat="43.326044" lon="11.2825479"><ele>305.0</ele><time>2026-04-04T08:55:32.25Z</time></trkpt><trkpt lat="43.3261142" lon="11.2825841"><ele>305.0</ele><time>2026-04-04T08:55:34.34Z</time></trkpt><trkpt lat="43.3261833" lon="11.282641"><ele>305.0</ele><time>2026-04-04T08:55:35.33Z</time></trkpt><trkpt lat="43.3262709" lon="11.2826951"><ele>305.0</ele><time>2026-04-04T08:55:36.275Z</time></trkpt><trkpt lat="43.3263585" lon="11.2827435"><ele>305.0</ele><time>2026-04-04T08:55:37.264Z</time></trkpt><trkpt lat="43.326453" lon="11.2828098"><ele>302.5</ele><time>2026-04-04T08:55:38.25Z</time></trkpt><trkpt lat="43.3265561" lon="11.2828805"><ele>300.0</ele><time>2026-04-04T08:55:39.259Z</time></trkpt><trkpt lat="43.3266622" lon="11.2829545"><ele>297.5</ele><time>2026-04-04T08:55:40.252Z</time></trkpt><trkpt lat="43.3267783" lon="11.2830276"><ele>295.0</ele><time>2026-04-04T08:55:41.269Z</time></trkpt><trkpt lat="43.3268996" lon="11.2831095"><ele>295.0</ele><time>2026-04-04T08:55:42.25Z</time></trkpt><trkpt lat="43.3270258" lon="11.283198"><ele>295.0</ele><time>2026-04-04T08:55:43.259Z</time></trkpt><trkpt lat="43.3271523" lon="11.2832814"><ele>295.0</ele><time>2026-04-04T08:55:44.266Z</time></trkpt><trkpt lat="43.327275" lon="11.283362"><ele>295.0</ele><time>2026-04-04T08:55:45.251Z</time></trkpt><trkpt lat="43.3273947" lon="11.2834359"><ele>294.6</ele><time>2026-04-04T08:55:46.268Z</time></trkpt><trkpt lat="43.3275082" lon="11.2835046"><ele>294.2</ele><time>2026-04-04T08:55:47.267Z</time></trkpt><trkpt lat="43.3276072" lon="11.283561"><ele>293.8</ele><time>2026-04-04T08:55:48.265Z</time></trkpt><trkpt lat="43.3276922" lon="11.2835834"><ele>293.4</ele><time>2026-04-04T08:55:49.264Z</time></trkpt><trkpt lat="43.3277635" lon="11.2835806"><ele>293.0</ele><time>2026-04-04T08:55:50.261Z</time></trkpt><trkpt lat="43.3278547" lon="11.2835625"><ele>293.0</ele><time>2026-04-04T08:55:52.261Z</time></trkpt><trkpt lat="43.3279418" lon="11.2835621"><ele>293.0</ele><time>2026-04-04T08:55:55.337Z</time></trkpt><trkpt lat="43.3279925" lon="11.2835048"><ele>293.0</ele><time>2026-04-04T08:55:59.34Z</time></trkpt><trkpt lat="43.32805" lon="11.2834515"><ele>293.0</ele><time>2026-04-04T08:56:03.261Z</time></trkpt><trkpt lat="43.3281103" lon="11.2833869"><ele>293.0</ele><time>2026-04-04T08:56:07.265Z</time></trkpt><trkpt lat="43.3281813" lon="11.2833249"><ele>293.0</ele><time>2026-04-04T08:56:10.243Z</time></trkpt><trkpt lat="43.328248" lon="11.2832616"><ele>294.1428571428571</ele><time>2026-04-04T08:56:13.254Z</time></trkpt><trkpt lat="43.3283284" lon="11.2832294"><ele>295.2857142857143</ele><time>2026-04-04T08:56:16.267Z</time></trkpt><trkpt lat="43.3284007" lon="11.2831965"><ele>296.42857142857144</ele><time>2026-04-04T08:56:19.27Z</time></trkpt><trkpt lat="43.328467" lon="11.2831624"><ele>297.57142857142856</ele><time>2026-04-04T08:56:22.26Z</time></trkpt><trkpt lat="43.328531" lon="11.2831338"><ele>298.7142857142857</ele><time>2026-04-04T08:56:25.271Z</time></trkpt><trkpt lat="43.3285974" lon="11.2831088"><ele>299.85714285714283</ele><time>2026-04-04T08:56:28.249Z</time></trkpt><trkpt lat="43.3286609" lon="11.2830938"><ele>301.0</ele><time>2026-04-04T08:56:31.255Z</time></trkpt><trkpt lat="43.3287441" lon="11.2830574"><ele>301.0</ele><time>2026-04-04T08:56:35.256Z</time></trkpt><trkpt lat="43.3288189" lon="11.2830117"><ele>301.0</ele><time>2026-04-04T08:56:37.244Z</time></trkpt><trkpt lat="43.3288847" lon="11.2829825"><ele>301.0</ele><time>2026-04-04T08:56:42.264Z</time></trkpt><trkpt lat="43.3289487" lon="11.2829716"><ele>301.0</ele><time>2026-04-04T08:56:46.243Z</time></trkpt><trkpt lat="43.3290152" lon="11.2829456"><ele>301.0</ele><time>2026-04-04T08:56:50.256Z</time></trkpt><trkpt lat="43.3290924" lon="11.2829133"><ele>301.0</ele><time>2026-04-04T08:56:55.274Z</time></trkpt><trkpt lat="43.3291561" lon="11.2828582"><ele>301.0</ele><time>2026-04-04T08:57:00.26Z</time></trkpt><trkpt lat="43.3292275" lon="11.2828364"><ele>302.14285714285717</ele><time>2026-04-04T08:57:04.25Z</time></trkpt><trkpt lat="43.3292963" lon="11.2828079"><ele>303.2857142857143</ele><time>2026-04-04T08:57:08.26Z</time></trkpt><trkpt lat="43.3293672" lon="11.2827911"><ele>304.42857142857144</ele><time>2026-04-04T08:57:12.259Z</time></trkpt><trkpt lat="43.3294405" lon="11.28277"><ele>305.57142857142856</ele><time>2026-04-04T08:57:16.258Z</time></trkpt><trkpt lat="43.3295036" lon="11.2827299"><ele>306.7142857142857</ele><time>2026-04-04T08:57:20.261Z</time></trkpt><trkpt lat="43.3295804" lon="11.2827105"><ele>307.8571428571429</ele><time>2026-04-04T08:57:24.256Z</time></trkpt><trkpt lat="43.3296518" lon="11.2826894"><ele>309.0</ele><time>2026-04-04T08:57:28.26Z</time></trkpt><trkpt lat="43.3297172" lon="11.2826469"><ele>310.1666666666667</ele><time>2026-04-04T08:57:34.231Z</time></trkpt><trkpt lat="43.3297896" lon="11.2826372"><ele>311.3333333333333</ele><time>2026-04-04T08:57:38.259Z</time></trkpt><trkpt lat="43.3298715" lon="11.2825823"><ele>312.5</ele><time>2026-04-04T08:57:41.258Z</time></trkpt><trkpt lat="43.3299435" lon="11.2825955"><ele>313.66666666666663</ele><time>2026-04-04T08:57:45.264Z</time></trkpt><trkpt lat="43.3300101" lon="11.2825761"><ele>314.8333333333333</ele><time>2026-04-04T08:57:49.238Z</time></trkpt><trkpt lat="43.3300813" lon="11.2825563"><ele>316.0</ele><time>2026-04-04T08:57:53.264Z</time></trkpt><trkpt lat="43.3301633" lon="11.2825412"><ele>316.00000000000006</ele><time>2026-04-04T08:57:57.26Z</time></trkpt><trkpt lat="43.3302331" lon="11.2825288"><ele>316.0</ele><time>2026-04-04T08:58:00.261Z</time></trkpt><trkpt lat="43.3302975" lon="11.2825189"><ele>316.0</ele><time>2026-04-04T08:58:03.268Z</time></trkpt><trkpt lat="43.3303669" lon="11.2825126"><ele>316.0</ele><time>2026-04-04T08:58:06.259Z</time></trkpt><trkpt lat="43.3304339" lon="11.2824862"><ele>316.0</ele><time>2026-04-04T08:58:09.324Z</time></trkpt><trkpt lat="43.3305117" lon="11.2824958"><ele>316.00000000000006</ele><time>2026-04-04T08:58:12.257Z</time></trkpt><trkpt lat="43.3305768" lon="11.282481"><ele>316.0</ele><time>2026-04-04T08:58:15.329Z</time></trkpt><trkpt lat="43.3306543" lon="11.2824651"><ele>316.8571428571429</ele><time>2026-04-04T08:58:19.245Z</time></trkpt><trkpt lat="43.3307168" lon="11.2824365"><ele>317.7142857142857</ele><time>2026-04-04T08:58:22.263Z</time></trkpt><trkpt lat="43.3307879" lon="11.2824259"><ele>318.57142857142856</ele><time>2026-04-04T08:58:25.254Z</time></trkpt><trkpt lat="43.3308563" lon="11.2824274"><ele>319.42857142857144</ele><time>2026-04-04T08:58:28.331Z</time></trkpt><trkpt lat="43.3309369" lon="11.2823982"><ele>320.2857142857143</ele><time>2026-04-04T08:58:32.261Z</time></trkpt><trkpt lat="43.3310014" lon="11.2823862"><ele>321.14285714285717</ele><time>2026-04-04T08:58:35.249Z</time></trkpt><trkpt lat="43.3310761" lon="11.2823809"><ele>322.0</ele><time>2026-04-04T08:58:38.339Z</time></trkpt><trkpt lat="43.3311565" lon="11.2823738"><ele>322.0</ele><time>2026-04-04T08:58:42.26Z</time></trkpt><trkpt lat="43.331235" lon="11.2823749"><ele>322.0</ele><time>2026-04-04T08:58:45.257Z</time></trkpt><trkpt lat="43.3313128" lon="11.2823702"><ele>322.0</ele><time>2026-04-04T08:58:48.319Z</time></trkpt><trkpt lat="43.3314028" lon="11.2823676"><ele>322.0</ele><time>2026-04-04T08:58:51.249Z</time></trkpt><trkpt lat="43.3314771" lon="11.2823193"><ele>322.0</ele><time>2026-04-04T08:58:55.33Z</time></trkpt><trkpt lat="43.3315403" lon="11.2823077"><ele>322.0</ele><time>2026-04-04T08:58:58.266Z</time></trkpt><trkpt lat="43.3316167" lon="11.2822688"><ele>323.3333333333333</ele><time>2026-04-04T08:59:01.274Z</time></trkpt><trkpt lat="43.3316796" lon="11.2822506"><ele>324.66666666666663</ele><time>2026-04-04T08:59:03.327Z</time></trkpt><trkpt lat="43.3317452" lon="11.2821961"><ele>326.0</ele><time>2026-04-04T08:59:05.321Z</time></trkpt><trkpt lat="43.3318114" lon="11.2821582"><ele>327.3333333333333</ele><time>2026-04-04T08:59:07.264Z</time></trkpt><trkpt lat="43.3319303" lon="11.2821272"><ele>328.6666666666667</ele><time>2026-04-04T08:59:09.33Z</time></trkpt><trkpt lat="43.3320212" lon="11.2820687"><ele>330.0</ele><time>2026-04-04T08:59:11.256Z</time></trkpt><trkpt lat="43.3320969" lon="11.2820024"><ele>330.0</ele><time>2026-04-04T08:59:13.267Z</time></trkpt><trkpt lat="43.332172" lon="11.2819412"><ele>330.0</ele><time>2026-04-04T08:59:15.325Z</time></trkpt><trkpt lat="43.3322663" lon="11.2818574"><ele>330.0</ele><time>2026-04-04T08:59:17.266Z</time></trkpt><trkpt lat="43.332349" lon="11.28183"><ele>330.0</ele><time>2026-04-04T08:59:20.273Z</time></trkpt><trkpt lat="43.3324231" lon="11.2817848"><ele>330.0</ele><time>2026-04-04T08:59:23.256Z</time></trkpt><trkpt lat="43.3324914" lon="11.2817545"><ele>330.0</ele><time>2026-04-04T08:59:25.264Z</time></trkpt><trkpt lat="43.3325536" lon="11.2817044"><ele>330.5</ele><time>2026-04-04T08:59:27.259Z</time></trkpt><trkpt lat="43.3326053" lon="11.2816512"><ele>331.0</ele><time>2026-04-04T08:59:30.244Z</time></trkpt><trkpt lat="43.3326608" lon="11.2815745"><ele>331.5</ele><time>2026-04-04T08:59:33.327Z</time></trkpt><trkpt lat="43.3327269" lon="11.2815294"><ele>332.0</ele><time>2026-04-04T08:59:38.258Z</time></trkpt><trkpt lat="43.3328116" lon="11.2815055"><ele>332.5</ele><time>2026-04-04T08:59:41.251Z</time></trkpt><trkpt lat="43.3328924" lon="11.2814874"><ele>333.0</ele><time>2026-04-04T08:59:44.251Z</time></trkpt><trkpt lat="43.3329628" lon="11.2815041"><ele>333.0</ele><time>2026-04-04T08:59:46.268Z</time></trkpt><trkpt lat="43.3330279" lon="11.2814821"><ele>333.0</ele><time>2026-04-04T08:59:49.238Z</time></trkpt><trkpt lat="43.3331212" lon="11.2815211"><ele>333.0</ele><time>2026-04-04T08:59:52.243Z</time></trkpt><trkpt lat="43.3332156" lon="11.281483"><ele>333.0</ele><time>2026-04-04T08:59:54.331Z</time></trkpt><trkpt lat="43.3333276" lon="11.2814216"><ele>333.0</ele><time>2026-04-04T08:59:56.268Z</time></trkpt><trkpt lat="43.3333973" lon="11.2813484"><ele>333.5</ele><time>2026-04-04T08:59:57.258Z</time></trkpt><trkpt lat="43.3334678" lon="11.2812768"><ele>334.0</ele><time>2026-04-04T08:59:58.258Z</time></trkpt><trkpt lat="43.3335425" lon="11.2812085"><ele>334.5</ele><time>2026-04-04T08:59:59.266Z</time></trkpt><trkpt lat="43.3336153" lon="11.2811565"><ele>335.0</ele><time>2026-04-04T09:00:00.27Z</time></trkpt><trkpt lat="43.3336901" lon="11.2811215"><ele>335.5</ele><time>2026-04-04T09:00:01.257Z</time></trkpt><trkpt lat="43.3337623" lon="11.2811069"><ele>336.0</ele><time>2026-04-04T09:00:02.263Z</time></trkpt><trkpt lat="43.3338704" lon="11.2810645"><ele>335.0</ele><time>2026-04-04T09:00:04.247Z</time></trkpt><trkpt lat="43.3339344" lon="11.2810421"><ele>334.0</ele><time>2026-04-04T09:00:05.263Z</time></trkpt><trkpt lat="43.3340006" lon="11.2809923"><ele>333.0</ele><time>2026-04-04T09:00:06.265Z</time></trkpt><trkpt lat="43.3340407" lon="11.2809241"><ele>332.0</ele><time>2026-04-04T09:00:07.279Z</time></trkpt><trkpt lat="43.3340925" lon="11.2808635"><ele>331.0</ele><time>2026-04-04T09:00:08.253Z</time></trkpt><trkpt lat="43.334144" lon="11.2808045"><ele>330.0</ele><time>2026-04-04T09:00:09.327Z</time></trkpt><trkpt lat="43.3341943" lon="11.2807492"><ele>329.0</ele><time>2026-04-04T09:00:10.33Z</time></trkpt><trkpt lat="43.334309" lon="11.2806666"><ele>329.0</ele><time>2026-04-04T09:00:12.272Z</time></trkpt><trkpt lat="43.3343935" lon="11.2806328"><ele>329.0</ele><time>2026-04-04T09:00:13.261Z</time></trkpt><trkpt lat="43.3344773" lon="11.2805797"><ele>329.0</ele><time>2026-04-04T09:00:14.334Z</time></trkpt><trkpt lat="43.334554" lon="11.2805153"><ele>329.0</ele><time>2026-04-04T09:00:15.328Z</time></trkpt><trkpt lat="43.3346252" lon="11.2804257"><ele>329.0</ele><time>2026-04-04T09:00:16.27Z</time></trkpt><trkpt lat="43.3346854" lon="11.2802751"><ele>327.6</ele><time>2026-04-04T09:00:17.258Z</time></trkpt><trkpt lat="43.3347338" lon="11.2801236"><ele>326.2</ele><time>2026-04-04T09:00:18.261Z</time></trkpt><trkpt lat="43.3347902" lon="11.2799809"><ele>324.8</ele><time>2026-04-04T09:00:19.326Z</time></trkpt><trkpt lat="43.3348563" lon="11.279883"><ele>323.40000000000003</ele><time>2026-04-04T09:00:20.34Z</time></trkpt><trkpt lat="43.3349329" lon="11.2798368"><ele>322.0</ele><time>2026-04-04T09:00:21.269Z</time></trkpt><trkpt lat="43.3350253" lon="11.2798276"><ele>322.0</ele><time>2026-04-04T09:00:22.274Z</time></trkpt><trkpt lat="43.3351167" lon="11.2798581"><ele>322.0</ele><time>2026-04-04T09:00:23.262Z</time></trkpt><trkpt lat="43.3352054" lon="11.2798864"><ele>322.0</ele><time>2026-04-04T09:00:24.308Z</time></trkpt><trkpt lat="43.3352949" lon="11.2799074"><ele>322.0</ele><time>2026-04-04T09:00:25.321Z</time></trkpt><trkpt lat="43.3353808" lon="11.2799262"><ele>322.0</ele><time>2026-04-04T09:00:26.259Z</time></trkpt><trkpt lat="43.3354667" lon="11.279941"><ele>322.0</ele><time>2026-04-04T09:00:27.261Z</time></trkpt><trkpt lat="43.3355525" lon="11.2799557"><ele>321.5</ele><time>2026-04-04T09:00:28.263Z</time></trkpt><trkpt lat="43.3356368" lon="11.2799722"><ele>321.0</ele><time>2026-04-04T09:00:29.263Z</time></trkpt><trkpt lat="43.3357185" lon="11.2799886"><ele>320.5</ele><time>2026-04-04T09:00:30.332Z</time></trkpt><trkpt lat="43.3357883" lon="11.2800004"><ele>320.0</ele><time>2026-04-04T09:00:31.271Z</time></trkpt><trkpt lat="43.3358522" lon="11.2800059"><ele>319.5</ele><time>2026-04-04T09:00:32.267Z</time></trkpt><trkpt lat="43.3359741" lon="11.2800319"><ele>319.0</ele><time>2026-04-04T09:00:34.268Z</time></trkpt><trkpt lat="43.3360401" lon="11.2800509"><ele>319.0</ele><time>2026-04-04T09:00:35.247Z</time></trkpt><trkpt lat="43.3361088" lon="11.280064"><ele>319.0</ele><time>2026-04-04T09:00:36.269Z</time></trkpt><trkpt lat="43.3361738" lon="11.2800758"><ele>319.0</ele><time>2026-04-04T09:00:37.249Z</time></trkpt><trkpt lat="43.3362917" lon="11.2800967"><ele>319.0</ele><time>2026-04-04T09:00:39.278Z</time></trkpt><trkpt lat="43.3364004" lon="11.2801202"><ele>319.0</ele><time>2026-04-04T09:00:41.252Z</time></trkpt><trkpt lat="43.336502" lon="11.2801458"><ele>319.8333333333333</ele><time>2026-04-04T09:00:43.33Z</time></trkpt><trkpt lat="43.3365916" lon="11.2801687"><ele>320.66666666666663</ele><time>2026-04-04T09:00:45.325Z</time></trkpt><trkpt lat="43.336664" lon="11.2801948"><ele>321.5</ele><time>2026-04-04T09:00:47.268Z</time></trkpt><trkpt lat="43.3367445" lon="11.2802031"><ele>322.3333333333333</ele><time>2026-04-04T09:00:49.337Z</time></trkpt><trkpt lat="43.3368192" lon="11.2802179"><ele>323.1666666666667</ele><time>2026-04-04T09:00:51.28Z</time></trkpt><trkpt lat="43.3369004" lon="11.2802352"><ele>324.0</ele><time>2026-04-04T09:00:53.264Z</time></trkpt><trkpt lat="43.3369723" lon="11.2802492"><ele>324.0</ele><time>2026-04-04T09:00:55.342Z</time></trkpt><trkpt lat="43.3370404" lon="11.2802682"><ele>324.0</ele><time>2026-04-04T09:00:57.241Z</time></trkpt><trkpt lat="43.3371106" lon="11.2802917"><ele>324.0</ele><time>2026-04-04T09:00:59.326Z</time></trkpt><trkpt lat="43.3371799" lon="11.2803098"><ele>324.0</ele><time>2026-04-04T09:01:01.262Z</time></trkpt><trkpt lat="43.3372498" lon="11.2803283"><ele>324.0</ele><time>2026-04-04T09:01:03.332Z</time></trkpt><trkpt lat="43.3373446" lon="11.2803487"><ele>324.0</ele><time>2026-04-04T09:01:06.272Z</time></trkpt><trkpt lat="43.3374083" lon="11.2803694"><ele>324.0</ele><time>2026-04-04T09:01:08.265Z</time></trkpt><trkpt lat="43.3374725" lon="11.2803858"><ele>325.1666666666667</ele><time>2026-04-04T09:01:10.306Z</time></trkpt><trkpt lat="43.3375547" lon="11.2804063"><ele>326.3333333333333</ele><time>2026-04-04T09:01:13.269Z</time></trkpt><trkpt lat="43.3376238" lon="11.2804209"><ele>327.5</ele><time>2026-04-04T09:01:16.264Z</time></trkpt><trkpt lat="43.3377028" lon="11.2804501"><ele>328.66666666666663</ele><time>2026-04-04T09:01:19.275Z</time></trkpt><trkpt lat="43.3377863" lon="11.2804763"><ele>329.8333333333333</ele><time>2026-04-04T09:01:22.272Z</time></trkpt><trkpt lat="43.3378769" lon="11.2805065"><ele>331.0</ele><time>2026-04-04T09:01:25.265Z</time></trkpt><trkpt lat="43.3379566" lon="11.2805546"><ele>330.66666666666663</ele><time>2026-04-04T09:01:28.316Z</time></trkpt><trkpt lat="43.3380065" lon="11.2806106"><ele>330.3333333333333</ele><time>2026-04-04T09:01:30.324Z</time></trkpt><trkpt lat="43.3380724" lon="11.2806881"><ele>330.0</ele><time>2026-04-04T09:01:33.265Z</time></trkpt><trkpt lat="43.3381337" lon="11.2807339"><ele>329.6666666666667</ele><time>2026-04-04T09:01:35.33Z</time></trkpt><trkpt lat="43.33818" lon="11.2808076"><ele>329.33333333333337</ele><time>2026-04-04T09:01:37.268Z</time></trkpt><trkpt lat="43.3382317" lon="11.280892"><ele>329.0</ele><time>2026-04-04T09:01:39.336Z</time></trkpt><trkpt lat="43.3382923" lon="11.2809649"><ele>329.0</ele><time>2026-04-04T09:01:41.251Z</time></trkpt><trkpt lat="43.3383417" lon="11.2810611"><ele>329.0</ele><time>2026-04-04T09:01:43.271Z</time></trkpt><trkpt lat="43.3384056" lon="11.2811467"><ele>329.0</ele><time>2026-04-04T09:01:45.33Z</time></trkpt><trkpt lat="43.3384556" lon="11.2812367"><ele>329.0</ele><time>2026-04-04T09:01:47.274Z</time></trkpt><trkpt lat="43.3385108" lon="11.281316"><ele>329.0</ele><time>2026-04-04T09:01:49.334Z</time></trkpt><trkpt lat="43.3385611" lon="11.2813882"><ele>329.0</ele><time>2026-04-04T09:01:51.278Z</time></trkpt><trkpt lat="43.338602" lon="11.28148"><ele>328.85714285714283</ele><time>2026-04-04T09:01:53.27Z</time></trkpt><trkpt lat="43.3386403" lon="11.2815664"><ele>328.7142857142857</ele><time>2026-04-04T09:01:55.275Z</time></trkpt><trkpt lat="43.3386785" lon="11.2816482"><ele>328.57142857142856</ele><time>2026-04-04T09:01:57.269Z</time></trkpt><trkpt lat="43.3387163" lon="11.28174"><ele>328.42857142857144</ele><time>2026-04-04T09:01:59.265Z</time></trkpt><trkpt lat="43.3387511" lon="11.2818293"><ele>328.2857142857143</ele><time>2026-04-04T09:02:01.259Z</time></trkpt><trkpt lat="43.3387841" lon="11.2819109"><ele>328.1428571428571</ele><time>2026-04-04T09:02:03.263Z</time></trkpt><trkpt lat="43.3388098" lon="11.2819984"><ele>328.0</ele><time>2026-04-04T09:02:05.326Z</time></trkpt><trkpt lat="43.3388376" lon="11.2820814"><ele>327.99999999999994</ele><time>2026-04-04T09:02:07.259Z</time></trkpt><trkpt lat="43.33887" lon="11.2821657"><ele>328.0</ele><time>2026-04-04T09:02:09.25Z</time></trkpt><trkpt lat="43.3388995" lon="11.2822437"><ele>328.0</ele><time>2026-04-04T09:02:11.283Z</time></trkpt><trkpt lat="43.3389312" lon="11.2823284"><ele>328.0</ele><time>2026-04-04T09:02:13.298Z</time></trkpt><trkpt lat="43.3389635" lon="11.2824176"><ele>328.0</ele><time>2026-04-04T09:02:15.326Z</time></trkpt><trkpt lat="43.3389892" lon="11.2825095"><ele>327.99999999999994</ele><time>2026-04-04T09:02:17.267Z</time></trkpt><trkpt lat="43.3390154" lon="11.2826012"><ele>328.0</ele><time>2026-04-04T09:02:19.251Z</time></trkpt><trkpt lat="43.3390359" lon="11.2827048"><ele>328.16666666666663</ele><time>2026-04-04T09:02:21.257Z</time></trkpt><trkpt lat="43.3390857" lon="11.2827825"><ele>328.3333333333333</ele><time>2026-04-04T09:02:23.28Z</time></trkpt><trkpt lat="43.3391246" lon="11.2828559"><ele>328.5</ele><time>2026-04-04T09:02:25.326Z</time></trkpt><trkpt lat="43.3391682" lon="11.2829452"><ele>328.6666666666667</ele><time>2026-04-04T09:02:29.326Z</time></trkpt><trkpt lat="43.3392547" lon="11.2830022"><ele>328.83333333333337</ele><time>2026-04-04T09:02:31.26Z</time></trkpt><trkpt lat="43.339346" lon="11.2830674"><ele>329.0</ele><time>2026-04-04T09:02:33.262Z</time></trkpt><trkpt lat="43.3394254" lon="11.2831243"><ele>329.33333333333337</ele><time>2026-04-04T09:02:35.325Z</time></trkpt><trkpt lat="43.3395054" lon="11.2831703"><ele>329.6666666666667</ele><time>2026-04-04T09:02:37.271Z</time></trkpt><trkpt lat="43.3395889" lon="11.2832208"><ele>330.0</ele><time>2026-04-04T09:02:39.264Z</time></trkpt><trkpt lat="43.3396675" lon="11.283271"><ele>330.3333333333333</ele><time>2026-04-04T09:02:41.259Z</time></trkpt><trkpt lat="43.3397477" lon="11.2833186"><ele>330.66666666666663</ele><time>2026-04-04T09:02:43.266Z</time></trkpt><trkpt lat="43.3398225" lon="11.2833477"><ele>331.0</ele><time>2026-04-04T09:02:45.248Z</time></trkpt><trkpt lat="43.339902" lon="11.2833685"><ele>331.3333333333333</ele><time>2026-04-04T09:02:47.261Z</time></trkpt><trkpt lat="43.3399791" lon="11.2833716"><ele>331.66666666666663</ele><time>2026-04-04T09:02:49.257Z</time></trkpt><trkpt lat="43.3400567" lon="11.283352"><ele>332.0</ele><time>2026-04-04T09:02:51.256Z</time></trkpt><trkpt lat="43.3401408" lon="11.283331"><ele>332.3333333333333</ele><time>2026-04-04T09:02:53.258Z</time></trkpt><trkpt lat="43.3402193" lon="11.2832995"><ele>332.6666666666667</ele><time>2026-04-04T09:02:55.324Z</time></trkpt><trkpt lat="43.340287" lon="11.2832659"><ele>333.0</ele><time>2026-04-04T09:02:57.254Z</time></trkpt><trkpt lat="43.3403547" lon="11.2832254"><ele>333.0</ele><time>2026-04-04T09:02:59.333Z</time></trkpt><trkpt lat="43.3404197" lon="11.2831833"><ele>333.0</ele><time>2026-04-04T09:03:01.266Z</time></trkpt><trkpt lat="43.3404825" lon="11.2831383"><ele>333.0</ele><time>2026-04-04T09:03:03.325Z</time></trkpt><trkpt lat="43.3405422" lon="11.2830768"><ele>333.0</ele><time>2026-04-04T09:03:05.252Z</time></trkpt><trkpt lat="43.340609" lon="11.2830509"><ele>333.0</ele><time>2026-04-04T09:03:07.267Z</time></trkpt><trkpt lat="43.3406854" lon="11.2830404"><ele>333.0</ele><time>2026-04-04T09:03:09.25Z</time></trkpt><trkpt lat="43.3407526" lon="11.2829987"><ele>333.0</ele><time>2026-04-04T09:03:11.257Z</time></trkpt><trkpt lat="43.3408157" lon="11.2829914"><ele>332.5714285714286</ele><time>2026-04-04T09:03:12.267Z</time></trkpt><trkpt lat="43.3408815" lon="11.2829877"><ele>332.1428571428571</ele><time>2026-04-04T09:03:13.321Z</time></trkpt><trkpt lat="43.3409527" lon="11.2829699"><ele>331.7142857142857</ele><time>2026-04-04T09:03:14.247Z</time></trkpt><trkpt lat="43.3410284" lon="11.282951"><ele>331.28571428571433</ele><time>2026-04-04T09:03:15.333Z</time></trkpt><trkpt lat="43.3410951" lon="11.2829407"><ele>330.8571428571429</ele><time>2026-04-04T09:03:16.241Z</time></trkpt><trkpt lat="43.3411625" lon="11.2829259"><ele>330.42857142857144</ele><time>2026-04-04T09:03:17.257Z</time></trkpt><trkpt lat="43.3412286" lon="11.2829126"><ele>330.0</ele><time>2026-04-04T09:03:18.276Z</time></trkpt><trkpt lat="43.3412957" lon="11.2828951"><ele>330.00000000000006</ele><time>2026-04-04T09:03:19.255Z</time></trkpt><trkpt lat="43.3413637" lon="11.2828681"><ele>330.0</ele><time>2026-04-04T09:03:20.261Z</time></trkpt><trkpt lat="43.3414319" lon="11.2828413"><ele>330.0</ele><time>2026-04-04T09:03:21.27Z</time></trkpt><trkpt lat="43.3414992" lon="11.2828151"><ele>330.0</ele><time>2026-04-04T09:03:22.256Z</time></trkpt><trkpt lat="43.3415668" lon="11.2827861"><ele>330.0</ele><time>2026-04-04T09:03:23.258Z</time></trkpt><trkpt lat="43.3416349" lon="11.2827462"><ele>330.00000000000006</ele><time>2026-04-04T09:03:24.325Z</time></trkpt><trkpt lat="43.3416967" lon="11.2827"><ele>330.0</ele><time>2026-04-04T09:03:25.315Z</time></trkpt><trkpt lat="43.341754" lon="11.2826561"><ele>329.6</ele><time>2026-04-04T09:03:26.266Z</time></trkpt><trkpt lat="43.3418085" lon="11.2826061"><ele>329.2</ele><time>2026-04-04T09:03:27.266Z</time></trkpt><trkpt lat="43.3418588" lon="11.2825539"><ele>328.79999999999995</ele><time>2026-04-04T09:03:28.264Z</time></trkpt><trkpt lat="43.3419582" lon="11.2824538"><ele>328.4</ele><time>2026-04-04T09:03:30.249Z</time></trkpt><trkpt lat="43.3420505" lon="11.2823596"><ele>328.0</ele><time>2026-04-04T09:03:32.25Z</time></trkpt><trkpt lat="43.3421355" lon="11.2822752"><ele>327.16666666666663</ele><time>2026-04-04T09:03:34.341Z</time></trkpt><trkpt lat="43.342212" lon="11.2822017"><ele>326.3333333333333</ele><time>2026-04-04T09:03:36.243Z</time></trkpt><trkpt lat="43.3422852" lon="11.2821278"><ele>325.5</ele><time>2026-04-04T09:03:38.302Z</time></trkpt><trkpt lat="43.3423471" lon="11.2820553"><ele>324.6666666666667</ele><time>2026-04-04T09:03:40.252Z</time></trkpt><trkpt lat="43.3424012" lon="11.2819812"><ele>323.83333333333337</ele><time>2026-04-04T09:03:42.261Z</time></trkpt><trkpt lat="43.3424618" lon="11.2819158"><ele>323.0</ele><time>2026-04-04T09:03:44.343Z</time></trkpt><trkpt lat="43.3425202" lon="11.2818328"><ele>324.6666666666667</ele><time>2026-04-04T09:03:47.267Z</time></trkpt><trkpt lat="43.3425664" lon="11.2817565"><ele>326.33333333333337</ele><time>2026-04-04T09:03:49.335Z</time></trkpt><trkpt lat="43.3426238" lon="11.2816742"><ele>328.0</ele><time>2026-04-04T09:03:51.26Z</time></trkpt><trkpt lat="43.3426983" lon="11.2816396"><ele>329.6666666666667</ele><time>2026-04-04T09:03:53.258Z</time></trkpt><trkpt lat="43.3427791" lon="11.2816425"><ele>331.3333333333333</ele><time>2026-04-04T09:03:55.259Z</time></trkpt><trkpt lat="43.3428454" lon="11.2816629"><ele>333.0</ele><time>2026-04-04T09:03:57.266Z</time></trkpt><trkpt lat="43.3429125" lon="11.2817139"><ele>333.0</ele><time>2026-04-04T09:03:59.268Z</time></trkpt><trkpt lat="43.3429664" lon="11.2817761"><ele>333.0</ele><time>2026-04-04T09:04:01.266Z</time></trkpt><trkpt lat="43.3430199" lon="11.2818339"><ele>333.0</ele><time>2026-04-04T09:04:03.328Z</time></trkpt><trkpt lat="43.3430868" lon="11.2819095"><ele>333.0</ele><time>2026-04-04T09:04:06.265Z</time></trkpt><trkpt lat="43.3431374" lon="11.2819721"><ele>333.0</ele><time>2026-04-04T09:04:08.268Z</time></trkpt><trkpt lat="43.343189" lon="11.2820254"><ele>333.0</ele><time>2026-04-04T09:04:10.266Z</time></trkpt><trkpt lat="43.3432376" lon="11.2820811"><ele>333.0</ele><time>2026-04-04T09:04:12.257Z</time></trkpt><trkpt lat="43.3433027" lon="11.2821229"><ele>333.8571428571429</ele><time>2026-04-04T09:04:14.268Z</time></trkpt><trkpt lat="43.3433663" lon="11.2821565"><ele>334.71428571428567</ele><time>2026-04-04T09:04:16.257Z</time></trkpt><trkpt lat="43.3434323" lon="11.2822151"><ele>335.57142857142856</ele><time>2026-04-04T09:04:18.264Z</time></trkpt><trkpt lat="43.3435031" lon="11.2822791"><ele>336.42857142857144</ele><time>2026-04-04T09:04:20.334Z</time></trkpt><trkpt lat="43.3435697" lon="11.2822947"><ele>337.28571428571433</ele><time>2026-04-04T09:04:22.279Z</time></trkpt><trkpt lat="43.3436536" lon="11.2822791"><ele>338.1428571428571</ele><time>2026-04-04T09:04:25.327Z</time></trkpt><trkpt lat="43.343677" lon="11.2821985"><ele>339.0</ele><time>2026-04-04T09:04:27.264Z</time></trkpt><trkpt lat="43.3436694" lon="11.2820788"><ele>339.0</ele><time>2026-04-04T09:04:29.325Z</time></trkpt><trkpt lat="43.3436785" lon="11.2819684"><ele>339.0</ele><time>2026-04-04T09:04:31.253Z</time></trkpt><trkpt lat="43.3437023" lon="11.281859"><ele>339.0</ele><time>2026-04-04T09:04:33.258Z</time></trkpt><trkpt lat="43.3437318" lon="11.2817539"><ele>339.0</ele><time>2026-04-04T09:04:35.326Z</time></trkpt><trkpt lat="43.3437579" lon="11.2816298"><ele>339.0</ele><time>2026-04-04T09:04:37.257Z</time></trkpt><trkpt lat="43.3437954" lon="11.2815211"><ele>339.0</ele><time>2026-04-04T09:04:39.244Z</time></trkpt><trkpt lat="43.3438484" lon="11.2814172"><ele>338.8333333333333</ele><time>2026-04-04T09:04:41.258Z</time></trkpt><trkpt lat="43.3439164" lon="11.281332"><ele>338.6666666666667</ele><time>2026-04-04T09:04:43.265Z</time></trkpt><trkpt lat="43.3439946" lon="11.2812659"><ele>338.5</ele><time>2026-04-04T09:04:45.26Z</time></trkpt><trkpt lat="43.3440709" lon="11.2812066"><ele>338.33333333333337</ele><time>2026-04-04T09:04:47.243Z</time></trkpt><trkpt lat="43.3441492" lon="11.281149"><ele>338.1666666666667</ele><time>2026-04-04T09:04:49.299Z</time></trkpt><trkpt lat="43.3442277" lon="11.2810927"><ele>338.0</ele><time>2026-04-04T09:04:51.269Z</time></trkpt><trkpt lat="43.3443064" lon="11.2810413"><ele>338.0</ele><time>2026-04-04T09:04:53.257Z</time></trkpt><trkpt lat="43.3443885" lon="11.2809919"><ele>338.0</ele><time>2026-04-04T09:04:55.258Z</time></trkpt><trkpt lat="43.3444673" lon="11.2809405"><ele>338.0</ele><time>2026-04-04T09:04:57.269Z</time></trkpt><trkpt lat="43.3445461" lon="11.2808934"><ele>338.0</ele><time>2026-04-04T09:04:59.252Z</time></trkpt><trkpt lat="43.3446467" lon="11.2808491"><ele>338.0</ele><time>2026-04-04T09:05:01.242Z</time></trkpt><trkpt lat="43.3447215" lon="11.2807859"><ele>338.6666666666667</ele><time>2026-04-04T09:05:03.257Z</time></trkpt><trkpt lat="43.344796" lon="11.2807382"><ele>339.33333333333337</ele><time>2026-04-04T09:05:05.322Z</time></trkpt><trkpt lat="43.3448777" lon="11.2806744"><ele>340.0</ele><time>2026-04-04T09:05:07.274Z</time></trkpt><trkpt lat="43.3449292" lon="11.2806166"><ele>340.6666666666667</ele><time>2026-04-04T09:05:09.334Z</time></trkpt><trkpt lat="43.3449949" lon="11.2805519"><ele>341.3333333333333</ele><time>2026-04-04T09:05:11.245Z</time></trkpt><trkpt lat="43.3450659" lon="11.2804759"><ele>342.0</ele><time>2026-04-04T09:05:14.253Z</time></trkpt><trkpt lat="43.3451306" lon="11.2804308"><ele>341.99999999999994</ele><time>2026-04-04T09:05:16.251Z</time></trkpt><trkpt lat="43.3451911" lon="11.280367"><ele>342.0</ele><time>2026-04-04T09:05:18.26Z</time></trkpt><trkpt lat="43.3452429" lon="11.2803173"><ele>342.0</ele><time>2026-04-04T09:05:20.259Z</time></trkpt><trkpt lat="43.3452923" lon="11.2802592"><ele>342.0</ele><time>2026-04-04T09:05:22.256Z</time></trkpt><trkpt lat="43.3453469" lon="11.280202"><ele>342.0</ele><time>2026-04-04T09:05:24.268Z</time></trkpt><trkpt lat="43.3453999" lon="11.2801541"><ele>341.99999999999994</ele><time>2026-04-04T09:05:26.269Z</time></trkpt><trkpt lat="43.3454571" lon="11.2800986"><ele>342.0</ele><time>2026-04-04T09:05:28.257Z</time></trkpt><trkpt lat="43.3455181" lon="11.2800456"><ele>342.5</ele><time>2026-04-04T09:05:30.27Z</time></trkpt><trkpt lat="43.3455888" lon="11.2800037"><ele>343.0</ele><time>2026-04-04T09:05:32.251Z</time></trkpt><trkpt lat="43.3456757" lon="11.2799699"><ele>343.5</ele><time>2026-04-04T09:05:34.332Z</time></trkpt><trkpt lat="43.3457612" lon="11.2799522"><ele>344.0</ele><time>2026-04-04T09:05:36.255Z</time></trkpt><trkpt lat="43.3458745" lon="11.279967"><ele>344.5</ele><time>2026-04-04T09:05:38.269Z</time></trkpt><trkpt lat="43.345938" lon="11.2799715"><ele>345.0</ele><time>2026-04-04T09:05:39.262Z</time></trkpt><trkpt lat="43.3460652" lon="11.2799677"><ele>345.0</ele><time>2026-04-04T09:05:41.243Z</time></trkpt><trkpt lat="43.3461353" lon="11.2799557"><ele>345.0</ele><time>2026-04-04T09:05:42.244Z</time></trkpt><trkpt lat="43.3462062" lon="11.2799367"><ele>345.0</ele><time>2026-04-04T09:05:43.328Z</time></trkpt><trkpt lat="43.3462719" lon="11.2799171"><ele>345.0</ele><time>2026-04-04T09:05:44.3Z</time></trkpt><trkpt lat="43.34634" lon="11.2798823"><ele>345.0</ele><time>2026-04-04T09:05:45.331Z</time></trkpt><trkpt lat="43.3464012" lon="11.2798372"><ele>345.0</ele><time>2026-04-04T09:05:46.257Z</time></trkpt><trkpt lat="43.3464653" lon="11.2797643"><ele>345.0</ele><time>2026-04-04T09:05:47.266Z</time></trkpt><trkpt lat="43.3465306" lon="11.279696"><ele>343.2</ele><time>2026-04-04T09:05:48.264Z</time></trkpt><trkpt lat="43.3465991" lon="11.2796251"><ele>341.4</ele><time>2026-04-04T09:05:49.34Z</time></trkpt><trkpt lat="43.3467263" lon="11.2794994"><ele>339.6</ele><time>2026-04-04T09:05:51.254Z</time></trkpt><trkpt lat="43.3467968" lon="11.2794353"><ele>337.8</ele><time>2026-04-04T09:05:52.253Z</time></trkpt><trkpt lat="43.346865" lon="11.2793799"><ele>336.0</ele><time>2026-04-04T09:05:53.261Z</time></trkpt><trkpt lat="43.346929" lon="11.2793251"><ele>336.0</ele><time>2026-04-04T09:05:54.267Z</time></trkpt><trkpt lat="43.3469895" lon="11.2792613"><ele>336.0</ele><time>2026-04-04T09:05:55.266Z</time></trkpt><trkpt lat="43.347046" lon="11.2791897"><ele>336.0</ele><time>2026-04-04T09:05:56.257Z</time></trkpt><trkpt lat="43.3470975" lon="11.2791141"><ele>336.0</ele><time>2026-04-04T09:05:57.273Z</time></trkpt><trkpt lat="43.3471433" lon="11.2790418"><ele>336.0</ele><time>2026-04-04T09:05:58.251Z</time></trkpt><trkpt lat="43.3471889" lon="11.2789669"><ele>336.0</ele><time>2026-04-04T09:05:59.245Z</time></trkpt><trkpt lat="43.3472322" lon="11.2788973"><ele>336.0</ele><time>2026-04-04T09:06:00.247Z</time></trkpt><trkpt lat="43.3472772" lon="11.2788301"><ele>335.14285714285717</ele><time>2026-04-04T09:06:01.255Z</time></trkpt><trkpt lat="43.347318" lon="11.2787619"><ele>334.2857142857143</ele><time>2026-04-04T09:06:02.258Z</time></trkpt><trkpt lat="43.3473633" lon="11.2786946"><ele>333.42857142857144</ele><time>2026-04-04T09:06:03.259Z</time></trkpt><trkpt lat="43.3474098" lon="11.2786259"><ele>332.57142857142856</ele><time>2026-04-04T09:06:04.266Z</time></trkpt><trkpt lat="43.3474553" lon="11.2785563"><ele>331.7142857142857</ele><time>2026-04-04T09:06:05.259Z</time></trkpt><trkpt lat="43.3475048" lon="11.2784792"><ele>330.8571428571429</ele><time>2026-04-04T09:06:06.273Z</time></trkpt><trkpt lat="43.3475593" lon="11.2783964"><ele>330.0</ele><time>2026-04-04T09:06:07.276Z</time></trkpt><trkpt lat="43.3476159" lon="11.2783108"><ele>330.0</ele><time>2026-04-04T09:06:08.268Z</time></trkpt><trkpt lat="43.3476752" lon="11.2782178"><ele>330.0</ele><time>2026-04-04T09:06:09.253Z</time></trkpt><trkpt lat="43.3477427" lon="11.2781209"><ele>330.0</ele><time>2026-04-04T09:06:10.264Z</time></trkpt><trkpt lat="43.3478121" lon="11.2780186"><ele>330.0</ele><time>2026-04-04T09:06:11.264Z</time></trkpt><trkpt lat="43.3478824" lon="11.2779121"><ele>330.0</ele><time>2026-04-04T09:06:12.259Z</time></trkpt><trkpt lat="43.3479525" lon="11.2778072"><ele>329.2</ele><time>2026-04-04T09:06:13.274Z</time></trkpt><trkpt lat="43.3480201" lon="11.2777005"><ele>328.4</ele><time>2026-04-04T09:06:14.257Z</time></trkpt><trkpt lat="43.3480871" lon="11.2775915"><ele>327.6</ele><time>2026-04-04T09:06:15.271Z</time></trkpt><trkpt lat="43.3481523" lon="11.2774815"><ele>326.8</ele><time>2026-04-04T09:06:16.266Z</time></trkpt><trkpt lat="43.3482164" lon="11.2773671"><ele>326.0</ele><time>2026-04-04T09:06:17.261Z</time></trkpt><trkpt lat="43.3482776" lon="11.2772572"><ele>325.0</ele><time>2026-04-04T09:06:18.241Z</time></trkpt><trkpt lat="43.3483401" lon="11.2771446"><ele>324.0</ele><time>2026-04-04T09:06:19.268Z</time></trkpt><trkpt lat="43.3483998" lon="11.2770351"><ele>323.0</ele><time>2026-04-04T09:06:20.326Z</time></trkpt><trkpt lat="43.3484539" lon="11.2769318"><ele>322.0</ele><time>2026-04-04T09:06:21.249Z</time></trkpt><trkpt lat="43.348511" lon="11.2768156"><ele>321.0</ele><time>2026-04-04T09:06:22.259Z</time></trkpt><trkpt lat="43.3485716" lon="11.2766998"><ele>321.0</ele><time>2026-04-04T09:06:23.246Z</time></trkpt><trkpt lat="43.3486289" lon="11.2765825"><ele>321.0</ele><time>2026-04-04T09:06:24.337Z</time></trkpt><trkpt lat="43.3486805" lon="11.2764667"><ele>321.0</ele><time>2026-04-04T09:06:25.323Z</time></trkpt><trkpt lat="43.3487278" lon="11.2763588"><ele>321.0</ele><time>2026-04-04T09:06:26.238Z</time></trkpt><trkpt lat="43.3487662" lon="11.2762307"><ele>321.0</ele><time>2026-04-04T09:06:27.266Z</time></trkpt><trkpt lat="43.348813" lon="11.2761114"><ele>321.0</ele><time>2026-04-04T09:06:28.266Z</time></trkpt><trkpt lat="43.3488574" lon="11.275993"><ele>321.0</ele><time>2026-04-04T09:06:29.33Z</time></trkpt><trkpt lat="43.3489002" lon="11.2758845"><ele>321.0</ele><time>2026-04-04T09:06:30.322Z</time></trkpt><trkpt lat="43.3489528" lon="11.2757812"><ele>321.0</ele><time>2026-04-04T09:06:31.262Z</time></trkpt><trkpt lat="43.3489941" lon="11.2756827"><ele>321.0</ele><time>2026-04-04T09:06:32.272Z</time></trkpt><trkpt lat="43.3490044" lon="11.2755882"><ele>321.0</ele><time>2026-04-04T09:06:33.257Z</time></trkpt><trkpt lat="43.3489851" lon="11.2755019"><ele>321.0</ele><time>2026-04-04T09:06:34.319Z</time></trkpt><trkpt lat="43.3489459" lon="11.2754034"><ele>321.0</ele><time>2026-04-04T09:06:35.337Z</time></trkpt><trkpt lat="43.348878" lon="11.2750842"><ele>321.0</ele><time>2026-04-04T09:06:38.252Z</time></trkpt><trkpt lat="43.3488702" lon="11.274973"><ele>321.0</ele><time>2026-04-04T09:06:39.265Z</time></trkpt><trkpt lat="43.3488364" lon="11.2748553"><ele>319.6</ele><time>2026-04-04T09:06:40.341Z</time></trkpt><trkpt lat="43.3487966" lon="11.2747461"><ele>318.20000000000005</ele><time>2026-04-04T09:06:41.27Z</time></trkpt><trkpt lat="43.3487479" lon="11.2746447"><ele>316.79999999999995</ele><time>2026-04-04T09:06:42.257Z</time></trkpt><trkpt lat="43.3486845" lon="11.2745483"><ele>315.4</ele><time>2026-04-04T09:06:43.275Z</time></trkpt><trkpt lat="43.3486187" lon="11.2744547"><ele>314.0</ele><time>2026-04-04T09:06:44.269Z</time></trkpt><trkpt lat="43.3485533" lon="11.2743622"><ele>314.0</ele><time>2026-04-04T09:06:45.272Z</time></trkpt><trkpt lat="43.3484891" lon="11.2742693"><ele>314.0</ele><time>2026-04-04T09:06:46.259Z</time></trkpt><trkpt lat="43.3484237" lon="11.2741759"><ele>314.0</ele><time>2026-04-04T09:06:47.243Z</time></trkpt><trkpt lat="43.3483574" lon="11.2740859"><ele>314.0</ele><time>2026-04-04T09:06:48.27Z</time></trkpt><trkpt lat="43.3482904" lon="11.2739915"><ele>314.0</ele><time>2026-04-04T09:06:49.298Z</time></trkpt><trkpt lat="43.3482275" lon="11.2738964"><ele>313.4</ele><time>2026-04-04T09:06:50.274Z</time></trkpt><trkpt lat="43.3481683" lon="11.2737979"><ele>312.79999999999995</ele><time>2026-04-04T09:06:51.265Z</time></trkpt><trkpt lat="43.3481199" lon="11.273686"><ele>312.20000000000005</ele><time>2026-04-04T09:06:52.268Z</time></trkpt><trkpt lat="43.3481021" lon="11.2735555"><ele>311.6</ele><time>2026-04-04T09:06:53.267Z</time></trkpt><trkpt lat="43.3481097" lon="11.2734181"><ele>311.0</ele><time>2026-04-04T09:06:54.242Z</time></trkpt><trkpt lat="43.3481488" lon="11.2732875"><ele>311.0</ele><time>2026-04-04T09:06:55.258Z</time></trkpt><trkpt lat="43.348219" lon="11.2731892"><ele>311.0</ele><time>2026-04-04T09:06:56.277Z</time></trkpt><trkpt lat="43.3483115" lon="11.2731249"><ele>311.0</ele><time>2026-04-04T09:06:57.264Z</time></trkpt><trkpt lat="43.3484135" lon="11.2730748"><ele>311.0</ele><time>2026-04-04T09:06:58.262Z</time></trkpt><trkpt lat="43.3485167" lon="11.2730291"><ele>311.0</ele><time>2026-04-04T09:06:59.259Z</time></trkpt><trkpt lat="43.3486136" lon="11.2729661"><ele>310.0</ele><time>2026-04-04T09:07:00.265Z</time></trkpt><trkpt lat="43.3487007" lon="11.272876"><ele>309.0</ele><time>2026-04-04T09:07:01.273Z</time></trkpt><trkpt lat="43.3487683" lon="11.2727658"><ele>308.0</ele><time>2026-04-04T09:07:02.259Z</time></trkpt><trkpt lat="43.348816" lon="11.2726388"><ele>307.0</ele><time>2026-04-04T09:07:03.261Z</time></trkpt><trkpt lat="43.3488485" lon="11.2725"><ele>306.0</ele><time>2026-04-04T09:07:04.269Z</time></trkpt><trkpt lat="43.3488747" lon="11.2723617"><ele>305.40000000000003</ele><time>2026-04-04T09:07:05.275Z</time></trkpt><trkpt lat="43.3489056" lon="11.2722241"><ele>304.8</ele><time>2026-04-04T09:07:06.241Z</time></trkpt><trkpt lat="43.3489459" lon="11.2720835"><ele>304.20000000000005</ele><time>2026-04-04T09:07:07.25Z</time></trkpt><trkpt lat="43.348993" lon="11.2719519"><ele>303.6</ele><time>2026-04-04T09:07:08.254Z</time></trkpt><trkpt lat="43.3490427" lon="11.2718236"><ele>303.0</ele><time>2026-04-04T09:07:09.243Z</time></trkpt><trkpt lat="43.3490927" lon="11.2716902"><ele>303.0</ele><time>2026-04-04T09:07:10.245Z</time></trkpt><trkpt lat="43.3491429" lon="11.2715555"><ele>303.0</ele><time>2026-04-04T09:07:11.259Z</time></trkpt><trkpt lat="43.3491896" lon="11.2714186"><ele>303.0</ele><time>2026-04-04T09:07:12.262Z</time></trkpt><trkpt lat="43.3492235" lon="11.2712737"><ele>303.0</ele><time>2026-04-04T09:07:13.266Z</time></trkpt><trkpt lat="43.3492411" lon="11.2711263"><ele>303.0</ele><time>2026-04-04T09:07:14.265Z</time></trkpt><trkpt lat="43.3492476" lon="11.2709744"><ele>302.0</ele><time>2026-04-04T09:07:15.262Z</time></trkpt><trkpt lat="43.3492476" lon="11.270819"><ele>301.0</ele><time>2026-04-04T09:07:16.266Z</time></trkpt><trkpt lat="43.3492377" lon="11.270668"><ele>300.0</ele><time>2026-04-04T09:07:17.264Z</time></trkpt><trkpt lat="43.3492302" lon="11.2705224"><ele>299.0</ele><time>2026-04-04T09:07:18.264Z</time></trkpt><trkpt lat="43.3492331" lon="11.2703827"><ele>298.0</ele><time>2026-04-04T09:07:19.266Z</time></trkpt><trkpt lat="43.3492611" lon="11.2702588"><ele>297.2</ele><time>2026-04-04T09:07:20.264Z</time></trkpt><trkpt lat="43.3493267" lon="11.2701632"><ele>296.4</ele><time>2026-04-04T09:07:21.255Z</time></trkpt><trkpt lat="43.3494261" lon="11.2701193"><ele>295.59999999999997</ele><time>2026-04-04T09:07:22.261Z</time></trkpt><trkpt lat="43.3495405" lon="11.2701276"><ele>294.8</ele><time>2026-04-04T09:07:23.266Z</time></trkpt><trkpt lat="43.3496461" lon="11.2701718"><ele>294.0</ele><time>2026-04-04T09:07:24.262Z</time></trkpt><trkpt lat="43.3497483" lon="11.2702404"><ele>293.4</ele><time>2026-04-04T09:07:25.265Z</time></trkpt><trkpt lat="43.3498469" lon="11.2703148"><ele>292.79999999999995</ele><time>2026-04-04T09:07:26.268Z</time></trkpt><trkpt lat="43.349945" lon="11.2703743"><ele>292.20000000000005</ele><time>2026-04-04T09:07:27.258Z</time></trkpt><trkpt lat="43.3500404" lon="11.270418"><ele>291.6</ele><time>2026-04-04T09:07:28.272Z</time></trkpt><trkpt lat="43.3501368" lon="11.2704503"><ele>291.0</ele><time>2026-04-04T09:07:29.257Z</time></trkpt><trkpt lat="43.350235" lon="11.2704632"><ele>291.0</ele><time>2026-04-04T09:07:30.265Z</time></trkpt><trkpt lat="43.350338" lon="11.2704524"><ele>291.0</ele><time>2026-04-04T09:07:31.258Z</time></trkpt><trkpt lat="43.3504415" lon="11.2704317"><ele>291.0</ele><time>2026-04-04T09:07:32.27Z</time></trkpt><trkpt lat="43.3505459" lon="11.2704108"><ele>291.0</ele><time>2026-04-04T09:07:33.259Z</time></trkpt><trkpt lat="43.3506494" lon="11.2703946"><ele>291.0</ele><time>2026-04-04T09:07:34.258Z</time></trkpt><trkpt lat="43.350754" lon="11.2703813"><ele>290.0</ele><time>2026-04-04T09:07:35.26Z</time></trkpt><trkpt lat="43.3508639" lon="11.2703684"><ele>289.0</ele><time>2026-04-04T09:07:36.263Z</time></trkpt><trkpt lat="43.3509782" lon="11.2703557"><ele>288.0</ele><time>2026-04-04T09:07:37.276Z</time></trkpt><trkpt lat="43.3510891" lon="11.2703456"><ele>287.0</ele><time>2026-04-04T09:07:38.259Z</time></trkpt><trkpt lat="43.3511979" lon="11.2703338"><ele>286.0</ele><time>2026-04-04T09:07:39.26Z</time></trkpt><trkpt lat="43.3513092" lon="11.2703189"><ele>285.8</ele><time>2026-04-04T09:07:40.269Z</time></trkpt><trkpt lat="43.3514218" lon="11.2703055"><ele>285.6</ele><time>2026-04-04T09:07:41.279Z</time></trkpt><trkpt lat="43.3515333" lon="11.2702949"><ele>285.4</ele><time>2026-04-04T09:07:42.267Z</time></trkpt><trkpt lat="43.3516434" lon="11.2702814"><ele>285.2</ele><time>2026-04-04T09:07:43.251Z</time></trkpt><trkpt lat="43.3517526" lon="11.2702624"><ele>285.0</ele><time>2026-04-04T09:07:44.266Z</time></trkpt><trkpt lat="43.3518594" lon="11.2702283"><ele>285.0</ele><time>2026-04-04T09:07:45.268Z</time></trkpt><trkpt lat="43.3519547" lon="11.2701512"><ele>285.0</ele><time>2026-04-04T09:07:46.263Z</time></trkpt><trkpt lat="43.3520243" lon="11.270034"><ele>285.0</ele><time>2026-04-04T09:07:47.265Z</time></trkpt><trkpt lat="43.3520743" lon="11.269901"><ele>285.0</ele><time>2026-04-04T09:07:48.245Z</time></trkpt><trkpt lat="43.3520852" lon="11.2697525"><ele>285.0</ele><time>2026-04-04T09:07:49.265Z</time></trkpt><trkpt lat="43.3520762" lon="11.2696037"><ele>284.2</ele><time>2026-04-04T09:07:50.268Z</time></trkpt><trkpt lat="43.35206" lon="11.2694561"><ele>283.4</ele><time>2026-04-04T09:07:51.26Z</time></trkpt><trkpt lat="43.3520376" lon="11.2693131"><ele>282.6</ele><time>2026-04-04T09:07:52.258Z</time></trkpt><trkpt lat="43.3520118" lon="11.2691709"><ele>281.8</ele><time>2026-04-04T09:07:53.282Z</time></trkpt><trkpt lat="43.3519861" lon="11.2690303"><ele>281.0</ele><time>2026-04-04T09:07:54.268Z</time></trkpt><trkpt lat="43.3519589" lon="11.2688878"><ele>280.40000000000003</ele><time>2026-04-04T09:07:55.259Z</time></trkpt><trkpt lat="43.3519362" lon="11.2687394"><ele>279.8</ele><time>2026-04-04T09:07:56.265Z</time></trkpt><trkpt lat="43.3519319" lon="11.2685857"><ele>279.20000000000005</ele><time>2026-04-04T09:07:57.258Z</time></trkpt><trkpt lat="43.3519436" lon="11.2684337"><ele>278.6</ele><time>2026-04-04T09:07:58.261Z</time></trkpt><trkpt lat="43.3519691" lon="11.2682923"><ele>278.0</ele><time>2026-04-04T09:07:59.276Z</time></trkpt><trkpt lat="43.3520017" lon="11.2681517"><ele>277.2</ele><time>2026-04-04T09:08:00.268Z</time></trkpt><trkpt lat="43.3520358" lon="11.2680137"><ele>276.4</ele><time>2026-04-04T09:08:01.265Z</time></trkpt><trkpt lat="43.3520683" lon="11.2678802"><ele>275.59999999999997</ele><time>2026-04-04T09:08:02.265Z</time></trkpt><trkpt lat="43.3521009" lon="11.2677527"><ele>274.8</ele><time>2026-04-04T09:08:03.267Z</time></trkpt><trkpt lat="43.3521331" lon="11.2676304"><ele>274.0</ele><time>2026-04-04T09:08:04.27Z</time></trkpt><trkpt lat="43.352166" lon="11.2675156"><ele>274.0</ele><time>2026-04-04T09:08:05.261Z</time></trkpt><trkpt lat="43.3522008" lon="11.2674077"><ele>274.0</ele><time>2026-04-04T09:08:06.266Z</time></trkpt><trkpt lat="43.3522323" lon="11.2673046"><ele>274.0</ele><time>2026-04-04T09:08:07.24Z</time></trkpt><trkpt lat="43.3522612" lon="11.2672041"><ele>274.0</ele><time>2026-04-04T09:08:08.27Z</time></trkpt><trkpt lat="43.3522892" lon="11.2671055"><ele>274.0</ele><time>2026-04-04T09:08:09.27Z</time></trkpt><trkpt lat="43.352316" lon="11.2670097"><ele>274.0</ele><time>2026-04-04T09:08:10.255Z</time></trkpt><trkpt lat="43.3523416" lon="11.2669121"><ele>274.28571428571433</ele><time>2026-04-04T09:08:11.264Z</time></trkpt><trkpt lat="43.3523683" lon="11.2668176"><ele>274.57142857142856</ele><time>2026-04-04T09:08:12.269Z</time></trkpt><trkpt lat="43.3523956" lon="11.2667269"><ele>274.8571428571429</ele><time>2026-04-04T09:08:13.264Z</time></trkpt><trkpt lat="43.3524199" lon="11.2666405"><ele>275.14285714285717</ele><time>2026-04-04T09:08:14.25Z</time></trkpt><trkpt lat="43.3524444" lon="11.2665575"><ele>275.42857142857144</ele><time>2026-04-04T09:08:15.25Z</time></trkpt><trkpt lat="43.3524678" lon="11.2664757"><ele>275.7142857142857</ele><time>2026-04-04T09:08:16.254Z</time></trkpt><trkpt lat="43.3524883" lon="11.2663914"><ele>276.0</ele><time>2026-04-04T09:08:17.262Z</time></trkpt><trkpt lat="43.3525263" lon="11.2662329"><ele>276.0</ele><time>2026-04-04T09:08:19.255Z</time></trkpt><trkpt lat="43.3525639" lon="11.2660762"><ele>276.0</ele><time>2026-04-04T09:08:21.268Z</time></trkpt><trkpt lat="43.352597" lon="11.2659216"><ele>276.0</ele><time>2026-04-04T09:08:23.249Z</time></trkpt><trkpt lat="43.3526308" lon="11.2657791"><ele>276.0</ele><time>2026-04-04T09:08:25.248Z</time></trkpt><trkpt lat="43.3526657" lon="11.2656456"><ele>276.0</ele><time>2026-04-04T09:08:27.252Z</time></trkpt><trkpt lat="43.3526962" lon="11.2655214"><ele>275.40000000000003</ele><time>2026-04-04T09:08:29.321Z</time></trkpt><trkpt lat="43.3527184" lon="11.2653895"><ele>274.8</ele><time>2026-04-04T09:08:31.262Z</time></trkpt><trkpt lat="43.352755" lon="11.2652555"><ele>274.20000000000005</ele><time>2026-04-04T09:08:33.256Z</time></trkpt><trkpt lat="43.3528242" lon="11.2651425"><ele>273.6</ele><time>2026-04-04T09:08:35.26Z</time></trkpt><trkpt lat="43.3528773" lon="11.2650654"><ele>273.0</ele><time>2026-04-04T09:08:36.268Z</time></trkpt><trkpt lat="43.3529131" lon="11.2649861"><ele>273.0</ele><time>2026-04-04T09:08:37.256Z</time></trkpt><trkpt lat="43.3529377" lon="11.2649023"><ele>273.0</ele><time>2026-04-04T09:08:38.267Z</time></trkpt><trkpt lat="43.3529649" lon="11.264824"><ele>273.0</ele><time>2026-04-04T09:08:39.256Z</time></trkpt><trkpt lat="43.3529994" lon="11.2647452"><ele>273.0</ele><time>2026-04-04T09:08:40.337Z</time></trkpt><trkpt lat="43.3530656" lon="11.2646071"><ele>273.0</ele><time>2026-04-04T09:08:42.263Z</time></trkpt><trkpt lat="43.3531335" lon="11.2644649"><ele>273.0</ele><time>2026-04-04T09:08:44.25Z</time></trkpt><trkpt lat="43.3531995" lon="11.2643154"><ele>272.6</ele><time>2026-04-04T09:08:46.234Z</time></trkpt><trkpt lat="43.3532336" lon="11.2642385"><ele>272.20000000000005</ele><time>2026-04-04T09:08:47.256Z</time></trkpt><trkpt lat="43.3533065" lon="11.2641042"><ele>271.8</ele><time>2026-04-04T09:08:49.331Z</time></trkpt><trkpt lat="43.353367" lon="11.263968"><ele>271.40000000000003</ele><time>2026-04-04T09:08:51.336Z</time></trkpt><trkpt lat="43.3534231" lon="11.263847"><ele>271.0</ele><time>2026-04-04T09:08:53.249Z</time></trkpt><trkpt lat="43.3535016" lon="11.263724"><ele>271.0</ele><time>2026-04-04T09:08:55.26Z</time></trkpt><trkpt lat="43.3535546" lon="11.2636621"><ele>271.0</ele><time>2026-04-04T09:08:56.321Z</time></trkpt><trkpt lat="43.3536113" lon="11.2636126"><ele>271.0</ele><time>2026-04-04T09:08:57.261Z</time></trkpt><trkpt lat="43.3536688" lon="11.2635697"><ele>271.0</ele><time>2026-04-04T09:08:58.259Z</time></trkpt><trkpt lat="43.3537236" lon="11.2635174"><ele>271.0</ele><time>2026-04-04T09:08:59.325Z</time></trkpt><trkpt lat="43.3538436" lon="11.2634575"><ele>271.0</ele><time>2026-04-04T09:09:01.325Z</time></trkpt><trkpt lat="43.3539032" lon="11.263421"><ele>270.6</ele><time>2026-04-04T09:09:02.264Z</time></trkpt><trkpt lat="43.3540048" lon="11.2633562"><ele>270.20000000000005</ele><time>2026-04-04T09:09:04.342Z</time></trkpt><trkpt lat="43.3540874" lon="11.2633053"><ele>269.79999999999995</ele><time>2026-04-04T09:09:06.247Z</time></trkpt><trkpt lat="43.35415" lon="11.2632533"><ele>269.4</ele><time>2026-04-04T09:09:08.25Z</time></trkpt><trkpt lat="43.3542176" lon="11.2631896"><ele>269.0</ele><time>2026-04-04T09:09:10.235Z</time></trkpt><trkpt lat="43.354319" lon="11.2631135"><ele>269.0</ele><time>2026-04-04T09:09:12.249Z</time></trkpt><trkpt lat="43.354371" lon="11.2630593"><ele>269.0</ele><time>2026-04-04T09:09:13.265Z</time></trkpt><trkpt lat="43.3544667" lon="11.2629781"><ele>269.0</ele><time>2026-04-04T09:09:15.327Z</time></trkpt><trkpt lat="43.3545506" lon="11.262914"><ele>269.0</ele><time>2026-04-04T09:09:17.27Z</time></trkpt><trkpt lat="43.3546524" lon="11.2628624"><ele>269.0</ele><time>2026-04-04T09:09:19.264Z</time></trkpt><trkpt lat="43.3547479" lon="11.2628249"><ele>269.59999999999997</ele><time>2026-04-04T09:09:21.249Z</time></trkpt><trkpt lat="43.3548413" lon="11.2627868"><ele>270.2</ele><time>2026-04-04T09:09:23.253Z</time></trkpt><trkpt lat="43.3549321" lon="11.2627445"><ele>270.79999999999995</ele><time>2026-04-04T09:09:25.316Z</time></trkpt><trkpt lat="43.3550239" lon="11.2627098"><ele>271.4</ele><time>2026-04-04T09:09:27.256Z</time></trkpt><trkpt lat="43.3551231" lon="11.2626707"><ele>272.0</ele><time>2026-04-04T09:09:29.327Z</time></trkpt><trkpt lat="43.3552363" lon="11.262636"><ele>272.0</ele><time>2026-04-04T09:09:31.268Z</time></trkpt><trkpt lat="43.3553361" lon="11.262587"><ele>272.0</ele><time>2026-04-04T09:09:33.26Z</time></trkpt><trkpt lat="43.3554237" lon="11.2625707"><ele>272.0</ele><time>2026-04-04T09:09:35.322Z</time></trkpt><trkpt lat="43.3555153" lon="11.2625426"><ele>272.0</ele><time>2026-04-04T09:09:37.258Z</time></trkpt><trkpt lat="43.3556194" lon="11.2625277"><ele>272.0</ele><time>2026-04-04T09:09:39.337Z</time></trkpt><trkpt lat="43.355764" lon="11.2625252"><ele>272.0</ele><time>2026-04-04T09:09:42.253Z</time></trkpt><trkpt lat="43.3558663" lon="11.2625154"><ele>272.0</ele><time>2026-04-04T09:09:44.255Z</time></trkpt><trkpt lat="43.3559733" lon="11.2624922"><ele>272.0</ele><time>2026-04-04T09:09:46.249Z</time></trkpt><trkpt lat="43.3560841" lon="11.2624766"><ele>272.0</ele><time>2026-04-04T09:09:48.247Z</time></trkpt><trkpt lat="43.3561923" lon="11.2624629"><ele>272.0</ele><time>2026-04-04T09:09:50.253Z</time></trkpt><trkpt lat="43.3562993" lon="11.2624464"><ele>272.8</ele><time>2026-04-04T09:09:52.24Z</time></trkpt><trkpt lat="43.3564086" lon="11.2624294"><ele>273.6</ele><time>2026-04-04T09:09:54.263Z</time></trkpt><trkpt lat="43.3565135" lon="11.2624008"><ele>274.40000000000003</ele><time>2026-04-04T09:09:56.264Z</time></trkpt><trkpt lat="43.3566082" lon="11.2623646"><ele>275.2</ele><time>2026-04-04T09:09:58.266Z</time></trkpt><trkpt lat="43.3566966" lon="11.2623188"><ele>276.0</ele><time>2026-04-04T09:10:00.253Z</time></trkpt><trkpt lat="43.3567816" lon="11.2622671"><ele>275.1666666666667</ele><time>2026-04-04T09:10:02.271Z</time></trkpt><trkpt lat="43.3568663" lon="11.262211"><ele>274.3333333333333</ele><time>2026-04-04T09:10:04.25Z</time></trkpt><trkpt lat="43.3569424" lon="11.2621536"><ele>273.5</ele><time>2026-04-04T09:10:06.325Z</time></trkpt><trkpt lat="43.3570149" lon="11.2621011"><ele>272.66666666666663</ele><time>2026-04-04T09:10:08.265Z</time></trkpt><trkpt lat="43.3570829" lon="11.2620391"><ele>271.8333333333333</ele><time>2026-04-04T09:10:10.326Z</time></trkpt><trkpt lat="43.3571467" lon="11.2619814"><ele>271.0</ele><time>2026-04-04T09:10:12.275Z</time></trkpt><trkpt lat="43.3572349" lon="11.2618777"><ele>271.0</ele><time>2026-04-04T09:10:14.323Z</time></trkpt><trkpt lat="43.3573193" lon="11.261786"><ele>271.0</ele><time>2026-04-04T09:10:16.237Z</time></trkpt><trkpt lat="43.3574015" lon="11.2617007"><ele>271.0</ele><time>2026-04-04T09:10:18.266Z</time></trkpt><trkpt lat="43.3574758" lon="11.2616186"><ele>271.0</ele><time>2026-04-04T09:10:20.325Z</time></trkpt><trkpt lat="43.3575543" lon="11.2615404"><ele>271.0</ele><time>2026-04-04T09:10:22.268Z</time></trkpt><trkpt lat="43.3576318" lon="11.2614538"><ele>270.40000000000003</ele><time>2026-04-04T09:10:24.327Z</time></trkpt><trkpt lat="43.3577136" lon="11.2613707"><ele>269.8</ele><time>2026-04-04T09:10:26.256Z</time></trkpt><trkpt lat="43.3577836" lon="11.2612858"><ele>269.20000000000005</ele><time>2026-04-04T09:10:28.258Z</time></trkpt><trkpt lat="43.3578489" lon="11.2611985"><ele>268.6</ele><time>2026-04-04T09:10:30.258Z</time></trkpt><trkpt lat="43.3579187" lon="11.2611111"><ele>268.0</ele><time>2026-04-04T09:10:32.267Z</time></trkpt><trkpt lat="43.3579859" lon="11.261023"><ele>268.4</ele><time>2026-04-04T09:10:34.247Z</time></trkpt><trkpt lat="43.3580441" lon="11.2609282"><ele>268.8</ele><time>2026-04-04T09:10:36.317Z</time></trkpt><trkpt lat="43.3581161" lon="11.260823"><ele>269.2</ele><time>2026-04-04T09:10:38.257Z</time></trkpt><trkpt lat="43.3581875" lon="11.260717"><ele>269.6</ele><time>2026-04-04T09:10:40.268Z</time></trkpt><trkpt lat="43.3582497" lon="11.2606185"><ele>270.0</ele><time>2026-04-04T09:10:42.262Z</time></trkpt><trkpt lat="43.3583109" lon="11.260528"><ele>270.0</ele><time>2026-04-04T09:10:44.322Z</time></trkpt><trkpt lat="43.3583698" lon="11.2604379"><ele>270.0</ele><time>2026-04-04T09:10:46.23Z</time></trkpt><trkpt lat="43.3584189" lon="11.2603541"><ele>270.0</ele><time>2026-04-04T09:10:48.262Z</time></trkpt><trkpt lat="43.3584738" lon="11.2602866"><ele>270.0</ele><time>2026-04-04T09:10:50.331Z</time></trkpt><trkpt lat="43.3585344" lon="11.2602018"><ele>270.0</ele><time>2026-04-04T09:10:52.251Z</time></trkpt><trkpt lat="43.3585988" lon="11.2601326"><ele>270.0</ele><time>2026-04-04T09:10:54.256Z</time></trkpt><trkpt lat="43.3586619" lon="11.2600627"><ele>270.0</ele><time>2026-04-04T09:10:56.235Z</time></trkpt><trkpt lat="43.3587318" lon="11.2599942"><ele>270.0</ele><time>2026-04-04T09:10:58.261Z</time></trkpt><trkpt lat="43.3588026" lon="11.2599352"><ele>270.0</ele><time>2026-04-04T09:11:00.252Z</time></trkpt><trkpt lat="43.358855" lon="11.2598727"><ele>270.0</ele><time>2026-04-04T09:11:02.245Z</time></trkpt><trkpt lat="43.3589261" lon="11.2597933"><ele>270.0</ele><time>2026-04-04T09:11:04.326Z</time></trkpt><trkpt lat="43.358983" lon="11.2597455"><ele>270.0</ele><time>2026-04-04T09:11:06.244Z</time></trkpt><trkpt lat="43.3590539" lon="11.259671"><ele>270.0</ele><time>2026-04-04T09:11:08.263Z</time></trkpt><trkpt lat="43.3591357" lon="11.2595926"><ele>270.0</ele><time>2026-04-04T09:11:10.246Z</time></trkpt><trkpt lat="43.3592179" lon="11.259513"><ele>270.0</ele><time>2026-04-04T09:11:12.267Z</time></trkpt><trkpt lat="43.3593029" lon="11.2594389"><ele>270.0</ele><time>2026-04-04T09:11:14.251Z</time></trkpt><trkpt lat="43.3593937" lon="11.2593833"><ele>270.0</ele><time>2026-04-04T09:11:16.25Z</time></trkpt><trkpt lat="43.3594789" lon="11.2593273"><ele>270.0</ele><time>2026-04-04T09:11:18.259Z</time></trkpt><trkpt lat="43.359562" lon="11.2592767"><ele>270.0</ele><time>2026-04-04T09:11:20.245Z</time></trkpt><trkpt lat="43.3596469" lon="11.2592326"><ele>270.0</ele><time>2026-04-04T09:11:22.24Z</time></trkpt><trkpt lat="43.3597234" lon="11.2591851"><ele>270.0</ele><time>2026-04-04T09:11:24.242Z</time></trkpt><trkpt lat="43.3598185" lon="11.2591569"><ele>270.0</ele><time>2026-04-04T09:11:26.256Z</time></trkpt><trkpt lat="43.3599261" lon="11.2591172"><ele>270.5</ele><time>2026-04-04T09:11:28.246Z</time></trkpt><trkpt lat="43.360024" lon="11.2590854"><ele>271.0</ele><time>2026-04-04T09:11:30.236Z</time></trkpt><trkpt lat="43.3601112" lon="11.2590696"><ele>271.5</ele><time>2026-04-04T09:11:32.24Z</time></trkpt><trkpt lat="43.3601914" lon="11.2590742"><ele>272.0</ele><time>2026-04-04T09:11:34.318Z</time></trkpt><trkpt lat="43.3602653" lon="11.2590552"><ele>272.5</ele><time>2026-04-04T09:11:36.249Z</time></trkpt><trkpt lat="43.3603561" lon="11.2590079"><ele>273.0</ele><time>2026-04-04T09:11:38.26Z</time></trkpt><trkpt lat="43.360462" lon="11.2589393"><ele>273.2</ele><time>2026-04-04T09:11:40.317Z</time></trkpt><trkpt lat="43.360559" lon="11.2588503"><ele>273.4</ele><time>2026-04-04T09:11:42.233Z</time></trkpt><trkpt lat="43.3606477" lon="11.2587542"><ele>273.59999999999997</ele><time>2026-04-04T09:11:44.319Z</time></trkpt><trkpt lat="43.3607293" lon="11.2586689"><ele>273.8</ele><time>2026-04-04T09:11:46.241Z</time></trkpt><trkpt lat="43.3608023" lon="11.2585904"><ele>274.0</ele><time>2026-04-04T09:11:48.26Z</time></trkpt><trkpt lat="43.3608906" lon="11.2584774"><ele>274.0</ele><time>2026-04-04T09:11:50.261Z</time></trkpt><trkpt lat="43.3610061" lon="11.2583306"><ele>274.0</ele><time>2026-04-04T09:11:53.262Z</time></trkpt><trkpt lat="43.3610886" lon="11.2582431"><ele>274.0</ele><time>2026-04-04T09:11:55.27Z</time></trkpt><trkpt lat="43.3611658" lon="11.2581482"><ele>274.0</ele><time>2026-04-04T09:11:57.253Z</time></trkpt><trkpt lat="43.3612382" lon="11.2580528"><ele>273.8</ele><time>2026-04-04T09:11:59.263Z</time></trkpt><trkpt lat="43.3612954" lon="11.257975"><ele>273.59999999999997</ele><time>2026-04-04T09:12:01.255Z</time></trkpt><trkpt lat="43.3613682" lon="11.2578802"><ele>273.4</ele><time>2026-04-04T09:12:03.253Z</time></trkpt><trkpt lat="43.3614521" lon="11.2577832"><ele>273.2</ele><time>2026-04-04T09:12:05.262Z</time></trkpt><trkpt lat="43.361532" lon="11.2576971"><ele>273.0</ele><time>2026-04-04T09:12:07.258Z</time></trkpt><trkpt lat="43.3616012" lon="11.2575962"><ele>273.0</ele><time>2026-04-04T09:12:09.324Z</time></trkpt><trkpt lat="43.3616434" lon="11.257515"><ele>273.0</ele><time>2026-04-04T09:12:11.255Z</time></trkpt><trkpt lat="43.361687" lon="11.2573987"><ele>273.0</ele><time>2026-04-04T09:12:13.256Z</time></trkpt><trkpt lat="43.3617415" lon="11.2572946"><ele>273.0</ele><time>2026-04-04T09:12:15.318Z</time></trkpt><trkpt lat="43.3617908" lon="11.2571662"><ele>273.0</ele><time>2026-04-04T09:12:17.253Z</time></trkpt><trkpt lat="43.3618582" lon="11.2570261"><ele>273.0</ele><time>2026-04-04T09:12:19.329Z</time></trkpt><trkpt lat="43.36192" lon="11.2568966"><ele>273.0</ele><time>2026-04-04T09:12:21.256Z</time></trkpt><trkpt lat="43.3619693" lon="11.256775"><ele>273.0</ele><time>2026-04-04T09:12:23.262Z</time></trkpt><trkpt lat="43.3620154" lon="11.2566645"><ele>273.0</ele><time>2026-04-04T09:12:25.325Z</time></trkpt><trkpt lat="43.3620679" lon="11.2565499"><ele>273.0</ele><time>2026-04-04T09:12:27.249Z</time></trkpt><trkpt lat="43.3621245" lon="11.2564307"><ele>273.0</ele><time>2026-04-04T09:12:29.231Z</time></trkpt><trkpt lat="43.3621701" lon="11.2563134"><ele>273.0</ele><time>2026-04-04T09:12:31.26Z</time></trkpt><trkpt lat="43.3622234" lon="11.2561946"><ele>273.0</ele><time>2026-04-04T09:12:33.258Z</time></trkpt><trkpt lat="43.3622778" lon="11.2560689"><ele>273.0</ele><time>2026-04-04T09:12:35.245Z</time></trkpt><trkpt lat="43.3623293" lon="11.2559679"><ele>273.0</ele><time>2026-04-04T09:12:37.237Z</time></trkpt><trkpt lat="43.3623728" lon="11.2558688"><ele>273.5</ele><time>2026-04-04T09:12:39.232Z</time></trkpt><trkpt lat="43.3624156" lon="11.2557839"><ele>274.0</ele><time>2026-04-04T09:12:41.229Z</time></trkpt><trkpt lat="43.3624812" lon="11.2556957"><ele>274.5</ele><time>2026-04-04T09:12:44.26Z</time></trkpt><trkpt lat="43.3625476" lon="11.2556126"><ele>275.0</ele><time>2026-04-04T09:12:47.257Z</time></trkpt><trkpt lat="43.3626262" lon="11.2555392"><ele>275.5</ele><time>2026-04-04T09:12:50.258Z</time></trkpt><trkpt lat="43.3626843" lon="11.255497"><ele>276.0</ele><time>2026-04-04T09:12:52.238Z</time></trkpt><trkpt lat="43.3627506" lon="11.2554657"><ele>276.14285714285717</ele><time>2026-04-04T09:12:54.254Z</time></trkpt><trkpt lat="43.3628196" lon="11.2554519"><ele>276.28571428571433</ele><time>2026-04-04T09:12:56.24Z</time></trkpt><trkpt lat="43.3628895" lon="11.2554521"><ele>276.42857142857144</ele><time>2026-04-04T09:12:58.257Z</time></trkpt><trkpt lat="43.3629553" lon="11.2554562"><ele>276.57142857142856</ele><time>2026-04-04T09:13:00.254Z</time></trkpt><trkpt lat="43.363019" lon="11.2554649"><ele>276.71428571428567</ele><time>2026-04-04T09:13:02.266Z</time></trkpt><trkpt lat="43.3630821" lon="11.2554831"><ele>276.85714285714283</ele><time>2026-04-04T09:13:04.254Z</time></trkpt><trkpt lat="43.3631465" lon="11.2555021"><ele>277.0</ele><time>2026-04-04T09:13:06.253Z</time></trkpt><trkpt lat="43.3632357" lon="11.2555242"><ele>277.3333333333333</ele><time>2026-04-04T09:13:09.25Z</time></trkpt><trkpt lat="43.3633222" lon="11.2555454"><ele>277.66666666666663</ele><time>2026-04-04T09:13:12.251Z</time></trkpt><trkpt lat="43.3634077" lon="11.2555748"><ele>278.0</ele><time>2026-04-04T09:13:15.25Z</time></trkpt><trkpt lat="43.3634718" lon="11.255587"><ele>278.3333333333333</ele><time>2026-04-04T09:13:17.253Z</time></trkpt><trkpt lat="43.3635336" lon="11.2556049"><ele>278.6666666666667</ele><time>2026-04-04T09:13:19.251Z</time></trkpt><trkpt lat="43.3636217" lon="11.2556313"><ele>279.0</ele><time>2026-04-04T09:13:22.249Z</time></trkpt><trkpt lat="43.3637042" lon="11.2556543"><ele>279.0</ele><time>2026-04-04T09:13:25.261Z</time></trkpt><trkpt lat="43.3637917" lon="11.2556612"><ele>279.0</ele><time>2026-04-04T09:13:28.258Z</time></trkpt><trkpt lat="43.3638817" lon="11.2556544"><ele>279.0</ele><time>2026-04-04T09:13:31.248Z</time></trkpt><trkpt lat="43.3639655" lon="11.255638"><ele>279.0</ele><time>2026-04-04T09:13:34.25Z</time></trkpt><trkpt lat="43.3640241" lon="11.2556019"><ele>279.0</ele><time>2026-04-04T09:13:36.252Z</time></trkpt><trkpt lat="43.3640876" lon="11.2555732"><ele>279.0</ele><time>2026-04-04T09:13:38.255Z</time></trkpt><trkpt lat="43.3641495" lon="11.2555448"><ele>280.0</ele><time>2026-04-04T09:13:40.252Z</time></trkpt><trkpt lat="43.3642247" lon="11.2554838"><ele>281.0</ele><time>2026-04-04T09:13:43.263Z</time></trkpt><trkpt lat="43.3643009" lon="11.2554162"><ele>282.0</ele><time>2026-04-04T09:13:46.264Z</time></trkpt><trkpt lat="43.3643506" lon="11.2553619"><ele>283.0</ele><time>2026-04-04T09:13:48.254Z</time></trkpt><trkpt lat="43.364428" lon="11.2552924"><ele>284.0</ele><time>2026-04-04T09:13:51.262Z</time></trkpt><trkpt lat="43.3644817" lon="11.2552458"><ele>285.0</ele><time>2026-04-04T09:13:53.262Z</time></trkpt><trkpt lat="43.3645326" lon="11.2551936"><ele>285.0</ele><time>2026-04-04T09:13:55.262Z</time></trkpt><trkpt lat="43.3645861" lon="11.255144"><ele>285.0</ele><time>2026-04-04T09:13:57.267Z</time></trkpt><trkpt lat="43.3646384" lon="11.2550934"><ele>285.0</ele><time>2026-04-04T09:13:59.265Z</time></trkpt><trkpt lat="43.3646909" lon="11.255043"><ele>285.0</ele><time>2026-04-04T09:14:01.239Z</time></trkpt><trkpt lat="43.3647431" lon="11.2549934"><ele>285.0</ele><time>2026-04-04T09:14:03.262Z</time></trkpt><trkpt lat="43.3648194" lon="11.2549159"><ele>285.0</ele><time>2026-04-04T09:14:06.245Z</time></trkpt><trkpt lat="43.3648731" lon="11.2548692"><ele>285.0</ele><time>2026-04-04T09:14:08.268Z</time></trkpt><trkpt lat="43.3649442" lon="11.254795"><ele>285.6666666666667</ele><time>2026-04-04T09:14:11.261Z</time></trkpt><trkpt lat="43.3650142" lon="11.2547248"><ele>286.3333333333333</ele><time>2026-04-04T09:14:14.245Z</time></trkpt><trkpt lat="43.3650759" lon="11.2546639"><ele>287.0</ele><time>2026-04-04T09:14:17.256Z</time></trkpt><trkpt lat="43.3651339" lon="11.2546096"><ele>287.66666666666663</ele><time>2026-04-04T09:14:20.273Z</time></trkpt><trkpt lat="43.3651973" lon="11.2545506"><ele>288.3333333333333</ele><time>2026-04-04T09:14:23.246Z</time></trkpt><trkpt lat="43.3652646" lon="11.2544919"><ele>289.0</ele><time>2026-04-04T09:14:26.258Z</time></trkpt><trkpt lat="43.3653399" lon="11.2544362"><ele>289.0</ele><time>2026-04-04T09:14:29.261Z</time></trkpt><trkpt lat="43.3653995" lon="11.2544005"><ele>289.0</ele><time>2026-04-04T09:14:31.257Z</time></trkpt><trkpt lat="43.365464" lon="11.2543608"><ele>289.0</ele><time>2026-04-04T09:14:33.258Z</time></trkpt><trkpt lat="43.3655377" lon="11.2543173"><ele>289.0</ele><time>2026-04-04T09:14:35.243Z</time></trkpt><trkpt lat="43.3656168" lon="11.2542812"><ele>289.0</ele><time>2026-04-04T09:14:37.243Z</time></trkpt><trkpt lat="43.3656995" lon="11.2542576"><ele>289.0</ele><time>2026-04-04T09:14:39.257Z</time></trkpt><trkpt lat="43.3657783" lon="11.2542368"><ele>290.2</ele><time>2026-04-04T09:14:41.263Z</time></trkpt><trkpt lat="43.365857" lon="11.2542246"><ele>291.4</ele><time>2026-04-04T09:14:43.258Z</time></trkpt><trkpt lat="43.3659544" lon="11.2542235"><ele>292.6</ele><time>2026-04-04T09:14:45.255Z</time></trkpt><trkpt lat="43.3660582" lon="11.2542354"><ele>293.8</ele><time>2026-04-04T09:14:47.247Z</time></trkpt><trkpt lat="43.3661645" lon="11.2542512"><ele>295.0</ele><time>2026-04-04T09:14:49.266Z</time></trkpt><trkpt lat="43.3662704" lon="11.2542679"><ele>294.3333333333333</ele><time>2026-04-04T09:14:51.25Z</time></trkpt><trkpt lat="43.3663857" lon="11.2542788"><ele>293.66666666666663</ele><time>2026-04-04T09:14:53.247Z</time></trkpt><trkpt lat="43.3665109" lon="11.2542867"><ele>293.0</ele><time>2026-04-04T09:14:55.243Z</time></trkpt><trkpt lat="43.3665776" lon="11.2542945"><ele>292.3333333333333</ele><time>2026-04-04T09:14:56.235Z</time></trkpt><trkpt lat="43.3666436" lon="11.2543044"><ele>291.6666666666667</ele><time>2026-04-04T09:14:57.246Z</time></trkpt><trkpt lat="43.3667072" lon="11.2543149"><ele>291.0</ele><time>2026-04-04T09:14:58.244Z</time></trkpt><trkpt lat="43.3668298" lon="11.2543279"><ele>291.0</ele><time>2026-04-04T09:15:00.239Z</time></trkpt><trkpt lat="43.3669011" lon="11.2543309"><ele>291.0</ele><time>2026-04-04T09:15:01.239Z</time></trkpt><trkpt lat="43.3669715" lon="11.2543419"><ele>291.0</ele><time>2026-04-04T09:15:02.247Z</time></trkpt><trkpt lat="43.3670416" lon="11.2543489"><ele>291.0</ele><time>2026-04-04T09:15:03.244Z</time></trkpt><trkpt lat="43.3671165" lon="11.2543545"><ele>291.0</ele><time>2026-04-04T09:15:04.245Z</time></trkpt><trkpt lat="43.3673463" lon="11.2543848"><ele>290.6666666666667</ele><time>2026-04-04T09:15:07.25Z</time></trkpt><trkpt lat="43.3674216" lon="11.2543867"><ele>290.3333333333333</ele><time>2026-04-04T09:15:08.264Z</time></trkpt><trkpt lat="43.3674998" lon="11.2543874"><ele>290.0</ele><time>2026-04-04T09:15:09.247Z</time></trkpt><trkpt lat="43.3675827" lon="11.2543849"><ele>289.66666666666663</ele><time>2026-04-04T09:15:10.277Z</time></trkpt><trkpt lat="43.3676664" lon="11.2543818"><ele>289.3333333333333</ele><time>2026-04-04T09:15:11.298Z</time></trkpt><trkpt lat="43.3677464" lon="11.2543778"><ele>289.0</ele><time>2026-04-04T09:15:12.255Z</time></trkpt><trkpt lat="43.3679301" lon="11.2543634"><ele>289.0</ele><time>2026-04-04T09:15:14.281Z</time></trkpt><trkpt lat="43.3680215" lon="11.2543511"><ele>289.0</ele><time>2026-04-04T09:15:15.269Z</time></trkpt><trkpt lat="43.3681149" lon="11.2543374"><ele>289.0</ele><time>2026-04-04T09:15:16.285Z</time></trkpt><trkpt lat="43.3682089" lon="11.254325"><ele>289.0</ele><time>2026-04-04T09:15:17.254Z</time></trkpt><trkpt lat="43.3683046" lon="11.2543119"><ele>289.0</ele><time>2026-04-04T09:15:18.247Z</time></trkpt><trkpt lat="43.3684013" lon="11.2542993"><ele>288.8</ele><time>2026-04-04T09:15:19.253Z</time></trkpt><trkpt lat="43.3685001" lon="11.2542895"><ele>288.59999999999997</ele><time>2026-04-04T09:15:20.246Z</time></trkpt><trkpt lat="43.3686024" lon="11.2542808"><ele>288.4</ele><time>2026-04-04T09:15:21.248Z</time></trkpt><trkpt lat="43.3687043" lon="11.2542762"><ele>288.2</ele><time>2026-04-04T09:15:22.251Z</time></trkpt><trkpt lat="43.3688126" lon="11.2542775"><ele>288.0</ele><time>2026-04-04T09:15:23.255Z</time></trkpt><trkpt lat="43.368918" lon="11.254291"><ele>287.4</ele><time>2026-04-04T09:15:24.259Z</time></trkpt><trkpt lat="43.3690209" lon="11.2543153"><ele>286.8</ele><time>2026-04-04T09:15:25.253Z</time></trkpt><trkpt lat="43.3691228" lon="11.2543514"><ele>286.2</ele><time>2026-04-04T09:15:26.246Z</time></trkpt><trkpt lat="43.3692242" lon="11.2543924"><ele>285.6</ele><time>2026-04-04T09:15:27.24Z</time></trkpt><trkpt lat="43.3693221" lon="11.2544422"><ele>285.0</ele><time>2026-04-04T09:15:28.241Z</time></trkpt><trkpt lat="43.3694187" lon="11.2544903"><ele>285.0</ele><time>2026-04-04T09:15:29.263Z</time></trkpt><trkpt lat="43.3695138" lon="11.2545386"><ele>285.0</ele><time>2026-04-04T09:15:30.263Z</time></trkpt><trkpt lat="43.3696073" lon="11.2545829"><ele>285.0</ele><time>2026-04-04T09:15:31.25Z</time></trkpt><trkpt lat="43.3697025" lon="11.2546274"><ele>285.0</ele><time>2026-04-04T09:15:32.252Z</time></trkpt><trkpt lat="43.3697967" lon="11.2546704"><ele>285.0</ele><time>2026-04-04T09:15:33.254Z</time></trkpt><trkpt lat="43.369893" lon="11.2547108"><ele>284.8</ele><time>2026-04-04T09:15:34.253Z</time></trkpt><trkpt lat="43.3699899" lon="11.2547492"><ele>284.6</ele><time>2026-04-04T09:15:35.238Z</time></trkpt><trkpt lat="43.3700863" lon="11.2547838"><ele>284.4</ele><time>2026-04-04T09:15:36.242Z</time></trkpt><trkpt lat="43.3701854" lon="11.2548122"><ele>284.2</ele><time>2026-04-04T09:15:37.25Z</time></trkpt><trkpt lat="43.3702858" lon="11.2548303"><ele>284.0</ele><time>2026-04-04T09:15:38.238Z</time></trkpt><trkpt lat="43.3703849" lon="11.2548445"><ele>284.0</ele><time>2026-04-04T09:15:39.256Z</time></trkpt><trkpt lat="43.3704819" lon="11.2548564"><ele>284.0</ele><time>2026-04-04T09:15:40.242Z</time></trkpt><trkpt lat="43.3705811" lon="11.2548638"><ele>284.0</ele><time>2026-04-04T09:15:41.239Z</time></trkpt><trkpt lat="43.3706789" lon="11.2548721"><ele>284.0</ele><time>2026-04-04T09:15:42.252Z</time></trkpt><trkpt lat="43.3707733" lon="11.2548857"><ele>284.0</ele><time>2026-04-04T09:15:43.247Z</time></trkpt><trkpt lat="43.3708653" lon="11.2548963"><ele>283.0</ele><time>2026-04-04T09:15:44.251Z</time></trkpt><trkpt lat="43.3709587" lon="11.2549028"><ele>282.0</ele><time>2026-04-04T09:15:45.241Z</time></trkpt><trkpt lat="43.3710501" lon="11.2549115"><ele>281.0</ele><time>2026-04-04T09:15:46.242Z</time></trkpt><trkpt lat="43.3711383" lon="11.2549234"><ele>280.0</ele><time>2026-04-04T09:15:47.253Z</time></trkpt><trkpt lat="43.3712295" lon="11.2549331"><ele>279.0</ele><time>2026-04-04T09:15:48.254Z</time></trkpt><trkpt lat="43.3713206" lon="11.2549442"><ele>277.4</ele><time>2026-04-04T09:15:49.24Z</time></trkpt><trkpt lat="43.3714109" lon="11.2549548"><ele>275.79999999999995</ele><time>2026-04-04T09:15:50.242Z</time></trkpt><trkpt lat="43.3715015" lon="11.2549603"><ele>274.20000000000005</ele><time>2026-04-04T09:15:51.242Z</time></trkpt><trkpt lat="43.3715919" lon="11.2549662"><ele>272.6</ele><time>2026-04-04T09:15:52.244Z</time></trkpt><trkpt lat="43.3716827" lon="11.2549699"><ele>271.0</ele><time>2026-04-04T09:15:53.245Z</time></trkpt><trkpt lat="43.3717723" lon="11.2549732"><ele>271.0</ele><time>2026-04-04T09:15:54.238Z</time></trkpt><trkpt lat="43.3718602" lon="11.25498"><ele>271.0</ele><time>2026-04-04T09:15:55.253Z</time></trkpt><trkpt lat="43.3719431" lon="11.2549858"><ele>271.0</ele><time>2026-04-04T09:15:56.235Z</time></trkpt><trkpt lat="43.3720314" lon="11.2549938"><ele>271.0</ele><time>2026-04-04T09:15:57.249Z</time></trkpt><trkpt lat="43.3721206" lon="11.2549968"><ele>271.0</ele><time>2026-04-04T09:15:58.249Z</time></trkpt><trkpt lat="43.3722092" lon="11.2550022"><ele>271.0</ele><time>2026-04-04T09:15:59.242Z</time></trkpt><trkpt lat="43.3722925" lon="11.2550096"><ele>270.66666666666663</ele><time>2026-04-04T09:16:00.235Z</time></trkpt><trkpt lat="43.3723732" lon="11.2550207"><ele>270.3333333333333</ele><time>2026-04-04T09:16:01.247Z</time></trkpt><trkpt lat="43.3724553" lon="11.2550344"><ele>270.0</ele><time>2026-04-04T09:16:02.245Z</time></trkpt><trkpt lat="43.3725393" lon="11.2550484"><ele>269.6666666666667</ele><time>2026-04-04T09:16:03.245Z</time></trkpt><trkpt lat="43.3726269" lon="11.2550728"><ele>269.33333333333337</ele><time>2026-04-04T09:16:04.247Z</time></trkpt><trkpt lat="43.3727157" lon="11.2551057"><ele>269.0</ele><time>2026-04-04T09:16:05.249Z</time></trkpt><trkpt lat="43.3728059" lon="11.2551467"><ele>269.0</ele><time>2026-04-04T09:16:06.25Z</time></trkpt><trkpt lat="43.3728995" lon="11.2551835"><ele>269.0</ele><time>2026-04-04T09:16:07.255Z</time></trkpt><trkpt lat="43.3729939" lon="11.2552149"><ele>269.0</ele><time>2026-04-04T09:16:08.237Z</time></trkpt><trkpt lat="43.3730879" lon="11.2552342"><ele>269.0</ele><time>2026-04-04T09:16:09.249Z</time></trkpt><trkpt lat="43.3731793" lon="11.2552446"><ele>269.0</ele><time>2026-04-04T09:16:10.238Z</time></trkpt><trkpt lat="43.3732756" lon="11.2552296"><ele>268.4</ele><time>2026-04-04T09:16:11.243Z</time></trkpt><trkpt lat="43.3733742" lon="11.2551829"><ele>267.79999999999995</ele><time>2026-04-04T09:16:12.241Z</time></trkpt><trkpt lat="43.3734678" lon="11.2551185"><ele>267.20000000000005</ele><time>2026-04-04T09:16:13.241Z</time></trkpt><trkpt lat="43.3735568" lon="11.2550399"><ele>266.6</ele><time>2026-04-04T09:16:14.24Z</time></trkpt><trkpt lat="43.3736404" lon="11.2549539"><ele>266.0</ele><time>2026-04-04T09:16:15.25Z</time></trkpt><trkpt lat="43.3737194" lon="11.2548643"><ele>266.2</ele><time>2026-04-04T09:16:16.244Z</time></trkpt><trkpt lat="43.3737965" lon="11.2547713"><ele>266.40000000000003</ele><time>2026-04-04T09:16:17.235Z</time></trkpt><trkpt lat="43.3738656" lon="11.2546712"><ele>266.6</ele><time>2026-04-04T09:16:18.249Z</time></trkpt><trkpt lat="43.373933" lon="11.2545739"><ele>266.8</ele><time>2026-04-04T09:16:19.251Z</time></trkpt><trkpt lat="43.3740059" lon="11.2544798"><ele>267.0</ele><time>2026-04-04T09:16:20.254Z</time></trkpt><trkpt lat="43.3740794" lon="11.2543959"><ele>267.0</ele><time>2026-04-04T09:16:21.262Z</time></trkpt><trkpt lat="43.3741494" lon="11.2543155"><ele>267.0</ele><time>2026-04-04T09:16:22.262Z</time></trkpt><trkpt lat="43.3742176" lon="11.2542319"><ele>267.0</ele><time>2026-04-04T09:16:23.238Z</time></trkpt><trkpt lat="43.374279" lon="11.2541397"><ele>267.0</ele><time>2026-04-04T09:16:24.236Z</time></trkpt><trkpt lat="43.3743392" lon="11.25405"><ele>267.0</ele><time>2026-04-04T09:16:25.243Z</time></trkpt><trkpt lat="43.3744009" lon="11.2539621"><ele>267.1666666666667</ele><time>2026-04-04T09:16:26.231Z</time></trkpt><trkpt lat="43.3744611" lon="11.2538797"><ele>267.3333333333333</ele><time>2026-04-04T09:16:27.254Z</time></trkpt><trkpt lat="43.3745185" lon="11.253805"><ele>267.5</ele><time>2026-04-04T09:16:28.239Z</time></trkpt><trkpt lat="43.3745807" lon="11.2537302"><ele>267.66666666666663</ele><time>2026-04-04T09:16:29.244Z</time></trkpt><trkpt lat="43.3746447" lon="11.2536586"><ele>267.8333333333333</ele><time>2026-04-04T09:16:30.252Z</time></trkpt><trkpt lat="43.3747106" lon="11.2535926"><ele>268.0</ele><time>2026-04-04T09:16:31.24Z</time></trkpt><trkpt lat="43.3747809" lon="11.2535316"><ele>268.0</ele><time>2026-04-04T09:16:32.248Z</time></trkpt><trkpt lat="43.3748524" lon="11.2534797"><ele>268.0</ele><time>2026-04-04T09:16:33.243Z</time></trkpt><trkpt lat="43.3749265" lon="11.253436"><ele>268.0</ele><time>2026-04-04T09:16:34.242Z</time></trkpt><trkpt lat="43.3750064" lon="11.2533884"><ele>268.0</ele><time>2026-04-04T09:16:35.246Z</time></trkpt><trkpt lat="43.3750838" lon="11.2533388"><ele>268.0</ele><time>2026-04-04T09:16:36.246Z</time></trkpt><trkpt lat="43.3751591" lon="11.253286"><ele>268.0</ele><time>2026-04-04T09:16:37.236Z</time></trkpt><trkpt lat="43.3752317" lon="11.2532261"><ele>268.0</ele><time>2026-04-04T09:16:38.248Z</time></trkpt><trkpt lat="43.3752986" lon="11.2531606"><ele>268.0</ele><time>2026-04-04T09:16:39.237Z</time></trkpt><trkpt lat="43.3753613" lon="11.2530903"><ele>268.0</ele><time>2026-04-04T09:16:40.249Z</time></trkpt><trkpt lat="43.3754173" lon="11.2530125"><ele>268.0</ele><time>2026-04-04T09:16:41.241Z</time></trkpt><trkpt lat="43.3754678" lon="11.2529249"><ele>268.0</ele><time>2026-04-04T09:16:42.239Z</time></trkpt><trkpt lat="43.3755155" lon="11.2528337"><ele>268.0</ele><time>2026-04-04T09:16:43.245Z</time></trkpt><trkpt lat="43.37556" lon="11.2527405"><ele>267.16666666666663</ele><time>2026-04-04T09:16:44.23Z</time></trkpt><trkpt lat="43.3756083" lon="11.2526408"><ele>266.3333333333333</ele><time>2026-04-04T09:16:45.243Z</time></trkpt><trkpt lat="43.3756588" lon="11.2525392"><ele>265.5</ele><time>2026-04-04T09:16:46.246Z</time></trkpt><trkpt lat="43.3757094" lon="11.2524379"><ele>264.6666666666667</ele><time>2026-04-04T09:16:47.241Z</time></trkpt><trkpt lat="43.3757585" lon="11.2523399"><ele>263.83333333333337</ele><time>2026-04-04T09:16:48.24Z</time></trkpt><trkpt lat="43.3758039" lon="11.2522363"><ele>263.0</ele><time>2026-04-04T09:16:49.235Z</time></trkpt><trkpt lat="43.3758438" lon="11.252122"><ele>262.6</ele><time>2026-04-04T09:16:50.252Z</time></trkpt><trkpt lat="43.3758745" lon="11.2520027"><ele>262.20000000000005</ele><time>2026-04-04T09:16:51.242Z</time></trkpt><trkpt lat="43.3758878" lon="11.2518648"><ele>261.8</ele><time>2026-04-04T09:16:52.235Z</time></trkpt><trkpt lat="43.3758874" lon="11.2517145"><ele>261.40000000000003</ele><time>2026-04-04T09:16:53.252Z</time></trkpt><trkpt lat="43.3758866" lon="11.2515654"><ele>261.0</ele><time>2026-04-04T09:16:54.241Z</time></trkpt><trkpt lat="43.3758874" lon="11.2514162"><ele>261.8</ele><time>2026-04-04T09:16:55.245Z</time></trkpt><trkpt lat="43.3758968" lon="11.2512704"><ele>262.6</ele><time>2026-04-04T09:16:56.253Z</time></trkpt><trkpt lat="43.3759181" lon="11.2511202"><ele>263.4</ele><time>2026-04-04T09:16:57.256Z</time></trkpt><trkpt lat="43.3759503" lon="11.2509801"><ele>264.2</ele><time>2026-04-04T09:16:58.239Z</time></trkpt><trkpt lat="43.3759903" lon="11.2508414"><ele>265.0</ele><time>2026-04-04T09:16:59.249Z</time></trkpt><trkpt lat="43.3760376" lon="11.2507163"><ele>266.6</ele><time>2026-04-04T09:17:00.244Z</time></trkpt><trkpt lat="43.3760852" lon="11.2505913"><ele>268.2</ele><time>2026-04-04T09:17:01.25Z</time></trkpt><trkpt lat="43.376132" lon="11.2504652"><ele>269.8</ele><time>2026-04-04T09:17:02.262Z</time></trkpt><trkpt lat="43.3761804" lon="11.2503455"><ele>271.4</ele><time>2026-04-04T09:17:03.259Z</time></trkpt><trkpt lat="43.3762302" lon="11.2502317"><ele>273.0</ele><time>2026-04-04T09:17:04.249Z</time></trkpt><trkpt lat="43.3762835" lon="11.2501169"><ele>273.0</ele><time>2026-04-04T09:17:05.253Z</time></trkpt><trkpt lat="43.3763328" lon="11.2500046"><ele>273.0</ele><time>2026-04-04T09:17:06.243Z</time></trkpt><trkpt lat="43.3763798" lon="11.2498932"><ele>273.0</ele><time>2026-04-04T09:17:07.236Z</time></trkpt><trkpt lat="43.3764267" lon="11.2497811"><ele>273.0</ele><time>2026-04-04T09:17:08.235Z</time></trkpt><trkpt lat="43.3764728" lon="11.2496769"><ele>273.0</ele><time>2026-04-04T09:17:09.237Z</time></trkpt><trkpt lat="43.3765178" lon="11.2495794"><ele>269.8333333333333</ele><time>2026-04-04T09:17:10.248Z</time></trkpt><trkpt lat="43.3765692" lon="11.2494826"><ele>266.6666666666667</ele><time>2026-04-04T09:17:11.251Z</time></trkpt><trkpt lat="43.3766258" lon="11.2493902"><ele>263.5</ele><time>2026-04-04T09:17:12.233Z</time></trkpt><trkpt lat="43.3766925" lon="11.2493025"><ele>260.33333333333337</ele><time>2026-04-04T09:17:13.237Z</time></trkpt><trkpt lat="43.3767639" lon="11.2492266"><ele>257.1666666666667</ele><time>2026-04-04T09:17:14.238Z</time></trkpt><trkpt lat="43.3768369" lon="11.2491731"><ele>254.0</ele><time>2026-04-04T09:17:15.268Z</time></trkpt><trkpt lat="43.3769094" lon="11.249142"><ele>254.0</ele><time>2026-04-04T09:17:16.24Z</time></trkpt><trkpt lat="43.3769823" lon="11.2491263"><ele>254.0</ele><time>2026-04-04T09:17:17.247Z</time></trkpt><trkpt lat="43.3770563" lon="11.2491169"><ele>254.0</ele><time>2026-04-04T09:17:18.249Z</time></trkpt><trkpt lat="43.3771286" lon="11.2491092"><ele>254.0</ele><time>2026-04-04T09:17:19.246Z</time></trkpt><trkpt lat="43.3772009" lon="11.2490998"><ele>254.0</ele><time>2026-04-04T09:17:20.234Z</time></trkpt><trkpt lat="43.377276" lon="11.2490911"><ele>254.0</ele><time>2026-04-04T09:17:21.237Z</time></trkpt><trkpt lat="43.3773536" lon="11.2490747"><ele>254.0</ele><time>2026-04-04T09:17:22.236Z</time></trkpt><trkpt lat="43.37743" lon="11.2490538"><ele>254.00000000000003</ele><time>2026-04-04T09:17:23.239Z</time></trkpt><trkpt lat="43.3775122" lon="11.2490177"><ele>254.0</ele><time>2026-04-04T09:17:24.248Z</time></trkpt><trkpt lat="43.3775916" lon="11.2489791"><ele>254.0</ele><time>2026-04-04T09:17:25.234Z</time></trkpt><trkpt lat="43.3776681" lon="11.2489293"><ele>254.0</ele><time>2026-04-04T09:17:26.246Z</time></trkpt><trkpt lat="43.3777434" lon="11.2488683"><ele>254.00000000000003</ele><time>2026-04-04T09:17:27.261Z</time></trkpt><trkpt lat="43.3778185" lon="11.2487911"><ele>254.0</ele><time>2026-04-04T09:17:28.246Z</time></trkpt><trkpt lat="43.3778864" lon="11.2486988"><ele>254.0</ele><time>2026-04-04T09:17:29.237Z</time></trkpt><trkpt lat="43.3779484" lon="11.2485956"><ele>253.99999999999997</ele><time>2026-04-04T09:17:30.241Z</time></trkpt><trkpt lat="43.3780041" lon="11.2484868"><ele>253.99999999999997</ele><time>2026-04-04T09:17:31.237Z</time></trkpt><trkpt lat="43.3780569" lon="11.2483787"><ele>254.0</ele><time>2026-04-04T09:17:32.238Z</time></trkpt><trkpt lat="43.3781131" lon="11.2482679"><ele>254.0</ele><time>2026-04-04T09:17:33.243Z</time></trkpt><trkpt lat="43.3781683" lon="11.2481664"><ele>252.83333333333334</ele><time>2026-04-04T09:17:34.236Z</time></trkpt><trkpt lat="43.3782176" lon="11.2480667"><ele>251.66666666666669</ele><time>2026-04-04T09:17:35.237Z</time></trkpt><trkpt lat="43.3782585" lon="11.2479677"><ele>250.5</ele><time>2026-04-04T09:17:36.245Z</time></trkpt><trkpt lat="43.3783006" lon="11.2478655"><ele>249.33333333333331</ele><time>2026-04-04T09:17:37.253Z</time></trkpt><trkpt lat="43.3783426" lon="11.2477657"><ele>248.16666666666666</ele><time>2026-04-04T09:17:38.237Z</time></trkpt><trkpt lat="43.3783879" lon="11.2476677"><ele>247.0</ele><time>2026-04-04T09:17:39.235Z</time></trkpt><trkpt lat="43.3784341" lon="11.247575"><ele>246.99999999999997</ele><time>2026-04-04T09:17:40.241Z</time></trkpt><trkpt lat="43.3784815" lon="11.2474783"><ele>247.0</ele><time>2026-04-04T09:17:41.255Z</time></trkpt><trkpt lat="43.3785331" lon="11.247383"><ele>247.0</ele><time>2026-04-04T09:17:42.244Z</time></trkpt><trkpt lat="43.3785889" lon="11.2472913"><ele>247.0</ele><time>2026-04-04T09:17:43.243Z</time></trkpt><trkpt lat="43.3786467" lon="11.2472057"><ele>246.99999999999997</ele><time>2026-04-04T09:17:44.25Z</time></trkpt><trkpt lat="43.3787088" lon="11.2471316"><ele>247.0</ele><time>2026-04-04T09:17:45.249Z</time></trkpt><trkpt lat="43.3787714" lon="11.2470614"><ele>245.49999999999997</ele><time>2026-04-04T09:17:46.24Z</time></trkpt><trkpt lat="43.378835" lon="11.2469918"><ele>244.0</ele><time>2026-04-04T09:17:47.241Z</time></trkpt><trkpt lat="43.3789008" lon="11.2469189"><ele>242.5</ele><time>2026-04-04T09:17:48.253Z</time></trkpt><trkpt lat="43.3789653" lon="11.2468413"><ele>241.0</ele><time>2026-04-04T09:17:49.233Z</time></trkpt><trkpt lat="43.379033" lon="11.2467628"><ele>239.49999999999997</ele><time>2026-04-04T09:17:50.234Z</time></trkpt><trkpt lat="43.3790983" lon="11.246693"><ele>238.0</ele><time>2026-04-04T09:17:51.249Z</time></trkpt><trkpt lat="43.3791608" lon="11.2466315"><ele>237.99999999999997</ele><time>2026-04-04T09:17:52.255Z</time></trkpt><trkpt lat="43.3792206" lon="11.2465649"><ele>238.0</ele><time>2026-04-04T09:17:53.237Z</time></trkpt><trkpt lat="43.3792807" lon="11.2464961"><ele>238.0</ele><time>2026-04-04T09:17:54.248Z</time></trkpt><trkpt lat="43.3793429" lon="11.2464274"><ele>238.0</ele><time>2026-04-04T09:17:55.241Z</time></trkpt><trkpt lat="43.3794057" lon="11.2463766"><ele>237.99999999999997</ele><time>2026-04-04T09:17:56.24Z</time></trkpt><trkpt lat="43.3794748" lon="11.246337"><ele>238.0</ele><time>2026-04-04T09:17:57.232Z</time></trkpt><trkpt lat="43.3795453" lon="11.2463193"><ele>239.14285714285714</ele><time>2026-04-04T09:17:58.24Z</time></trkpt><trkpt lat="43.3796185" lon="11.2463122"><ele>240.28571428571428</ele><time>2026-04-04T09:17:59.241Z</time></trkpt><trkpt lat="43.3796905" lon="11.2463065"><ele>241.42857142857144</ele><time>2026-04-04T09:18:00.245Z</time></trkpt><trkpt lat="43.3797604" lon="11.2462968"><ele>242.57142857142858</ele><time>2026-04-04T09:18:01.247Z</time></trkpt><trkpt lat="43.3798278" lon="11.2462885"><ele>243.71428571428572</ele><time>2026-04-04T09:18:02.238Z</time></trkpt><trkpt lat="43.3798962" lon="11.2462802"><ele>244.8571428571429</ele><time>2026-04-04T09:18:03.25Z</time></trkpt><trkpt lat="43.379966" lon="11.2462716"><ele>246.00000000000003</ele><time>2026-04-04T09:18:04.241Z</time></trkpt><trkpt lat="43.380035" lon="11.2462662"><ele>246.0</ele><time>2026-04-04T09:18:05.231Z</time></trkpt><trkpt lat="43.3800988" lon="11.2462643"><ele>246.00000000000003</ele><time>2026-04-04T09:18:06.248Z</time></trkpt><trkpt lat="43.3802169" lon="11.2462455"><ele>246.00000000000003</ele><time>2026-04-04T09:18:08.251Z</time></trkpt><trkpt lat="43.3803186" lon="11.2462289"><ele>246.0</ele><time>2026-04-04T09:18:10.235Z</time></trkpt><trkpt lat="43.3804053" lon="11.2462116"><ele>246.0</ele><time>2026-04-04T09:18:12.251Z</time></trkpt><trkpt lat="43.3804857" lon="11.2461855"><ele>244.83333333333334</ele><time>2026-04-04T09:18:14.231Z</time></trkpt><trkpt lat="43.3805636" lon="11.2461657"><ele>243.66666666666669</ele><time>2026-04-04T09:18:16.247Z</time></trkpt><trkpt lat="43.3806307" lon="11.2461352"><ele>242.5</ele><time>2026-04-04T09:18:18.253Z</time></trkpt><trkpt lat="43.3806917" lon="11.246097"><ele>241.33333333333334</ele><time>2026-04-04T09:18:20.25Z</time></trkpt><trkpt lat="43.3807678" lon="11.2460417"><ele>240.16666666666669</ele><time>2026-04-04T09:18:23.244Z</time></trkpt><trkpt lat="43.3808332" lon="11.2459888"><ele>239.0</ele><time>2026-04-04T09:18:26.249Z</time></trkpt><trkpt lat="43.3808992" lon="11.2459491"><ele>239.00000000000003</ele><time>2026-04-04T09:18:29.249Z</time></trkpt><trkpt lat="43.3809593" lon="11.2458972"><ele>239.0</ele><time>2026-04-04T09:18:32.24Z</time></trkpt><trkpt lat="43.3810317" lon="11.245836"><ele>239.0</ele><time>2026-04-04T09:18:35.245Z</time></trkpt><trkpt lat="43.3810898" lon="11.2457665"><ele>239.0</ele><time>2026-04-04T09:18:38.253Z</time></trkpt><trkpt lat="43.3811535" lon="11.2457103"><ele>239.00000000000003</ele><time>2026-04-04T09:18:41.251Z</time></trkpt><trkpt lat="43.3812163" lon="11.2456495"><ele>239.0</ele><time>2026-04-04T09:18:44.239Z</time></trkpt><trkpt lat="43.3812742" lon="11.2455981"><ele>239.33333333333334</ele><time>2026-04-04T09:18:47.238Z</time></trkpt><trkpt lat="43.3813355" lon="11.2455537"><ele>239.66666666666669</ele><time>2026-04-04T09:18:50.248Z</time></trkpt><trkpt lat="43.3814053" lon="11.2455118"><ele>240.0</ele><time>2026-04-04T09:18:53.236Z</time></trkpt><trkpt lat="43.3814834" lon="11.2454686"><ele>240.33333333333331</ele><time>2026-04-04T09:18:56.241Z</time></trkpt><trkpt lat="43.381574" lon="11.2454314"><ele>240.66666666666666</ele><time>2026-04-04T09:18:59.255Z</time></trkpt><trkpt lat="43.381653" lon="11.2453971"><ele>241.0</ele><time>2026-04-04T09:19:01.243Z</time></trkpt><trkpt lat="43.3817466" lon="11.245356"><ele>241.0</ele><time>2026-04-04T09:19:03.245Z</time></trkpt><trkpt lat="43.3818382" lon="11.2453172"><ele>241.00000000000003</ele><time>2026-04-04T09:19:05.235Z</time></trkpt><trkpt lat="43.3819327" lon="11.245283"><ele>241.00000000000003</ele><time>2026-04-04T09:19:07.235Z</time></trkpt><trkpt lat="43.3820206" lon="11.2452374"><ele>241.0</ele><time>2026-04-04T09:19:09.24Z</time></trkpt><trkpt lat="43.3820955" lon="11.2451843"><ele>241.0</ele><time>2026-04-04T09:19:11.238Z</time></trkpt><trkpt lat="43.3821687" lon="11.245124"><ele>240.66666666666666</ele><time>2026-04-04T09:19:13.253Z</time></trkpt><trkpt lat="43.3822302" lon="11.2450436"><ele>240.33333333333331</ele><time>2026-04-04T09:19:15.252Z</time></trkpt><trkpt lat="43.3822862" lon="11.2449533"><ele>240.0</ele><time>2026-04-04T09:19:17.26Z</time></trkpt><trkpt lat="43.3823297" lon="11.2448593"><ele>239.66666666666669</ele><time>2026-04-04T09:19:19.233Z</time></trkpt><trkpt lat="43.3823676" lon="11.2447588"><ele>239.33333333333334</ele><time>2026-04-04T09:19:21.238Z</time></trkpt><trkpt lat="43.3824015" lon="11.2446486"><ele>239.0</ele><time>2026-04-04T09:19:23.251Z</time></trkpt><trkpt lat="43.3824202" lon="11.2445316"><ele>239.00000000000003</ele><time>2026-04-04T09:19:25.241Z</time></trkpt><trkpt lat="43.3824176" lon="11.24441"><ele>239.0</ele><time>2026-04-04T09:19:27.251Z</time></trkpt><trkpt lat="43.3824123" lon="11.2442817"><ele>239.0</ele><time>2026-04-04T09:19:29.243Z</time></trkpt><trkpt lat="43.3823976" lon="11.2441656"><ele>239.0</ele><time>2026-04-04T09:19:31.251Z</time></trkpt><trkpt lat="43.3823634" lon="11.2440521"><ele>239.00000000000003</ele><time>2026-04-04T09:19:33.242Z</time></trkpt><trkpt lat="43.382321" lon="11.2439497"><ele>239.0</ele><time>2026-04-04T09:19:35.239Z</time></trkpt><trkpt lat="43.3822749" lon="11.243848"><ele>239.0</ele><time>2026-04-04T09:19:37.235Z</time></trkpt><trkpt lat="43.3822222" lon="11.2437535"><ele>238.99999999999997</ele><time>2026-04-04T09:19:39.24Z</time></trkpt><trkpt lat="43.3821607" lon="11.243655"><ele>238.99999999999997</ele><time>2026-04-04T09:19:41.248Z</time></trkpt><trkpt lat="43.3821042" lon="11.243553"><ele>239.0</ele><time>2026-04-04T09:19:43.243Z</time></trkpt><trkpt lat="43.3820492" lon="11.2434359"><ele>239.0</ele><time>2026-04-04T09:19:45.247Z</time></trkpt><trkpt lat="43.3820036" lon="11.2432983"><ele>238.75</ele><time>2026-04-04T09:19:47.237Z</time></trkpt><trkpt lat="43.3819846" lon="11.2431386"><ele>238.5</ele><time>2026-04-04T09:19:49.239Z</time></trkpt><trkpt lat="43.3819827" lon="11.2429752"><ele>238.25</ele><time>2026-04-04T09:19:51.241Z</time></trkpt><trkpt lat="43.3819978" lon="11.2428214"><ele>238.0</ele><time>2026-04-04T09:19:53.242Z</time></trkpt><trkpt lat="43.3820412" lon="11.2426813"><ele>237.8</ele><time>2026-04-04T09:19:55.244Z</time></trkpt><trkpt lat="43.3820948" lon="11.2425489"><ele>237.60000000000002</ele><time>2026-04-04T09:19:57.244Z</time></trkpt><trkpt lat="43.3821413" lon="11.2424217"><ele>237.39999999999998</ele><time>2026-04-04T09:19:59.235Z</time></trkpt><trkpt lat="43.3821865" lon="11.2422987"><ele>237.2</ele><time>2026-04-04T09:20:01.233Z</time></trkpt><trkpt lat="43.3822266" lon="11.2421744"><ele>237.0</ele><time>2026-04-04T09:20:03.258Z</time></trkpt><trkpt lat="43.3822682" lon="11.2420534"><ele>237.0</ele><time>2026-04-04T09:20:05.243Z</time></trkpt><trkpt lat="43.382313" lon="11.2419351"><ele>237.0</ele><time>2026-04-04T09:20:07.247Z</time></trkpt><trkpt lat="43.3823499" lon="11.241817"><ele>237.0</ele><time>2026-04-04T09:20:09.237Z</time></trkpt><trkpt lat="43.3823893" lon="11.2417037"><ele>237.0</ele><time>2026-04-04T09:20:11.246Z</time></trkpt><trkpt lat="43.3824318" lon="11.2415885"><ele>237.0</ele><time>2026-04-04T09:20:13.25Z</time></trkpt><trkpt lat="43.382469" lon="11.2414689"><ele>238.2</ele><time>2026-04-04T09:20:15.248Z</time></trkpt><trkpt lat="43.3825053" lon="11.2413576"><ele>239.39999999999998</ele><time>2026-04-04T09:20:17.241Z</time></trkpt><trkpt lat="43.3825424" lon="11.2412542"><ele>240.60000000000002</ele><time>2026-04-04T09:20:19.237Z</time></trkpt><trkpt lat="43.3825742" lon="11.2411378"><ele>241.8</ele><time>2026-04-04T09:20:21.247Z</time></trkpt><trkpt lat="43.3826093" lon="11.241017"><ele>243.0</ele><time>2026-04-04T09:20:23.239Z</time></trkpt><trkpt lat="43.3826517" lon="11.240897"><ele>243.0</ele><time>2026-04-04T09:20:25.248Z</time></trkpt><trkpt lat="43.3826982" lon="11.2407828"><ele>243.0</ele><time>2026-04-04T09:20:27.242Z</time></trkpt><trkpt lat="43.3827397" lon="11.2406685"><ele>243.0</ele><time>2026-04-04T09:20:29.235Z</time></trkpt><trkpt lat="43.3827837" lon="11.2405471"><ele>243.0</ele><time>2026-04-04T09:20:31.24Z</time></trkpt><trkpt lat="43.3828244" lon="11.2404301"><ele>243.0</ele><time>2026-04-04T09:20:33.238Z</time></trkpt><trkpt lat="43.3828576" lon="11.2403104"><ele>243.2</ele><time>2026-04-04T09:20:35.238Z</time></trkpt><trkpt lat="43.3828946" lon="11.2401859"><ele>243.4</ele><time>2026-04-04T09:20:37.256Z</time></trkpt><trkpt lat="43.3829453" lon="11.240056"><ele>243.59999999999997</ele><time>2026-04-04T09:20:39.237Z</time></trkpt><trkpt lat="43.383014" lon="11.2399179"><ele>243.79999999999998</ele><time>2026-04-04T09:20:41.242Z</time></trkpt><trkpt lat="43.383057" lon="11.2398515"><ele>244.0</ele><time>2026-04-04T09:20:42.239Z</time></trkpt><trkpt lat="43.3831051" lon="11.2397879"><ele>243.2</ele><time>2026-04-04T09:20:43.264Z</time></trkpt><trkpt lat="43.3832049" lon="11.2396899"><ele>242.39999999999998</ele><time>2026-04-04T09:20:45.235Z</time></trkpt><trkpt lat="43.3833084" lon="11.2395933"><ele>241.6</ele><time>2026-04-04T09:20:47.246Z</time></trkpt><trkpt lat="43.3833645" lon="11.2395466"><ele>240.8</ele><time>2026-04-04T09:20:48.245Z</time></trkpt><trkpt lat="43.3834248" lon="11.2394943"><ele>240.0</ele><time>2026-04-04T09:20:49.257Z</time></trkpt><trkpt lat="43.3834868" lon="11.2394427"><ele>240.0</ele><time>2026-04-04T09:20:50.241Z</time></trkpt><trkpt lat="43.3835513" lon="11.2393884"><ele>240.0</ele><time>2026-04-04T09:20:51.232Z</time></trkpt><trkpt lat="43.3836175" lon="11.2393252"><ele>240.0</ele><time>2026-04-04T09:20:52.236Z</time></trkpt><trkpt lat="43.3836841" lon="11.2392612"><ele>240.0</ele><time>2026-04-04T09:20:53.24Z</time></trkpt><trkpt lat="43.38375" lon="11.2391958"><ele>240.0</ele><time>2026-04-04T09:20:54.237Z</time></trkpt><trkpt lat="43.3838182" lon="11.239133"><ele>240.0</ele><time>2026-04-04T09:20:55.243Z</time></trkpt><trkpt lat="43.3838829" lon="11.2390705"><ele>240.0</ele><time>2026-04-04T09:20:56.254Z</time></trkpt><trkpt lat="43.3839518" lon="11.2390083"><ele>240.0</ele><time>2026-04-04T09:20:57.237Z</time></trkpt><trkpt lat="43.3840237" lon="11.2389467"><ele>240.0</ele><time>2026-04-04T09:20:58.239Z</time></trkpt><trkpt lat="43.3840961" lon="11.2388851"><ele>240.0</ele><time>2026-04-04T09:20:59.245Z</time></trkpt><trkpt lat="43.3841693" lon="11.23882"><ele>240.0</ele><time>2026-04-04T09:21:00.259Z</time></trkpt><trkpt lat="43.38424" lon="11.2387473"><ele>240.0</ele><time>2026-04-04T09:21:01.238Z</time></trkpt><trkpt lat="43.3843148" lon="11.2386711"><ele>239.6</ele><time>2026-04-04T09:21:02.235Z</time></trkpt><trkpt lat="43.3843941" lon="11.2385965"><ele>239.2</ele><time>2026-04-04T09:21:03.242Z</time></trkpt><trkpt lat="43.3844714" lon="11.2385204"><ele>238.8</ele><time>2026-04-04T09:21:04.254Z</time></trkpt><trkpt lat="43.3845504" lon="11.2384492"><ele>238.4</ele><time>2026-04-04T09:21:05.242Z</time></trkpt><trkpt lat="43.3846364" lon="11.2383806"><ele>238.0</ele><time>2026-04-04T09:21:06.26Z</time></trkpt><trkpt lat="43.3847244" lon="11.2383132"><ele>238.0</ele><time>2026-04-04T09:21:07.242Z</time></trkpt><trkpt lat="43.3848108" lon="11.2382409"><ele>238.0</ele><time>2026-04-04T09:21:08.232Z</time></trkpt><trkpt lat="43.384893" lon="11.2381661"><ele>238.0</ele><time>2026-04-04T09:21:09.239Z</time></trkpt><trkpt lat="43.3849784" lon="11.2380819"><ele>238.0</ele><time>2026-04-04T09:21:10.238Z</time></trkpt><trkpt lat="43.3850657" lon="11.2379992"><ele>238.0</ele><time>2026-04-04T09:21:11.234Z</time></trkpt><trkpt lat="43.3851534" lon="11.237921"><ele>238.2</ele><time>2026-04-04T09:21:12.238Z</time></trkpt><trkpt lat="43.3852434" lon="11.2378384"><ele>238.4</ele><time>2026-04-04T09:21:13.253Z</time></trkpt><trkpt lat="43.3853357" lon="11.2377594"><ele>238.59999999999997</ele><time>2026-04-04T09:21:14.238Z</time></trkpt><trkpt lat="43.38543" lon="11.2376767"><ele>238.79999999999998</ele><time>2026-04-04T09:21:15.245Z</time></trkpt><trkpt lat="43.3855248" lon="11.2375907"><ele>239.0</ele><time>2026-04-04T09:21:16.232Z</time></trkpt><trkpt lat="43.3856211" lon="11.2375026"><ele>237.0</ele><time>2026-04-04T09:21:17.234Z</time></trkpt><trkpt lat="43.3857186" lon="11.2374155"><ele>235.0</ele><time>2026-04-04T09:21:18.247Z</time></trkpt><trkpt lat="43.3858122" lon="11.2373278"><ele>233.0</ele><time>2026-04-04T09:21:19.231Z</time></trkpt><trkpt lat="43.3859043" lon="11.237241"><ele>231.0</ele><time>2026-04-04T09:21:20.239Z</time></trkpt><trkpt lat="43.3859974" lon="11.2371474"><ele>230.60000000000002</ele><time>2026-04-04T09:21:21.242Z</time></trkpt><trkpt lat="43.3860854" lon="11.2370478"><ele>230.20000000000002</ele><time>2026-04-04T09:21:22.239Z</time></trkpt><trkpt lat="43.3861647" lon="11.2369387"><ele>229.79999999999998</ele><time>2026-04-04T09:21:23.241Z</time></trkpt><trkpt lat="43.3862278" lon="11.236821"><ele>229.39999999999998</ele><time>2026-04-04T09:21:24.234Z</time></trkpt><trkpt lat="43.3862652" lon="11.2366833"><ele>229.0</ele><time>2026-04-04T09:21:25.24Z</time></trkpt><trkpt lat="43.3862708" lon="11.2365328"><ele>228.0</ele><time>2026-04-04T09:21:26.242Z</time></trkpt><trkpt lat="43.386253" lon="11.2363871"><ele>226.99999999999997</ele><time>2026-04-04T09:21:27.242Z</time></trkpt><trkpt lat="43.3862187" lon="11.236248"><ele>225.99999999999997</ele><time>2026-04-04T09:21:28.24Z</time></trkpt><trkpt lat="43.3861735" lon="11.2361115"><ele>225.0</ele><time>2026-04-04T09:21:29.267Z</time></trkpt><trkpt lat="43.3861262" lon="11.235979"><ele>224.0</ele><time>2026-04-04T09:21:30.239Z</time></trkpt><trkpt lat="43.3860827" lon="11.2358506"><ele>224.0</ele><time>2026-04-04T09:21:31.233Z</time></trkpt><trkpt lat="43.386043" lon="11.2357228"><ele>223.99999999999997</ele><time>2026-04-04T09:21:32.252Z</time></trkpt><trkpt lat="43.386008" lon="11.2355947"><ele>223.99999999999997</ele><time>2026-04-04T09:21:33.242Z</time></trkpt><trkpt lat="43.3859729" lon="11.2354677"><ele>224.0</ele><time>2026-04-04T09:21:34.24Z</time></trkpt><trkpt lat="43.3859385" lon="11.2353418"><ele>224.0</ele><time>2026-04-04T09:21:35.25Z</time></trkpt><trkpt lat="43.385904" lon="11.2352242"><ele>223.50000000000003</ele><time>2026-04-04T09:21:36.248Z</time></trkpt><trkpt lat="43.3858692" lon="11.2351102"><ele>223.0</ele><time>2026-04-04T09:21:37.245Z</time></trkpt><trkpt lat="43.3858342" lon="11.2350053"><ele>222.5</ele><time>2026-04-04T09:21:38.238Z</time></trkpt><trkpt lat="43.3857978" lon="11.2349062"><ele>222.0</ele><time>2026-04-04T09:21:39.239Z</time></trkpt><trkpt lat="43.3857627" lon="11.2348104"><ele>221.50000000000003</ele><time>2026-04-04T09:21:40.241Z</time></trkpt><trkpt lat="43.3857311" lon="11.2347155"><ele>221.0</ele><time>2026-04-04T09:21:41.243Z</time></trkpt><trkpt lat="43.3857029" lon="11.234624"><ele>221.00000000000003</ele><time>2026-04-04T09:21:42.253Z</time></trkpt><trkpt lat="43.3856791" lon="11.2345351"><ele>221.0</ele><time>2026-04-04T09:21:43.233Z</time></trkpt><trkpt lat="43.3856574" lon="11.2344456"><ele>221.0</ele><time>2026-04-04T09:21:44.236Z</time></trkpt><trkpt lat="43.385635" lon="11.2343574"><ele>221.0</ele><time>2026-04-04T09:21:45.239Z</time></trkpt><trkpt lat="43.3856106" lon="11.2342739"><ele>221.00000000000003</ele><time>2026-04-04T09:21:46.236Z</time></trkpt><trkpt lat="43.3855608" lon="11.2341212"><ele>221.0</ele><time>2026-04-04T09:21:48.237Z</time></trkpt><trkpt lat="43.3855139" lon="11.23397"><ele>221.60000000000002</ele><time>2026-04-04T09:21:50.244Z</time></trkpt><trkpt lat="43.3854633" lon="11.2338261"><ele>222.20000000000002</ele><time>2026-04-04T09:21:52.245Z</time></trkpt><trkpt lat="43.3854155" lon="11.2336903"><ele>222.79999999999998</ele><time>2026-04-04T09:21:54.244Z</time></trkpt><trkpt lat="43.3853762" lon="11.2335605"><ele>223.39999999999998</ele><time>2026-04-04T09:21:56.24Z</time></trkpt><trkpt lat="43.3853354" lon="11.2334355"><ele>224.0</ele><time>2026-04-04T09:21:58.247Z</time></trkpt><trkpt lat="43.385296" lon="11.2333111"><ele>224.0</ele><time>2026-04-04T09:22:00.246Z</time></trkpt><trkpt lat="43.3852594" lon="11.2331877"><ele>223.99999999999997</ele><time>2026-04-04T09:22:02.241Z</time></trkpt><trkpt lat="43.3852184" lon="11.2330613"><ele>223.99999999999997</ele><time>2026-04-04T09:22:04.249Z</time></trkpt><trkpt lat="43.385182" lon="11.2329344"><ele>224.0</ele><time>2026-04-04T09:22:06.237Z</time></trkpt><trkpt lat="43.3851423" lon="11.2328049"><ele>224.0</ele><time>2026-04-04T09:22:08.248Z</time></trkpt><trkpt lat="43.3851145" lon="11.2326817"><ele>224.57142857142856</ele><time>2026-04-04T09:22:10.242Z</time></trkpt><trkpt lat="43.3851005" lon="11.2325638"><ele>225.14285714285714</ele><time>2026-04-04T09:22:12.249Z</time></trkpt><trkpt lat="43.3850909" lon="11.2324564"><ele>225.71428571428572</ele><time>2026-04-04T09:22:14.255Z</time></trkpt><trkpt lat="43.3850766" lon="11.2323557"><ele>226.28571428571428</ele><time>2026-04-04T09:22:16.24Z</time></trkpt><trkpt lat="43.3850713" lon="11.2322591"><ele>226.85714285714283</ele><time>2026-04-04T09:22:18.253Z</time></trkpt><trkpt lat="43.3850685" lon="11.2321664"><ele>227.42857142857142</ele><time>2026-04-04T09:22:20.24Z</time></trkpt><trkpt lat="43.3850606" lon="11.2320777"><ele>228.0</ele><time>2026-04-04T09:22:22.241Z</time></trkpt><trkpt lat="43.3850508" lon="11.2319896"><ele>228.7142857142857</ele><time>2026-04-04T09:22:24.242Z</time></trkpt><trkpt lat="43.3850401" lon="11.2318994"><ele>229.4285714285714</ele><time>2026-04-04T09:22:26.234Z</time></trkpt><trkpt lat="43.3850228" lon="11.2318125"><ele>230.14285714285714</ele><time>2026-04-04T09:22:28.244Z</time></trkpt><trkpt lat="43.3850087" lon="11.2317242"><ele>230.85714285714283</ele><time>2026-04-04T09:22:30.243Z</time></trkpt><trkpt lat="43.3850056" lon="11.2316326"><ele>231.57142857142856</ele><time>2026-04-04T09:22:32.236Z</time></trkpt><trkpt lat="43.3850166" lon="11.2315374"><ele>232.28571428571428</ele><time>2026-04-04T09:22:34.242Z</time></trkpt><trkpt lat="43.3850339" lon="11.2314425"><ele>233.0</ele><time>2026-04-04T09:22:36.237Z</time></trkpt><trkpt lat="43.3850589" lon="11.2313429"><ele>233.33333333333334</ele><time>2026-04-04T09:22:38.253Z</time></trkpt><trkpt lat="43.385066" lon="11.231239"><ele>233.66666666666669</ele><time>2026-04-04T09:22:40.243Z</time></trkpt><trkpt lat="43.3850714" lon="11.2311281"><ele>234.0</ele><time>2026-04-04T09:22:42.24Z</time></trkpt><trkpt lat="43.3850742" lon="11.2310045"><ele>234.33333333333331</ele><time>2026-04-04T09:22:44.241Z</time></trkpt><trkpt lat="43.3850786" lon="11.2308936"><ele>234.66666666666666</ele><time>2026-04-04T09:22:46.243Z</time></trkpt><trkpt lat="43.3850817" lon="11.230791"><ele>235.0</ele><time>2026-04-04T09:22:48.241Z</time></trkpt><trkpt lat="43.3850924" lon="11.2306879"><ele>235.16666666666666</ele><time>2026-04-04T09:22:50.262Z</time></trkpt><trkpt lat="43.3851155" lon="11.2305907"><ele>235.33333333333331</ele><time>2026-04-04T09:22:52.248Z</time></trkpt><trkpt lat="43.3851395" lon="11.2305029"><ele>235.5</ele><time>2026-04-04T09:22:54.246Z</time></trkpt><trkpt lat="43.3851477" lon="11.2304116"><ele>235.66666666666669</ele><time>2026-04-04T09:22:56.263Z</time></trkpt><trkpt lat="43.385154" lon="11.2303005"><ele>235.83333333333334</ele><time>2026-04-04T09:22:58.238Z</time></trkpt><trkpt lat="43.3851585" lon="11.2301777"><ele>236.0</ele><time>2026-04-04T09:23:00.241Z</time></trkpt><trkpt lat="43.3851619" lon="11.230064"><ele>236.00000000000003</ele><time>2026-04-04T09:23:02.243Z</time></trkpt><trkpt lat="43.3851669" lon="11.2299478"><ele>236.0</ele><time>2026-04-04T09:23:04.273Z</time></trkpt><trkpt lat="43.3851779" lon="11.2298457"><ele>236.0</ele><time>2026-04-04T09:23:06.241Z</time></trkpt><trkpt lat="43.3851933" lon="11.2297389"><ele>236.0</ele><time>2026-04-04T09:23:08.237Z</time></trkpt><trkpt lat="43.3851965" lon="11.2296157"><ele>236.00000000000003</ele><time>2026-04-04T09:23:10.247Z</time></trkpt><trkpt lat="43.3851958" lon="11.2295014"><ele>236.0</ele><time>2026-04-04T09:23:12.24Z</time></trkpt><trkpt lat="43.3852061" lon="11.229398"><ele>236.0</ele><time>2026-04-04T09:23:14.239Z</time></trkpt><trkpt lat="43.3852211" lon="11.2292964"><ele>236.0</ele><time>2026-04-04T09:23:16.241Z</time></trkpt><trkpt lat="43.3852387" lon="11.229191"><ele>236.0</ele><time>2026-04-04T09:23:18.234Z</time></trkpt><trkpt lat="43.3852514" lon="11.2290884"><ele>236.0</ele><time>2026-04-04T09:23:20.253Z</time></trkpt><trkpt lat="43.3852588" lon="11.2289859"><ele>236.0</ele><time>2026-04-04T09:23:22.239Z</time></trkpt><trkpt lat="43.3852641" lon="11.2288873"><ele>236.0</ele><time>2026-04-04T09:23:24.246Z</time></trkpt><trkpt lat="43.3852745" lon="11.2287892"><ele>236.0</ele><time>2026-04-04T09:23:26.245Z</time></trkpt><trkpt lat="43.3852884" lon="11.2286812"><ele>236.16666666666669</ele><time>2026-04-04T09:23:28.237Z</time></trkpt><trkpt lat="43.3853039" lon="11.2285548"><ele>236.33333333333334</ele><time>2026-04-04T09:23:30.25Z</time></trkpt><trkpt lat="43.3853219" lon="11.2284443"><ele>236.5</ele><time>2026-04-04T09:23:32.243Z</time></trkpt><trkpt lat="43.3853393" lon="11.2283445"><ele>236.66666666666669</ele><time>2026-04-04T09:23:34.234Z</time></trkpt><trkpt lat="43.3853517" lon="11.2282451"><ele>236.83333333333334</ele><time>2026-04-04T09:23:36.241Z</time></trkpt><trkpt lat="43.3853661" lon="11.2281368"><ele>237.0</ele><time>2026-04-04T09:23:38.249Z</time></trkpt><trkpt lat="43.3853847" lon="11.2280352"><ele>237.28571428571425</ele><time>2026-04-04T09:23:40.249Z</time></trkpt><trkpt lat="43.3854044" lon="11.2279352"><ele>237.57142857142856</ele><time>2026-04-04T09:23:42.24Z</time></trkpt><trkpt lat="43.3854226" lon="11.2278347"><ele>237.85714285714286</ele><time>2026-04-04T09:23:44.241Z</time></trkpt><trkpt lat="43.3854443" lon="11.2277431"><ele>238.14285714285714</ele><time>2026-04-04T09:23:46.242Z</time></trkpt><trkpt lat="43.3854601" lon="11.2276491"><ele>238.42857142857144</ele><time>2026-04-04T09:23:48.25Z</time></trkpt><trkpt lat="43.385477" lon="11.2275554"><ele>238.71428571428575</ele><time>2026-04-04T09:23:50.256Z</time></trkpt><trkpt lat="43.385494" lon="11.2274556"><ele>239.00000000000003</ele><time>2026-04-04T09:23:52.252Z</time></trkpt><trkpt lat="43.3855138" lon="11.2273549"><ele>239.83333333333334</ele><time>2026-04-04T09:23:54.25Z</time></trkpt><trkpt lat="43.3855247" lon="11.22725"><ele>240.66666666666669</ele><time>2026-04-04T09:23:56.246Z</time></trkpt><trkpt lat="43.3855378" lon="11.2271372"><ele>241.5</ele><time>2026-04-04T09:23:58.234Z</time></trkpt><trkpt lat="43.3855552" lon="11.2270238"><ele>242.33333333333331</ele><time>2026-04-04T09:24:00.246Z</time></trkpt><trkpt lat="43.3855655" lon="11.2269028"><ele>243.16666666666666</ele><time>2026-04-04T09:24:02.237Z</time></trkpt><trkpt lat="43.3855842" lon="11.2267866"><ele>244.0</ele><time>2026-04-04T09:24:04.254Z</time></trkpt><trkpt lat="43.3856087" lon="11.2266633"><ele>244.0</ele><time>2026-04-04T09:24:06.248Z</time></trkpt><trkpt lat="43.3856383" lon="11.2265441"><ele>243.99999999999997</ele><time>2026-04-04T09:24:08.257Z</time></trkpt><trkpt lat="43.3856684" lon="11.2264347"><ele>243.99999999999997</ele><time>2026-04-04T09:24:10.247Z</time></trkpt><trkpt lat="43.3856896" lon="11.2263164"><ele>244.0</ele><time>2026-04-04T09:24:12.257Z</time></trkpt><trkpt lat="43.3857184" lon="11.2261899"><ele>244.0</ele><time>2026-04-04T09:24:14.232Z</time></trkpt><trkpt lat="43.3857433" lon="11.2260507"><ele>243.66666666666666</ele><time>2026-04-04T09:24:16.251Z</time></trkpt><trkpt lat="43.3857695" lon="11.2258897"><ele>243.33333333333331</ele><time>2026-04-04T09:24:18.232Z</time></trkpt><trkpt lat="43.3857823" lon="11.2257991"><ele>243.0</ele><time>2026-04-04T09:24:19.25Z</time></trkpt><trkpt lat="43.3857948" lon="11.2257076"><ele>242.66666666666669</ele><time>2026-04-04T09:24:20.257Z</time></trkpt><trkpt lat="43.3858118" lon="11.2256144"><ele>242.33333333333334</ele><time>2026-04-04T09:24:21.237Z</time></trkpt><trkpt lat="43.3858323" lon="11.2255149"><ele>242.0</ele><time>2026-04-04T09:24:22.25Z</time></trkpt><trkpt lat="43.3858539" lon="11.2254173"><ele>241.16666666666669</ele><time>2026-04-04T09:24:23.261Z</time></trkpt><trkpt lat="43.3858716" lon="11.2253183"><ele>240.33333333333334</ele><time>2026-04-04T09:24:24.241Z</time></trkpt><trkpt lat="43.3858881" lon="11.2252174"><ele>239.5</ele><time>2026-04-04T09:24:25.237Z</time></trkpt><trkpt lat="43.3859049" lon="11.2251132"><ele>238.66666666666669</ele><time>2026-04-04T09:24:26.237Z</time></trkpt><trkpt lat="43.3859315" lon="11.2250017"><ele>237.83333333333334</ele><time>2026-04-04T09:24:27.238Z</time></trkpt><trkpt lat="43.3859714" lon="11.2248861"><ele>237.0</ele><time>2026-04-04T09:24:28.245Z</time></trkpt><trkpt lat="43.3860268" lon="11.2247737"><ele>236.2</ele><time>2026-04-04T09:24:29.24Z</time></trkpt><trkpt lat="43.3860939" lon="11.2246694"><ele>235.39999999999998</ele><time>2026-04-04T09:24:30.236Z</time></trkpt><trkpt lat="43.3861636" lon="11.2245661"><ele>234.60000000000002</ele><time>2026-04-04T09:24:31.242Z</time></trkpt><trkpt lat="43.386235" lon="11.2244597"><ele>233.8</ele><time>2026-04-04T09:24:32.249Z</time></trkpt><trkpt lat="43.3863063" lon="11.2243472"><ele>233.0</ele><time>2026-04-04T09:24:33.254Z</time></trkpt><trkpt lat="43.3863741" lon="11.2242313"><ele>232.8</ele><time>2026-04-04T09:24:34.24Z</time></trkpt><trkpt lat="43.3864441" lon="11.2241121"><ele>232.60000000000002</ele><time>2026-04-04T09:24:35.253Z</time></trkpt><trkpt lat="43.3865137" lon="11.2239948"><ele>232.39999999999998</ele><time>2026-04-04T09:24:36.245Z</time></trkpt><trkpt lat="43.3865853" lon="11.223879"><ele>232.2</ele><time>2026-04-04T09:24:37.248Z</time></trkpt><trkpt lat="43.386658" lon="11.2237654"><ele>232.0</ele><time>2026-04-04T09:24:38.241Z</time></trkpt><trkpt lat="43.3867299" lon="11.2236648"><ele>231.0</ele><time>2026-04-04T09:24:39.243Z</time></trkpt><trkpt lat="43.3867982" lon="11.2235687"><ele>230.0</ele><time>2026-04-04T09:24:40.243Z</time></trkpt><trkpt lat="43.3868656" lon="11.2234765"><ele>229.0</ele><time>2026-04-04T09:24:41.247Z</time></trkpt><trkpt lat="43.3869319" lon="11.2233892"><ele>228.0</ele><time>2026-04-04T09:24:42.251Z</time></trkpt><trkpt lat="43.3869964" lon="11.2233055"><ele>227.0</ele><time>2026-04-04T09:24:43.258Z</time></trkpt><trkpt lat="43.387057" lon="11.2232262"><ele>227.00000000000003</ele><time>2026-04-04T09:24:44.242Z</time></trkpt><trkpt lat="43.3871154" lon="11.2231486"><ele>227.0</ele><time>2026-04-04T09:24:45.237Z</time></trkpt><trkpt lat="43.3871753" lon="11.2230703"><ele>227.0</ele><time>2026-04-04T09:24:46.233Z</time></trkpt><trkpt lat="43.3872359" lon="11.2229959"><ele>227.0</ele><time>2026-04-04T09:24:47.247Z</time></trkpt><trkpt lat="43.3872962" lon="11.2229273"><ele>227.00000000000003</ele><time>2026-04-04T09:24:48.241Z</time></trkpt><trkpt lat="43.3873545" lon="11.2228608"><ele>227.0</ele><time>2026-04-04T09:24:49.235Z</time></trkpt><trkpt lat="43.3874123" lon="11.2227923"><ele>227.2857142857143</ele><time>2026-04-04T09:24:50.249Z</time></trkpt><trkpt lat="43.3874664" lon="11.2227275"><ele>227.5714285714286</ele><time>2026-04-04T09:24:51.238Z</time></trkpt><trkpt lat="43.3875198" lon="11.2226618"><ele>227.85714285714286</ele><time>2026-04-04T09:24:52.237Z</time></trkpt><trkpt lat="43.3875725" lon="11.2225945"><ele>228.14285714285717</ele><time>2026-04-04T09:24:53.242Z</time></trkpt><trkpt lat="43.3876259" lon="11.2225314"><ele>228.42857142857144</ele><time>2026-04-04T09:24:54.237Z</time></trkpt><trkpt lat="43.3876765" lon="11.222471"><ele>228.71428571428572</ele><time>2026-04-04T09:24:55.243Z</time></trkpt><trkpt lat="43.3877262" lon="11.222415"><ele>229.0</ele><time>2026-04-04T09:24:56.246Z</time></trkpt><trkpt lat="43.3878213" lon="11.2223086"><ele>228.71428571428572</ele><time>2026-04-04T09:24:58.246Z</time></trkpt><trkpt lat="43.3878695" lon="11.2222527"><ele>228.42857142857144</ele><time>2026-04-04T09:24:59.246Z</time></trkpt><trkpt lat="43.3879206" lon="11.2221962"><ele>228.14285714285717</ele><time>2026-04-04T09:25:00.24Z</time></trkpt><trkpt lat="43.3879778" lon="11.222136"><ele>227.85714285714286</ele><time>2026-04-04T09:25:01.247Z</time></trkpt><trkpt lat="43.3880354" lon="11.222069"><ele>227.5714285714286</ele><time>2026-04-04T09:25:02.263Z</time></trkpt><trkpt lat="43.3880951" lon="11.2220003"><ele>227.2857142857143</ele><time>2026-04-04T09:25:03.24Z</time></trkpt><trkpt lat="43.3881591" lon="11.2219265"><ele>227.0</ele><time>2026-04-04T09:25:04.258Z</time></trkpt><trkpt lat="43.3882261" lon="11.2218524"><ele>227.0</ele><time>2026-04-04T09:25:05.252Z</time></trkpt><trkpt lat="43.3882971" lon="11.2217735"><ele>227.0</ele><time>2026-04-04T09:25:06.237Z</time></trkpt><trkpt lat="43.3883705" lon="11.2216903"><ele>227.0</ele><time>2026-04-04T09:25:07.238Z</time></trkpt><trkpt lat="43.3884457" lon="11.2216027"><ele>227.0</ele><time>2026-04-04T09:25:08.251Z</time></trkpt><trkpt lat="43.3885216" lon="11.2215171"><ele>227.0</ele><time>2026-04-04T09:25:09.239Z</time></trkpt><trkpt lat="43.3885942" lon="11.2214359"><ele>226.8</ele><time>2026-04-04T09:25:10.238Z</time></trkpt><trkpt lat="43.3886661" lon="11.2213587"><ele>226.6</ele><time>2026-04-04T09:25:11.259Z</time></trkpt><trkpt lat="43.3887386" lon="11.221284"><ele>226.40000000000003</ele><time>2026-04-04T09:25:12.234Z</time></trkpt><trkpt lat="43.3888119" lon="11.2212103"><ele>226.20000000000002</ele><time>2026-04-04T09:25:13.24Z</time></trkpt><trkpt lat="43.3888865" lon="11.2211312"><ele>226.0</ele><time>2026-04-04T09:25:14.24Z</time></trkpt><trkpt lat="43.3889608" lon="11.2210502"><ele>226.0</ele><time>2026-04-04T09:25:15.272Z</time></trkpt><trkpt lat="43.3890385" lon="11.220968"><ele>226.00000000000003</ele><time>2026-04-04T09:25:16.253Z</time></trkpt><trkpt lat="43.3891188" lon="11.2208886"><ele>226.00000000000003</ele><time>2026-04-04T09:25:17.235Z</time></trkpt><trkpt lat="43.3891979" lon="11.2208119"><ele>226.0</ele><time>2026-04-04T09:25:18.236Z</time></trkpt><trkpt lat="43.3892794" lon="11.2207336"><ele>226.0</ele><time>2026-04-04T09:25:19.234Z</time></trkpt><trkpt lat="43.3893618" lon="11.2206574"><ele>224.4</ele><time>2026-04-04T09:25:20.236Z</time></trkpt><trkpt lat="43.3894428" lon="11.2205788"><ele>222.8</ele><time>2026-04-04T09:25:21.249Z</time></trkpt><trkpt lat="43.3895217" lon="11.2205021"><ele>221.20000000000002</ele><time>2026-04-04T09:25:22.242Z</time></trkpt><trkpt lat="43.3896031" lon="11.2204258"><ele>219.60000000000002</ele><time>2026-04-04T09:25:23.245Z</time></trkpt><trkpt lat="43.3896872" lon="11.2203544"><ele>218.0</ele><time>2026-04-04T09:25:24.242Z</time></trkpt><trkpt lat="43.3897747" lon="11.2202878"><ele>218.0</ele><time>2026-04-04T09:25:25.256Z</time></trkpt><trkpt lat="43.3898622" lon="11.220224"><ele>218.0</ele><time>2026-04-04T09:25:26.252Z</time></trkpt><trkpt lat="43.3899491" lon="11.2201659"><ele>218.0</ele><time>2026-04-04T09:25:27.28Z</time></trkpt><trkpt lat="43.3900362" lon="11.2201094"><ele>218.0</ele><time>2026-04-04T09:25:28.242Z</time></trkpt><trkpt lat="43.3901291" lon="11.220055"><ele>218.0</ele><time>2026-04-04T09:25:29.241Z</time></trkpt><trkpt lat="43.3902266" lon="11.2200066"><ele>218.0</ele><time>2026-04-04T09:25:30.233Z</time></trkpt><trkpt lat="43.3903268" lon="11.219967"><ele>218.0</ele><time>2026-04-04T09:25:31.243Z</time></trkpt><trkpt lat="43.3904321" lon="11.2199395"><ele>218.0</ele><time>2026-04-04T09:25:32.242Z</time></trkpt><trkpt lat="43.3905436" lon="11.219929"><ele>218.0</ele><time>2026-04-04T09:25:33.274Z</time></trkpt><trkpt lat="43.3906544" lon="11.2199292"><ele>218.0</ele><time>2026-04-04T09:25:34.249Z</time></trkpt><trkpt lat="43.3907651" lon="11.2199314"><ele>217.2</ele><time>2026-04-04T09:25:35.256Z</time></trkpt><trkpt lat="43.3908761" lon="11.2199306"><ele>216.4</ele><time>2026-04-04T09:25:36.236Z</time></trkpt><trkpt lat="43.3909873" lon="11.2199258"><ele>215.59999999999997</ele><time>2026-04-04T09:25:37.237Z</time></trkpt><trkpt lat="43.3910996" lon="11.2199111"><ele>214.79999999999998</ele><time>2026-04-04T09:25:38.243Z</time></trkpt><trkpt lat="43.3912032" lon="11.2198771"><ele>214.0</ele><time>2026-04-04T09:25:39.245Z</time></trkpt><trkpt lat="43.3913069" lon="11.2198169"><ele>214.2</ele><time>2026-04-04T09:25:40.239Z</time></trkpt><trkpt lat="43.3914048" lon="11.2197456"><ele>214.39999999999998</ele><time>2026-04-04T09:25:41.248Z</time></trkpt><trkpt lat="43.3914917" lon="11.2196709"><ele>214.6</ele><time>2026-04-04T09:25:42.244Z</time></trkpt><trkpt lat="43.3915754" lon="11.2195955"><ele>214.8</ele><time>2026-04-04T09:25:43.246Z</time></trkpt><trkpt lat="43.3916564" lon="11.2195264"><ele>215.0</ele><time>2026-04-04T09:25:44.25Z</time></trkpt><trkpt lat="43.391737" lon="11.2194679"><ele>215.00000000000003</ele><time>2026-04-04T09:25:45.235Z</time></trkpt><trkpt lat="43.391818" lon="11.2194238"><ele>215.0</ele><time>2026-04-04T09:25:46.243Z</time></trkpt><trkpt lat="43.3919009" lon="11.2194097"><ele>215.0</ele><time>2026-04-04T09:25:47.237Z</time></trkpt><trkpt lat="43.3919814" lon="11.2194107"><ele>215.0</ele><time>2026-04-04T09:25:48.249Z</time></trkpt><trkpt lat="43.392065" lon="11.219416"><ele>215.00000000000003</ele><time>2026-04-04T09:25:49.246Z</time></trkpt><trkpt lat="43.3921461" lon="11.2194209"><ele>215.0</ele><time>2026-04-04T09:25:50.252Z</time></trkpt><trkpt lat="43.3922215" lon="11.2194225"><ele>213.83333333333334</ele><time>2026-04-04T09:25:51.238Z</time></trkpt><trkpt lat="43.3922933" lon="11.2194192"><ele>212.66666666666669</ele><time>2026-04-04T09:25:52.234Z</time></trkpt><trkpt lat="43.3923642" lon="11.2194118"><ele>211.5</ele><time>2026-04-04T09:25:53.247Z</time></trkpt><trkpt lat="43.3924276" lon="11.2193969"><ele>210.33333333333331</ele><time>2026-04-04T09:25:54.248Z</time></trkpt><trkpt lat="43.3925288" lon="11.2193229"><ele>209.16666666666666</ele><time>2026-04-04T09:25:56.242Z</time></trkpt><trkpt lat="43.3926188" lon="11.2192422"><ele>208.0</ele><time>2026-04-04T09:25:58.241Z</time></trkpt><trkpt lat="43.392704" lon="11.219269"><ele>208.0</ele><time>2026-04-04T09:26:00.238Z</time></trkpt><trkpt lat="43.3927534" lon="11.2193231"><ele>208.0</ele><time>2026-04-04T09:26:01.236Z</time></trkpt><trkpt lat="43.3928064" lon="11.2193848"><ele>208.0</ele><time>2026-04-04T09:26:02.254Z</time></trkpt><trkpt lat="43.3928651" lon="11.2194319"><ele>208.0</ele><time>2026-04-04T09:26:03.253Z</time></trkpt><trkpt lat="43.3929325" lon="11.2194617"><ele>208.0</ele><time>2026-04-04T09:26:04.238Z</time></trkpt><trkpt lat="43.3930076" lon="11.2194798"><ele>208.0</ele><time>2026-04-04T09:26:05.245Z</time></trkpt><trkpt lat="43.3930807" lon="11.2194986"><ele>208.0</ele><time>2026-04-04T09:26:06.236Z</time></trkpt><trkpt lat="43.3931531" lon="11.2195207"><ele>207.33333333333331</ele><time>2026-04-04T09:26:07.25Z</time></trkpt><trkpt lat="43.3932238" lon="11.2195519"><ele>206.66666666666666</ele><time>2026-04-04T09:26:08.25Z</time></trkpt><trkpt lat="43.3932963" lon="11.2195869"><ele>206.0</ele><time>2026-04-04T09:26:09.254Z</time></trkpt><trkpt lat="43.393379" lon="11.2196115"><ele>205.33333333333331</ele><time>2026-04-04T09:26:10.253Z</time></trkpt><trkpt lat="43.3934631" lon="11.219633"><ele>204.66666666666666</ele><time>2026-04-04T09:26:11.234Z</time></trkpt><trkpt lat="43.3935465" lon="11.2196473"><ele>204.0</ele><time>2026-04-04T09:26:12.253Z</time></trkpt><trkpt lat="43.3936288" lon="11.2196587"><ele>204.0</ele><time>2026-04-04T09:26:13.259Z</time></trkpt><trkpt lat="43.3937117" lon="11.2196723"><ele>204.0</ele><time>2026-04-04T09:26:14.236Z</time></trkpt><trkpt lat="43.3937912" lon="11.2196827"><ele>204.0</ele><time>2026-04-04T09:26:15.236Z</time></trkpt><trkpt lat="43.3938729" lon="11.2197053"><ele>204.0</ele><time>2026-04-04T09:26:16.238Z</time></trkpt><trkpt lat="43.393937" lon="11.2197254"><ele>204.0</ele><time>2026-04-04T09:26:17.246Z</time></trkpt><trkpt lat="43.3940407" lon="11.2197072"><ele>204.0</ele><time>2026-04-04T09:26:19.242Z</time></trkpt><trkpt lat="43.394109" lon="11.2195816"><ele>203.33333333333334</ele><time>2026-04-04T09:26:21.235Z</time></trkpt><trkpt lat="43.3941151" lon="11.2194374"><ele>202.66666666666669</ele><time>2026-04-04T09:26:23.253Z</time></trkpt><trkpt lat="43.3941301" lon="11.2193168"><ele>202.0</ele><time>2026-04-04T09:26:25.25Z</time></trkpt><trkpt lat="43.3941656" lon="11.2192054"><ele>201.33333333333334</ele><time>2026-04-04T09:26:27.243Z</time></trkpt><trkpt lat="43.3942108" lon="11.2191059"><ele>200.66666666666669</ele><time>2026-04-04T09:26:29.24Z</time></trkpt><trkpt lat="43.3942662" lon="11.2190246"><ele>200.0</ele><time>2026-04-04T09:26:31.253Z</time></trkpt><trkpt lat="43.3943265" lon="11.2189459"><ele>199.8</ele><time>2026-04-04T09:26:33.24Z</time></trkpt><trkpt lat="43.3943947" lon="11.2188718"><ele>199.6</ele><time>2026-04-04T09:26:35.248Z</time></trkpt><trkpt lat="43.3944776" lon="11.2188014"><ele>199.39999999999998</ele><time>2026-04-04T09:26:37.247Z</time></trkpt><trkpt lat="43.3945691" lon="11.2187283"><ele>199.2</ele><time>2026-04-04T09:26:39.263Z</time></trkpt><trkpt lat="43.3946573" lon="11.2186553"><ele>199.0</ele><time>2026-04-04T09:26:41.246Z</time></trkpt><trkpt lat="43.3947479" lon="11.2185721"><ele>198.33333333333331</ele><time>2026-04-04T09:26:43.25Z</time></trkpt><trkpt lat="43.3948454" lon="11.2184815"><ele>197.66666666666666</ele><time>2026-04-04T09:26:45.239Z</time></trkpt><trkpt lat="43.3948981" lon="11.2184333"><ele>197.0</ele><time>2026-04-04T09:26:46.238Z</time></trkpt><trkpt lat="43.394953" lon="11.2183826"><ele>196.33333333333331</ele><time>2026-04-04T09:26:47.247Z</time></trkpt><trkpt lat="43.3950588" lon="11.2182867"><ele>195.66666666666666</ele><time>2026-04-04T09:26:49.266Z</time></trkpt><trkpt lat="43.3951116" lon="11.218237"><ele>195.0</ele><time>2026-04-04T09:26:50.244Z</time></trkpt><trkpt lat="43.3951662" lon="11.2181832"><ele>195.0</ele><time>2026-04-04T09:26:51.239Z</time></trkpt><trkpt lat="43.3952228" lon="11.2181298"><ele>195.0</ele><time>2026-04-04T09:26:52.238Z</time></trkpt><trkpt lat="43.3952815" lon="11.2180782"><ele>195.0</ele><time>2026-04-04T09:26:53.241Z</time></trkpt><trkpt lat="43.3953405" lon="11.2180301"><ele>195.0</ele><time>2026-04-04T09:26:54.235Z</time></trkpt><trkpt lat="43.3953997" lon="11.2179759"><ele>195.0</ele><time>2026-04-04T09:26:55.242Z</time></trkpt><trkpt lat="43.3954521" lon="11.217912"><ele>195.0</ele><time>2026-04-04T09:26:56.241Z</time></trkpt><trkpt lat="43.3954949" lon="11.2178386"><ele>195.0</ele><time>2026-04-04T09:26:57.243Z</time></trkpt><trkpt lat="43.3955339" lon="11.2177568"><ele>194.8</ele><time>2026-04-04T09:26:58.246Z</time></trkpt><trkpt lat="43.3955645" lon="11.2176753"><ele>194.6</ele><time>2026-04-04T09:26:59.251Z</time></trkpt><trkpt lat="43.3955903" lon="11.2175929"><ele>194.39999999999998</ele><time>2026-04-04T09:27:00.25Z</time></trkpt><trkpt lat="43.3956286" lon="11.2174344"><ele>194.2</ele><time>2026-04-04T09:27:02.239Z</time></trkpt><trkpt lat="43.3956515" lon="11.2172877"><ele>194.0</ele><time>2026-04-04T09:27:04.248Z</time></trkpt><trkpt lat="43.3956705" lon="11.2171528"><ele>194.0</ele><time>2026-04-04T09:27:06.242Z</time></trkpt><trkpt lat="43.3957073" lon="11.2170377"><ele>194.0</ele><time>2026-04-04T09:27:08.24Z</time></trkpt><trkpt lat="43.3957827" lon="11.2169613"><ele>194.0</ele><time>2026-04-04T09:27:10.252Z</time></trkpt><trkpt lat="43.3958635" lon="11.2169087"><ele>194.0</ele><time>2026-04-04T09:27:12.251Z</time></trkpt><trkpt lat="43.3959434" lon="11.2168638"><ele>194.0</ele><time>2026-04-04T09:27:14.243Z</time></trkpt><trkpt lat="43.3960378" lon="11.2168486"><ele>194.00000000000003</ele><time>2026-04-04T09:27:16.234Z</time></trkpt><trkpt lat="43.3961547" lon="11.2168292"><ele>194.0</ele><time>2026-04-04T09:27:18.244Z</time></trkpt><trkpt lat="43.3962224" lon="11.2168136"><ele>194.0</ele><time>2026-04-04T09:27:19.239Z</time></trkpt><trkpt lat="43.3962884" lon="11.2167982"><ele>194.0</ele><time>2026-04-04T09:27:20.237Z</time></trkpt><trkpt lat="43.3963532" lon="11.2167821"><ele>194.00000000000003</ele><time>2026-04-04T09:27:21.241Z</time></trkpt><trkpt lat="43.3964223" lon="11.2167634"><ele>194.0</ele><time>2026-04-04T09:27:22.24Z</time></trkpt><trkpt lat="43.396492" lon="11.2167417"><ele>193.7142857142857</ele><time>2026-04-04T09:27:23.241Z</time></trkpt><trkpt lat="43.3965629" lon="11.2167215"><ele>193.42857142857144</ele><time>2026-04-04T09:27:24.246Z</time></trkpt><trkpt lat="43.3966333" lon="11.2167055"><ele>193.14285714285714</ele><time>2026-04-04T09:27:25.238Z</time></trkpt><trkpt lat="43.3967037" lon="11.2166886"><ele>192.85714285714283</ele><time>2026-04-04T09:27:26.238Z</time></trkpt><trkpt lat="43.3967723" lon="11.2166711"><ele>192.57142857142856</ele><time>2026-04-04T09:27:27.241Z</time></trkpt><trkpt lat="43.3968418" lon="11.2166529"><ele>192.28571428571428</ele><time>2026-04-04T09:27:28.236Z</time></trkpt><trkpt lat="43.3969084" lon="11.2166348"><ele>192.0</ele><time>2026-04-04T09:27:29.239Z</time></trkpt><trkpt lat="43.3969762" lon="11.2166162"><ele>191.99999999999997</ele><time>2026-04-04T09:27:30.244Z</time></trkpt><trkpt lat="43.3970422" lon="11.2165996"><ele>192.0</ele><time>2026-04-04T09:27:31.249Z</time></trkpt><trkpt lat="43.3971048" lon="11.2165835"><ele>192.0</ele><time>2026-04-04T09:27:32.236Z</time></trkpt><trkpt lat="43.3971678" lon="11.2165655"><ele>192.0</ele><time>2026-04-04T09:27:33.245Z</time></trkpt><trkpt lat="43.3972324" lon="11.2165494"><ele>192.0</ele><time>2026-04-04T09:27:34.238Z</time></trkpt><trkpt lat="43.3972978" lon="11.2165364"><ele>191.99999999999997</ele><time>2026-04-04T09:27:35.242Z</time></trkpt><trkpt lat="43.3973612" lon="11.2165214"><ele>192.0</ele><time>2026-04-04T09:27:36.231Z</time></trkpt><trkpt lat="43.3974233" lon="11.2165019"><ele>192.14285714285714</ele><time>2026-04-04T09:27:37.239Z</time></trkpt><trkpt lat="43.3974856" lon="11.216477"><ele>192.28571428571428</ele><time>2026-04-04T09:27:38.24Z</time></trkpt><trkpt lat="43.3975466" lon="11.2164536"><ele>192.42857142857144</ele><time>2026-04-04T09:27:39.236Z</time></trkpt><trkpt lat="43.3976083" lon="11.216434"><ele>192.57142857142856</ele><time>2026-04-04T09:27:40.243Z</time></trkpt><trkpt lat="43.3976733" lon="11.2164149"><ele>192.71428571428572</ele><time>2026-04-04T09:27:41.253Z</time></trkpt><trkpt lat="43.3977371" lon="11.2164045"><ele>192.85714285714286</ele><time>2026-04-04T09:27:42.246Z</time></trkpt><trkpt lat="43.3978568" lon="11.216395"><ele>193.0</ele><time>2026-04-04T09:27:44.238Z</time></trkpt><trkpt lat="43.3979775" lon="11.2163677"><ele>192.5</ele><time>2026-04-04T09:27:46.258Z</time></trkpt><trkpt lat="43.3980877" lon="11.2163161"><ele>192.0</ele><time>2026-04-04T09:27:48.235Z</time></trkpt><trkpt lat="43.3982018" lon="11.2162797"><ele>191.5</ele><time>2026-04-04T09:27:50.238Z</time></trkpt><trkpt lat="43.3983182" lon="11.2162556"><ele>191.0</ele><time>2026-04-04T09:27:52.251Z</time></trkpt><trkpt lat="43.39843" lon="11.2162233"><ele>191.0</ele><time>2026-04-04T09:27:54.235Z</time></trkpt><trkpt lat="43.3985377" lon="11.2161775"><ele>191.0</ele><time>2026-04-04T09:27:56.237Z</time></trkpt><trkpt lat="43.398633" lon="11.2161297"><ele>191.0</ele><time>2026-04-04T09:27:58.238Z</time></trkpt><trkpt lat="43.3987115" lon="11.2160704"><ele>191.0</ele><time>2026-04-04T09:28:00.235Z</time></trkpt><trkpt lat="43.3987866" lon="11.216001"><ele>191.0</ele><time>2026-04-04T09:28:02.244Z</time></trkpt><trkpt lat="43.3988723" lon="11.2159276"><ele>191.5</ele><time>2026-04-04T09:28:04.233Z</time></trkpt><trkpt lat="43.398937" lon="11.2158971"><ele>192.0</ele><time>2026-04-04T09:28:05.233Z</time></trkpt><trkpt lat="43.3990041" lon="11.2158823"><ele>192.5</ele><time>2026-04-04T09:28:06.246Z</time></trkpt><trkpt lat="43.3991179" lon="11.2158704"><ele>193.0</ele><time>2026-04-04T09:28:08.244Z</time></trkpt><trkpt lat="43.3992115" lon="11.2158627"><ele>193.50000000000003</ele><time>2026-04-04T09:28:10.241Z</time></trkpt><trkpt lat="43.3993042" lon="11.2158656"><ele>194.0</ele><time>2026-04-04T09:28:12.237Z</time></trkpt><trkpt lat="43.3993969" lon="11.2158686"><ele>194.00000000000003</ele><time>2026-04-04T09:28:14.245Z</time></trkpt><trkpt lat="43.3994863" lon="11.2158953"><ele>194.0</ele><time>2026-04-04T09:28:16.238Z</time></trkpt><trkpt lat="43.399574" lon="11.2159242"><ele>194.0</ele><time>2026-04-04T09:28:18.242Z</time></trkpt><trkpt lat="43.399662" lon="11.2159477"><ele>194.0</ele><time>2026-04-04T09:28:20.237Z</time></trkpt><trkpt lat="43.3997516" lon="11.2159297"><ele>194.00000000000003</ele><time>2026-04-04T09:28:22.235Z</time></trkpt><trkpt lat="43.3998206" lon="11.2159015"><ele>194.0</ele><time>2026-04-04T09:28:24.239Z</time></trkpt><trkpt lat="43.3998945" lon="11.2158591"><ele>194.39999999999998</ele><time>2026-04-04T09:28:26.231Z</time></trkpt><trkpt lat="43.3999775" lon="11.2158145"><ele>194.8</ele><time>2026-04-04T09:28:28.242Z</time></trkpt><trkpt lat="43.4000685" lon="11.2157631"><ele>195.2</ele><time>2026-04-04T09:28:30.236Z</time></trkpt><trkpt lat="43.4001635" lon="11.2157046"><ele>195.60000000000002</ele><time>2026-04-04T09:28:32.269Z</time></trkpt><trkpt lat="43.400264" lon="11.2156416"><ele>196.0</ele><time>2026-04-04T09:28:34.242Z</time></trkpt><trkpt lat="43.4003692" lon="11.215582"><ele>198.0</ele><time>2026-04-04T09:28:36.236Z</time></trkpt><trkpt lat="43.4004786" lon="11.2155165"><ele>200.0</ele><time>2026-04-04T09:28:38.238Z</time></trkpt><trkpt lat="43.4005822" lon="11.2154549"><ele>202.0</ele><time>2026-04-04T09:28:40.26Z</time></trkpt><trkpt lat="43.4006817" lon="11.2153969"><ele>204.0</ele><time>2026-04-04T09:28:42.236Z</time></trkpt><trkpt lat="43.4007844" lon="11.2153437"><ele>204.0</ele><time>2026-04-04T09:28:44.254Z</time></trkpt><trkpt lat="43.400882" lon="11.2152865"><ele>204.0</ele><time>2026-04-04T09:28:46.234Z</time></trkpt><trkpt lat="43.400998" lon="11.2152333"><ele>204.0</ele><time>2026-04-04T09:28:48.236Z</time></trkpt><trkpt lat="43.4011163" lon="11.2151781"><ele>204.0</ele><time>2026-04-04T09:28:50.257Z</time></trkpt><trkpt lat="43.4012339" lon="11.215123"><ele>204.0</ele><time>2026-04-04T09:28:52.237Z</time></trkpt><trkpt lat="43.4012945" lon="11.215096"><ele>204.0</ele><time>2026-04-04T09:28:53.238Z</time></trkpt><trkpt lat="43.401405" lon="11.215034"><ele>204.0</ele><time>2026-04-04T09:28:55.238Z</time></trkpt><trkpt lat="43.4015052" lon="11.2149556"><ele>204.0</ele><time>2026-04-04T09:28:57.253Z</time></trkpt><trkpt lat="43.4016024" lon="11.2148806"><ele>204.0</ele><time>2026-04-04T09:28:59.237Z</time></trkpt><trkpt lat="43.4017044" lon="11.2148216"><ele>206.25</ele><time>2026-04-04T09:29:01.242Z</time></trkpt><trkpt lat="43.4018164" lon="11.2147727"><ele>208.5</ele><time>2026-04-04T09:29:03.25Z</time></trkpt><trkpt lat="43.4019342" lon="11.2147262"><ele>210.75</ele><time>2026-04-04T09:29:05.241Z</time></trkpt><trkpt lat="43.4020555" lon="11.2146751"><ele>213.0</ele><time>2026-04-04T09:29:07.254Z</time></trkpt><trkpt lat="43.4021768" lon="11.2146209"><ele>209.4</ele><time>2026-04-04T09:29:09.241Z</time></trkpt><trkpt lat="43.4022944" lon="11.2145746"><ele>205.8</ele><time>2026-04-04T09:29:11.259Z</time></trkpt><trkpt lat="43.4023854" lon="11.2145151"><ele>202.2</ele><time>2026-04-04T09:29:13.242Z</time></trkpt><trkpt lat="43.402476" lon="11.2144542"><ele>198.6</ele><time>2026-04-04T09:29:15.239Z</time></trkpt><trkpt lat="43.4025629" lon="11.2143927"><ele>195.0</ele><time>2026-04-04T09:29:17.24Z</time></trkpt><trkpt lat="43.4026582" lon="11.2143294"><ele>195.0</ele><time>2026-04-04T09:29:19.236Z</time></trkpt><trkpt lat="43.4027563" lon="11.2142634"><ele>195.0</ele><time>2026-04-04T09:29:21.241Z</time></trkpt><trkpt lat="43.4028584" lon="11.2142032"><ele>195.0</ele><time>2026-04-04T09:29:23.247Z</time></trkpt><trkpt lat="43.4029627" lon="11.214145"><ele>195.0</ele><time>2026-04-04T09:29:25.242Z</time></trkpt><trkpt lat="43.4030661" lon="11.2140845"><ele>195.0</ele><time>2026-04-04T09:29:27.257Z</time></trkpt><trkpt lat="43.4031664" lon="11.2140236"><ele>194.2</ele><time>2026-04-04T09:29:29.237Z</time></trkpt><trkpt lat="43.4032721" lon="11.2139609"><ele>193.4</ele><time>2026-04-04T09:29:31.245Z</time></trkpt><trkpt lat="43.4033736" lon="11.2138878"><ele>192.60000000000002</ele><time>2026-04-04T09:29:33.245Z</time></trkpt><trkpt lat="43.4034676" lon="11.2138229"><ele>191.8</ele><time>2026-04-04T09:29:35.246Z</time></trkpt><trkpt lat="43.4035647" lon="11.2137631"><ele>191.0</ele><time>2026-04-04T09:29:37.245Z</time></trkpt><trkpt lat="43.4036621" lon="11.2137092"><ele>191.0</ele><time>2026-04-04T09:29:39.234Z</time></trkpt><trkpt lat="43.4037532" lon="11.2136528"><ele>191.0</ele><time>2026-04-04T09:29:41.257Z</time></trkpt><trkpt lat="43.4038523" lon="11.2136109"><ele>191.0</ele><time>2026-04-04T09:29:43.25Z</time></trkpt><trkpt lat="43.4039478" lon="11.2136292"><ele>191.0</ele><time>2026-04-04T09:29:45.238Z</time></trkpt><trkpt lat="43.4040469" lon="11.2136503"><ele>191.0</ele><time>2026-04-04T09:29:47.247Z</time></trkpt><trkpt lat="43.4041555" lon="11.2136314"><ele>190.8</ele><time>2026-04-04T09:29:49.238Z</time></trkpt><trkpt lat="43.4042582" lon="11.21361"><ele>190.60000000000002</ele><time>2026-04-04T09:29:51.234Z</time></trkpt><trkpt lat="43.4043655" lon="11.213594"><ele>190.4</ele><time>2026-04-04T09:29:53.258Z</time></trkpt><trkpt lat="43.4044737" lon="11.2135822"><ele>190.2</ele><time>2026-04-04T09:29:55.246Z</time></trkpt><trkpt lat="43.4045712" lon="11.2135691"><ele>190.0</ele><time>2026-04-04T09:29:57.24Z</time></trkpt><trkpt lat="43.4046772" lon="11.2135588"><ele>190.0</ele><time>2026-04-04T09:29:59.243Z</time></trkpt><trkpt lat="43.4047785" lon="11.2135475"><ele>190.0</ele><time>2026-04-04T09:30:01.235Z</time></trkpt><trkpt lat="43.4048785" lon="11.2135316"><ele>190.0</ele><time>2026-04-04T09:30:03.255Z</time></trkpt><trkpt lat="43.4049755" lon="11.213521"><ele>190.0</ele><time>2026-04-04T09:30:05.237Z</time></trkpt><trkpt lat="43.4050737" lon="11.2135071"><ele>190.0</ele><time>2026-04-04T09:30:07.254Z</time></trkpt><trkpt lat="43.4051649" lon="11.213523"><ele>190.0</ele><time>2026-04-04T09:30:09.242Z</time></trkpt><trkpt lat="43.4052469" lon="11.2135886"><ele>190.0</ele><time>2026-04-04T09:30:11.245Z</time></trkpt><trkpt lat="43.4053243" lon="11.2136498"><ele>190.0</ele><time>2026-04-04T09:30:13.232Z</time></trkpt><trkpt lat="43.4054136" lon="11.2136302"><ele>190.0</ele><time>2026-04-04T09:30:15.242Z</time></trkpt><trkpt lat="43.4055165" lon="11.2135844"><ele>190.0</ele><time>2026-04-04T09:30:17.245Z</time></trkpt><trkpt lat="43.4056212" lon="11.2135421"><ele>189.25</ele><time>2026-04-04T09:30:19.235Z</time></trkpt><trkpt lat="43.405741" lon="11.2134983"><ele>188.5</ele><time>2026-04-04T09:30:21.24Z</time></trkpt><trkpt lat="43.4058526" lon="11.2134621"><ele>187.75</ele><time>2026-04-04T09:30:23.246Z</time></trkpt><trkpt lat="43.4059601" lon="11.2134255"><ele>187.0</ele><time>2026-04-04T09:30:25.249Z</time></trkpt><trkpt lat="43.4060684" lon="11.2133878"><ele>187.0</ele><time>2026-04-04T09:30:27.236Z</time></trkpt><trkpt lat="43.4061756" lon="11.2133428"><ele>187.0</ele><time>2026-04-04T09:30:29.251Z</time></trkpt><trkpt lat="43.4062854" lon="11.2132935"><ele>187.0</ele><time>2026-04-04T09:30:31.237Z</time></trkpt><trkpt lat="43.4063875" lon="11.2132293"><ele>187.0</ele><time>2026-04-04T09:30:33.243Z</time></trkpt><trkpt lat="43.406478" lon="11.2131432"><ele>187.2</ele><time>2026-04-04T09:30:35.244Z</time></trkpt><trkpt lat="43.4065724" lon="11.2130911"><ele>187.39999999999998</ele><time>2026-04-04T09:30:37.237Z</time></trkpt><trkpt lat="43.4066702" lon="11.2130557"><ele>187.60000000000002</ele><time>2026-04-04T09:30:39.237Z</time></trkpt><trkpt lat="43.4067605" lon="11.2130193"><ele>187.8</ele><time>2026-04-04T09:30:41.248Z</time></trkpt><trkpt lat="43.4068436" lon="11.212992"><ele>188.0</ele><time>2026-04-04T09:30:43.241Z</time></trkpt><trkpt lat="43.406928" lon="11.2129592"><ele>188.0</ele><time>2026-04-04T09:30:45.251Z</time></trkpt><trkpt lat="43.4070139" lon="11.2129196"><ele>188.0</ele><time>2026-04-04T09:30:47.235Z</time></trkpt><trkpt lat="43.4070931" lon="11.2128782"><ele>188.0</ele><time>2026-04-04T09:30:49.239Z</time></trkpt><trkpt lat="43.4071804" lon="11.2128375"><ele>188.0</ele><time>2026-04-04T09:30:51.248Z</time></trkpt><trkpt lat="43.4072721" lon="11.2128005"><ele>188.0</ele><time>2026-04-04T09:30:53.24Z</time></trkpt><trkpt lat="43.40736" lon="11.2127593"><ele>188.0</ele><time>2026-04-04T09:30:55.249Z</time></trkpt><trkpt lat="43.4074468" lon="11.2127041"><ele>188.0</ele><time>2026-04-04T09:30:57.239Z</time></trkpt><trkpt lat="43.4075492" lon="11.2126632"><ele>188.0</ele><time>2026-04-04T09:30:59.241Z</time></trkpt><trkpt lat="43.4076355" lon="11.2125859"><ele>188.0</ele><time>2026-04-04T09:31:01.24Z</time></trkpt><trkpt lat="43.4076913" lon="11.2124745"><ele>188.0</ele><time>2026-04-04T09:31:03.237Z</time></trkpt><trkpt lat="43.4077473" lon="11.2123571"><ele>188.2</ele><time>2026-04-04T09:31:05.246Z</time></trkpt><trkpt lat="43.4078105" lon="11.2122493"><ele>188.4</ele><time>2026-04-04T09:31:07.244Z</time></trkpt><trkpt lat="43.4078842" lon="11.2121825"><ele>188.6</ele><time>2026-04-04T09:31:09.247Z</time></trkpt><trkpt lat="43.4079756" lon="11.2121581"><ele>188.79999999999998</ele><time>2026-04-04T09:31:11.255Z</time></trkpt><trkpt lat="43.4080626" lon="11.2121236"><ele>189.0</ele><time>2026-04-04T09:31:13.243Z</time></trkpt><trkpt lat="43.4081375" lon="11.2120795"><ele>189.14285714285714</ele><time>2026-04-04T09:31:15.248Z</time></trkpt><trkpt lat="43.4082051" lon="11.2120561"><ele>189.28571428571428</ele><time>2026-04-04T09:31:17.246Z</time></trkpt><trkpt lat="43.4082702" lon="11.2120233"><ele>189.42857142857144</ele><time>2026-04-04T09:31:19.239Z</time></trkpt><trkpt lat="43.4083333" lon="11.2120004"><ele>189.57142857142856</ele><time>2026-04-04T09:31:21.243Z</time></trkpt><trkpt lat="43.4084104" lon="11.2119311"><ele>189.71428571428572</ele><time>2026-04-04T09:31:24.243Z</time></trkpt><trkpt lat="43.4084207" lon="11.2118267"><ele>189.85714285714286</ele><time>2026-04-04T09:31:26.244Z</time></trkpt><trkpt lat="43.4084399" lon="11.2117332"><ele>190.0</ele><time>2026-04-04T09:31:28.242Z</time></trkpt><trkpt lat="43.4085204" lon="11.2117007"><ele>190.0</ele><time>2026-04-04T09:31:30.239Z</time></trkpt><trkpt lat="43.4085908" lon="11.2116514"><ele>190.0</ele><time>2026-04-04T09:31:32.244Z</time></trkpt><trkpt lat="43.4086407" lon="11.2115694"><ele>190.0</ele><time>2026-04-04T09:31:34.244Z</time></trkpt><trkpt lat="43.4086796" lon="11.2114778"><ele>190.0</ele><time>2026-04-04T09:31:36.241Z</time></trkpt><trkpt lat="43.4087149" lon="11.2113869"><ele>190.0</ele><time>2026-04-04T09:31:38.244Z</time></trkpt><trkpt lat="43.4087491" lon="11.211292"><ele>190.0</ele><time>2026-04-04T09:31:40.237Z</time></trkpt><trkpt lat="43.4087879" lon="11.2111938"><ele>190.2</ele><time>2026-04-04T09:31:42.235Z</time></trkpt><trkpt lat="43.4088348" lon="11.2111009"><ele>190.4</ele><time>2026-04-04T09:31:44.249Z</time></trkpt><trkpt lat="43.4089027" lon="11.2110253"><ele>190.60000000000002</ele><time>2026-04-04T09:31:46.238Z</time></trkpt><trkpt lat="43.4089886" lon="11.2109724"><ele>190.8</ele><time>2026-04-04T09:31:48.234Z</time></trkpt><trkpt lat="43.4090811" lon="11.2109421"><ele>191.0</ele><time>2026-04-04T09:31:50.247Z</time></trkpt><trkpt lat="43.4091749" lon="11.2109057"><ele>191.0</ele><time>2026-04-04T09:31:52.241Z</time></trkpt><trkpt lat="43.4092506" lon="11.2108555"><ele>191.0</ele><time>2026-04-04T09:31:54.24Z</time></trkpt><trkpt lat="43.4093335" lon="11.2108181"><ele>191.0</ele><time>2026-04-04T09:31:56.234Z</time></trkpt><trkpt lat="43.4094174" lon="11.2107826"><ele>191.0</ele><time>2026-04-04T09:31:58.24Z</time></trkpt><trkpt lat="43.4094993" lon="11.2107472"><ele>191.0</ele><time>2026-04-04T09:32:00.243Z</time></trkpt><trkpt lat="43.4095839" lon="11.2107135"><ele>191.0</ele><time>2026-04-04T09:32:02.238Z</time></trkpt><trkpt lat="43.4096738" lon="11.2106845"><ele>191.20000000000002</ele><time>2026-04-04T09:32:04.255Z</time></trkpt><trkpt lat="43.4097659" lon="11.2106507"><ele>191.4</ele><time>2026-04-04T09:32:06.245Z</time></trkpt><trkpt lat="43.4098598" lon="11.2106134"><ele>191.6</ele><time>2026-04-04T09:32:08.236Z</time></trkpt><trkpt lat="43.4099557" lon="11.2105782"><ele>191.8</ele><time>2026-04-04T09:32:10.246Z</time></trkpt><trkpt lat="43.4100483" lon="11.2105399"><ele>192.0</ele><time>2026-04-04T09:32:12.254Z</time></trkpt><trkpt lat="43.4101397" lon="11.2104982"><ele>192.0</ele><time>2026-04-04T09:32:14.249Z</time></trkpt><trkpt lat="43.4102332" lon="11.2104625"><ele>192.0</ele><time>2026-04-04T09:32:16.234Z</time></trkpt><trkpt lat="43.4103308" lon="11.2104222"><ele>192.0</ele><time>2026-04-04T09:32:18.235Z</time></trkpt><trkpt lat="43.4104285" lon="11.2103842"><ele>192.0</ele><time>2026-04-04T09:32:20.269Z</time></trkpt><trkpt lat="43.4105226" lon="11.2103457"><ele>192.0</ele><time>2026-04-04T09:32:22.258Z</time></trkpt><trkpt lat="43.4106234" lon="11.2103108"><ele>191.6</ele><time>2026-04-04T09:32:24.25Z</time></trkpt><trkpt lat="43.4107219" lon="11.2102774"><ele>191.2</ele><time>2026-04-04T09:32:26.248Z</time></trkpt><trkpt lat="43.4108152" lon="11.2102407"><ele>190.8</ele><time>2026-04-04T09:32:28.249Z</time></trkpt><trkpt lat="43.4109051" lon="11.2102103"><ele>190.4</ele><time>2026-04-04T09:32:30.266Z</time></trkpt><trkpt lat="43.4109901" lon="11.2101785"><ele>190.0</ele><time>2026-04-04T09:32:32.243Z</time></trkpt><trkpt lat="43.4110596" lon="11.2101342"><ele>190.0</ele><time>2026-04-04T09:32:34.248Z</time></trkpt><trkpt lat="43.4111112" lon="11.2100576"><ele>190.0</ele><time>2026-04-04T09:32:36.252Z</time></trkpt><trkpt lat="43.4111327" lon="11.2099556"><ele>190.0</ele><time>2026-04-04T09:32:38.236Z</time></trkpt><trkpt lat="43.4111445" lon="11.209837"><ele>190.0</ele><time>2026-04-04T09:32:40.239Z</time></trkpt><trkpt lat="43.411162" lon="11.2097107"><ele>190.0</ele><time>2026-04-04T09:32:42.237Z</time></trkpt><trkpt lat="43.4111825" lon="11.2095771"><ele>190.0</ele><time>2026-04-04T09:32:44.253Z</time></trkpt><trkpt lat="43.4112009" lon="11.209435"><ele>190.0</ele><time>2026-04-04T09:32:46.239Z</time></trkpt><trkpt lat="43.4112186" lon="11.2092887"><ele>190.0</ele><time>2026-04-04T09:32:48.239Z</time></trkpt><trkpt lat="43.4112367" lon="11.2091353"><ele>190.0</ele><time>2026-04-04T09:32:50.253Z</time></trkpt><trkpt lat="43.411252" lon="11.2089829"><ele>190.0</ele><time>2026-04-04T09:32:52.235Z</time></trkpt><trkpt lat="43.411255" lon="11.2088361"><ele>190.0</ele><time>2026-04-04T09:32:54.245Z</time></trkpt><trkpt lat="43.4112428" lon="11.2086828"><ele>190.0</ele><time>2026-04-04T09:32:56.238Z</time></trkpt><trkpt lat="43.4112261" lon="11.2085308"><ele>190.0</ele><time>2026-04-04T09:32:58.236Z</time></trkpt><trkpt lat="43.4111891" lon="11.2083814"><ele>190.0</ele><time>2026-04-04T09:33:00.244Z</time></trkpt><trkpt lat="43.4111497" lon="11.2082475"><ele>190.0</ele><time>2026-04-04T09:33:02.234Z</time></trkpt><trkpt lat="43.4111115" lon="11.2081126"><ele>190.0</ele><time>2026-04-04T09:33:04.255Z</time></trkpt><trkpt lat="43.4110663" lon="11.2079765"><ele>189.8</ele><time>2026-04-04T09:33:06.253Z</time></trkpt><trkpt lat="43.4110326" lon="11.20784"><ele>189.6</ele><time>2026-04-04T09:33:08.243Z</time></trkpt><trkpt lat="43.4109939" lon="11.2077156"><ele>189.39999999999998</ele><time>2026-04-04T09:33:10.247Z</time></trkpt><trkpt lat="43.4109528" lon="11.2075914"><ele>189.2</ele><time>2026-04-04T09:33:12.243Z</time></trkpt><trkpt lat="43.410923" lon="11.2074739"><ele>189.0</ele><time>2026-04-04T09:33:14.255Z</time></trkpt><trkpt lat="43.4108876" lon="11.2073659"><ele>189.0</ele><time>2026-04-04T09:33:16.243Z</time></trkpt><trkpt lat="43.4108623" lon="11.2072519"><ele>189.0</ele><time>2026-04-04T09:33:18.235Z</time></trkpt><trkpt lat="43.4108382" lon="11.2071275"><ele>189.0</ele><time>2026-04-04T09:33:20.242Z</time></trkpt><trkpt lat="43.4108274" lon="11.2070003"><ele>189.0</ele><time>2026-04-04T09:33:22.25Z</time></trkpt><trkpt lat="43.4108342" lon="11.2068686"><ele>189.0</ele><time>2026-04-04T09:33:24.236Z</time></trkpt><trkpt lat="43.4108617" lon="11.2067372"><ele>189.0</ele><time>2026-04-04T09:33:26.243Z</time></trkpt><trkpt lat="43.4108877" lon="11.206606"><ele>189.0</ele><time>2026-04-04T09:33:28.251Z</time></trkpt><trkpt lat="43.4109109" lon="11.2064684"><ele>189.0</ele><time>2026-04-04T09:33:30.236Z</time></trkpt><trkpt lat="43.410969" lon="11.2063538"><ele>189.0</ele><time>2026-04-04T09:33:32.246Z</time></trkpt><trkpt lat="43.4110459" lon="11.2062518"><ele>189.0</ele><time>2026-04-04T09:33:34.252Z</time></trkpt><trkpt lat="43.4111275" lon="11.2061583"><ele>189.79999999999998</ele><time>2026-04-04T09:33:36.24Z</time></trkpt><trkpt lat="43.4112124" lon="11.2060694"><ele>190.6</ele><time>2026-04-04T09:33:38.259Z</time></trkpt><trkpt lat="43.4112956" lon="11.2059846"><ele>191.4</ele><time>2026-04-04T09:33:40.255Z</time></trkpt><trkpt lat="43.4113695" lon="11.2059069"><ele>192.2</ele><time>2026-04-04T09:33:42.256Z</time></trkpt><trkpt lat="43.4114395" lon="11.2058251"><ele>193.0</ele><time>2026-04-04T09:33:44.243Z</time></trkpt><trkpt lat="43.4115064" lon="11.2057506"><ele>192.99999999999997</ele><time>2026-04-04T09:33:46.256Z</time></trkpt><trkpt lat="43.4115702" lon="11.205683"><ele>193.0</ele><time>2026-04-04T09:33:48.237Z</time></trkpt><trkpt lat="43.4116315" lon="11.2056046"><ele>193.0</ele><time>2026-04-04T09:33:50.241Z</time></trkpt><trkpt lat="43.411688" lon="11.2055214"><ele>193.0</ele><time>2026-04-04T09:33:52.239Z</time></trkpt><trkpt lat="43.411751" lon="11.2054355"><ele>192.99999999999997</ele><time>2026-04-04T09:33:54.253Z</time></trkpt><trkpt lat="43.4118153" lon="11.2053459"><ele>193.0</ele><time>2026-04-04T09:33:56.241Z</time></trkpt><trkpt lat="43.4118883" lon="11.2052533"><ele>193.5</ele><time>2026-04-04T09:33:58.237Z</time></trkpt><trkpt lat="43.4119657" lon="11.205156"><ele>194.0</ele><time>2026-04-04T09:34:00.245Z</time></trkpt><trkpt lat="43.4120498" lon="11.2050391"><ele>194.5</ele><time>2026-04-04T09:34:02.259Z</time></trkpt><trkpt lat="43.412137" lon="11.2049196"><ele>195.0</ele><time>2026-04-04T09:34:04.239Z</time></trkpt><trkpt lat="43.4122229" lon="11.2047976"><ele>194.42857142857142</ele><time>2026-04-04T09:34:06.245Z</time></trkpt><trkpt lat="43.4122646" lon="11.2047323"><ele>193.85714285714283</ele><time>2026-04-04T09:34:07.244Z</time></trkpt><trkpt lat="43.4123112" lon="11.2046656"><ele>193.28571428571428</ele><time>2026-04-04T09:34:08.262Z</time></trkpt><trkpt lat="43.4123587" lon="11.2046001"><ele>192.71428571428572</ele><time>2026-04-04T09:34:09.246Z</time></trkpt><trkpt lat="43.4124061" lon="11.2045329"><ele>192.14285714285714</ele><time>2026-04-04T09:34:10.238Z</time></trkpt><trkpt lat="43.4124515" lon="11.2044655"><ele>191.57142857142858</ele><time>2026-04-04T09:34:11.259Z</time></trkpt><trkpt lat="43.412499" lon="11.2043977"><ele>191.0</ele><time>2026-04-04T09:34:12.24Z</time></trkpt><trkpt lat="43.4125504" lon="11.2043273"><ele>191.0</ele><time>2026-04-04T09:34:13.235Z</time></trkpt><trkpt lat="43.4126025" lon="11.2042578"><ele>191.0</ele><time>2026-04-04T09:34:14.246Z</time></trkpt><trkpt lat="43.4126548" lon="11.2041872"><ele>191.0</ele><time>2026-04-04T09:34:15.253Z</time></trkpt><trkpt lat="43.4127063" lon="11.2041153"><ele>191.0</ele><time>2026-04-04T09:34:16.251Z</time></trkpt><trkpt lat="43.4127594" lon="11.2040431"><ele>191.0</ele><time>2026-04-04T09:34:17.24Z</time></trkpt><trkpt lat="43.4128124" lon="11.2039704"><ele>191.0</ele><time>2026-04-04T09:34:18.246Z</time></trkpt><trkpt lat="43.4128612" lon="11.2038955"><ele>191.0</ele><time>2026-04-04T09:34:19.236Z</time></trkpt><trkpt lat="43.4129091" lon="11.2038203"><ele>191.42857142857144</ele><time>2026-04-04T09:34:20.243Z</time></trkpt><trkpt lat="43.4129549" lon="11.2037467"><ele>191.85714285714283</ele><time>2026-04-04T09:34:21.241Z</time></trkpt><trkpt lat="43.4130049" lon="11.2036742"><ele>192.28571428571428</ele><time>2026-04-04T09:34:22.236Z</time></trkpt><trkpt lat="43.4130564" lon="11.2036028"><ele>192.71428571428572</ele><time>2026-04-04T09:34:23.261Z</time></trkpt><trkpt lat="43.4131059" lon="11.2035356"><ele>193.14285714285717</ele><time>2026-04-04T09:34:24.25Z</time></trkpt><trkpt lat="43.413157" lon="11.2034668"><ele>193.57142857142856</ele><time>2026-04-04T09:34:25.246Z</time></trkpt><trkpt lat="43.4132105" lon="11.2033941"><ele>194.0</ele><time>2026-04-04T09:34:26.247Z</time></trkpt><trkpt lat="43.4132628" lon="11.2033242"><ele>193.42857142857142</ele><time>2026-04-04T09:34:27.237Z</time></trkpt><trkpt lat="43.4133144" lon="11.2032539"><ele>192.85714285714286</ele><time>2026-04-04T09:34:28.246Z</time></trkpt><trkpt lat="43.4133647" lon="11.2031879"><ele>192.28571428571428</ele><time>2026-04-04T09:34:29.249Z</time></trkpt><trkpt lat="43.4134174" lon="11.2031207"><ele>191.71428571428572</ele><time>2026-04-04T09:34:30.243Z</time></trkpt><trkpt lat="43.4134714" lon="11.2030571"><ele>191.14285714285717</ele><time>2026-04-04T09:34:31.249Z</time></trkpt><trkpt lat="43.4135211" lon="11.2029915"><ele>190.57142857142858</ele><time>2026-04-04T09:34:32.242Z</time></trkpt><trkpt lat="43.4135751" lon="11.2029209"><ele>190.0</ele><time>2026-04-04T09:34:33.244Z</time></trkpt><trkpt lat="43.4136274" lon="11.2028572"><ele>190.0</ele><time>2026-04-04T09:34:34.244Z</time></trkpt><trkpt lat="43.4136819" lon="11.2027955"><ele>190.0</ele><time>2026-04-04T09:34:35.253Z</time></trkpt><trkpt lat="43.4137356" lon="11.2027355"><ele>190.0</ele><time>2026-04-04T09:34:36.246Z</time></trkpt><trkpt lat="43.4137897" lon="11.2026745"><ele>190.0</ele><time>2026-04-04T09:34:37.245Z</time></trkpt><trkpt lat="43.4138436" lon="11.2026127"><ele>190.0</ele><time>2026-04-04T09:34:38.251Z</time></trkpt><trkpt lat="43.4138978" lon="11.2025524"><ele>190.0</ele><time>2026-04-04T09:34:39.254Z</time></trkpt><trkpt lat="43.41395" lon="11.202492"><ele>190.0</ele><time>2026-04-04T09:34:40.234Z</time></trkpt><trkpt lat="43.4140026" lon="11.2024287"><ele>189.14285714285714</ele><time>2026-04-04T09:34:41.251Z</time></trkpt><trkpt lat="43.4140552" lon="11.2023652"><ele>188.28571428571428</ele><time>2026-04-04T09:34:42.251Z</time></trkpt><trkpt lat="43.4141044" lon="11.2022994"><ele>187.42857142857144</ele><time>2026-04-04T09:34:43.27Z</time></trkpt><trkpt lat="43.4141517" lon="11.2022302"><ele>186.57142857142856</ele><time>2026-04-04T09:34:44.257Z</time></trkpt><trkpt lat="43.414198" lon="11.2021644"><ele>185.7142857142857</ele><time>2026-04-04T09:34:45.252Z</time></trkpt><trkpt lat="43.4142435" lon="11.2020977"><ele>184.85714285714286</ele><time>2026-04-04T09:34:46.237Z</time></trkpt><trkpt lat="43.4142892" lon="11.2020291"><ele>184.0</ele><time>2026-04-04T09:34:47.243Z</time></trkpt><trkpt lat="43.414333" lon="11.2019588"><ele>184.0</ele><time>2026-04-04T09:34:48.24Z</time></trkpt><trkpt lat="43.4143781" lon="11.2018858"><ele>184.0</ele><time>2026-04-04T09:34:49.254Z</time></trkpt><trkpt lat="43.4144244" lon="11.2018119"><ele>184.0</ele><time>2026-04-04T09:34:50.24Z</time></trkpt><trkpt lat="43.414469" lon="11.2017366"><ele>184.0</ele><time>2026-04-04T09:34:51.237Z</time></trkpt><trkpt lat="43.4145121" lon="11.2016613"><ele>184.0</ele><time>2026-04-04T09:34:52.254Z</time></trkpt><trkpt lat="43.4145526" lon="11.2015867"><ele>184.0</ele><time>2026-04-04T09:34:53.246Z</time></trkpt><trkpt lat="43.4145942" lon="11.2015139"><ele>184.0</ele><time>2026-04-04T09:34:54.242Z</time></trkpt><trkpt lat="43.4146363" lon="11.2014416"><ele>183.75</ele><time>2026-04-04T09:34:55.242Z</time></trkpt><trkpt lat="43.4146764" lon="11.2013728"><ele>183.5</ele><time>2026-04-04T09:34:56.252Z</time></trkpt><trkpt lat="43.4147138" lon="11.2013017"><ele>183.25</ele><time>2026-04-04T09:34:57.245Z</time></trkpt><trkpt lat="43.4147526" lon="11.2012315"><ele>183.0</ele><time>2026-04-04T09:34:58.247Z</time></trkpt><trkpt lat="43.4147914" lon="11.20116"><ele>182.75</ele><time>2026-04-04T09:34:59.24Z</time></trkpt><trkpt lat="43.4148281" lon="11.2010875"><ele>182.5</ele><time>2026-04-04T09:35:00.242Z</time></trkpt><trkpt lat="43.4148632" lon="11.2010145"><ele>182.25</ele><time>2026-04-04T09:35:01.242Z</time></trkpt><trkpt lat="43.4148971" lon="11.2009402"><ele>182.0</ele><time>2026-04-04T09:35:02.254Z</time></trkpt><trkpt lat="43.4149323" lon="11.2008656"><ele>182.0</ele><time>2026-04-04T09:35:03.249Z</time></trkpt><trkpt lat="43.4149671" lon="11.2007881"><ele>182.0</ele><time>2026-04-04T09:35:04.248Z</time></trkpt><trkpt lat="43.4149987" lon="11.2007093"><ele>182.0</ele><time>2026-04-04T09:35:05.241Z</time></trkpt><trkpt lat="43.4150254" lon="11.2006294"><ele>182.0</ele><time>2026-04-04T09:35:06.251Z</time></trkpt><trkpt lat="43.4150556" lon="11.2005489"><ele>182.0</ele><time>2026-04-04T09:35:07.247Z</time></trkpt><trkpt lat="43.4150844" lon="11.2004681"><ele>182.0</ele><time>2026-04-04T09:35:08.244Z</time></trkpt><trkpt lat="43.4151101" lon="11.2003852"><ele>182.0</ele><time>2026-04-04T09:35:09.246Z</time></trkpt><trkpt lat="43.4151527" lon="11.2002237"><ele>181.83333333333331</ele><time>2026-04-04T09:35:11.242Z</time></trkpt><trkpt lat="43.4151907" lon="11.2000603"><ele>181.66666666666666</ele><time>2026-04-04T09:35:13.25Z</time></trkpt><trkpt lat="43.4152048" lon="11.1999741"><ele>181.5</ele><time>2026-04-04T09:35:14.241Z</time></trkpt><trkpt lat="43.4152205" lon="11.199885"><ele>181.33333333333334</ele><time>2026-04-04T09:35:15.24Z</time></trkpt><trkpt lat="43.4152364" lon="11.1997983"><ele>181.16666666666669</ele><time>2026-04-04T09:35:16.239Z</time></trkpt><trkpt lat="43.4152519" lon="11.1997113"><ele>181.0</ele><time>2026-04-04T09:35:17.248Z</time></trkpt><trkpt lat="43.4152668" lon="11.1996237"><ele>181.28571428571428</ele><time>2026-04-04T09:35:18.249Z</time></trkpt><trkpt lat="43.4152816" lon="11.1995377"><ele>181.57142857142856</ele><time>2026-04-04T09:35:19.248Z</time></trkpt><trkpt lat="43.4152932" lon="11.1994483"><ele>181.85714285714286</ele><time>2026-04-04T09:35:20.243Z</time></trkpt><trkpt lat="43.4153041" lon="11.199356"><ele>182.14285714285714</ele><time>2026-04-04T09:35:21.246Z</time></trkpt><trkpt lat="43.415315" lon="11.1992622"><ele>182.42857142857144</ele><time>2026-04-04T09:35:22.238Z</time></trkpt><trkpt lat="43.4153328" lon="11.1991644"><ele>182.71428571428572</ele><time>2026-04-04T09:35:23.247Z</time></trkpt><trkpt lat="43.4153571" lon="11.1990694"><ele>183.0</ele><time>2026-04-04T09:35:24.241Z</time></trkpt><trkpt lat="43.4153861" lon="11.1989763"><ele>183.0</ele><time>2026-04-04T09:35:25.234Z</time></trkpt><trkpt lat="43.4154198" lon="11.1988857"><ele>183.0</ele><time>2026-04-04T09:35:26.249Z</time></trkpt><trkpt lat="43.415459" lon="11.198797"><ele>183.0</ele><time>2026-04-04T09:35:27.237Z</time></trkpt><trkpt lat="43.4154997" lon="11.1987076"><ele>183.0</ele><time>2026-04-04T09:35:28.245Z</time></trkpt><trkpt lat="43.4155369" lon="11.1986206"><ele>183.0</ele><time>2026-04-04T09:35:29.265Z</time></trkpt><trkpt lat="43.4155737" lon="11.1985362"><ele>183.0</ele><time>2026-04-04T09:35:30.251Z</time></trkpt><trkpt lat="43.4156107" lon="11.1984518"><ele>183.0</ele><time>2026-04-04T09:35:31.251Z</time></trkpt><trkpt lat="43.4156467" lon="11.1983679"><ele>182.28571428571428</ele><time>2026-04-04T09:35:32.242Z</time></trkpt><trkpt lat="43.415684" lon="11.1982864"><ele>181.57142857142858</ele><time>2026-04-04T09:35:33.252Z</time></trkpt><trkpt lat="43.4157225" lon="11.1982021"><ele>180.85714285714283</ele><time>2026-04-04T09:35:34.247Z</time></trkpt><trkpt lat="43.4157603" lon="11.1981177"><ele>180.14285714285714</ele><time>2026-04-04T09:35:35.255Z</time></trkpt><trkpt lat="43.4157964" lon="11.1980355"><ele>179.42857142857142</ele><time>2026-04-04T09:35:36.245Z</time></trkpt><trkpt lat="43.4158311" lon="11.1979518"><ele>178.7142857142857</ele><time>2026-04-04T09:35:37.251Z</time></trkpt><trkpt lat="43.4158666" lon="11.1978696"><ele>178.0</ele><time>2026-04-04T09:35:38.242Z</time></trkpt><trkpt lat="43.4159014" lon="11.1977888"><ele>177.99999999999997</ele><time>2026-04-04T09:35:39.247Z</time></trkpt><trkpt lat="43.4159368" lon="11.1977083"><ele>178.0</ele><time>2026-04-04T09:35:40.233Z</time></trkpt><trkpt lat="43.4159741" lon="11.1976268"><ele>178.0</ele><time>2026-04-04T09:35:41.248Z</time></trkpt><trkpt lat="43.4160094" lon="11.1975485"><ele>178.0</ele><time>2026-04-04T09:35:42.239Z</time></trkpt><trkpt lat="43.4160451" lon="11.1974721"><ele>178.0</ele><time>2026-04-04T09:35:43.238Z</time></trkpt><trkpt lat="43.4160864" lon="11.1974034"><ele>177.99999999999997</ele><time>2026-04-04T09:35:44.236Z</time></trkpt><trkpt lat="43.4161334" lon="11.197338"><ele>178.0</ele><time>2026-04-04T09:35:45.245Z</time></trkpt><trkpt lat="43.4161829" lon="11.1972764"><ele>177.75</ele><time>2026-04-04T09:35:46.278Z</time></trkpt><trkpt lat="43.4162742" lon="11.1971525"><ele>177.5</ele><time>2026-04-04T09:35:48.232Z</time></trkpt><trkpt lat="43.416355" lon="11.1970264"><ele>177.25</ele><time>2026-04-04T09:35:50.233Z</time></trkpt><trkpt lat="43.4164243" lon="11.1968973"><ele>177.0</ele><time>2026-04-04T09:35:52.242Z</time></trkpt><trkpt lat="43.4164823" lon="11.1967506"><ele>177.0</ele><time>2026-04-04T09:35:54.237Z</time></trkpt><trkpt lat="43.4165295" lon="11.1965905"><ele>177.0</ele><time>2026-04-04T09:35:56.24Z</time></trkpt><trkpt lat="43.4165538" lon="11.1965076"><ele>177.0</ele><time>2026-04-04T09:35:57.242Z</time></trkpt><trkpt lat="43.4165747" lon="11.1964231"><ele>177.0</ele><time>2026-04-04T09:35:58.242Z</time></trkpt><trkpt lat="43.4166011" lon="11.1963329"><ele>177.0</ele><time>2026-04-04T09:35:59.245Z</time></trkpt><trkpt lat="43.4166278" lon="11.1962416"><ele>177.0</ele><time>2026-04-04T09:36:00.254Z</time></trkpt><trkpt lat="43.4166569" lon="11.1961478"><ele>176.5</ele><time>2026-04-04T09:36:01.246Z</time></trkpt><trkpt lat="43.4166859" lon="11.1960491"><ele>176.0</ele><time>2026-04-04T09:36:02.246Z</time></trkpt><trkpt lat="43.4167144" lon="11.1959448"><ele>175.5</ele><time>2026-04-04T09:36:03.242Z</time></trkpt><trkpt lat="43.4167394" lon="11.1958351"><ele>175.0</ele><time>2026-04-04T09:36:04.245Z</time></trkpt><trkpt lat="43.416762" lon="11.1957226"><ele>174.5</ele><time>2026-04-04T09:36:05.245Z</time></trkpt><trkpt lat="43.4167784" lon="11.1956048"><ele>174.0</ele><time>2026-04-04T09:36:06.236Z</time></trkpt><trkpt lat="43.4167821" lon="11.195484"><ele>173.39999999999998</ele><time>2026-04-04T09:36:07.236Z</time></trkpt><trkpt lat="43.4167728" lon="11.1953606"><ele>172.8</ele><time>2026-04-04T09:36:08.245Z</time></trkpt><trkpt lat="43.4167492" lon="11.195232"><ele>172.2</ele><time>2026-04-04T09:36:09.258Z</time></trkpt><trkpt lat="43.4167103" lon="11.1951069"><ele>171.60000000000002</ele><time>2026-04-04T09:36:10.243Z</time></trkpt><trkpt lat="43.4166622" lon="11.1949874"><ele>171.0</ele><time>2026-04-04T09:36:11.236Z</time></trkpt><trkpt lat="43.4166093" lon="11.1948713"><ele>170.20000000000002</ele><time>2026-04-04T09:36:12.236Z</time></trkpt><trkpt lat="43.4165566" lon="11.194756"><ele>169.4</ele><time>2026-04-04T09:36:13.237Z</time></trkpt><trkpt lat="43.4165183" lon="11.1946313"><ele>168.6</ele><time>2026-04-04T09:36:14.252Z</time></trkpt><trkpt lat="43.4165112" lon="11.1945014"><ele>167.8</ele><time>2026-04-04T09:36:15.245Z</time></trkpt><trkpt lat="43.4165205" lon="11.1943734"><ele>167.0</ele><time>2026-04-04T09:36:16.249Z</time></trkpt><trkpt lat="43.4165435" lon="11.1942496"><ele>167.0</ele><time>2026-04-04T09:36:17.241Z</time></trkpt><trkpt lat="43.416577" lon="11.1941318"><ele>167.0</ele><time>2026-04-04T09:36:18.239Z</time></trkpt><trkpt lat="43.4166167" lon="11.1940229"><ele>167.0</ele><time>2026-04-04T09:36:19.249Z</time></trkpt><trkpt lat="43.4166569" lon="11.1939176"><ele>167.0</ele><time>2026-04-04T09:36:20.237Z</time></trkpt><trkpt lat="43.4167034" lon="11.1938194"><ele>167.0</ele><time>2026-04-04T09:36:21.266Z</time></trkpt><trkpt lat="43.4167615" lon="11.1937406"><ele>167.0</ele><time>2026-04-04T09:36:22.237Z</time></trkpt><trkpt lat="43.4168238" lon="11.1936655"><ele>167.16666666666666</ele><time>2026-04-04T09:36:23.235Z</time></trkpt><trkpt lat="43.4168845" lon="11.1935939"><ele>167.33333333333331</ele><time>2026-04-04T09:36:24.24Z</time></trkpt><trkpt lat="43.4169394" lon="11.1935147"><ele>167.5</ele><time>2026-04-04T09:36:25.236Z</time></trkpt><trkpt lat="43.4169804" lon="11.1934275"><ele>167.66666666666666</ele><time>2026-04-04T09:36:26.235Z</time></trkpt><trkpt lat="43.4170093" lon="11.1933292"><ele>167.83333333333334</ele><time>2026-04-04T09:36:27.243Z</time></trkpt><trkpt lat="43.4170268" lon="11.1932239"><ele>168.0</ele><time>2026-04-04T09:36:28.246Z</time></trkpt><trkpt lat="43.4170342" lon="11.1931178"><ele>168.5</ele><time>2026-04-04T09:36:29.24Z</time></trkpt><trkpt lat="43.4170398" lon="11.1930106"><ele>169.0</ele><time>2026-04-04T09:36:30.254Z</time></trkpt><trkpt lat="43.4170451" lon="11.1929036"><ele>169.5</ele><time>2026-04-04T09:36:31.236Z</time></trkpt><trkpt lat="43.417054" lon="11.192797"><ele>170.0</ele><time>2026-04-04T09:36:32.244Z</time></trkpt><trkpt lat="43.4170651" lon="11.1926971"><ele>170.5</ele><time>2026-04-04T09:36:33.254Z</time></trkpt><trkpt lat="43.4170758" lon="11.1925932"><ele>171.0</ele><time>2026-04-04T09:36:34.241Z</time></trkpt><trkpt lat="43.4170874" lon="11.1924925"><ele>171.0</ele><time>2026-04-04T09:36:35.249Z</time></trkpt><trkpt lat="43.4171056" lon="11.1923977"><ele>171.0</ele><time>2026-04-04T09:36:36.243Z</time></trkpt><trkpt lat="43.417129" lon="11.1923074"><ele>171.0</ele><time>2026-04-04T09:36:37.243Z</time></trkpt><trkpt lat="43.4171543" lon="11.1922262"><ele>171.0</ele><time>2026-04-04T09:36:38.239Z</time></trkpt><trkpt lat="43.4172071" lon="11.1920871"><ele>171.0</ele><time>2026-04-04T09:36:40.253Z</time></trkpt><trkpt lat="43.4172569" lon="11.1919571"><ele>171.0</ele><time>2026-04-04T09:36:42.242Z</time></trkpt><trkpt lat="43.417308" lon="11.1918275"><ele>171.60000000000002</ele><time>2026-04-04T09:36:44.257Z</time></trkpt><trkpt lat="43.417367" lon="11.1917056"><ele>172.2</ele><time>2026-04-04T09:36:46.243Z</time></trkpt><trkpt lat="43.4174172" lon="11.1915859"><ele>172.8</ele><time>2026-04-04T09:36:48.247Z</time></trkpt><trkpt lat="43.4174607" lon="11.1914732"><ele>173.39999999999998</ele><time>2026-04-04T09:36:50.24Z</time></trkpt><trkpt lat="43.4175041" lon="11.1913686"><ele>174.0</ele><time>2026-04-04T09:36:52.237Z</time></trkpt><trkpt lat="43.4175444" lon="11.1912643"><ele>174.0</ele><time>2026-04-04T09:36:54.242Z</time></trkpt><trkpt lat="43.4175829" lon="11.1911688"><ele>174.0</ele><time>2026-04-04T09:36:56.233Z</time></trkpt><trkpt lat="43.4176257" lon="11.1910758"><ele>174.0</ele><time>2026-04-04T09:36:58.248Z</time></trkpt><trkpt lat="43.4176641" lon="11.1909839"><ele>174.0</ele><time>2026-04-04T09:37:00.234Z</time></trkpt><trkpt lat="43.4177019" lon="11.1908782"><ele>174.0</ele><time>2026-04-04T09:37:02.236Z</time></trkpt><trkpt lat="43.4177533" lon="11.1907757"><ele>174.0</ele><time>2026-04-04T09:37:04.249Z</time></trkpt><trkpt lat="43.4177924" lon="11.190671"><ele>174.0</ele><time>2026-04-04T09:37:06.24Z</time></trkpt><trkpt lat="43.4178211" lon="11.1905561"><ele>174.0</ele><time>2026-04-04T09:37:08.264Z</time></trkpt><trkpt lat="43.4178574" lon="11.1904288"><ele>174.0</ele><time>2026-04-04T09:37:10.245Z</time></trkpt><trkpt lat="43.4179092" lon="11.190295"><ele>174.0</ele><time>2026-04-04T09:37:12.241Z</time></trkpt><trkpt lat="43.4179609" lon="11.1901604"><ele>174.0</ele><time>2026-04-04T09:37:14.236Z</time></trkpt><trkpt lat="43.4179985" lon="11.1900176"><ele>173.66666666666666</ele><time>2026-04-04T09:37:16.239Z</time></trkpt><trkpt lat="43.4180549" lon="11.1898763"><ele>173.33333333333334</ele><time>2026-04-04T09:37:18.25Z</time></trkpt><trkpt lat="43.418096" lon="11.1897137"><ele>173.0</ele><time>2026-04-04T09:37:20.237Z</time></trkpt><trkpt lat="43.418112" lon="11.1896195"><ele>172.66666666666669</ele><time>2026-04-04T09:37:21.239Z</time></trkpt><trkpt lat="43.4181266" lon="11.1895264"><ele>172.33333333333334</ele><time>2026-04-04T09:37:22.256Z</time></trkpt><trkpt lat="43.4181446" lon="11.1894416"><ele>172.0</ele><time>2026-04-04T09:37:23.241Z</time></trkpt><trkpt lat="43.4181673" lon="11.1893552"><ele>171.71428571428572</ele><time>2026-04-04T09:37:24.233Z</time></trkpt><trkpt lat="43.4182438" lon="11.1892217"><ele>171.42857142857144</ele><time>2026-04-04T09:37:26.24Z</time></trkpt><trkpt lat="43.4183013" lon="11.1891814"><ele>171.14285714285717</ele><time>2026-04-04T09:37:27.238Z</time></trkpt><trkpt lat="43.418353" lon="11.1891311"><ele>170.85714285714286</ele><time>2026-04-04T09:37:28.253Z</time></trkpt><trkpt lat="43.4183903" lon="11.1890545"><ele>170.57142857142856</ele><time>2026-04-04T09:37:29.252Z</time></trkpt><trkpt lat="43.4184096" lon="11.1889704"><ele>170.2857142857143</ele><time>2026-04-04T09:37:30.237Z</time></trkpt><trkpt lat="43.4184178" lon="11.18888"><ele>170.0</ele><time>2026-04-04T09:37:31.252Z</time></trkpt><trkpt lat="43.41842" lon="11.1887893"><ele>169.8</ele><time>2026-04-04T09:37:32.255Z</time></trkpt><trkpt lat="43.4184248" lon="11.188698"><ele>169.6</ele><time>2026-04-04T09:37:33.244Z</time></trkpt><trkpt lat="43.4184453" lon="11.188614"><ele>169.39999999999998</ele><time>2026-04-04T09:37:34.246Z</time></trkpt><trkpt lat="43.4185347" lon="11.1884969"><ele>169.2</ele><time>2026-04-04T09:37:36.254Z</time></trkpt><trkpt lat="43.41862" lon="11.1883823"><ele>169.0</ele><time>2026-04-04T09:37:38.245Z</time></trkpt><trkpt lat="43.4187025" lon="11.1882675"><ele>169.75</ele><time>2026-04-04T09:37:40.248Z</time></trkpt><trkpt lat="43.4187761" lon="11.1881449"><ele>170.5</ele><time>2026-04-04T09:37:42.238Z</time></trkpt><trkpt lat="43.4188437" lon="11.1880197"><ele>171.25</ele><time>2026-04-04T09:37:44.248Z</time></trkpt><trkpt lat="43.4189172" lon="11.1878941"><ele>172.0</ele><time>2026-04-04T09:37:46.242Z</time></trkpt><trkpt lat="43.4189881" lon="11.1877612"><ele>172.0</ele><time>2026-04-04T09:37:48.241Z</time></trkpt><trkpt lat="43.4190537" lon="11.1876262"><ele>172.0</ele><time>2026-04-04T09:37:50.233Z</time></trkpt><trkpt lat="43.4191076" lon="11.1875018"><ele>172.0</ele><time>2026-04-04T09:37:52.252Z</time></trkpt><trkpt lat="43.4191605" lon="11.1873948"><ele>172.0</ele><time>2026-04-04T09:37:54.24Z</time></trkpt><trkpt lat="43.4192185" lon="11.1872938"><ele>172.0</ele><time>2026-04-04T09:37:56.241Z</time></trkpt><trkpt lat="43.4192767" lon="11.1871907"><ele>172.39999999999998</ele><time>2026-04-04T09:37:58.241Z</time></trkpt><trkpt lat="43.4193345" lon="11.1870901"><ele>172.79999999999998</ele><time>2026-04-04T09:38:00.251Z</time></trkpt><trkpt lat="43.4193967" lon="11.1869941"><ele>173.2</ele><time>2026-04-04T09:38:02.249Z</time></trkpt><trkpt lat="43.4194506" lon="11.1868958"><ele>173.6</ele><time>2026-04-04T09:38:04.246Z</time></trkpt><trkpt lat="43.4195053" lon="11.1867916"><ele>174.0</ele><time>2026-04-04T09:38:06.241Z</time></trkpt><trkpt lat="43.4195587" lon="11.1866892"><ele>174.0</ele><time>2026-04-04T09:38:08.248Z</time></trkpt><trkpt lat="43.4196151" lon="11.1865882"><ele>174.0</ele><time>2026-04-04T09:38:10.244Z</time></trkpt><trkpt lat="43.4196697" lon="11.1864948"><ele>174.0</ele><time>2026-04-04T09:38:12.244Z</time></trkpt><trkpt lat="43.4197227" lon="11.1864162"><ele>174.0</ele><time>2026-04-04T09:38:14.248Z</time></trkpt><trkpt lat="43.4197696" lon="11.1863265"><ele>174.0</ele><time>2026-04-04T09:38:16.251Z</time></trkpt><trkpt lat="43.4198223" lon="11.1862369"><ele>174.0</ele><time>2026-04-04T09:38:18.248Z</time></trkpt><trkpt lat="43.4198763" lon="11.186152"><ele>174.33333333333334</ele><time>2026-04-04T09:38:20.249Z</time></trkpt><trkpt lat="43.4199234" lon="11.1860691"><ele>174.66666666666666</ele><time>2026-04-04T09:38:22.241Z</time></trkpt><trkpt lat="43.4199823" lon="11.1859811"><ele>175.0</ele><time>2026-04-04T09:38:24.235Z</time></trkpt><trkpt lat="43.4200449" lon="11.1858889"><ele>175.33333333333331</ele><time>2026-04-04T09:38:26.244Z</time></trkpt><trkpt lat="43.420103" lon="11.1857881"><ele>175.66666666666666</ele><time>2026-04-04T09:38:28.243Z</time></trkpt><trkpt lat="43.4201558" lon="11.1856856"><ele>176.0</ele><time>2026-04-04T09:38:30.239Z</time></trkpt><trkpt lat="43.4202155" lon="11.1855799"><ele>176.0</ele><time>2026-04-04T09:38:32.242Z</time></trkpt><trkpt lat="43.420275" lon="11.1854601"><ele>176.0</ele><time>2026-04-04T09:38:34.251Z</time></trkpt><trkpt lat="43.4203332" lon="11.1853507"><ele>176.0</ele><time>2026-04-04T09:38:36.245Z</time></trkpt><trkpt lat="43.4203726" lon="11.185237"><ele>176.0</ele><time>2026-04-04T09:38:38.241Z</time></trkpt><trkpt lat="43.4204229" lon="11.1851208"><ele>176.0</ele><time>2026-04-04T09:38:40.24Z</time></trkpt><trkpt lat="43.4204781" lon="11.1850165"><ele>175.8</ele><time>2026-04-04T09:38:42.245Z</time></trkpt><trkpt lat="43.4205431" lon="11.184916"><ele>175.60000000000002</ele><time>2026-04-04T09:38:44.248Z</time></trkpt><trkpt lat="43.4206068" lon="11.1848146"><ele>175.4</ele><time>2026-04-04T09:38:46.25Z</time></trkpt><trkpt lat="43.4206645" lon="11.1847194"><ele>175.2</ele><time>2026-04-04T09:38:48.246Z</time></trkpt><trkpt lat="43.4207136" lon="11.1846189"><ele>175.0</ele><time>2026-04-04T09:38:50.247Z</time></trkpt><trkpt lat="43.4207615" lon="11.1845188"><ele>175.2</ele><time>2026-04-04T09:38:52.274Z</time></trkpt><trkpt lat="43.420814" lon="11.1844099"><ele>175.4</ele><time>2026-04-04T09:38:54.241Z</time></trkpt><trkpt lat="43.4208739" lon="11.1842971"><ele>175.60000000000002</ele><time>2026-04-04T09:38:56.237Z</time></trkpt><trkpt lat="43.4209293" lon="11.1841916"><ele>175.8</ele><time>2026-04-04T09:38:58.241Z</time></trkpt><trkpt lat="43.4209842" lon="11.1840841"><ele>176.0</ele><time>2026-04-04T09:39:00.237Z</time></trkpt><trkpt lat="43.4210389" lon="11.1839727"><ele>176.0</ele><time>2026-04-04T09:39:02.242Z</time></trkpt><trkpt lat="43.4210894" lon="11.1838752"><ele>176.0</ele><time>2026-04-04T09:39:04.257Z</time></trkpt><trkpt lat="43.4211478" lon="11.183783"><ele>176.0</ele><time>2026-04-04T09:39:06.236Z</time></trkpt><trkpt lat="43.4212099" lon="11.1836904"><ele>176.0</ele><time>2026-04-04T09:39:08.241Z</time></trkpt><trkpt lat="43.4212776" lon="11.1835953"><ele>176.0</ele><time>2026-04-04T09:39:10.244Z</time></trkpt><trkpt lat="43.4213512" lon="11.1835218"><ele>175.8</ele><time>2026-04-04T09:39:12.239Z</time></trkpt><trkpt lat="43.4214291" lon="11.1834417"><ele>175.60000000000002</ele><time>2026-04-04T09:39:14.245Z</time></trkpt><trkpt lat="43.4215166" lon="11.1833658"><ele>175.4</ele><time>2026-04-04T09:39:16.256Z</time></trkpt><trkpt lat="43.4216059" lon="11.1832763"><ele>175.2</ele><time>2026-04-04T09:39:18.246Z</time></trkpt><trkpt lat="43.4216972" lon="11.1831824"><ele>175.0</ele><time>2026-04-04T09:39:20.24Z</time></trkpt><trkpt lat="43.4217968" lon="11.1830962"><ele>175.0</ele><time>2026-04-04T09:39:22.25Z</time></trkpt><trkpt lat="43.421896" lon="11.1830121"><ele>175.0</ele><time>2026-04-04T09:39:24.23Z</time></trkpt><trkpt lat="43.4219498" lon="11.1829627"><ele>175.0</ele><time>2026-04-04T09:39:25.241Z</time></trkpt><trkpt lat="43.4220054" lon="11.1829138"><ele>175.0</ele><time>2026-04-04T09:39:26.239Z</time></trkpt><trkpt lat="43.4221114" lon="11.1828222"><ele>175.0</ele><time>2026-04-04T09:39:28.232Z</time></trkpt><trkpt lat="43.4222176" lon="11.1827339"><ele>175.0</ele><time>2026-04-04T09:39:30.243Z</time></trkpt><trkpt lat="43.4222666" lon="11.1826187"><ele>175.0</ele><time>2026-04-04T09:39:32.239Z</time></trkpt><trkpt lat="43.4222234" lon="11.1824668"><ele>175.0</ele><time>2026-04-04T09:39:34.25Z</time></trkpt><trkpt lat="43.4221674" lon="11.1823444"><ele>175.0</ele><time>2026-04-04T09:39:36.252Z</time></trkpt><trkpt lat="43.4221172" lon="11.1822072"><ele>175.0</ele><time>2026-04-04T09:39:38.24Z</time></trkpt><trkpt lat="43.4220677" lon="11.1820803"><ele>175.0</ele><time>2026-04-04T09:39:40.246Z</time></trkpt><trkpt lat="43.4220138" lon="11.1819514"><ele>175.0</ele><time>2026-04-04T09:39:42.264Z</time></trkpt><trkpt lat="43.4219619" lon="11.1818209"><ele>175.0</ele><time>2026-04-04T09:39:44.242Z</time></trkpt><trkpt lat="43.421918" lon="11.1816893"><ele>175.0</ele><time>2026-04-04T09:39:46.244Z</time></trkpt><trkpt lat="43.4218777" lon="11.1815638"><ele>175.0</ele><time>2026-04-04T09:39:48.236Z</time></trkpt><trkpt lat="43.4218326" lon="11.1814304"><ele>174.8</ele><time>2026-04-04T09:39:50.246Z</time></trkpt><trkpt lat="43.4217888" lon="11.1812975"><ele>174.6</ele><time>2026-04-04T09:39:52.25Z</time></trkpt><trkpt lat="43.4217449" lon="11.1811711"><ele>174.39999999999998</ele><time>2026-04-04T09:39:54.24Z</time></trkpt><trkpt lat="43.421706" lon="11.1810374"><ele>174.2</ele><time>2026-04-04T09:39:56.253Z</time></trkpt><trkpt lat="43.4216653" lon="11.1809255"><ele>174.0</ele><time>2026-04-04T09:39:58.237Z</time></trkpt><trkpt lat="43.4216392" lon="11.1808311"><ele>174.0</ele><time>2026-04-04T09:40:00.254Z</time></trkpt><trkpt lat="43.4216369" lon="11.1807166"><ele>174.0</ele><time>2026-04-04T09:40:03.25Z</time></trkpt><trkpt lat="43.421697" lon="11.1806402"><ele>174.0</ele><time>2026-04-04T09:40:06.244Z</time></trkpt><trkpt lat="43.421756" lon="11.1806055"><ele>174.0</ele><time>2026-04-04T09:40:08.251Z</time></trkpt><trkpt lat="43.4218169" lon="11.1805738"><ele>174.0</ele><time>2026-04-04T09:40:10.249Z</time></trkpt><trkpt lat="43.4219001" lon="11.1805139"><ele>174.0</ele><time>2026-04-04T09:40:13.252Z</time></trkpt><trkpt lat="43.421958" lon="11.1804686"><ele>173.83333333333334</ele><time>2026-04-04T09:40:15.249Z</time></trkpt><trkpt lat="43.4220342" lon="11.1804014"><ele>173.66666666666666</ele><time>2026-04-04T09:40:18.252Z</time></trkpt><trkpt lat="43.4221006" lon="11.1803573"><ele>173.5</ele><time>2026-04-04T09:40:21.237Z</time></trkpt><trkpt lat="43.4221518" lon="11.1804234"><ele>173.33333333333331</ele><time>2026-04-04T09:40:24.245Z</time></trkpt><trkpt lat="43.4221674" lon="11.1805318"><ele>173.16666666666666</ele><time>2026-04-04T09:40:27.238Z</time></trkpt><trkpt lat="43.4221691" lon="11.1806315"><ele>173.0</ele><time>2026-04-04T09:40:29.238Z</time></trkpt><trkpt lat="43.422181" lon="11.1807281"><ele>170.0</ele><time>2026-04-04T09:40:31.24Z</time></trkpt><trkpt lat="43.4221991" lon="11.1808242"><ele>170.0</ele><time>2026-04-04T09:40:33.246Z</time></trkpt><trkpt lat="43.4222097" lon="11.1809479"><ele>170.0</ele><time>2026-04-04T09:40:36.235Z</time></trkpt><trkpt lat="43.4222078" lon="11.1810371"><ele>170.0</ele><time>2026-04-04T09:40:39.253Z</time></trkpt><trkpt lat="43.4221846" lon="11.1811237"><ele>170.0</ele><time>2026-04-04T09:40:46.233Z</time></trkpt><trkpt lat="43.4221962" lon="11.1810045"><ele>170.0</ele><time>2026-04-04T09:43:48.266Z</time></trkpt></trkseg></trk></gpx>